# Wetter Temperatur Luftdruck Luftfeuchtigkeit Sichtweite Windgeschwindigkeit Windrichtung Zeit
1 Fog 15 1012 100 300 2.1 340 00:43 05.04.2020
2 Fog 15 1012 100 300 2.1 340 00:21 05.04.2020
3 Fog 15 1012 100 300 2.1 280 23:42 04.04.2020
4 Fog 15 1012 100 300 2.1 280 23:23 04.04.2020
5 Fog 15 1012 100 300 2.1 310 22:57 04.04.2020
6 Fog 15 1012 100 300 2.1 310 22:39 04.04.2020
7 Fog 15 1012 100 300 2.1 310 22:21 04.04.2020
8 Clouds 16 1012 87 10000 2.1 320 21:58 04.04.2020
9 Clouds 16 1012 87 10000 2.1 320 21:39 04.04.2020
10 Clouds 16 1012 87 10000 2.1 320 21:19 04.04.2020
11 Clouds 17 1012 87 10000 2.1 330 20:58 04.04.2020
12 Clouds 16 1012 87 10000 2.1 330 20:39 04.04.2020
13 Clouds 17 1012 87 10000 2.1 330 20:20 04.04.2020
14 Clouds 18 1012 82 10000 3.1 300 19:56 04.04.2020
15 Clouds 18 1012 82 10000 3.1 300 19:36 04.04.2020
16 Clouds 19 1012 82 10000 3.1 300 19:18 04.04.2020
17 Clouds 20 1012 72 10000 2.1 320 18:55 04.04.2020
18 Clouds 20 1012 72 10000 2.1 320 18:37 04.04.2020
19 Clouds 21 1012 72 10000 2.1 320 18:18 04.04.2020
20 Clouds 22 1012 72 10000 3.1 330 17:40 04.04.2020
21 Clouds 22 1012 72 10000 3.1 330 17:20 04.04.2020
22 Clouds 21 1011 72 10000 7.7 320 16:55 04.04.2020
23 Clouds 21 1011 72 10000 7.7 320 16:37 04.04.2020
24 Clouds 21 1011 72 10000 7.7 320 16:37 04.04.2020
25 Clouds 21 1011 72 10000 7.7 320 16:18 04.04.2020
26 Clouds 23 1011 77 10000 8.7 330 15:40 04.04.2020
27 Clouds 23 1011 77 10000 8.7 330 15:22 04.04.2020
28 Clouds 24 1011 72 10000 8.2 330 14:57 04.04.2020
29 Clouds 23 1011 72 10000 8.2 330 14:39 04.04.2020
30 Clouds 23 1011 72 10000 8.2 330 14:21 04.04.2020
31 Clouds 23 1012 72 10000 8.2 330 13:55 04.04.2020
32 Clouds 24 1012 72 10000 8.2 330 13:37 04.04.2020
33 Clouds 24 1012 72 10000 8.2 330 13:18 04.04.2020
34 Clouds 24 1012 68 10000 6.7 330 12:44 04.04.2020
35 Clouds 24 1012 68 10000 6.7 330 12:23 04.04.2020
36 Clouds 23 1012 64 10000 7.7 320 11:55 04.04.2020
37 Clouds 23 1012 64 10000 7.7 320 11:37 04.04.2020
38 Clouds 23 1012 64 10000 7.7 320 11:18 04.04.2020
39 Clouds 23 1012 68 10000 6.2 320 10:55 04.04.2020
40 Clouds 22 1012 68 10000 6.2 320 10:37 04.04.2020
41 Clouds 22 1012 68 10000 6.2 320 10:18 04.04.2020
42 Clouds 20 1012 77 10000 5.7 330 09:54 04.04.2020
43 Clouds 19 1012 77 10000 5.7 330 09:36 04.04.2020
44 Clear 18 1012 77 10000 5.7 330 09:18 04.04.2020
45 Clear 17 1011 93 10000 4.1 350 08:38 04.04.2020
46 Clear 17 1011 93 10000 4.1 350 08:19 04.04.2020
47 Clear 16 1010 100 10000 3.1 360 07:40 04.04.2020
48 Clear 16 1010 100 10000 3.1 360 07:22 04.04.2020
49 Clouds 16 1010 93 10000 2.1 340 06:46 04.04.2020
50 Clouds 16 1010 93 10000 2.1 340 06:18 04.04.2020
51 Fog 15 1010 93 200 1.5 310 05:40 04.04.2020
52 Fog 15 1010 93 200 1.5 310 05:22 04.04.2020
53 Fog 14 1010 100 400 1 90 04:25 04.04.2020
54 Fog 15 1010 100 400 1 140 03:47 04.04.2020
55 Fog 14 1011 100 400 2.1 180 02:49 04.04.2020
56 Fog 15 1011 100 400 2.1 180 02:30 04.04.2020
57 Fog 15 1011 93 400 3.6 200 01:53 04.04.2020
58 Fog 16 1011 93 400 3.6 200 01:24 04.04.2020
59 Fog 16 1011 93 400 3.6 190 00:48 04.04.2020
60 Fog 16 1011 93 400 3.6 190 00:28 04.04.2020
61 Fog 17 1012 93 400 3.1 200 23:39 03.04.2020
62 Fog 18 1012 93 400 3.1 200 23:21 03.04.2020
63 Fog 18 1012 93 400 3.6 190 22:57 03.04.2020
64 Fog 18 1012 93 400 3.6 190 22:39 03.04.2020
65 Clouds 18 1012 93 10000 4.1 200 22:18 03.04.2020
66 Clear 19 1012 88 10000 3.6 200 21:43 03.04.2020
67 Clouds 19 1012 88 10000 3.6 200 21:24 03.04.2020
68 Clouds 19 1012 88 10000 3.6 200 20:57 03.04.2020
69 Clouds 19 1012 88 10000 3.6 200 20:57 03.04.2020
70 Clouds 20 1012 88 10000 3.6 200 20:37 03.04.2020
71 Clouds 20 1012 88 10000 3.6 200 20:19 03.04.2020
72 Clouds 20 1011 77 10000 3.6 200 19:57 03.04.2020
73 Clouds 21 1011 77 10000 3.6 200 19:38 03.04.2020
74 Clouds 21 1011 77 10000 3.6 200 19:38 03.04.2020
75 Clouds 21 1011 77 10000 3.6 200 19:20 03.04.2020
76 Clouds 22 1011 60 10000 4.1 200 18:58 03.04.2020
77 Clouds 22 1011 60 10000 4.1 200 18:40 03.04.2020
78 Clouds 22 1011 60 10000 4.1 200 18:22 03.04.2020
79 Clouds 26 1011 44 10000 4.1 200 17:54 03.04.2020
80 Clouds 26 1011 44 10000 4.1 200 17:36 03.04.2020
81 Clouds 26 1011 44 10000 4.1 200 17:18 03.04.2020
82 Clouds 27 1011 42 10000 4.1 170 16:42 03.04.2020
83 Clouds 28 1011 42 10000 4.1 170 16:21 03.04.2020
84 Clouds 28 1011 42 10000 4.1 180 15:58 03.04.2020
85 Clouds 28 1011 42 10000 4.1 180 15:39 03.04.2020
86 Clouds 28 1011 42 10000 4.1 180 15:20 03.04.2020
87 Clear 29 1012 42 10000 5.1 200 14:55 03.04.2020
88 Clear 29 1012 42 10000 5.1 200 14:55 03.04.2020
89 Clear 30 1018 41 0 1.34 219 14:37 03.04.2020
90 Clear 29 1012 37 10000 3.6 190 14:19 03.04.2020
91 Clear 29 1012 37 10000 3.6 190 13:42 03.04.2020
92 Clear 29 1012 37 10000 3.6 190 13:24 03.04.2020
93 Clear 30 1013 37 10000 3.1 200 12:44 03.04.2020
94 Clear 29 1013 37 10000 3.1 200 12:21 03.04.2020
95 Clear 29 1013 37 10000 2.6 200 11:57 03.04.2020
96 Clear 28 1013 37 10000 2.6 200 11:39 03.04.2020
97 Clear 27 1013 42 10000 2.6 210 11:21 03.04.2020
98 Clear 27 1013 42 10000 2.6 210 11:21 03.04.2020
99 Clear 26 1013 50 10000 2.1 210 10:59 03.04.2020
100 Clear 26 1013 50 10000 2.1 210 10:39 03.04.2020
101 Clear 24 1013 56 10000 2.1 200 10:20 03.04.2020
102 Clear 24 1013 68 10000 1.5 0 09:59 03.04.2020
103 Clear 25 1013 68 10000 1.5 0 09:40 03.04.2020
104 Clear 23 1013 68 10000 1.5 0 09:40 03.04.2020
105 Clear 20 1013 77 10000 1 0 09:22 03.04.2020
106 Clear 18 1013 93 10000 0.5 0 08:56 03.04.2020
107 Clear 19 1013 93 10000 0.5 0 08:38 03.04.2020
108 Clear 18 1013 93 10000 0.5 0 08:20 03.04.2020
109 Clear 16 1012 87 10000 2.1 180 07:46 03.04.2020
110 Clear 16 1012 87 10000 2.1 180 07:28 03.04.2020
111 Clear 16 1013 87 10000 0.5 0 06:41 03.04.2020
112 Clear 16 1013 87 10000 0.5 0 06:22 03.04.2020
113 Clear 17 1012 82 10000 0.5 0 05:39 03.04.2020
114 Clear 18 1013 77 10000 1 0 03:42 03.04.2020
115 Clear 16 1013 82 10000 1 340 02:56 03.04.2020
116 Clear 17 1013 82 10000 1 340 02:18 03.04.2020
117 Clear 17 1014 77 10000 1 0 01:22 03.04.2020
118 Clear 18 1014 72 10000 0.5 0 00:36 03.04.2020
119 Clear 18 1014 72 10000 0.5 0 00:18 03.04.2020
120 Clear 19 1014 72 10000 3.6 200 23:40 02.04.2020
121 Clear 19 1014 72 10000 3.6 200 23:21 02.04.2020
122 Clear 19 1015 72 10000 4.1 210 22:57 02.04.2020
123 Clear 19 1015 72 10000 4.1 210 22:37 02.04.2020
124 Clear 19 1015 72 10000 4.1 210 22:18 02.04.2020
125 Clear 19 1015 72 10000 2.6 200 21:39 02.04.2020
126 Clear 19 1015 72 10000 2.6 200 21:20 02.04.2020
127 Clear 19 1015 77 10000 4.6 220 20:58 02.04.2020
128 Clear 19 1015 77 10000 4.6 220 20:40 02.04.2020
129 Clear 19 1015 77 10000 4.6 220 20:21 02.04.2020
130 Clear 20 1015 72 10000 5.7 210 19:44 02.04.2020
131 Clear 22 1015 72 10000 5.7 210 19:21 02.04.2020
132 Clear 22 1015 64 10000 5.7 210 18:58 02.04.2020
133 Clear 22 1015 64 10000 5.7 210 18:39 02.04.2020
134 Clear 22 1015 64 10000 5.7 210 18:39 02.04.2020
135 Clear 22 1015 64 10000 5.7 210 18:39 02.04.2020
136 Clear 24 1015 64 10000 5.7 210 18:20 02.04.2020
137 Clear 24 1015 53 10000 5.7 210 17:56 02.04.2020
138 Clear 24 1015 53 10000 5.7 210 17:38 02.04.2020
139 Clear 26 1015 53 10000 5.7 210 17:19 02.04.2020
140 Clear 27 1015 41 10000 6.2 200 16:55 02.04.2020
141 Clear 27 1015 41 10000 6.2 200 16:37 02.04.2020
142 Clear 27 1015 41 10000 6.2 200 16:19 02.04.2020
143 Clear 27 1015 36 10000 5.1 200 15:44 02.04.2020
144 Clear 28 1015 36 10000 5.1 200 15:21 02.04.2020
145 Clear 28 1016 34 10000 4.6 200 14:59 02.04.2020
146 Clear 28 1016 34 10000 4.6 200 14:40 02.04.2020
147 Clear 29 1016 34 10000 4.6 200 14:20 02.04.2020
148 Clear 28 1017 36 10000 3.6 200 13:57 02.04.2020
149 Clear 28 1017 36 10000 3.6 200 13:38 02.04.2020
150 Clear 28 1017 36 10000 3.6 200 13:38 02.04.2020
151 Clear 28 1017 36 10000 3.6 200 13:20 02.04.2020
152 Clear 28 1017 39 10000 4.1 190 12:56 02.04.2020
153 Clear 28 1017 39 10000 4.1 190 12:37 02.04.2020
154 Clear 28 1017 39 10000 4.1 190 12:19 02.04.2020
155 Clear 27 1018 41 10000 3.1 200 11:56 02.04.2020
156 Clear 27 1018 41 10000 3.1 200 11:37 02.04.2020
157 Clear 27 1018 41 10000 3.1 200 11:37 02.04.2020
158 Clear 25 1018 49 10000 2.1 200 11:18 02.04.2020
159 Clear 24 1018 52 10000 2.6 210 10:54 02.04.2020
160 Clear 23 1018 52 10000 2.6 210 10:36 02.04.2020
161 Clear 23 1018 52 10000 2.6 210 10:18 02.04.2020
162 Clear 21 1019 63 10000 3.1 220 09:43 02.04.2020
163 Clear 21 1019 63 10000 3.1 220 09:24 02.04.2020
164 Clear 18 1018 72 10000 2.1 240 08:58 02.04.2020
165 Clear 18 1018 72 10000 2.1 240 08:40 02.04.2020
166 Clear 18 1018 72 10000 2.1 240 08:20 02.04.2020
167 Clear 17 1018 72 10000 2.6 230 07:43 02.04.2020
168 Clear 16 1018 72 10000 2.6 230 07:20 02.04.2020
169 Clear 16 1018 72 10000 1.5 0 06:57 02.04.2020
170 Clear 17 1018 72 10000 1.5 0 06:21 02.04.2020
171 Clear 17 1018 72 10000 2.6 220 05:42 02.04.2020
172 Clear 17 1018 72 10000 3.6 240 03:57 02.04.2020
173 Clear 18 1026 70 0 2.24 275 01:34 02.04.2020
174 Clear 18 1019 55 10000 4.1 210 00:46 02.04.2020
175 Clear 18 1020 55 10000 3.1 200 00:26 02.04.2020
176 Clear 19 1020 55 10000 3.1 200 23:41 01.04.2020
177 Clear 18 1020 55 10000 3.1 200 23:20 01.04.2020
178 Clear 19 1020 56 10000 2.6 200 22:59 01.04.2020
179 Clear 19 1020 56 10000 2.6 200 22:39 01.04.2020
180 Clear 19 1020 56 10000 2.6 200 22:21 01.04.2020
181 Clear 20 1020 56 10000 4.6 130 21:55 01.04.2020
182 Clear 20 1020 56 10000 4.6 130 21:36 01.04.2020
183 Clear 20 1020 56 10000 4.6 130 21:18 01.04.2020
184 Clear 20 1020 52 10000 5.1 140 20:54 01.04.2020
185 Clear 20 1020 52 10000 5.1 140 20:36 01.04.2020
186 Clear 21 1020 52 10000 5.1 140 20:18 01.04.2020
187 Clear 21 1020 56 10000 3.1 190 19:41 01.04.2020
188 Clear 21 1020 56 10000 3.1 190 19:21 01.04.2020
189 Clear 23 1019 39 10000 5.7 150 18:46 01.04.2020
190 Clear 24 1019 39 10000 5.7 150 18:27 01.04.2020
191 Clear 26 1020 34 10000 7.7 160 17:59 01.04.2020
192 Clear 26 1020 34 10000 7.7 160 17:59 01.04.2020
193 Clear 27 1020 34 10000 7.7 160 17:39 01.04.2020
194 Clear 26 1020 34 10000 7.7 160 17:20 01.04.2020
195 Clear 26 1020 34 10000 7.7 160 16:59 01.04.2020
196 Clear 27 1020 34 10000 7.7 160 16:41 01.04.2020
197 Clear 27 1020 34 10000 7.7 160 16:22 01.04.2020
198 Clear 27 1020 34 10000 5.1 130 15:58 01.04.2020
199 Clear 28 1020 34 10000 5.1 130 15:38 01.04.2020
200 Clear 28 1020 34 10000 5.1 130 15:38 01.04.2020
201 Clear 28 1020 34 10000 5.1 130 15:20 01.04.2020
202 Clear 27 1021 36 10000 6.7 150 14:57 01.04.2020
203 Clear 27 1021 36 10000 6.7 150 14:38 01.04.2020
204 Clear 27 1021 36 10000 6.7 150 14:19 01.04.2020
205 Clouds 26 1022 39 10000 5.7 140 13:57 01.04.2020
206 Clouds 26 1022 39 10000 5.7 140 13:37 01.04.2020
207 Clouds 26 1022 39 10000 5.7 140 13:18 01.04.2020
208 Clouds 26 1022 39 10000 4.1 130 12:54 01.04.2020
209 Clouds 26 1022 39 10000 4.1 130 12:36 01.04.2020
210 Clouds 26 1022 39 10000 4.1 130 12:18 01.04.2020
211 Clouds 25 1023 44 10000 4.6 130 11:40 01.04.2020
212 Clouds 24 1023 44 10000 4.6 130 11:21 01.04.2020
213 Clouds 24 1023 49 10000 5.7 130 10:57 01.04.2020
214 Clouds 23 1023 49 10000 5.7 130 10:37 01.04.2020
215 Clouds 23 1023 49 10000 5.7 130 10:18 01.04.2020
216 Clouds 21 1023 60 10000 5.7 140 09:54 01.04.2020
217 Clouds 21 1023 68 10000 7.7 150 09:36 01.04.2020
218 Clouds 19 1023 68 10000 7.7 150 09:18 01.04.2020
219 Clouds 18 1023 72 10000 6.7 150 08:40 01.04.2020
220 Clouds 18 1023 72 10000 6.7 150 08:18 01.04.2020
221 Clouds 17 1022 72 10000 8.7 150 07:42 01.04.2020
222 Clouds 17 1022 72 10000 8.7 150 07:20 01.04.2020
223 Clouds 17 1022 72 10000 8.7 150 06:47 01.04.2020
224 Clouds 17 1022 72 10000 8.7 150 06:23 01.04.2020
225 Clouds 17 1022 67 10000 8.7 150 05:55 01.04.2020
226 Clouds 17 1022 63 10000 10.3 160 04:30 01.04.2020
227 Clouds 16 1022 72 10000 7.2 160 03:28 01.04.2020
228 Clouds 16 1022 72 10000 6.2 170 02:49 01.04.2020
229 Clouds 16 1022 72 10000 8.2 160 01:56 01.04.2020
230 Clouds 16 1022 72 10000 8.2 160 01:37 01.04.2020
231 Clouds 17 1022 72 10000 8.2 160 01:18 01.04.2020
232 Clouds 17 1022 67 10000 8.2 160 00:43 01.04.2020
233 Clouds 17 1022 67 10000 8.2 160 00:18 01.04.2020
234 Clouds 17 1022 77 10000 7.7 150 23:42 31.03.2020
235 Clouds 17 1022 77 10000 7.7 150 23:23 31.03.2020
236 Clouds 17 1021 77 10000 9.3 160 22:58 31.03.2020
237 Clouds 17 1021 77 10000 9.3 160 22:37 31.03.2020
238 Clouds 17 1021 77 10000 9.3 160 22:19 31.03.2020
239 Clouds 17 1021 72 10000 6.2 150 21:56 31.03.2020
240 Clouds 17 1021 72 10000 6.2 150 21:37 31.03.2020
241 Clouds 17 1021 72 10000 6.2 150 21:19 31.03.2020
242 Clouds 17 1020 72 10000 7.2 160 20:55 31.03.2020
243 Clouds 17 1020 72 10000 7.2 160 20:36 31.03.2020
244 Clouds 17 1020 72 10000 7.2 160 20:18 31.03.2020
245 Clouds 17 1020 72 10000 7.2 160 20:18 31.03.2020
246 Clouds 17 1019 77 10000 9.3 170 19:41 31.03.2020
247 Clouds 17 1019 77 10000 9.3 170 19:22 31.03.2020
248 Clouds 18 1019 72 10000 10.8 170 18:58 31.03.2020
249 Clouds 18 1019 72 10000 10.8 170 18:39 31.03.2020
250 Clouds 18 1019 72 10000 10.8 170 18:18 31.03.2020
251 Clouds 20 1018 64 10000 10.8 170 17:55 31.03.2020
252 Clouds 20 1018 64 10000 10.8 170 17:37 31.03.2020
253 Clouds 21 1018 64 10000 10.8 170 17:18 31.03.2020
254 Clouds 21 1018 56 10000 10.3 170 16:40 31.03.2020
255 Clouds 21 1018 56 10000 10.3 170 16:19 31.03.2020
256 Clouds 22 1017 53 10000 10.3 190 15:57 31.03.2020
257 Clouds 22 1017 53 10000 10.3 190 15:39 31.03.2020
258 Clouds 22 1017 53 10000 10.3 190 15:20 31.03.2020
259 Clouds 22 1017 49 10000 8.2 180 14:57 31.03.2020
260 Clouds 22 1017 49 10000 8.2 180 14:38 31.03.2020
261 Clouds 22 1017 49 10000 8.2 180 14:20 31.03.2020
262 Clouds 21 1017 52 10000 8.7 180 13:43 31.03.2020
263 Clouds 21 1017 52 10000 8.7 180 13:20 31.03.2020
264 Clouds 21 1017 52 10000 8.7 180 13:20 31.03.2020
265 Clouds 22 1017 46 10000 7.2 170 12:57 31.03.2020
266 Clouds 22 1017 46 10000 7.2 170 12:39 31.03.2020
267 Clouds 22 1017 46 10000 7.2 170 12:19 31.03.2020
268 Clouds 21 1017 52 10000 7.2 190 11:39 31.03.2020
269 Clouds 21 1017 52 10000 7.2 190 11:20 31.03.2020
270 Clouds 20 1016 60 10000 5.7 180 10:58 31.03.2020
271 Clouds 20 1016 60 10000 5.7 180 10:58 31.03.2020
272 Clouds 20 1016 60 10000 5.7 180 10:40 31.03.2020
273 Clouds 20 1016 60 10000 5.7 180 10:21 31.03.2020
274 Clouds 19 1015 68 10000 4.1 180 09:57 31.03.2020
275 Clouds 19 1015 68 10000 4.1 180 09:39 31.03.2020
276 Clouds 18 1015 68 10000 4.1 180 09:21 31.03.2020
277 Clouds 18 1015 68 10000 4.1 190 08:57 31.03.2020
278 Clouds 17 1015 68 10000 4.1 190 08:38 31.03.2020
279 Clouds 16 1014 77 10000 3.6 200 08:19 31.03.2020
280 Clouds 16 1014 82 10000 4.1 200 07:56 31.03.2020
281 Clouds 16 1014 82 10000 4.1 200 07:37 31.03.2020
282 Clouds 16 1014 82 10000 4.1 200 07:18 31.03.2020
283 Clouds 16 1013 82 10000 3.6 220 06:43 31.03.2020
284 Clouds 16 1013 82 10000 3.6 220 06:18 31.03.2020
285 Clouds 16 1012 82 10000 4.1 230 05:39 31.03.2020
286 Clouds 16 1011 77 10000 3.6 200 03:34 31.03.2020
287 Clouds 16 1011 77 10000 5.7 210 01:54 31.03.2020
288 Clouds 16 1011 77 10000 5.7 210 01:34 31.03.2020
289 Clouds 16 1011 77 10000 7.2 190 00:47 31.03.2020
290 Clouds 16 1011 77 10000 7.2 190 00:25 31.03.2020
291 Clouds 16 1011 82 10000 7.7 200 23:42 30.03.2020
292 Clouds 16 1011 82 10000 7.7 200 23:20 30.03.2020
293 Clouds 16 1011 82 10000 7.2 200 22:59 30.03.2020
294 Clouds 17 1011 82 10000 7.2 200 22:41 30.03.2020
295 Clouds 17 1011 82 10000 7.2 200 22:22 30.03.2020
296 Clouds 17 1011 82 10000 8.7 200 21:58 30.03.2020
297 Clouds 17 1011 82 10000 8.7 200 21:39 30.03.2020
298 Clouds 17 1011 82 10000 8.7 200 21:39 30.03.2020
299 Clouds 17 1011 82 10000 8.7 200 21:21 30.03.2020
300 Clouds 17 1011 77 10000 9.8 200 20:59 30.03.2020
301 Clouds 17 1011 77 10000 9.8 200 20:39 30.03.2020
302 Clouds 17 1011 77 10000 9.8 200 20:21 30.03.2020
303 Clouds 18 1011 72 10000 10.8 200 19:58 30.03.2020
304 Clouds 18 1011 72 10000 10.8 200 19:39 30.03.2020
305 Clouds 18 1011 72 10000 10.8 200 19:21 30.03.2020
306 Clouds 18 1010 68 10000 9.3 190 18:56 30.03.2020
307 Clouds 19 1010 68 10000 9.3 190 18:36 30.03.2020
308 Clouds 19 1010 68 10000 9.3 190 18:18 30.03.2020
309 Clear 20 1010 60 10000 11.3 190 17:55 30.03.2020
310 Clear 21 1010 60 10000 11.3 190 17:36 30.03.2020
311 Clear 20 1010 60 10000 11.3 190 17:18 30.03.2020
312 Clear 22 1010 60 10000 9.8 180 16:41 30.03.2020
313 Clear 21 1010 60 10000 9.8 180 16:21 30.03.2020
314 Clear 22 1011 56 10000 8.7 190 15:57 30.03.2020
315 Clear 22 1011 56 10000 8.7 190 15:39 30.03.2020
316 Clear 22 1011 56 10000 8.7 190 15:21 30.03.2020
317 Clear 22 1011 56 10000 7.7 180 14:58 30.03.2020
318 Clear 22 1011 56 10000 7.7 180 14:38 30.03.2020
319 Clouds 22 1011 56 10000 7.7 180 14:19 30.03.2020
320 Clouds 22 1012 52 10000 6.7 190 13:58 30.03.2020
321 Clouds 22 1012 52 10000 6.7 190 13:39 30.03.2020
322 Clouds 22 1012 52 10000 6.7 190 13:20 30.03.2020
323 Clouds 21 1012 56 10000 6.7 200 12:45 30.03.2020
324 Clouds 21 1012 56 10000 6.7 200 12:22 30.03.2020
325 Clouds 21 1013 59 10000 5.1 200 11:59 30.03.2020
326 Clouds 20 1013 59 10000 5.1 200 11:41 30.03.2020
327 Clouds 20 1013 59 10000 5.1 200 11:22 30.03.2020
328 Clouds 19 1013 68 10000 4.1 220 10:57 30.03.2020
329 Clouds 18 1013 68 10000 4.1 220 10:37 30.03.2020
330 Clouds 18 1013 68 10000 4.1 220 10:19 30.03.2020
331 Clouds 17 1013 82 10000 2.1 220 09:40 30.03.2020
332 Clouds 17 1013 82 10000 2.1 220 09:40 30.03.2020
333 Clear 16 1013 82 10000 2.1 220 09:20 30.03.2020
334 Clear 16 1013 82 10000 2.1 220 09:20 30.03.2020
335 Clear 15 1013 87 10000 2.6 200 08:57 30.03.2020
336 Clear 15 1013 87 10000 2.6 200 08:38 30.03.2020
337 Mist 13 1012 87 4000 2.1 190 08:19 30.03.2020
338 Mist 13 1012 93 4000 3.6 220 07:43 30.03.2020
339 Clear 13 1012 93 10000 3.1 230 07:23 30.03.2020
340 Clear 13 1013 93 10000 2.6 240 06:47 30.03.2020
341 Clear 13 1013 93 10000 2.6 240 06:25 30.03.2020
342 Clear 14 1013 87 10000 3.6 240 05:44 30.03.2020
343 Clear 14 1013 87 10000 4.1 240 04:31 30.03.2020
344 Clear 14 1014 87 10000 4.1 240 03:57 30.03.2020
345 Clear 15 1015 87 10000 4.1 240 02:45 30.03.2020
346 Clear 15 1015 82 10000 4.1 230 01:58 30.03.2020
347 Clear 15 1015 82 10000 4.1 230 01:18 30.03.2020
348 Clear 16 1016 72 10000 4.1 200 00:29 30.03.2020
349 Clear 16 1016 72 10000 5.7 190 23:56 29.03.2020
350 Clear 16 1016 72 10000 5.7 190 23:37 29.03.2020
351 Clear 16 1016 72 10000 5.7 190 23:37 29.03.2020
352 Clear 16 1016 72 10000 5.7 190 23:19 29.03.2020
353 Clear 16 1017 72 10000 5.7 210 22:55 29.03.2020
354 Clear 16 1017 72 10000 5.7 210 22:37 29.03.2020
355 Clear 16 1017 72 10000 5.7 210 22:18 29.03.2020
356 Clear 17 1017 67 10000 6.7 200 21:38 29.03.2020
357 Clear 17 1017 67 10000 6.7 200 21:20 29.03.2020
358 Clear 17 1017 67 10000 8.2 200 20:56 29.03.2020
359 Clear 17 1017 67 10000 8.2 200 20:37 29.03.2020
360 Clear 17 1017 67 10000 8.2 200 20:37 29.03.2020
361 Clear 17 1017 67 10000 8.2 200 20:37 29.03.2020
362 Clear 17 1017 67 10000 8.2 200 20:19 29.03.2020
363 Clear 17 1017 67 10000 9.3 190 19:57 29.03.2020
364 Clear 17 1017 67 10000 9.3 190 19:39 29.03.2020
365 Clear 18 1017 67 10000 9.3 190 19:21 29.03.2020
366 Clear 19 1017 59 10000 10.3 190 18:57 29.03.2020
367 Clear 19 1017 59 10000 10.3 190 18:38 29.03.2020
368 Clear 19 1017 59 10000 10.3 190 18:19 29.03.2020
369 Clear 20 1017 52 10000 10.3 190 17:56 29.03.2020
370 Clear 20 1017 52 10000 10.3 190 17:37 29.03.2020
371 Clear 20 1017 52 10000 10.3 190 17:18 29.03.2020
372 Clear 21 1018 49 10000 11.3 190 16:56 29.03.2020
373 Clear 21 1018 49 10000 11.3 190 16:38 29.03.2020
374 Clear 21 1018 49 10000 11.3 190 16:18 29.03.2020
375 Clouds 22 1018 52 10000 11.8 190 15:41 29.03.2020
376 Clouds 22 1018 52 10000 11.8 190 15:41 29.03.2020
377 Clouds 22 1018 52 10000 11.8 190 15:23 29.03.2020
378 Clouds 22 1018 56 10000 10.8 180 14:58 29.03.2020
379 Clouds 22 1018 56 10000 10.8 180 14:40 29.03.2020
380 Clouds 22 1018 56 10000 10.8 180 14:20 29.03.2020
381 Clouds 22 1018 60 10000 10.8 190 13:58 29.03.2020
382 Clouds 22 1018 60 10000 10.8 190 13:40 29.03.2020
383 Clouds 22 1018 60 10000 10.8 190 13:20 29.03.2020
384 Clouds 22 1019 56 10000 9.8 190 12:56 29.03.2020
385 Clouds 22 1019 56 10000 9.8 190 12:37 29.03.2020
386 Clouds 22 1019 56 10000 9.8 190 12:37 29.03.2020
387 Clouds 22 1019 56 10000 9.8 190 12:19 29.03.2020
388 Clear 22 1019 56 10000 7.7 180 11:55 29.03.2020
389 Clear 22 1019 56 10000 7.7 180 11:37 29.03.2020
390 Clear 21 1019 56 10000 7.7 180 11:18 29.03.2020
391 Clear 21 1019 60 10000 6.2 200 10:38 29.03.2020
392 Clear 21 1019 60 10000 6.2 200 10:19 29.03.2020
393 Clear 20 1019 68 10000 4.6 190 09:41 29.03.2020
394 Clear 20 1019 68 10000 4.6 190 09:22 29.03.2020
395 Clouds 18 1018 82 10000 3.6 200 08:56 29.03.2020
396 Clouds 17 1018 82 10000 3.6 200 08:38 29.03.2020
397 Clouds 17 1018 82 10000 3.6 200 08:19 29.03.2020
398 Clouds 16 1018 87 10000 3.1 190 07:42 29.03.2020
399 Clouds 16 1018 87 10000 3.1 190 07:21 29.03.2020
400 Clouds 15 1018 87 10000 3.1 200 05:58 29.03.2020
401 Clouds 16 1018 87 10000 3.1 180 04:55 29.03.2020
402 Clouds 16 1018 87 10000 4.1 210 03:33 29.03.2020
403 Clouds 16 1018 82 10000 2.1 190 01:52 29.03.2020
404 Clouds 16 1018 82 10000 2.1 190 01:24 29.03.2020
405 Clouds 17 1018 82 10000 5.1 190 00:58 29.03.2020
406 Clouds 17 1018 82 10000 5.1 190 00:34 29.03.2020
407 Clouds 17 1018 88 10000 5.1 180 23:59 28.03.2020
408 Clouds 17 1018 88 10000 5.1 180 23:40 28.03.2020
409 Clouds 17 1018 88 10000 5.1 180 23:22 28.03.2020
410 Clouds 18 1018 93 10000 4.6 200 22:42 28.03.2020
411 Clouds 18 1018 82 10000 3.1 200 22:22 28.03.2020
412 Clouds 18 1018 82 10000 3.1 200 21:57 28.03.2020
413 Clouds 18 1018 82 10000 3.1 200 21:39 28.03.2020
414 Clouds 18 1018 82 10000 3.1 200 21:19 28.03.2020
415 Clouds 18 1018 82 10000 2.6 150 20:56 28.03.2020
416 Clouds 17 1018 82 10000 2.6 150 20:37 28.03.2020
417 Clouds 18 1018 82 10000 2.6 150 20:18 28.03.2020
418 Clouds 18 1017 77 10000 2.6 130 19:55 28.03.2020
419 Clouds 18 1017 77 10000 2.6 130 19:36 28.03.2020
420 Clouds 18 1017 77 10000 2.6 130 19:18 28.03.2020
421 Clear 19 1017 68 10000 3.6 150 18:39 28.03.2020
422 Clear 19 1017 68 10000 3.6 150 18:20 28.03.2020
423 Clear 20 1017 56 10000 4.1 180 17:41 28.03.2020
424 Clear 21 1017 56 10000 4.1 180 17:22 28.03.2020
425 Clouds 22 1016 53 10000 5.7 180 16:59 28.03.2020
426 Clouds 22 1016 53 10000 5.7 180 16:38 28.03.2020
427 Clouds 22 1016 53 10000 5.7 180 16:18 28.03.2020
428 Clouds 22 1016 53 10000 5.7 160 15:40 28.03.2020
429 Clouds 22 1016 53 10000 5.7 160 15:40 28.03.2020
430 Clouds 23 1016 53 10000 5.7 160 15:20 28.03.2020
431 Clear 22 1016 53 10000 3.6 170 14:59 28.03.2020
432 Clear 22 1016 53 10000 3.6 170 14:40 28.03.2020
433 Clouds 22 1016 53 10000 3.6 170 14:21 28.03.2020
434 Clouds 22 1016 49 10000 3.6 170 13:43 28.03.2020
435 Clouds 22 1016 49 10000 3.6 170 13:23 28.03.2020
436 Clouds 22 1016 49 10000 4.6 170 12:41 28.03.2020
437 Clouds 22 1016 49 10000 4.6 170 12:22 28.03.2020
438 Clouds 22 1017 46 10000 5.1 180 11:55 28.03.2020
439 Clouds 22 1017 46 10000 5.1 180 11:37 28.03.2020
440 Clouds 22 1017 46 10000 5.1 180 11:18 28.03.2020
441 Clouds 21 1017 64 10000 4.6 170 10:39 28.03.2020
442 Clouds 21 1017 64 10000 4.6 170 10:20 28.03.2020
443 Clouds 20 1016 72 10000 6.2 190 09:43 28.03.2020
444 Clouds 20 1016 72 10000 6.2 190 09:24 28.03.2020
445 Clouds 20 1016 72 10000 4.6 190 08:58 28.03.2020
446 Clouds 19 1016 82 10000 2.1 180 08:40 28.03.2020
447 Clouds 18 1016 82 10000 2.1 180 08:21 28.03.2020
448 Clouds 17 1016 87 10000 1 0 07:44 28.03.2020
449 Clouds 15 1015 93 10000 1 0 07:26 28.03.2020
450 Clouds 13 1015 93 10000 2.1 110 06:36 28.03.2020
451 Clouds 13 1014 93 10000 4.1 120 05:54 28.03.2020
452 Clouds 13 1014 93 10000 4.1 120 05:21 28.03.2020
453 Clouds 12 1014 87 10000 1.5 0 04:42 28.03.2020
454 Clouds 12 1013 87 10000 2.6 340 03:54 28.03.2020
455 Clouds 14 1013 87 10000 2.1 60 02:25 28.03.2020
456 Clouds 14 1013 87 10000 2.1 60 01:43 28.03.2020
457 Clouds 14 1013 87 10000 2.1 60 01:18 28.03.2020
458 Clouds 13 1013 87 10000 0.5 0 00:45 28.03.2020
459 Clouds 14 1014 82 0 2.68 200 23:59 27.03.2020
460 Clouds 14 1014 82 0 2.68 200 23:41 27.03.2020
461 Clouds 14 1014 82 0 2.68 200 23:41 27.03.2020
462 Clouds 14 1014 82 10000 3.1 200 23:21 27.03.2020
463 Clouds 14 1014 82 10000 3.1 200 22:56 27.03.2020
464 Clouds 14 1014 82 10000 3.1 200 22:38 27.03.2020
465 Clouds 14 1014 82 10000 3.1 200 22:20 27.03.2020
466 Clouds 15 1015 82 10000 4.1 230 21:45 27.03.2020
467 Clouds 15 1015 82 10000 4.1 230 21:25 27.03.2020
468 Clouds 16 1015 77 10000 4.6 220 20:59 27.03.2020
469 Clouds 16 1015 77 10000 4.6 220 20:41 27.03.2020
470 Clouds 16 1015 77 10000 4.6 220 20:21 27.03.2020
471 Clouds 16 1015 77 10000 4.6 210 19:58 27.03.2020
472 Clouds 16 1015 77 10000 4.6 210 19:40 27.03.2020
473 Clouds 17 1015 77 10000 4.6 210 19:21 27.03.2020
474 Clouds 17 1016 72 10000 4.6 200 18:56 27.03.2020
475 Clouds 17 1016 72 10000 4.6 200 18:38 27.03.2020
476 Clouds 18 1016 72 10000 4.6 200 18:19 27.03.2020
477 Clouds 19 1015 59 10000 6.2 210 17:40 27.03.2020
478 Clouds 20 1015 59 10000 6.2 210 17:20 27.03.2020
479 Clouds 21 1015 43 10000 5.7 200 16:54 27.03.2020
480 Clouds 21 1015 43 10000 5.7 200 16:36 27.03.2020
481 Clouds 22 1015 43 10000 5.7 200 16:18 27.03.2020
482 Clouds 22 1015 38 10000 6.2 190 15:41 27.03.2020
483 Clouds 23 1015 38 10000 6.2 190 15:22 27.03.2020
484 Clouds 23 1016 35 10000 6.2 190 14:46 27.03.2020
485 Clouds 23 1016 35 10000 6.2 190 14:25 27.03.2020
486 Clouds 23 1016 35 10000 6.2 190 14:25 27.03.2020
487 Clouds 24 1016 33 10000 4.6 210 13:56 27.03.2020
488 Clouds 24 1016 33 10000 4.6 210 13:37 27.03.2020
489 Clouds 24 1016 33 10000 4.6 210 13:19 27.03.2020
490 Clouds 23 1016 35 10000 5.1 210 12:51 27.03.2020
491 Clouds 23 1016 35 10000 5.1 210 12:21 27.03.2020
492 Clouds 24 1017 33 10000 2.1 270 11:59 27.03.2020
493 Clouds 23 1017 33 10000 2.1 270 11:41 27.03.2020
494 Clouds 22 1017 33 10000 2.1 270 11:22 27.03.2020
495 Clouds 23 1017 31 10000 2.1 220 10:54 27.03.2020
496 Clouds 21 1018 37 10000 1.5 0 10:36 27.03.2020
497 Clouds 21 1018 37 10000 1.5 0 10:18 27.03.2020
498 Clouds 20 1018 48 10000 4.6 240 09:56 27.03.2020
499 Clouds 20 1018 48 10000 4.6 240 09:37 27.03.2020
500 Clouds 20 1018 48 10000 4.6 240 09:18 27.03.2020
501 Clouds 18 1017 55 10000 3.6 270 08:54 27.03.2020
502 Clouds 18 1017 55 10000 3.6 270 08:36 27.03.2020
503 Clear 17 1017 55 10000 3.6 270 08:18 27.03.2020
504 Clear 16 1017 62 10000 2.1 290 07:49 27.03.2020
505 Clear 14 1017 76 10000 2.1 310 07:22 27.03.2020
506 Clear 13 1017 76 10000 0.5 0 06:45 27.03.2020
507 Clear 13 1017 66 10000 2.6 160 06:26 27.03.2020
508 Clear 15 1017 62 10000 7.7 170 03:42 27.03.2020
509 Clear 15 1018 62 10000 8.7 160 02:25 27.03.2020
510 Clear 15 1019 62 10000 10.8 170 01:22 27.03.2020
511 Clear 15 1019 62 10000 8.2 180 00:47 27.03.2020
512 Clear 15 1019 62 10000 8.2 180 00:23 27.03.2020
513 Clear 15 1020 62 10000 8.7 170 23:42 26.03.2020
514 Clear 15 1020 62 10000 8.7 170 23:21 26.03.2020
515 Clear 15 1020 67 10000 7.7 180 22:58 26.03.2020
516 Clear 15 1020 67 10000 7.7 180 22:37 26.03.2020
517 Clear 15 1020 67 10000 7.7 180 22:19 26.03.2020
518 Clear 15 1021 67 10000 6.7 170 21:55 26.03.2020
519 Clear 15 1021 67 10000 6.7 170 21:36 26.03.2020
520 Clear 16 1021 67 10000 6.7 170 21:18 26.03.2020
521 Clear 16 1021 67 10000 6.7 160 20:41 26.03.2020
522 Clear 16 1021 67 10000 6.7 160 20:23 26.03.2020
523 Clear 16 1021 67 10000 6.7 160 20:23 26.03.2020
524 Clear 16 1020 62 10000 8.2 160 19:58 26.03.2020
525 Clear 16 1020 62 10000 8.2 160 19:40 26.03.2020
526 Clear 16 1020 62 10000 8.2 160 19:22 26.03.2020
527 Clouds 16 1020 59 10000 8.7 170 18:59 26.03.2020
528 Clouds 16 1020 59 10000 8.7 170 18:41 26.03.2020
529 Clouds 16 1020 59 10000 8.7 170 18:23 26.03.2020
530 Clouds 17 1020 55 10000 8.7 170 17:45 26.03.2020
531 Clouds 18 1020 55 10000 8.7 170 17:20 26.03.2020
532 Clouds 18 1020 55 10000 8.7 170 17:20 26.03.2020
533 Clouds 18 1019 42 10000 8.7 180 16:59 26.03.2020
534 Clouds 19 1019 42 10000 8.7 180 16:38 26.03.2020
535 Clouds 19 1019 42 10000 8.7 180 16:20 26.03.2020
536 Clouds 19 1020 39 10000 10.8 180 15:56 26.03.2020
537 Clouds 19 1020 39 10000 10.8 180 15:38 26.03.2020
538 Clouds 20 1020 39 10000 10.8 180 15:19 26.03.2020
539 Clouds 20 1019 37 10000 9.3 180 14:43 26.03.2020
540 Clouds 21 1019 37 10000 9.3 180 14:25 26.03.2020
541 Clouds 21 1019 37 10000 9.3 180 14:25 26.03.2020
542 Clouds 19 1020 39 10000 9.8 180 13:58 26.03.2020
543 Clouds 20 1020 39 10000 9.8 180 13:40 26.03.2020
544 Clouds 19 1020 39 10000 9.8 180 13:21 26.03.2020
545 Clouds 19 1020 45 10000 9.3 170 12:39 26.03.2020
546 Clouds 19 1020 45 10000 9.3 170 12:21 26.03.2020
547 Clouds 19 1020 45 10000 8.2 160 11:56 26.03.2020
548 Clouds 19 1020 45 10000 8.2 160 11:56 26.03.2020
549 Clouds 19 1020 45 10000 8.2 160 11:37 26.03.2020
550 Clouds 19 1020 45 10000 8.2 160 11:19 26.03.2020
551 Clouds 18 1020 48 10000 8.2 150 10:42 26.03.2020
552 Clouds 19 1020 48 10000 8.2 150 10:20 26.03.2020
553 Clouds 19 1020 48 10000 8.2 150 10:20 26.03.2020
554 Clouds 19 1020 48 10000 7.7 150 09:46 26.03.2020
555 Clouds 19 1020 48 10000 7.7 150 09:24 26.03.2020
556 Clouds 18 1020 51 10000 7.7 150 08:58 26.03.2020
557 Clouds 17 1020 51 10000 7.7 150 08:40 26.03.2020
558 Clouds 17 1020 51 10000 7.7 150 08:22 26.03.2020
559 Clouds 16 1019 62 10000 5.7 150 07:56 26.03.2020
560 Clouds 16 1019 62 10000 5.7 150 07:38 26.03.2020
561 Clouds 16 1019 62 10000 5.7 150 07:19 26.03.2020
562 Clouds 15 1019 67 10000 5.7 160 06:33 26.03.2020
563 Clouds 15 1018 62 10000 7.2 150 05:48 26.03.2020
564 Clouds 15 1018 62 10000 7.2 180 03:46 26.03.2020
565 Clouds 15 1018 62 10000 7.2 180 03:18 26.03.2020
566 Clouds 15 1018 58 10000 6.2 180 02:50 26.03.2020
567 Clouds 15 1018 67 10000 7.2 190 01:19 26.03.2020
568 Clouds 16 1018 62 10000 6.2 200 00:32 26.03.2020
569 Clouds 16 1017 59 10000 6.2 180 23:44 25.03.2020
570 Clouds 16 1017 59 10000 6.2 180 23:26 25.03.2020
571 Clouds 16 1017 63 10000 7.2 190 22:55 25.03.2020
572 Clouds 16 1017 63 10000 7.2 190 22:37 25.03.2020
573 Clouds 16 1017 63 10000 7.2 190 22:18 25.03.2020
574 Clouds 17 1016 67 10000 9.8 190 21:43 25.03.2020
575 Clouds 17 1016 67 10000 9.8 190 21:24 25.03.2020
576 Clouds 17 1015 82 10000 6.7 180 20:59 25.03.2020
577 Clouds 17 1015 82 10000 6.7 180 20:39 25.03.2020
578 Clouds 17 1015 82 10000 6.7 180 20:19 25.03.2020
579 Clouds 17 1015 93 10000 5.7 190 19:55 25.03.2020
580 Clouds 17 1015 93 10000 5.7 190 19:37 25.03.2020
581 Clouds 18 1015 93 10000 5.7 190 19:18 25.03.2020
582 Clouds 18 1014 93 10000 6.2 210 18:43 25.03.2020
583 Rain 18 1013 100 2500 3.1 260 18:25 25.03.2020
584 Drizzle 18 1013 100 5000 2.6 290 17:58 25.03.2020
585 Drizzle 19 1013 100 5000 2.6 290 17:40 25.03.2020
586 Rain 20 1013 93 4500 6.2 300 17:22 25.03.2020
587 Clouds 20 1012 82 10000 4.6 320 16:58 25.03.2020
588 Clouds 20 1012 82 10000 4.6 320 16:39 25.03.2020
589 Clouds 21 1012 82 10000 4.6 320 16:20 25.03.2020
590 Clouds 22 1012 82 10000 7.7 310 15:43 25.03.2020
591 Clouds 21 1012 82 10000 7.7 310 15:21 25.03.2020
592 Clouds 21 1012 82 10000 6.7 310 14:57 25.03.2020
593 Clouds 21 1012 82 10000 6.7 310 14:57 25.03.2020
594 Clouds 22 1012 82 10000 6.7 310 14:39 25.03.2020
595 Clouds 22 1012 82 10000 6.7 310 14:20 25.03.2020
596 Clouds 22 1012 68 10000 7.2 310 13:44 25.03.2020
597 Clouds 22 1012 68 10000 7.2 310 13:24 25.03.2020
598 Clouds 23 1012 60 10000 5.1 330 12:39 25.03.2020
599 Clouds 24 1012 60 10000 5.1 330 12:21 25.03.2020
600 Clouds 24 1012 56 10000 3.6 320 11:59 25.03.2020
601 Clouds 24 1012 56 10000 3.6 320 11:40 25.03.2020
602 Clouds 23 1012 56 10000 3.6 320 11:21 25.03.2020
603 Clouds 23 1013 64 10000 2.1 300 10:58 25.03.2020
604 Clouds 23 1013 64 10000 2.1 300 10:40 25.03.2020
605 Clouds 23 1013 64 10000 2.1 300 10:18 25.03.2020
606 Clouds 22 1013 73 10000 1 0 09:56 25.03.2020
607 Clouds 23 1013 73 10000 1 0 09:38 25.03.2020
608 Clouds 22 1013 73 10000 1 0 09:19 25.03.2020
609 Clouds 20 1013 82 10000 2.6 280 08:41 25.03.2020
610 Clouds 19 1013 82 10000 2.6 280 08:23 25.03.2020
611 Clouds 18 1012 88 10000 2.1 230 07:56 25.03.2020
612 Clouds 19 1012 88 10000 2.1 230 07:37 25.03.2020
613 Clouds 18 1012 88 10000 2.1 230 07:18 25.03.2020
614 Clouds 17 1012 87 10000 1.5 180 06:41 25.03.2020
615 Clouds 17 1012 87 10000 1.5 180 06:23 25.03.2020
616 Clouds 17 1012 93 10000 4.6 210 05:47 25.03.2020
617 Clouds 17 1012 87 10000 4.1 190 04:42 25.03.2020
618 Clouds 17 1012 87 10000 5.7 210 03:58 25.03.2020
619 Clouds 17 1012 87 10000 5.7 210 03:33 25.03.2020
620 Clouds 18 1013 88 10000 4.1 210 01:41 25.03.2020
621 Clouds 18 1014 88 10000 4.6 210 00:51 25.03.2020
622 Clouds 18 1014 88 10000 4.6 210 00:30 25.03.2020
623 Clouds 18 1014 88 10000 4.6 220 23:58 24.03.2020
624 Clouds 18 1014 88 10000 4.6 220 23:39 24.03.2020
625 Clouds 18 1014 88 10000 4.6 220 23:19 24.03.2020
626 Clouds 18 1014 88 10000 5.1 210 22:54 24.03.2020
627 Clouds 18 1014 88 10000 5.1 210 22:36 24.03.2020
628 Clouds 19 1014 88 10000 5.1 210 22:18 24.03.2020
629 Clouds 19 1013 85 0 3.13 180 21:42 24.03.2020
630 Clouds 19 1015 88 10000 5.7 220 21:19 24.03.2020
631 Clouds 19 1015 88 10000 5.7 220 20:59 24.03.2020
632 Clouds 19 1015 88 10000 5.7 220 20:41 24.03.2020
633 Clouds 19 1015 88 10000 5.7 220 20:22 24.03.2020
634 Clear 19 1014 88 10000 7.2 210 19:48 24.03.2020
635 Clear 19 1014 88 10000 7.2 210 19:23 24.03.2020
636 Clear 20 1014 82 10000 6.2 210 18:59 24.03.2020
637 Clear 20 1014 82 10000 6.2 210 18:40 24.03.2020
638 Clear 20 1014 82 10000 6.2 210 18:20 24.03.2020
639 Clear 20 1014 77 10000 8.7 200 17:58 24.03.2020
640 Clear 21 1014 77 10000 8.7 200 17:40 24.03.2020
641 Clear 21 1014 77 10000 8.7 200 17:22 24.03.2020
642 Clear 22 1014 64 10000 8.7 190 16:57 24.03.2020
643 Clear 22 1014 64 10000 8.7 190 16:38 24.03.2020
644 Clear 23 1014 64 10000 8.7 190 16:20 24.03.2020
645 Clear 23 1014 60 10000 7.7 190 15:44 24.03.2020
646 Clear 23 1014 60 10000 7.7 190 15:44 24.03.2020
647 Clear 24 1014 60 10000 7.7 190 15:25 24.03.2020
648 Clear 24 1014 60 10000 7.2 200 14:57 24.03.2020
649 Clear 24 1014 60 10000 7.2 200 14:39 24.03.2020
650 Clouds 24 1014 60 10000 7.2 200 14:18 24.03.2020
651 Clouds 25 1015 50 10000 6.7 190 13:41 24.03.2020
652 Clouds 24 1015 50 10000 6.7 190 13:22 24.03.2020
653 Clouds 25 1018 50 10000 6.2 210 12:47 24.03.2020
654 Clouds 25 1018 50 10000 6.2 210 12:28 24.03.2020
655 Clouds 24 1016 46 10000 6.2 210 11:58 24.03.2020
656 Clouds 24 1016 46 10000 6.2 210 11:39 24.03.2020
657 Clouds 24 1016 46 10000 6.2 210 11:18 24.03.2020
658 Clouds 23 1017 53 10000 4.6 200 10:42 24.03.2020
659 Clouds 23 1017 53 10000 4.6 200 10:19 24.03.2020
660 Clouds 23 1017 53 10000 6.2 200 09:55 24.03.2020
661 Clouds 23 1017 53 10000 6.2 200 09:37 24.03.2020
662 Clouds 22 1017 53 10000 6.2 200 09:19 24.03.2020
663 Clouds 22 1017 56 10000 5.7 190 08:38 24.03.2020
664 Clouds 20 1017 56 10000 5.7 190 08:20 24.03.2020
665 Clouds 19 1016 68 10000 3.6 210 07:47 24.03.2020
666 Clouds 18 1016 68 10000 3.6 210 07:24 24.03.2020
667 Clouds 17 1016 82 10000 5.7 200 06:50 24.03.2020
668 Clouds 17 1016 82 10000 5.7 200 06:24 24.03.2020
669 Clouds 17 1016 82 10000 6.2 210 04:57 24.03.2020
670 Clouds 17 1016 82 10000 5.7 210 03:48 24.03.2020
671 Clouds 17 1015 82 10000 5.1 230 02:49 24.03.2020
672 Clouds 17 1016 87 10000 5.1 230 01:42 24.03.2020
673 Clouds 17 1016 82 10000 5.7 220 00:44 24.03.2020
674 Clouds 18 1016 82 10000 5.7 220 00:23 24.03.2020
675 Clouds 18 1017 82 10000 5.1 220 23:44 23.03.2020
676 Clouds 18 1017 82 10000 5.1 220 23:26 23.03.2020
677 Clouds 18 1017 82 10000 5.1 220 23:26 23.03.2020
678 Clouds 18 1017 82 10000 5.7 210 22:55 23.03.2020
679 Clouds 18 1017 82 10000 5.7 210 22:37 23.03.2020
680 Clouds 18 1017 82 10000 5.7 210 22:19 23.03.2020
681 Clouds 18 1017 77 10000 5.7 220 21:43 23.03.2020
682 Clouds 18 1017 77 10000 5.7 220 21:20 23.03.2020
683 Clouds 19 1017 77 10000 6.2 200 20:57 23.03.2020
684 Clouds 19 1017 77 10000 6.2 200 20:39 23.03.2020
685 Clouds 19 1017 77 10000 6.2 200 20:19 23.03.2020
686 Clouds 19 1017 72 10000 6.7 210 19:45 23.03.2020
687 Clouds 19 1017 72 10000 6.7 210 19:45 23.03.2020
688 Clouds 19 1017 72 10000 6.7 210 19:27 23.03.2020
689 Clouds 19 1017 72 10000 7.2 200 18:59 23.03.2020
690 Clouds 19 1017 72 10000 7.2 200 18:41 23.03.2020
691 Clouds 19 1017 72 10000 7.2 200 18:21 23.03.2020
692 Clouds 20 1017 68 10000 8.2 200 17:44 23.03.2020
693 Clouds 20 1017 68 10000 8.2 200 17:22 23.03.2020
694 Clouds 22 1017 60 10000 8.7 180 16:59 23.03.2020
695 Clouds 22 1017 60 10000 8.7 180 16:41 23.03.2020
696 Clouds 22 1017 60 10000 8.7 180 16:23 23.03.2020
697 Clouds 23 1017 60 10000 9.8 190 15:42 23.03.2020
698 Clouds 24 1017 60 10000 9.8 190 15:20 23.03.2020
699 Clouds 24 1017 60 10000 10.3 190 14:55 23.03.2020
700 Clouds 24 1017 60 10000 10.3 190 14:36 23.03.2020
701 Clouds 24 1017 60 10000 10.3 190 14:18 23.03.2020
702 Clouds 24 1017 56 10000 7.7 190 13:40 23.03.2020
703 Clouds 24 1017 56 10000 7.7 190 13:22 23.03.2020
704 Clouds 24 1017 53 10000 5.1 180 12:55 23.03.2020
705 Clouds 25 1017 53 10000 5.1 180 12:37 23.03.2020
706 Clouds 24 1017 53 10000 5.1 180 12:19 23.03.2020
707 Clouds 24 1018 56 10000 6.2 200 11:42 23.03.2020
708 Clouds 24 1018 56 10000 6.2 200 11:21 23.03.2020
709 Clouds 24 1018 60 10000 2.6 230 10:58 23.03.2020
710 Clouds 24 1018 60 10000 2.6 230 10:39 23.03.2020
711 Clouds 23 1018 60 10000 2.6 230 10:21 23.03.2020
712 Clouds 23 1018 68 10000 2.6 210 09:57 23.03.2020
713 Clouds 22 1018 68 10000 2.6 210 09:37 23.03.2020
714 Clouds 21 1018 68 10000 2.6 210 09:18 23.03.2020
715 Clouds 20 1018 72 10000 3.1 200 08:37 23.03.2020
716 Clouds 19 1018 72 10000 3.1 200 08:19 23.03.2020
717 Clear 18 1018 88 10000 5.1 210 07:50 23.03.2020
718 Clear 18 1018 88 10000 5.1 210 07:50 23.03.2020
719 Clear 19 1018 88 10000 5.1 210 07:31 23.03.2020
720 Clear 17 1017 87 10000 4.6 230 06:53 23.03.2020
721 Clear 17 1017 87 10000 4.6 230 06:32 23.03.2020
722 Clear 17 1016 87 10000 5.7 230 05:42 23.03.2020
723 Clear 17 1016 82 10000 4.6 220 03:45 23.03.2020
724 Clear 17 1016 82 10000 3.6 190 02:43 23.03.2020
725 Clouds 18 1017 77 10000 4.1 210 01:38 23.03.2020
726 Clouds 18 1017 77 10000 5.7 200 00:44 23.03.2020
727 Clouds 18 1017 77 10000 5.7 210 23:58 22.03.2020
728 Clouds 18 1017 77 10000 5.7 210 23:40 22.03.2020
729 Clouds 18 1017 77 10000 5.7 210 23:22 22.03.2020
730 Clouds 19 1017 72 10000 4.6 190 22:40 22.03.2020
731 Clouds 19 1017 72 10000 4.6 190 22:20 22.03.2020
732 Clouds 18 1017 77 10000 6.7 180 21:40 22.03.2020
733 Clouds 19 1017 77 10000 6.7 180 21:21 22.03.2020
734 Clouds 19 1017 82 10000 7.2 190 20:58 22.03.2020
735 Clouds 19 1017 82 10000 7.2 190 20:40 22.03.2020
736 Clouds 19 1017 82 10000 7.2 190 20:22 22.03.2020
737 Clouds 19 1017 82 10000 7.7 180 19:56 22.03.2020
738 Clouds 19 1017 82 10000 7.7 180 19:38 22.03.2020
739 Clouds 19 1017 82 10000 7.7 180 19:19 22.03.2020
740 Clouds 20 1016 77 10000 9.3 180 18:57 22.03.2020
741 Clouds 20 1016 77 10000 9.3 180 18:39 22.03.2020
742 Clouds 20 1016 77 10000 9.3 180 18:19 22.03.2020
743 Clouds 20 1016 77 10000 10.8 180 17:56 22.03.2020
744 Clouds 20 1016 77 10000 10.8 180 17:37 22.03.2020
745 Clouds 21 1016 77 10000 10.8 180 17:19 22.03.2020
746 Clouds 22 1016 68 10000 10.3 180 16:57 22.03.2020
747 Clouds 22 1016 68 10000 10.3 180 16:39 22.03.2020
748 Clouds 23 1016 68 10000 10.3 180 16:20 22.03.2020
749 Clouds 23 1015 60 10000 10.3 190 15:40 22.03.2020
750 Clouds 24 1015 60 10000 10.3 190 15:19 22.03.2020
751 Clouds 24 1015 57 10000 8.2 190 14:46 22.03.2020
752 Clouds 25 1015 57 10000 8.2 190 14:18 22.03.2020
753 Clouds 25 1016 53 10000 6.2 190 13:43 22.03.2020
754 Clouds 25 1016 53 10000 6.2 190 13:20 22.03.2020
755 Clouds 25 1016 53 10000 5.1 210 12:57 22.03.2020
756 Clouds 24 1016 53 10000 5.1 210 12:38 22.03.2020
757 Clouds 24 1016 53 10000 5.1 210 12:18 22.03.2020
758 Clouds 24 1017 56 10000 5.1 210 11:43 22.03.2020
759 Clouds 24 1017 56 10000 5.1 210 11:25 22.03.2020
760 Clouds 23 1017 64 10000 3.6 200 10:58 22.03.2020
761 Clouds 23 1017 64 10000 3.6 200 10:39 22.03.2020
762 Clouds 23 1017 64 10000 3.6 200 10:21 22.03.2020
763 Clouds 23 1017 64 10000 3.1 210 09:45 22.03.2020
764 Clouds 22 1017 72 10000 4.1 230 09:27 22.03.2020
765 Clouds 21 1017 72 10000 4.6 220 08:48 22.03.2020
766 Clouds 19 1017 82 10000 4.6 230 08:29 22.03.2020
767 Clouds 18 1016 88 10000 4.6 240 07:54 22.03.2020
768 Clouds 18 1016 88 10000 4.6 240 07:36 22.03.2020
769 Clouds 17 1015 87 10000 4.6 240 06:41 22.03.2020
770 Clouds 16 1015 93 10000 4.6 240 05:47 22.03.2020
771 Clear 16 1014 93 10000 4.6 230 04:39 22.03.2020
772 Clear 17 1014 88 10000 4.6 220 01:45 22.03.2020
773 Clear 18 1015 72 10000 5.7 170 00:50 22.03.2020
774 Clear 18 1015 72 10000 5.7 170 00:31 22.03.2020
775 Clear 18 1015 82 10000 5.7 220 23:45 21.03.2020
776 Clear 18 1015 82 10000 5.7 220 23:22 21.03.2020
777 Clear 18 1015 82 10000 5.1 210 22:58 21.03.2020
778 Clear 18 1015 82 10000 5.1 210 22:38 21.03.2020
779 Clear 19 1015 82 10000 5.1 210 22:19 21.03.2020
780 Clear 19 1015 77 10000 5.7 220 21:57 21.03.2020
781 Clear 19 1015 77 10000 5.7 220 21:38 21.03.2020
782 Clear 19 1015 77 10000 5.7 220 21:19 21.03.2020
783 Clear 19 1016 88 10000 5.7 210 20:42 21.03.2020
784 Clouds 19 1016 88 10000 5.7 210 20:22 21.03.2020
785 Clear 19 1015 77 10000 6.2 200 19:55 21.03.2020
786 Clear 19 1015 77 10000 6.2 200 19:36 21.03.2020
787 Clear 20 1015 77 10000 6.2 200 19:18 21.03.2020
788 Clouds 20 1016 82 10000 7.7 180 18:41 21.03.2020
789 Clouds 20 1016 82 10000 7.7 180 18:21 21.03.2020
790 Clouds 21 1016 73 10000 9.3 180 17:59 21.03.2020
791 Clouds 21 1016 73 10000 9.3 180 17:41 21.03.2020
792 Clouds 21 1016 73 10000 9.3 180 17:22 21.03.2020
793 Clouds 23 1016 64 10000 10.3 180 16:42 21.03.2020
794 Clouds 23 1016 64 10000 10.3 180 16:42 21.03.2020
795 Clouds 23 1016 64 10000 10.3 180 16:24 21.03.2020
796 Clouds 23 1016 64 10000 10.8 190 15:59 21.03.2020
797 Clouds 23 1016 64 10000 10.8 190 15:40 21.03.2020
798 Clouds 24 1016 64 10000 10.8 190 15:22 21.03.2020
799 Clouds 24 1016 56 10000 9.3 180 14:57 21.03.2020
800 Clouds 24 1016 56 10000 9.3 180 14:38 21.03.2020
801 Clouds 24 1016 56 10000 9.3 180 14:19 21.03.2020
802 Clouds 24 1016 56 10000 8.2 190 13:58 21.03.2020
803 Clouds 24 1016 56 10000 8.2 190 13:39 21.03.2020
804 Clouds 24 1016 56 10000 8.2 190 13:21 21.03.2020
805 Clouds 24 1017 53 10000 6.7 180 12:57 21.03.2020
806 Clouds 24 1017 53 10000 6.7 180 12:37 21.03.2020
807 Clouds 24 1017 53 10000 6.7 180 12:19 21.03.2020
808 Clouds 24 1017 56 10000 5.7 190 11:55 21.03.2020
809 Clouds 23 1017 56 10000 5.7 190 11:37 21.03.2020
810 Clouds 23 1017 56 10000 5.7 190 11:18 21.03.2020
811 Clouds 23 1017 56 10000 3.6 190 10:56 21.03.2020
812 Clouds 23 1017 56 10000 3.6 190 10:38 21.03.2020
813 Clouds 23 1017 56 10000 3.6 190 10:18 21.03.2020
814 Clouds 22 1018 64 10000 3.6 190 09:40 21.03.2020
815 Clouds 22 1018 64 10000 3.6 190 09:21 21.03.2020
816 Clouds 21 1017 77 10000 5.1 200 08:56 21.03.2020
817 Clouds 21 1017 77 10000 5.1 200 08:38 21.03.2020
818 Clouds 20 1017 77 10000 5.1 200 08:20 21.03.2020
819 Clouds 19 1017 82 10000 4.6 210 07:39 21.03.2020
820 Clouds 18 1017 93 10000 4.1 220 07:20 21.03.2020
821 Clouds 18 1017 88 10000 4.1 220 06:45 21.03.2020
822 Clouds 17 1017 88 10000 4.1 220 06:26 21.03.2020
823 Clouds 17 1017 88 10000 4.1 220 05:41 21.03.2020
824 Clouds 17 1017 88 10000 4.1 220 04:37 21.03.2020
825 Clouds 17 1017 88 10000 3.1 210 02:39 21.03.2020
826 Clouds 17 1017 88 10000 3.6 210 01:57 21.03.2020
827 Clouds 17 1017 88 10000 3.6 210 01:29 21.03.2020
828 Clouds 17 1017 88 10000 2.6 190 00:47 21.03.2020
829 Clouds 17 1017 88 10000 2.6 190 00:24 21.03.2020
830 Clouds 17 1017 88 10000 2.1 170 23:46 20.03.2020
831 Clouds 17 1017 88 10000 2.1 170 23:24 20.03.2020
832 Clear 19 1024 83 0 0.45 162 22:55 20.03.2020
833 Clear 19 1012 35 0 1.93 174 22:36 20.03.2020
834 Clouds 19 1017 77 10000 3.1 140 22:18 20.03.2020
835 Clouds 19 1017 77 10000 3.1 140 21:54 20.03.2020
836 Clouds 20 1017 77 10000 3.1 140 21:36 20.03.2020
837 Clouds 20 1017 77 10000 3.1 140 21:18 20.03.2020
838 Clouds 20 1017 82 10000 3.6 130 20:41 20.03.2020
839 Clouds 20 1017 82 10000 3.6 130 20:21 20.03.2020
840 Clouds 21 1017 68 10000 3.1 210 19:58 20.03.2020
841 Clouds 21 1017 68 10000 3.1 210 19:40 20.03.2020
842 Clouds 21 1017 68 10000 3.1 210 19:18 20.03.2020
843 Clouds 20 1017 77 10000 2.6 320 18:39 20.03.2020
844 Clouds 20 1017 77 10000 2.6 320 18:39 20.03.2020
845 Clouds 20 1017 77 10000 2.6 320 18:20 20.03.2020
846 Clouds 21 1016 68 10000 4.1 320 17:57 20.03.2020
847 Clouds 21 1016 68 10000 4.1 320 17:39 20.03.2020
848 Clouds 21 1016 68 10000 4.1 320 17:21 20.03.2020
849 Clouds 22 1016 69 10000 6.2 320 16:43 20.03.2020
850 Clouds 23 1016 69 10000 6.2 320 16:22 20.03.2020
851 Clouds 23 1016 60 10000 7.2 320 15:59 20.03.2020
852 Clouds 24 1016 60 10000 7.2 320 15:41 20.03.2020
853 Clouds 24 1016 60 10000 7.2 320 15:21 20.03.2020
854 Clouds 24 1016 57 10000 7.7 300 14:54 20.03.2020
855 Clouds 24 1016 57 10000 7.7 300 14:36 20.03.2020
856 Clouds 24 1016 57 10000 7.7 300 14:18 20.03.2020
857 Clouds 25 1016 57 10000 6.2 310 13:40 20.03.2020
858 Clouds 24 1016 57 10000 6.2 310 13:19 20.03.2020
859 Clouds 24 1017 57 10000 5.1 320 12:39 20.03.2020
860 Clouds 24 1017 57 10000 5.1 320 12:20 20.03.2020
861 Clouds 24 1017 57 10000 5.1 320 12:20 20.03.2020
862 Clouds 23 1017 64 10000 5.7 300 11:56 20.03.2020
863 Clouds 23 1017 64 10000 5.7 300 11:38 20.03.2020
864 Clouds 23 1017 64 10000 5.7 300 11:18 20.03.2020
865 Clouds 22 1017 68 10000 5.1 320 10:41 20.03.2020
866 Clouds 23 1017 68 10000 5.1 320 10:21 20.03.2020
867 Clouds 22 1017 82 10000 4.1 350 09:55 20.03.2020
868 Clouds 22 1017 82 10000 4.1 350 09:55 20.03.2020
869 Clouds 22 1017 82 10000 4.1 350 09:37 20.03.2020
870 Clouds 21 1017 82 10000 4.1 350 09:18 20.03.2020
871 Clouds 19 1017 88 10000 2.6 30 08:41 20.03.2020
872 Clouds 19 1017 88 10000 2.6 30 08:22 20.03.2020
873 Clouds 18 1016 93 8000 4.1 50 07:48 20.03.2020
874 Clouds 17 1016 93 8000 4.1 50 07:30 20.03.2020
875 Clouds 16 1016 93 8000 3.1 40 06:51 20.03.2020
876 Clouds 16 1016 93 8000 4.1 50 06:32 20.03.2020
877 Clouds 14 1015 93 6000 1 0 04:51 20.03.2020
878 Clouds 15 1015 93 10000 2.1 340 03:21 20.03.2020
879 Clear 15 1015 93 10000 1.5 0 01:57 20.03.2020
880 Clear 16 1016 93 10000 2.1 100 00:59 20.03.2020
881 Clear 16 1016 93 10000 2.1 100 00:30 20.03.2020
882 Clear 16 1015 93 10000 2.6 170 23:47 19.03.2020
883 Clear 16 1015 93 10000 2.6 170 23:28 19.03.2020
884 Clear 17 1015 88 10000 3.6 190 22:56 19.03.2020
885 Clear 18 1015 88 10000 3.6 190 22:38 19.03.2020
886 Clear 18 1015 88 10000 3.6 190 22:19 19.03.2020
887 Clear 18 1015 88 10000 4.1 220 21:42 19.03.2020
888 Clear 18 1015 88 10000 4.1 220 21:20 19.03.2020
889 Clear 18 1015 88 10000 5.1 220 20:59 19.03.2020
890 Clear 19 1015 88 10000 5.1 220 20:41 19.03.2020
891 Clear 19 1015 88 10000 5.1 220 20:22 19.03.2020
892 Clear 19 1014 82 10000 4.6 210 19:55 19.03.2020
893 Clear 19 1014 82 10000 4.6 210 19:37 19.03.2020
894 Clear 19 1014 82 10000 4.6 210 19:19 19.03.2020
895 Clear 20 1014 77 10000 5.7 200 18:55 19.03.2020
896 Clear 20 1014 77 10000 5.7 200 18:37 19.03.2020
897 Clear 20 1014 77 10000 5.7 200 18:37 19.03.2020
898 Clear 20 1014 77 10000 5.7 200 18:19 19.03.2020
899 Clouds 21 1013 73 10000 6.7 180 17:41 19.03.2020
900 Clouds 22 1013 73 10000 6.7 180 17:19 19.03.2020
901 Clouds 23 1013 64 10000 7.2 170 16:44 19.03.2020
902 Clouds 23 1013 64 10000 7.2 170 16:24 19.03.2020
903 Clouds 23 1014 60 10000 8.2 180 15:46 19.03.2020
904 Clouds 23 1014 60 10000 8.2 180 15:28 19.03.2020
905 Clouds 23 1014 60 10000 7.7 170 14:59 19.03.2020
906 Clouds 23 1014 60 10000 7.7 170 14:40 19.03.2020
907 Clouds 23 1014 60 10000 7.7 170 14:20 19.03.2020
908 Clouds 23 1014 64 10000 7.7 180 13:41 19.03.2020
909 Clouds 23 1014 64 10000 7.7 180 13:19 19.03.2020
910 Clouds 23 1014 64 10000 7.2 180 12:57 19.03.2020
911 Clouds 23 1014 64 10000 7.2 180 12:39 19.03.2020
912 Clouds 23 1014 64 10000 7.2 180 12:20 19.03.2020
913 Clouds 22 1014 68 10000 7.2 190 11:42 19.03.2020
914 Clouds 23 1014 68 10000 7.2 190 11:23 19.03.2020
915 Clear 21 1014 68 10000 5.1 200 10:57 19.03.2020
916 Clear 21 1014 68 10000 5.1 200 10:38 19.03.2020
917 Clear 22 1014 68 10000 5.1 200 10:19 19.03.2020
918 Clear 21 1013 72 10000 5.1 220 09:45 19.03.2020
919 Clear 21 1013 72 10000 5.1 220 09:27 19.03.2020
920 Clear 20 1013 77 10000 2.6 210 08:59 19.03.2020
921 Clear 20 1013 77 10000 2.6 210 08:41 19.03.2020
922 Clouds 19 1013 77 10000 2.6 210 08:19 19.03.2020
923 Clouds 18 1013 87 10000 3.6 210 07:44 19.03.2020
924 Clouds 18 1013 87 10000 3.6 210 07:44 19.03.2020
925 Clouds 17 1013 87 10000 3.6 210 07:23 19.03.2020
926 Clouds 16 1013 93 10000 1.5 0 06:35 19.03.2020
927 Clouds 16 1013 87 10000 4.6 220 05:48 19.03.2020
928 Clear 17 1013 87 10000 6.2 230 04:54 19.03.2020
929 Clear 17 1013 87 10000 6.2 230 04:34 19.03.2020
930 Clear 17 1013 87 10000 5.1 230 02:49 19.03.2020
931 Clear 17 1013 87 10000 6.2 220 01:21 19.03.2020
932 Clear 18 1014 88 10000 6.2 220 00:28 19.03.2020
933 Clear 18 1014 88 10000 6.2 220 23:48 18.03.2020
934 Clear 18 1014 88 10000 6.2 220 23:30 18.03.2020
935 Clear 18 1015 82 10000 6.7 200 22:56 18.03.2020
936 Clear 18 1015 82 10000 6.7 200 22:38 18.03.2020
937 Clear 18 1015 82 10000 6.7 200 22:20 18.03.2020
938 Clear 18 1015 82 10000 7.2 190 21:42 18.03.2020
939 Clear 18 1015 82 10000 7.2 190 21:21 18.03.2020
940 Clear 19 1015 82 10000 8.2 190 20:59 18.03.2020
941 Clear 19 1015 82 10000 8.2 190 20:40 18.03.2020
942 Clear 19 1014 77 10000 8.2 190 20:20 18.03.2020
943 Clear 19 1014 77 10000 8.2 190 19:56 18.03.2020
944 Clear 19 1014 77 10000 8.2 190 19:38 18.03.2020
945 Clear 19 1014 77 10000 8.2 190 19:19 18.03.2020
946 Clear 19 1014 77 10000 7.7 190 18:41 18.03.2020
947 Clear 20 1014 77 10000 7.7 190 18:21 18.03.2020
948 Clear 21 1014 68 10000 8.7 190 17:58 18.03.2020
949 Clear 21 1014 68 10000 8.7 190 17:40 18.03.2020
950 Clear 21 1014 68 10000 8.7 190 17:21 18.03.2020
951 Clear 22 1014 64 10000 9.3 180 16:58 18.03.2020
952 Clear 22 1014 64 10000 9.3 180 16:39 18.03.2020
953 Clear 23 1014 64 10000 9.3 180 16:20 18.03.2020
954 Clear 24 1014 60 10000 8.7 180 15:45 18.03.2020
955 Clear 24 1014 60 10000 8.7 180 15:20 18.03.2020
956 Clouds 24 1014 53 10000 8.2 190 14:56 18.03.2020
957 Clouds 24 1014 53 10000 8.2 190 14:38 18.03.2020
958 Clouds 24 1014 53 10000 8.2 190 14:19 18.03.2020
959 Clouds 24 1015 57 10000 8.7 200 13:38 18.03.2020
960 Clouds 24 1015 57 10000 8.7 200 13:19 18.03.2020
961 Clouds 24 1015 57 10000 7.7 180 12:42 18.03.2020
962 Clouds 24 1015 57 10000 7.7 180 12:20 18.03.2020
963 Clouds 24 1015 60 10000 7.7 180 11:41 18.03.2020
964 Clouds 23 1015 60 10000 7.7 180 11:21 18.03.2020
965 Clouds 22 1015 68 10000 7.2 180 10:58 18.03.2020
966 Clouds 23 1015 68 10000 7.2 180 10:39 18.03.2020
967 Clouds 23 1015 68 10000 7.2 180 10:20 18.03.2020
968 Clouds 22 1015 77 10000 6.2 170 09:59 18.03.2020
969 Clouds 22 1015 77 10000 6.2 170 09:39 18.03.2020
970 Clouds 22 1015 77 10000 6.2 170 09:21 18.03.2020
971 Clouds 21 1015 77 10000 6.2 190 08:40 18.03.2020
972 Clouds 21 1015 77 10000 6.2 190 08:21 18.03.2020
973 Clouds 19 1014 93 10000 3.6 210 07:49 18.03.2020
974 Clouds 19 1014 93 10000 3.6 210 07:31 18.03.2020
975 Clouds 19 1014 93 10000 3.1 210 06:50 18.03.2020
976 Clouds 18 1014 93 10000 3.1 210 06:31 18.03.2020
977 Clouds 18 1013 93 10000 4.1 200 05:36 18.03.2020
978 Clouds 18 1013 93 10000 5.7 210 04:29 18.03.2020
979 Clouds 18 1013 88 10000 4.1 210 03:21 18.03.2020
980 Clouds 18 1013 88 10000 5.7 180 02:32 18.03.2020
981 Clear 18 1013 88 10000 3.6 170 01:32 18.03.2020
982 Clear 19 1013 88 10000 4.6 200 00:42 18.03.2020
983 Clear 19 1013 88 10000 4.6 200 00:21 18.03.2020
984 Clear 19 1013 88 10000 5.1 210 23:41 17.03.2020
985 Clouds 19 1013 88 10000 5.1 210 23:20 17.03.2020
986 Clear 19 1013 88 10000 5.1 220 22:42 17.03.2020
987 Clear 19 1013 88 10000 5.1 220 22:24 17.03.2020
988 Clear 19 1013 88 10000 5.1 210 21:43 17.03.2020
989 Clouds 19 1013 88 10000 5.1 210 21:23 17.03.2020
990 Clear 19 1013 88 10000 6.2 210 20:58 17.03.2020
991 Clear 19 1013 88 10000 6.2 210 20:38 17.03.2020
992 Clouds 19 1013 88 10000 6.2 210 20:19 17.03.2020
993 Clouds 19 1012 82 10000 5.7 190 19:42 17.03.2020
994 Clouds 19 1012 82 10000 5.7 190 19:19 17.03.2020
995 Clouds 20 1011 77 10000 6.7 190 18:57 17.03.2020
996 Clouds 20 1011 77 10000 6.7 190 18:39 17.03.2020
997 Clouds 20 1011 77 10000 6.7 190 18:21 17.03.2020
998 Clouds 21 1011 73 10000 7.2 180 17:56 17.03.2020
999 Clouds 21 1011 73 10000 7.2 180 17:38 17.03.2020
1000 Clouds 21 1011 73 10000 7.2 180 17:18 17.03.2020
1001 Clouds 22 1010 73 10000 8.2 170 16:42 17.03.2020
1002 Clouds 22 1010 73 10000 8.2 170 16:19 17.03.2020
1003 Clouds 22 1010 73 10000 8.2 170 16:19 17.03.2020
1004 Clouds 23 1010 64 10000 6.2 180 15:45 17.03.2020
1005 Clouds 23 1010 64 10000 6.2 180 15:23 17.03.2020
1006 Clouds 23 1010 56 10000 6.2 180 14:47 17.03.2020
1007 Clouds 24 1010 56 10000 6.2 180 14:27 17.03.2020
1008 Clear 24 1010 53 10000 5.1 180 13:58 17.03.2020
1009 Clear 24 1010 53 10000 5.1 180 13:40 17.03.2020
1010 Clear 25 1010 53 10000 5.1 180 13:22 17.03.2020
1011 Clear 26 1010 36 10000 3.1 270 12:47 17.03.2020
1012 Clear 27 1010 36 10000 3.1 270 12:25 17.03.2020
1013 Clear 26 1010 39 10000 4.6 290 11:57 17.03.2020
1014 Clear 26 1010 39 10000 4.6 290 11:39 17.03.2020
1015 Clear 26 1010 39 10000 4.6 290 11:20 17.03.2020
1016 Clear 25 1010 41 10000 4.6 320 10:54 17.03.2020
1017 Clear 25 1010 41 10000 4.6 320 10:36 17.03.2020
1018 Clear 25 1010 41 10000 4.6 320 10:18 17.03.2020
1019 Clear 24 1009 47 10000 3.6 320 09:45 17.03.2020
1020 Clear 23 1009 47 10000 3.6 320 09:20 17.03.2020
1021 Clear 23 1009 53 10000 2.1 310 08:57 17.03.2020
1022 Clear 22 1009 53 10000 2.1 310 08:39 17.03.2020
1023 Clouds 20 1009 64 10000 0.5 0 08:18 17.03.2020
1024 Clouds 20 1009 68 10000 1 0 07:47 17.03.2020
1025 Clouds 18 1009 77 10000 0.5 0 07:20 17.03.2020
1026 Clouds 16 1008 77 10000 1 0 06:45 17.03.2020
1027 Clouds 16 1008 77 10000 1 0 06:24 17.03.2020
1028 Clouds 16 1008 82 10000 1 290 05:18 17.03.2020
1029 Clouds 17 1007 77 10000 0.5 0 03:27 17.03.2020
1030 Clear 18 1008 68 10000 3.1 220 01:50 17.03.2020
1031 Clear 18 1008 68 10000 3.1 220 01:31 17.03.2020
1032 Clear 18 1008 68 10000 3.6 230 00:52 17.03.2020
1033 Clear 20 1009 60 10000 7.7 190 23:53 16.03.2020
1034 Clear 20 1009 60 10000 7.7 190 23:34 16.03.2020
1035 Clear 20 1010 60 10000 6.2 200 22:58 16.03.2020
1036 Clear 20 1010 60 10000 6.2 200 22:37 16.03.2020
1037 Clear 20 1010 60 10000 6.2 200 22:19 16.03.2020
1038 Clear 20 1011 56 10000 3.1 190 21:44 16.03.2020
1039 Clear 20 1011 56 10000 3.1 190 21:25 16.03.2020
1040 Clear 21 1011 53 10000 3.1 210 20:58 16.03.2020
1041 Clear 21 1011 53 10000 3.1 210 20:39 16.03.2020
1042 Clear 21 1011 53 10000 3.1 210 20:20 16.03.2020
1043 Clear 22 1011 49 10000 5.7 140 19:46 16.03.2020
1044 Clear 22 1011 49 10000 5.7 140 19:24 16.03.2020
1045 Clear 23 1011 44 10000 6.7 140 18:59 16.03.2020
1046 Clear 23 1011 44 10000 6.7 140 18:39 16.03.2020
1047 Clear 23 1011 44 10000 6.7 140 18:19 16.03.2020
1048 Clear 24 1011 39 10000 7.7 140 17:46 16.03.2020
1049 Clear 27 1011 39 10000 7.7 140 17:25 16.03.2020
1050 Clear 28 1012 35 10000 6.7 150 16:56 16.03.2020
1051 Clear 27 1012 35 10000 6.7 150 16:37 16.03.2020
1052 Clear 28 1012 35 10000 6.7 150 16:19 16.03.2020
1053 Clear 28 1012 35 10000 5.1 190 15:42 16.03.2020
1054 Clear 29 1012 35 10000 5.1 190 15:23 16.03.2020
1055 Clear 29 1012 35 10000 5.1 190 15:23 16.03.2020
1056 Clear 28 1013 32 10000 6.2 180 14:45 16.03.2020
1057 Clear 29 1013 32 10000 6.2 180 14:20 16.03.2020
1058 Clear 28 1013 34 10000 5.7 170 13:47 16.03.2020
1059 Clear 28 1013 34 10000 5.7 170 13:27 16.03.2020
1060 Clear 28 1014 34 10000 6.2 160 12:57 16.03.2020
1061 Clear 28 1014 34 10000 6.2 160 12:38 16.03.2020
1062 Clear 28 1014 34 10000 6.2 160 12:20 16.03.2020
1063 Clear 28 1015 36 10000 6.2 160 11:43 16.03.2020
1064 Clear 27 1015 36 10000 6.2 160 11:23 16.03.2020
1065 Clear 27 1016 39 10000 2.6 190 10:44 16.03.2020
1066 Clear 26 1016 39 10000 2.6 190 10:24 16.03.2020
1067 Clear 25 1016 44 10000 2.6 190 09:49 16.03.2020
1068 Clear 25 1016 44 10000 2.6 190 09:30 16.03.2020
1069 Clear 23 1017 49 10000 3.1 130 08:59 16.03.2020
1070 Clear 22 1017 49 10000 3.1 130 08:40 16.03.2020
1071 Clear 21 1017 49 10000 3.1 130 08:21 16.03.2020
1072 Clear 21 1017 53 10000 1 0 07:42 16.03.2020
1073 Clouds 20 1017 60 10000 3.6 110 07:19 16.03.2020
1074 Clouds 18 1016 63 10000 3.6 140 06:29 16.03.2020
1075 Clouds 18 1016 68 10000 4.6 140 05:59 16.03.2020
1076 Clouds 18 1017 68 10000 6.7 130 04:21 16.03.2020
1077 Clouds 17 1018 67 10000 6.7 140 01:46 16.03.2020
1078 Clouds 17 1019 63 10000 8.7 150 00:45 16.03.2020
1079 Clouds 17 1019 63 10000 8.7 150 00:25 16.03.2020
1080 Clouds 17 1019 63 10000 9.3 140 23:39 15.03.2020
1081 Clouds 17 1019 63 10000 9.3 140 23:18 15.03.2020
1082 Clouds 18 1020 63 10000 10.3 150 22:42 15.03.2020
1083 Clouds 18 1020 63 10000 10.3 150 22:20 15.03.2020
1084 Clouds 17 1020 67 10000 12.3 160 21:39 15.03.2020
1085 Clouds 17 1020 67 10000 12.3 160 21:21 15.03.2020
1086 Clouds 18 1020 68 10000 12.9 150 20:58 15.03.2020
1087 Clouds 18 1020 68 10000 12.9 150 20:39 15.03.2020
1088 Clouds 18 1020 68 10000 12.9 150 20:19 15.03.2020
1089 Clouds 18 1019 68 10000 13.4 160 19:55 15.03.2020
1090 Clouds 18 1019 68 10000 13.4 160 19:37 15.03.2020
1091 Clouds 18 1019 68 10000 13.4 160 19:18 15.03.2020
1092 Clouds 18 1019 68 10000 13.9 160 18:41 15.03.2020
1093 Clouds 18 1019 68 10000 13.9 160 18:23 15.03.2020
1094 Clouds 19 1019 68 10000 13.4 160 17:58 15.03.2020
1095 Clouds 19 1019 68 10000 13.4 160 17:39 15.03.2020
1096 Clouds 19 1019 68 10000 13.4 160 17:20 15.03.2020
1097 Clouds 20 1019 64 10000 12.9 160 16:55 15.03.2020
1098 Clouds 20 1019 64 10000 12.9 160 16:36 15.03.2020
1099 Clouds 20 1019 64 10000 12.9 160 16:18 15.03.2020
1100 Clouds 21 1019 60 10000 13.9 160 15:41 15.03.2020
1101 Clouds 21 1019 60 10000 13.9 160 15:20 15.03.2020
1102 Clouds 22 1019 56 10000 12.3 160 14:47 15.03.2020
1103 Clouds 22 1019 56 10000 12.3 160 14:26 15.03.2020
1104 Clouds 22 1019 56 10000 12.9 160 13:59 15.03.2020
1105 Clouds 22 1019 56 10000 12.9 160 13:39 15.03.2020
1106 Clouds 22 1019 56 10000 12.9 160 13:39 15.03.2020
1107 Clouds 22 1019 56 10000 12.9 160 13:21 15.03.2020
1108 Clouds 23 1020 60 10000 12.3 160 12:57 15.03.2020
1109 Clouds 22 1020 60 10000 12.3 160 12:38 15.03.2020
1110 Clouds 23 1020 60 10000 12.3 160 12:20 15.03.2020
1111 Clouds 22 1020 56 10000 11.8 170 11:40 15.03.2020
1112 Clouds 22 1020 56 10000 11.8 170 11:22 15.03.2020
1113 Clouds 23 1020 56 10000 11.8 170 10:56 15.03.2020
1114 Clouds 23 1020 56 10000 11.8 170 10:38 15.03.2020
1115 Clouds 23 1020 56 10000 11.8 170 10:20 15.03.2020
1116 Clouds 22 1020 49 10000 9.8 160 09:41 15.03.2020
1117 Clouds 22 1020 49 10000 9.8 160 09:22 15.03.2020
1118 Clouds 21 1020 60 10000 9.8 170 08:54 15.03.2020
1119 Clouds 21 1020 60 10000 9.8 170 08:36 15.03.2020
1120 Clouds 20 1020 60 10000 9.8 170 08:18 15.03.2020
1121 Clouds 19 1020 72 10000 8.2 170 07:44 15.03.2020
1122 Clouds 18 1019 77 10000 7.2 170 06:54 15.03.2020
1123 Clouds 18 1019 77 10000 7.2 170 06:24 15.03.2020
1124 Clouds 18 1019 72 10000 6.7 170 05:43 15.03.2020
1125 Clouds 18 1018 72 10000 7.7 170 04:47 15.03.2020
1126 Clouds 18 1018 72 10000 7.7 170 04:28 15.03.2020
1127 Clouds 18 1018 72 10000 7.7 170 03:54 15.03.2020
1128 Clouds 18 1018 77 10000 8.2 170 02:47 15.03.2020
1129 Clouds 18 1018 77 10000 7.7 170 01:50 15.03.2020
1130 Clouds 18 1018 82 10000 8.7 170 00:51 15.03.2020
1131 Clouds 18 1018 82 10000 8.7 170 00:28 15.03.2020
1132 Clouds 18 1019 82 10000 8.2 180 23:58 14.03.2020
1133 Clouds 18 1019 82 10000 8.2 180 23:37 14.03.2020
1134 Clouds 18 1019 82 10000 8.2 180 23:18 14.03.2020
1135 Clouds 19 1018 82 10000 7.2 170 22:44 14.03.2020
1136 Clouds 19 1018 82 10000 7.2 170 22:26 14.03.2020
1137 Clouds 19 1018 88 10000 8.2 190 21:57 14.03.2020
1138 Clouds 19 1018 88 10000 8.2 190 21:37 14.03.2020
1139 Clouds 19 1018 88 10000 8.2 190 21:18 14.03.2020
1140 Clouds 19 1018 77 10000 7.2 190 20:59 14.03.2020
1141 Clouds 19 1018 77 10000 7.2 190 20:41 14.03.2020
1142 Clouds 20 1018 77 10000 7.2 190 20:20 14.03.2020
1143 Clouds 20 1018 77 10000 7.2 190 20:20 14.03.2020
1144 Clouds 20 1017 77 10000 5.1 190 19:58 14.03.2020
1145 Clouds 20 1017 77 10000 5.1 190 19:39 14.03.2020
1146 Clouds 20 1017 77 10000 5.1 190 19:19 14.03.2020
1147 Clouds 20 1017 68 10000 6.7 180 18:37 14.03.2020
1148 Clouds 21 1017 68 10000 6.7 180 18:19 14.03.2020
1149 Clouds 22 1016 60 10000 5.7 200 17:40 14.03.2020
1150 Clouds 23 1016 60 10000 5.7 200 17:21 14.03.2020
1151 Clouds 23 1016 57 10000 7.7 200 16:57 14.03.2020
1152 Clouds 23 1016 57 10000 7.7 200 16:38 14.03.2020
1153 Clouds 24 1016 57 10000 7.7 200 16:18 14.03.2020
1154 Clouds 25 1015 50 10000 5.1 180 15:28 14.03.2020
1155 Clouds 25 1015 53 10000 3.1 190 14:59 14.03.2020
1156 Clouds 24 1015 53 10000 3.1 190 14:38 14.03.2020
1157 Clouds 24 1015 53 10000 3.1 190 14:20 14.03.2020
1158 Clouds 24 1015 53 10000 2.6 0 13:56 14.03.2020
1159 Clouds 25 1015 53 10000 2.6 0 13:38 14.03.2020
1160 Clouds 24 1015 53 10000 2.6 0 13:18 14.03.2020
1161 Clouds 24 1016 56 10000 3.6 300 12:43 14.03.2020
1162 Clouds 23 1016 56 10000 3.6 300 12:43 14.03.2020
1163 Clouds 23 1016 56 10000 3.6 300 12:24 14.03.2020
1164 Clouds 23 1016 64 10000 3.6 350 11:44 14.03.2020
1165 Clouds 22 1016 64 10000 3.6 350 11:25 14.03.2020
1166 Clouds 21 1016 68 10000 4.1 10 10:48 14.03.2020
1167 Clouds 21 1016 68 10000 4.1 10 10:28 14.03.2020
1168 Clouds 20 1016 77 10000 3.6 10 09:59 14.03.2020
1169 Clouds 20 1016 77 10000 3.6 10 09:40 14.03.2020
1170 Clouds 20 1016 77 10000 3.6 10 09:21 14.03.2020
1171 Clouds 19 1016 82 10000 2.6 350 08:46 14.03.2020
1172 Clouds 18 1016 82 10000 2.6 350 08:27 14.03.2020
1173 Clouds 16 1015 93 10000 2.1 360 07:45 14.03.2020
1174 Clouds 16 1015 93 8000 3.1 320 07:22 14.03.2020
1175 Clouds 16 1015 100 8000 2.6 350 06:55 14.03.2020
1176 Clouds 15 1015 93 6000 4.1 340 06:36 14.03.2020
1177 Fog 15 1014 93 900 4.1 330 04:57 14.03.2020
1178 Mist 16 1014 93 2000 3.1 320 03:40 14.03.2020
1179 Fog 16 1014 93 700 2.6 300 02:53 14.03.2020
1180 Clouds 16 1014 93 8000 2.1 320 01:50 14.03.2020
1181 Clouds 16 1014 88 10000 1 0 00:36 14.03.2020
1182 Clouds 17 1014 93 8000 0.5 0 23:44 13.03.2020
1183 Clouds 17 1014 93 8000 0.5 0 23:24 13.03.2020
1184 Clouds 16 1014 100 10000 0.5 0 22:46 13.03.2020
1185 Clouds 16 1014 100 10000 0.5 0 22:24 13.03.2020
1186 Clouds 16 1015 100 8000 1 0 21:42 13.03.2020
1187 Clouds 16 1015 100 8000 1 0 21:21 13.03.2020
1188 Mist 16 1015 93 3000 1.5 0 20:56 13.03.2020
1189 Clouds 17 1014 93 8000 1.5 0 20:37 13.03.2020
1190 Clouds 17 1014 93 8000 1.5 0 20:18 13.03.2020
1191 Clear 18 1013 82 10000 3.6 330 19:42 13.03.2020
1192 Clear 18 1013 82 10000 3.6 330 19:23 13.03.2020
1193 Clear 19 1012 68 10000 5.1 330 18:44 13.03.2020
1194 Clear 20 1012 68 10000 5.1 330 18:25 13.03.2020
1195 Clear 23 1012 56 10000 6.7 320 17:43 13.03.2020
1196 Clear 23 1012 56 10000 6.7 320 17:22 13.03.2020
1197 Clear 22 1012 53 10000 6.7 310 16:59 13.03.2020
1198 Clear 23 1012 53 10000 6.7 310 16:39 13.03.2020
1199 Clear 23 1012 53 10000 6.7 310 16:21 13.03.2020
1200 Clear 24 1012 53 10000 5.7 320 15:46 13.03.2020
1201 Clear 24 1012 53 10000 5.7 320 15:24 13.03.2020
1202 Clear 25 1012 50 10000 3.1 320 14:59 13.03.2020
1203 Clear 25 1012 50 10000 3.1 320 14:40 13.03.2020
1204 Clear 25 1012 50 10000 3.1 320 14:22 13.03.2020
1205 Clouds 24 1013 57 10000 4.1 320 13:55 13.03.2020
1206 Clouds 24 1013 57 10000 4.1 320 13:37 13.03.2020
1207 Clouds 24 1013 57 10000 4.1 320 13:18 13.03.2020
1208 Clouds 23 1014 64 10000 5.1 320 12:39 13.03.2020
1209 Clouds 22 1014 64 10000 5.1 320 12:21 13.03.2020
1210 Clouds 22 1014 68 10000 5.7 320 11:57 13.03.2020
1211 Clouds 22 1014 68 10000 5.7 320 11:37 13.03.2020
1212 Clouds 21 1014 68 10000 5.7 320 11:19 13.03.2020
1213 Clouds 21 1014 72 10000 5.1 330 10:47 13.03.2020
1214 Clouds 21 1014 72 10000 5.1 330 10:26 13.03.2020
1215 Clouds 20 1014 72 10000 5.1 350 09:56 13.03.2020
1216 Clouds 21 1014 72 10000 5.1 350 09:38 13.03.2020
1217 Clouds 20 1014 72 10000 5.1 350 09:19 13.03.2020
1218 Clouds 19 1014 77 10000 4.1 40 08:42 13.03.2020
1219 Clouds 19 1014 77 10000 4.1 40 08:22 13.03.2020
1220 Clouds 17 1014 93 10000 3.6 360 07:47 13.03.2020
1221 Clouds 16 1014 93 10000 4.6 360 07:27 13.03.2020
1222 Clouds 16 1014 100 8000 4.6 330 06:46 13.03.2020
1223 Mist 16 1014 93 5000 4.6 340 06:24 13.03.2020
1224 Clouds 15 1013 93 8000 6.2 340 05:46 13.03.2020
1225 Clear 16 1013 87 10000 4.6 330 05:20 13.03.2020
1226 Clear 16 1013 87 10000 4.1 330 04:37 13.03.2020
1227 Clear 16 1012 93 10000 2.1 360 02:58 13.03.2020
1228 Mist 16 1013 100 5000 1.5 0 01:43 13.03.2020
1229 Mist 16 1013 100 5000 1.5 0 01:18 13.03.2020
1230 Mist 16 1013 100 5000 1 50 00:46 13.03.2020
1231 Mist 16 1013 100 5000 1 50 00:20 13.03.2020
1232 Mist 16 1013 93 5000 0.5 0 23:47 12.03.2020
1233 Clouds 17 1013 93 8000 1.5 0 23:26 12.03.2020
1234 Clouds 16 1013 93 7000 0.5 0 22:55 12.03.2020
1235 Mist 16 1013 100 1500 2.1 130 22:37 12.03.2020
1236 Mist 16 1013 100 1500 2.1 130 22:19 12.03.2020
1237 Mist 17 1013 93 2500 2.1 130 21:42 12.03.2020
1238 Clouds 17 1013 93 7000 2.1 130 21:24 12.03.2020
1239 Mist 17 1013 93 3500 2.6 150 20:56 12.03.2020
1240 Mist 17 1013 93 3500 2.6 150 20:37 12.03.2020
1241 Clouds 17 1013 93 8000 2.6 150 20:18 12.03.2020
1242 Clouds 18 1012 82 10000 2.1 140 19:39 12.03.2020
1243 Clouds 18 1012 82 10000 2.1 140 19:20 12.03.2020
1244 Clouds 18 1012 82 10000 2.1 140 19:20 12.03.2020
1245 Clouds 19 1012 82 10000 4.1 150 18:43 12.03.2020
1246 Clouds 19 1012 82 10000 4.1 150 18:24 12.03.2020
1247 Clouds 20 1012 72 10000 4.6 170 17:57 12.03.2020
1248 Clouds 21 1012 72 10000 4.6 170 17:37 12.03.2020
1249 Clouds 21 1012 72 10000 4.6 170 17:18 12.03.2020
1250 Clouds 21 1011 72 10000 4.6 160 16:54 12.03.2020
1251 Clouds 22 1011 72 10000 4.6 160 16:36 12.03.2020
1252 Clouds 22 1011 72 10000 4.6 160 16:18 12.03.2020
1253 Clouds 22 1011 68 10000 4.1 150 15:41 12.03.2020
1254 Clouds 22 1011 68 10000 4.1 150 15:22 12.03.2020
1255 Clouds 23 1012 64 10000 4.1 170 14:39 12.03.2020
1256 Clouds 23 1006 10 0 1.34 126 14:19 12.03.2020
1257 Clouds 24 1006 10 0 2.24 186 13:41 12.03.2020
1258 Clouds 24 1006 10 0 2.24 113 13:22 12.03.2020
1259 Clouds 24 1006 9 0 2.25 215 12:56 12.03.2020
1260 Clouds 24 1006 10 0 0.89 312 12:38 12.03.2020
1261 Clouds 23 1013 64 10000 3.6 300 12:19 12.03.2020
1262 Clouds 23 1013 64 10000 3.6 300 11:56 12.03.2020
1263 Clouds 23 1013 64 10000 3.6 300 11:37 12.03.2020
1264 Clouds 22 1013 64 10000 3.6 300 11:19 12.03.2020
1265 Clouds 22 1013 64 10000 3.6 300 11:19 12.03.2020
1266 Clouds 21 1013 68 10000 3.6 330 10:57 12.03.2020
1267 Clouds 21 1013 68 10000 3.6 330 10:57 12.03.2020
1268 Clouds 21 1013 68 10000 3.6 330 10:39 12.03.2020
1269 Clouds 21 1013 68 10000 3.6 330 10:21 12.03.2020
1270 Clouds 20 1013 72 10000 4.6 300 09:43 12.03.2020
1271 Clouds 20 1013 72 10000 4.6 300 09:43 12.03.2020
1272 Clouds 20 1013 72 10000 4.6 300 09:25 12.03.2020
1273 Clouds 19 1013 88 10000 3.1 340 08:41 12.03.2020
1274 Clouds 18 1013 88 10000 3.1 340 08:20 12.03.2020
1275 Clouds 17 1013 93 10000 2.6 350 07:53 12.03.2020
1276 Clouds 17 1013 93 10000 2.1 320 07:23 12.03.2020
1277 Clouds 17 1013 100 7000 3.1 320 06:59 12.03.2020
1278 Mist 15 1012 100 5000 3.6 320 05:43 12.03.2020
1279 Clouds 16 1012 100 6000 4.6 320 05:21 12.03.2020
1280 Clouds 16 1011 93 10000 5.7 330 02:41 12.03.2020
1281 Clouds 17 1011 87 10000 6.2 320 01:31 12.03.2020
1282 Clouds 18 1011 87 10000 5.7 320 00:45 12.03.2020
1283 Clouds 18 1011 87 10000 5.7 320 00:26 12.03.2020
1284 Clouds 20 1010 82 10000 4.6 320 23:47 11.03.2020
1285 Clouds 19 1010 82 10000 4.6 320 23:25 11.03.2020
1286 Clouds 20 1010 77 10000 3.6 320 22:48 11.03.2020
1287 Clouds 20 1010 77 10000 3.6 320 22:30 11.03.2020
1288 Clouds 21 1010 68 10000 4.1 270 21:59 11.03.2020
1289 Clouds 21 1010 68 10000 4.1 270 21:41 11.03.2020
1290 Clouds 21 1010 68 10000 4.1 270 21:22 11.03.2020
1291 Clouds 20 1010 77 10000 3.1 310 20:58 11.03.2020
1292 Clouds 20 1010 77 10000 3.1 310 20:39 11.03.2020
1293 Rain 21 1010 77 10000 3.1 310 20:20 11.03.2020
1294 Rain 20 1009 77 10000 4.6 310 19:44 11.03.2020
1295 Rain 20 1009 77 10000 4.6 310 19:26 11.03.2020
1296 Rain 20 1009 72 10000 5.7 300 18:59 11.03.2020
1297 Rain 21 1009 72 10000 5.7 300 18:40 11.03.2020
1298 Rain 21 1009 72 10000 5.7 300 18:22 11.03.2020
1299 Rain 22 1009 64 10000 4.6 300 17:58 11.03.2020
1300 Rain 22 1009 64 10000 4.6 300 17:39 11.03.2020
1301 Rain 24 1009 64 10000 4.6 300 17:20 11.03.2020
1302 Rain 25 1009 56 10000 5.1 310 16:47 11.03.2020
1303 Rain 25 1009 56 10000 5.1 310 16:23 11.03.2020
1304 Rain 27 1009 50 10000 3.1 250 15:59 11.03.2020
1305 Rain 26 1009 50 10000 3.1 250 15:40 11.03.2020
1306 Rain 27 1009 50 10000 3.1 250 15:22 11.03.2020
1307 Rain 27 1009 50 10000 3.1 260 14:42 11.03.2020
1308 Clouds 27 1009 50 10000 3.1 260 14:23 11.03.2020
1309 Clouds 27 1010 47 10000 5.7 200 13:56 11.03.2020
1310 Clouds 28 1010 47 10000 5.7 200 13:37 11.03.2020
1311 Clouds 27 1010 47 10000 5.7 200 13:19 11.03.2020
1312 Clouds 28 1010 47 10000 6.7 210 12:40 11.03.2020
1313 Clouds 27 1010 53 10000 5.1 310 12:20 11.03.2020
1314 Clouds 28 1010 51 10000 3.6 190 11:56 11.03.2020
1315 Clouds 27 1010 51 10000 3.6 190 11:37 11.03.2020
1316 Clouds 28 1010 51 10000 3.6 190 11:18 11.03.2020
1317 Clouds 25 1011 50 10000 1.5 0 10:42 11.03.2020
1318 Clouds 27 1011 50 10000 1.5 0 10:42 11.03.2020
1319 Clouds 26 1011 50 10000 1.5 0 10:19 11.03.2020
1320 Clouds 23 1011 64 10000 3.1 250 09:43 11.03.2020
1321 Clouds 23 1011 64 10000 3.1 250 09:25 11.03.2020
1322 Clouds 22 1010 73 10000 3.6 250 08:58 11.03.2020
1323 Clouds 21 1010 73 10000 3.6 250 08:40 11.03.2020
1324 Clouds 21 1010 73 10000 3.6 250 08:19 11.03.2020
1325 Clouds 20 1010 77 10000 5.7 240 07:43 11.03.2020
1326 Clouds 20 1010 77 10000 5.7 240 07:19 11.03.2020
1327 Clouds 20 1010 77 10000 5.1 230 06:44 11.03.2020
1328 Clouds 20 1010 77 10000 4.1 230 05:36 11.03.2020
1329 Clouds 19 1009 77 10000 2.6 240 04:31 11.03.2020
1330 Clouds 19 1010 77 10000 4.6 230 02:24 11.03.2020
1331 Clouds 19 1010 72 10000 3.1 220 01:28 11.03.2020
1332 Clouds 19 1010 72 10000 1.5 0 00:47 11.03.2020
1333 Clouds 19 1010 72 10000 1.5 0 00:18 11.03.2020
1334 Clouds 19 1010 72 10000 3.1 140 23:40 10.03.2020
1335 Clouds 19 1010 72 10000 3.1 140 23:21 10.03.2020
1336 Clouds 19 1011 72 10000 4.1 140 22:40 10.03.2020
1337 Clouds 19 1011 72 10000 4.1 140 22:20 10.03.2020
1338 Clouds 19 1011 68 10000 5.7 160 21:57 10.03.2020
1339 Clouds 19 1011 68 10000 5.7 160 21:57 10.03.2020
1340 Clouds 19 1011 68 10000 5.7 160 21:39 10.03.2020
1341 Clouds 19 1011 68 10000 5.7 160 21:39 10.03.2020
1342 Clouds 19 1011 68 10000 5.7 160 21:20 10.03.2020
1343 Clouds 19 1010 64 10000 5.1 150 20:59 10.03.2020
1344 Clouds 19 1010 64 10000 5.1 150 20:41 10.03.2020
1345 Clouds 21 1010 64 10000 5.1 150 20:18 10.03.2020
1346 Clouds 21 1010 64 10000 7.2 140 19:57 10.03.2020
1347 Clouds 20 1010 64 10000 7.2 140 19:38 10.03.2020
1348 Clouds 20 1010 64 10000 7.2 140 19:38 10.03.2020
1349 Clouds 20 1010 64 10000 7.2 140 19:20 10.03.2020
1350 Clouds 22 1009 60 10000 8.2 140 18:45 10.03.2020
1351 Clouds 22 1009 60 10000 8.2 140 18:26 10.03.2020
1352 Clouds 23 1009 53 10000 8.7 150 17:58 10.03.2020
1353 Clouds 23 1009 53 10000 8.7 150 17:40 10.03.2020
1354 Clouds 23 1009 53 10000 8.7 150 17:21 10.03.2020
1355 Clouds 24 1009 47 10000 8.7 140 16:40 10.03.2020
1356 Clouds 25 1009 47 10000 8.7 140 16:20 10.03.2020
1357 Clouds 25 1009 45 10000 7.7 150 15:57 10.03.2020
1358 Clouds 26 1009 45 10000 7.7 150 15:39 10.03.2020
1359 Clouds 26 1009 45 10000 7.7 150 15:19 10.03.2020
1360 Clouds 27 1009 42 10000 7.7 150 14:54 10.03.2020
1361 Clouds 27 1009 42 10000 7.7 150 14:36 10.03.2020
1362 Clouds 27 1009 42 10000 7.7 150 14:18 10.03.2020
1363 Clouds 27 1010 47 10000 8.7 190 13:42 10.03.2020
1364 Clouds 27 1010 47 10000 8.7 190 13:24 10.03.2020
1365 Clouds 26 1011 44 10000 9.3 180 12:42 10.03.2020
1366 Clouds 26 1011 44 10000 9.3 180 12:21 10.03.2020
1367 Clouds 27 1011 47 10000 8.2 200 11:59 10.03.2020
1368 Clouds 27 1011 47 10000 8.2 200 11:41 10.03.2020
1369 Clouds 25 1011 53 10000 7.7 200 11:23 10.03.2020
1370 Clouds 24 1011 56 10000 5.1 200 10:54 10.03.2020
1371 Clouds 23 1011 56 10000 5.1 200 10:36 10.03.2020
1372 Clouds 23 1011 56 10000 5.1 200 10:18 10.03.2020
1373 Clouds 21 1011 68 10000 5.1 240 09:42 10.03.2020
1374 Clouds 20 1011 68 10000 5.1 240 09:19 10.03.2020
1375 Clouds 20 1011 72 10000 5.1 240 08:53 10.03.2020
1376 Clouds 19 1011 72 10000 5.1 240 08:34 10.03.2020
1377 Clouds 20 1011 68 10000 4.1 250 07:53 10.03.2020
1378 Clouds 19 1011 68 10000 4.1 250 07:34 10.03.2020
1379 Clouds 18 1011 77 10000 2.6 250 06:57 10.03.2020
1380 Clouds 18 1011 77 10000 2.6 250 06:37 10.03.2020
1381 Clouds 18 1011 72 10000 3.1 230 05:42 10.03.2020
1382 Clouds 17 1011 72 10000 2.6 210 04:56 10.03.2020
1383 Clouds 18 1011 72 10000 2.6 210 04:25 10.03.2020
1384 Clouds 18 1011 72 10000 2.6 210 04:25 10.03.2020
1385 Clouds 17 1012 77 10000 1 0 02:46 10.03.2020
1386 Clouds 18 1012 68 10000 6.7 170 01:32 10.03.2020
1387 Clouds 18 1013 68 10000 7.7 170 00:50 10.03.2020
1388 Clouds 18 1013 68 10000 7.7 170 00:28 10.03.2020
1389 Clouds 18 1014 72 10000 8.2 170 23:42 09.03.2020
1390 Clouds 18 1014 72 10000 8.2 170 23:22 09.03.2020
1391 Clouds 18 1014 77 10000 7.7 180 22:57 09.03.2020
1392 Clouds 18 1014 77 10000 7.7 180 22:37 09.03.2020
1393 Clouds 18 1014 77 10000 7.7 180 22:18 09.03.2020
1394 Clouds 17 1015 82 10000 9.3 190 21:43 09.03.2020
1395 Clouds 18 1015 82 10000 9.3 190 21:22 09.03.2020
1396 Clouds 18 1014 82 10000 9.3 180 20:58 09.03.2020
1397 Clouds 18 1014 82 10000 9.3 180 20:40 09.03.2020
1398 Clouds 18 1014 82 10000 9.3 180 20:20 09.03.2020
1399 Clouds 18 1014 82 10000 9.3 180 19:45 09.03.2020
1400 Clouds 18 1014 82 10000 9.3 180 19:26 09.03.2020
1401 Clouds 18 1014 77 10000 10.3 190 18:59 09.03.2020
1402 Clouds 19 1014 77 10000 10.3 190 18:40 09.03.2020
1403 Clouds 19 1014 77 10000 10.3 190 18:20 09.03.2020
1404 Clouds 20 1014 68 10000 9.3 190 17:58 09.03.2020
1405 Clouds 21 1014 68 10000 9.3 190 17:39 09.03.2020
1406 Clouds 21 1014 68 10000 9.3 190 17:20 09.03.2020
1407 Clouds 22 1014 64 10000 11.3 190 16:59 09.03.2020
1408 Clouds 22 1014 64 10000 11.3 190 16:41 09.03.2020
1409 Clouds 22 1014 64 10000 11.3 190 16:22 09.03.2020
1410 Clouds 23 1014 60 10000 9.8 180 15:58 09.03.2020
1411 Clouds 23 1014 60 10000 9.8 180 15:39 09.03.2020
1412 Clouds 23 1014 60 10000 9.8 180 15:21 09.03.2020
1413 Clouds 24 1014 57 10000 10.8 170 14:58 09.03.2020
1414 Clouds 24 1014 57 10000 10.8 170 14:38 09.03.2020
1415 Clouds 24 1014 57 10000 10.8 170 14:19 09.03.2020
1416 Clouds 24 1015 57 10000 11.3 170 13:58 09.03.2020
1417 Clouds 24 1015 57 10000 11.3 170 13:38 09.03.2020
1418 Clouds 24 1015 57 10000 11.3 170 13:19 09.03.2020
1419 Clouds 25 1016 53 10000 11.8 170 12:43 09.03.2020
1420 Clouds 24 1016 53 10000 11.8 170 12:23 09.03.2020
1421 Clouds 25 1016 57 10000 10.3 170 11:58 09.03.2020
1422 Clouds 25 1016 57 10000 10.3 170 11:40 09.03.2020
1423 Clouds 24 1016 57 10000 10.3 170 11:20 09.03.2020
1424 Clouds 23 1017 60 10000 11.3 160 10:55 09.03.2020
1425 Clouds 23 1017 60 10000 11.3 160 10:37 09.03.2020
1426 Clouds 23 1017 60 10000 11.3 160 10:18 09.03.2020
1427 Clouds 22 1017 68 10000 11.8 160 09:42 09.03.2020
1428 Clouds 21 1017 68 10000 11.8 160 09:23 09.03.2020
1429 Clouds 21 1017 72 10000 11.8 160 08:45 09.03.2020
1430 Clouds 20 1017 72 10000 11.8 160 08:27 09.03.2020
1431 Clouds 19 1017 77 10000 11.3 160 07:44 09.03.2020
1432 Clouds 19 1017 77 10000 11.3 160 07:22 09.03.2020
1433 Clouds 18 1016 82 10000 10.3 170 06:59 09.03.2020
1434 Clouds 18 1016 82 10000 10.3 170 06:38 09.03.2020
1435 Clouds 18 1016 82 10000 10.3 170 06:20 09.03.2020
1436 Clouds 18 1016 77 10000 9.3 170 05:41 09.03.2020
1437 Clouds 17 1016 77 10000 9.3 170 04:48 09.03.2020
1438 Clouds 18 1016 77 10000 9.3 170 04:24 09.03.2020
1439 Clouds 18 1016 77 10000 9.3 170 03:46 09.03.2020
1440 Clouds 18 1016 77 10000 9.3 170 02:50 09.03.2020
1441 Clouds 18 1017 72 10000 9.8 180 00:42 09.03.2020
1442 Clouds 18 1018 77 10000 7.7 190 00:24 09.03.2020
1443 Clouds 18 1018 77 10000 7.7 190 23:55 08.03.2020
1444 Clouds 18 1018 77 10000 7.7 190 23:29 08.03.2020
1445 Clear 18 1025 81 0 1.79 87 22:59 08.03.2020
1446 Clear 18 1025 80 0 2.24 215 22:40 08.03.2020
1447 Clouds 18 1018 72 10000 7.7 180 22:22 08.03.2020
1448 Clouds 18 1018 72 10000 7.7 180 21:57 08.03.2020
1449 Clouds 18 1018 72 10000 7.7 180 21:57 08.03.2020
1450 Clouds 18 1018 72 10000 7.7 180 21:39 08.03.2020
1451 Clouds 18 1018 72 10000 7.7 180 21:20 08.03.2020
1452 Clouds 18 1018 72 10000 9.3 180 20:56 08.03.2020
1453 Clouds 18 1018 72 10000 9.3 180 20:37 08.03.2020
1454 Clouds 18 1018 72 10000 9.3 180 20:19 08.03.2020
1455 Clouds 18 1018 72 10000 9.8 180 19:38 08.03.2020
1456 Clouds 18 1018 72 10000 9.8 180 19:19 08.03.2020
1457 Clouds 19 1018 68 10000 10.3 180 18:55 08.03.2020
1458 Clouds 19 1018 68 10000 10.3 180 18:37 08.03.2020
1459 Clouds 19 1018 68 10000 10.3 180 18:18 08.03.2020
1460 Clouds 20 1018 64 10000 10.3 170 17:39 08.03.2020
1461 Clouds 20 1018 64 10000 10.3 170 17:20 08.03.2020
1462 Clouds 21 1018 64 10000 11.8 170 16:57 08.03.2020
1463 Clouds 21 1018 64 10000 11.8 170 16:39 08.03.2020
1464 Clouds 20 1018 64 10000 11.8 170 16:20 08.03.2020
1465 Clouds 21 1018 64 10000 12.3 170 15:41 08.03.2020
1466 Clouds 21 1018 64 10000 12.3 170 15:21 08.03.2020
1467 Clouds 21 1018 68 10000 11.3 170 14:57 08.03.2020
1468 Clouds 21 1018 68 10000 11.3 170 14:37 08.03.2020
1469 Clouds 20 1018 82 10000 10.8 170 14:19 08.03.2020
1470 Thunderstorm 20 1018 77 10000 11.8 180 13:41 08.03.2020
1471 Thunderstorm 21 1018 77 10000 11.8 180 13:20 08.03.2020
1472 Clouds 22 1018 73 10000 9.8 180 12:49 08.03.2020
1473 Clouds 22 1018 73 10000 9.8 180 12:30 08.03.2020
1474 Clouds 22 1019 68 10000 12.3 190 11:59 08.03.2020
1475 Clouds 22 1019 68 10000 12.3 190 11:41 08.03.2020
1476 Clouds 22 1019 68 10000 12.3 190 11:21 08.03.2020
1477 Clouds 22 1019 68 10000 12.3 190 11:21 08.03.2020
1478 Clouds 23 1018 64 10000 9.3 180 10:42 08.03.2020
1479 Clouds 23 1018 64 10000 9.3 180 10:24 08.03.2020
1480 Clouds 23 1017 68 10000 7.7 180 09:59 08.03.2020
1481 Clouds 23 1017 68 10000 7.7 180 09:38 08.03.2020
1482 Clouds 23 1017 68 10000 7.7 180 09:20 08.03.2020
1483 Clouds 22 1017 73 10000 6.7 180 08:42 08.03.2020
1484 Clouds 21 1017 73 10000 6.7 180 08:21 08.03.2020
1485 Clouds 20 1017 93 10000 5.1 180 07:46 08.03.2020
1486 Clouds 19 1017 93 10000 5.1 180 07:27 08.03.2020
1487 Clouds 18 1016 93 10000 4.1 180 06:43 08.03.2020
1488 Clouds 18 1016 93 10000 4.6 200 06:25 08.03.2020
1489 Clouds 18 1015 88 10000 5.7 190 05:43 08.03.2020
1490 Clouds 19 1015 88 10000 3.6 200 03:52 08.03.2020
1491 Clouds 19 1015 88 10000 3.1 220 02:40 08.03.2020
1492 Clouds 19 1015 88 10000 5.1 210 01:38 08.03.2020
1493 Clouds 20 1015 88 10000 5.1 210 01:18 08.03.2020
1494 Clouds 20 1016 93 10000 5.7 220 00:30 08.03.2020
1495 Clouds 20 1016 93 10000 6.2 210 23:57 07.03.2020
1496 Clouds 19 1016 93 10000 6.2 210 23:36 07.03.2020
1497 Clouds 19 1016 93 10000 6.2 210 23:18 07.03.2020
1498 Clouds 20 1016 93 10000 5.1 180 22:38 07.03.2020
1499 Clouds 20 1016 93 10000 5.1 180 22:19 07.03.2020
1500 Clouds 20 1016 93 10000 4.1 170 21:44 07.03.2020
1501 Clouds 20 1016 93 10000 4.1 170 21:22 07.03.2020
1502 Clouds 20 1015 93 10000 6.2 160 20:41 07.03.2020
1503 Clouds 20 1015 93 10000 6.2 160 20:21 07.03.2020
1504 Clear 20 1014 88 10000 5.7 160 19:42 07.03.2020
1505 Clear 21 1014 88 10000 5.7 160 19:23 07.03.2020
1506 Clear 21 1014 83 10000 5.7 160 18:59 07.03.2020
1507 Clear 22 1014 83 10000 5.7 160 18:39 07.03.2020
1508 Clear 22 1014 83 10000 5.7 160 18:21 07.03.2020
1509 Clear 23 1013 73 10000 5.7 160 17:42 07.03.2020
1510 Clear 24 1013 73 10000 5.7 160 17:20 07.03.2020
1511 Clear 25 1013 61 10000 6.2 150 16:57 07.03.2020
1512 Clear 26 1013 61 10000 6.2 150 16:39 07.03.2020
1513 Clear 26 1013 61 10000 6.2 150 16:21 07.03.2020
1514 Clear 27 1013 54 10000 5.7 160 15:55 07.03.2020
1515 Clear 26 1013 54 10000 5.7 160 15:37 07.03.2020
1516 Clear 26 1013 54 10000 5.7 160 15:19 07.03.2020
1517 Clear 28 1013 40 10000 4.6 180 14:45 07.03.2020
1518 Clear 29 1014 42 10000 4.6 180 14:24 07.03.2020
1519 Clear 29 1014 42 10000 4.6 180 13:57 07.03.2020
1520 Clear 29 1014 42 10000 4.6 180 13:38 07.03.2020
1521 Clear 29 1014 42 10000 4.6 180 13:18 07.03.2020
1522 Clear 28 1014 45 10000 3.1 190 12:40 07.03.2020
1523 Clear 28 1014 45 10000 3.1 190 12:20 07.03.2020
1524 Clear 26 1014 57 10000 2.6 170 11:57 07.03.2020
1525 Clear 27 1014 57 10000 2.6 170 11:38 07.03.2020
1526 Clear 27 1014 57 10000 2.6 170 11:19 07.03.2020
1527 Clouds 25 1015 73 10000 3.1 130 10:40 07.03.2020
1528 Clouds 25 1015 73 10000 3.1 130 10:20 07.03.2020
1529 Clouds 24 1015 83 10000 4.1 160 09:56 07.03.2020
1530 Clouds 24 1015 83 10000 4.1 160 09:37 07.03.2020
1531 Clouds 23 1015 83 10000 4.1 160 09:18 07.03.2020
1532 Clouds 22 1015 82 10000 3.1 150 08:43 07.03.2020
1533 Clouds 21 1014 100 10000 2.6 130 08:21 07.03.2020
1534 Mist 21 1014 93 2000 2.6 160 07:49 07.03.2020
1535 Fog 19 1014 100 200 1.5 100 07:23 07.03.2020
1536 Clear 19 1012 80 0 0.37 217 06:56 07.03.2020
1537 Fog 18 1013 93 200 2.6 130 06:30 07.03.2020
1538 Fog 18 1013 93 200 2.6 130 05:53 07.03.2020
1539 Clear 18 1013 88 10000 1.5 130 04:43 07.03.2020
1540 Clear 19 1013 77 10000 2.6 320 02:47 07.03.2020
1541 Clear 19 1013 77 10000 2.6 320 02:24 07.03.2020
1542 Clear 21 1013 68 10000 1.5 0 01:26 07.03.2020
1543 Clear 21 1013 68 10000 1.5 0 00:38 07.03.2020
1544 Clear 22 1013 68 10000 1.5 0 00:20 07.03.2020
1545 Clear 21 1013 73 10000 2.1 70 23:45 06.03.2020
1546 Clear 21 1013 73 10000 2.1 70 23:26 06.03.2020
1547 Clear 22 1013 64 10000 1.5 0 22:48 06.03.2020
1548 Clear 22 1013 64 10000 1.5 0 22:21 06.03.2020
1549 Clear 22 1013 64 10000 2.1 150 21:56 06.03.2020
1550 Clear 23 1013 64 10000 2.1 150 21:38 06.03.2020
1551 Clear 23 1013 64 10000 2.1 150 21:18 06.03.2020
1552 Clear 23 1013 64 10000 2.1 150 21:18 06.03.2020
1553 Clear 24 1013 57 10000 1.5 0 20:38 06.03.2020
1554 Clouds 25 1013 57 10000 1.5 0 20:20 06.03.2020
1555 Clouds 24 1012 60 10000 2.6 140 19:47 06.03.2020
1556 Clouds 25 1012 60 10000 2.6 140 19:28 06.03.2020
1557 Clouds 26 1012 47 10000 2.6 130 18:58 06.03.2020
1558 Clouds 27 1012 47 10000 2.6 130 18:39 06.03.2020
1559 Clouds 28 1012 47 10000 2.6 130 18:19 06.03.2020
1560 Clouds 28 1012 47 10000 2.6 130 18:19 06.03.2020
1561 Clouds 28 1011 37 10000 4.6 170 17:42 06.03.2020
1562 Clouds 30 1011 37 10000 4.6 170 17:24 06.03.2020
1563 Clouds 32 1010 26 10000 4.6 180 16:59 06.03.2020
1564 Clouds 33 1010 26 10000 4.6 180 16:40 06.03.2020
1565 Clouds 33 1010 26 10000 4.6 180 16:20 06.03.2020
1566 Clouds 34 1010 25 10000 3.6 180 15:45 06.03.2020
1567 Clouds 35 1010 25 10000 3.6 180 15:24 06.03.2020
1568 Clouds 34 1011 28 10000 3.6 170 14:55 06.03.2020
1569 Clouds 34 1011 28 10000 3.6 170 14:37 06.03.2020
1570 Clouds 35 1011 28 10000 3.6 170 14:19 06.03.2020
1571 Clouds 34 1012 30 10000 3.6 180 13:43 06.03.2020
1572 Clouds 34 1012 30 10000 3.6 180 13:22 06.03.2020
1573 Clouds 33 1012 38 10000 2.6 160 12:57 06.03.2020
1574 Clouds 32 1012 38 10000 2.6 160 12:38 06.03.2020
1575 Clouds 30 1013 42 10000 1.5 0 12:19 06.03.2020
1576 Clouds 30 1013 42 10000 1.5 0 12:19 06.03.2020
1577 Clouds 31 1007 4 0 1.12 210 11:57 06.03.2020
1578 Clouds 30 1007 4 0 1.12 210 11:38 06.03.2020
1579 Clouds 28 1014 47 10000 1.5 0 11:19 06.03.2020
1580 Clouds 27 1014 47 10000 1.5 0 10:39 06.03.2020
1581 Clouds 27 1014 47 10000 1.5 0 10:20 06.03.2020
1582 Clouds 27 1014 54 10000 1 0 09:55 06.03.2020
1583 Clouds 27 1014 54 10000 1 0 09:36 06.03.2020
1584 Clouds 26 1014 60 10000 1.5 0 09:18 06.03.2020
1585 Clouds 25 1014 64 10000 2.1 100 08:43 06.03.2020
1586 Clouds 25 1014 64 10000 2.1 100 08:25 06.03.2020
1587 Clouds 25 1014 64 10000 2.1 100 08:25 06.03.2020
1588 Rain 23 1013 73 10000 2.1 90 07:57 06.03.2020
1589 Rain 22 1013 73 10000 2.1 90 07:37 06.03.2020
1590 Clouds 21 1013 73 10000 3.1 240 06:58 06.03.2020
1591 Clouds 22 1013 73 10000 3.1 240 06:39 06.03.2020
1592 Clouds 21 1012 82 10000 4.1 100 05:42 06.03.2020
1593 Clouds 21 1012 82 10000 4.1 100 05:24 06.03.2020
1594 Rain 21 1013 82 10000 3.1 250 04:57 06.03.2020
1595 Clouds 20 1013 82 10000 2.1 70 02:36 06.03.2020
1596 Rain 21 1014 77 10000 3.6 190 01:39 06.03.2020
1597 Rain 21 1014 77 10000 3.6 190 01:20 06.03.2020
1598 Clouds 21 1015 73 10000 3.1 200 00:32 06.03.2020
1599 Clouds 21 1015 73 10000 4.6 190 23:57 05.03.2020
1600 Clouds 21 1015 73 10000 4.6 190 23:39 05.03.2020
1601 Clear 21 1015 73 10000 4.6 190 23:19 05.03.2020
1602 Clear 21 1015 68 10000 4.6 200 22:40 05.03.2020
1603 Clear 21 1015 68 10000 4.6 200 22:22 05.03.2020
1604 Clear 20 1015 72 10000 6.2 210 21:57 05.03.2020
1605 Clear 20 1015 72 10000 6.2 210 21:38 05.03.2020
1606 Clear 21 1015 72 10000 6.2 210 21:20 05.03.2020
1607 Clear 21 1015 77 10000 5.7 230 20:59 05.03.2020
1608 Clear 21 1015 77 10000 5.7 230 20:40 05.03.2020
1609 Clouds 21 1015 77 10000 5.7 230 20:20 05.03.2020
1610 Clouds 21 1015 77 10000 7.2 230 19:58 05.03.2020
1611 Clouds 21 1015 77 10000 7.2 230 19:39 05.03.2020
1612 Clouds 21 1015 77 10000 7.2 230 19:39 05.03.2020
1613 Clouds 21 1015 77 10000 7.2 230 19:19 05.03.2020
1614 Clouds 21 1015 77 10000 7.7 230 18:55 05.03.2020
1615 Clouds 21 1015 77 10000 7.7 230 18:36 05.03.2020
1616 Clouds 21 1015 77 10000 7.7 230 18:18 05.03.2020
1617 Clouds 22 1015 73 10000 7.7 230 17:42 05.03.2020
1618 Clear 22 1015 73 10000 7.7 230 17:22 05.03.2020
1619 Clear 23 1015 64 10000 7.7 220 16:59 05.03.2020
1620 Clear 23 1015 64 10000 7.7 220 16:41 05.03.2020
1621 Clear 23 1015 64 10000 7.7 220 16:21 05.03.2020
1622 Clear 23 1016 64 10000 7.7 200 15:45 05.03.2020
1623 Clear 24 1016 64 10000 7.7 200 15:24 05.03.2020
1624 Clear 24 1016 60 10000 7.7 210 14:59 05.03.2020
1625 Clear 24 1016 60 10000 7.7 210 14:41 05.03.2020
1626 Clear 24 1016 60 10000 7.7 210 14:22 05.03.2020
1627 Clouds 24 1017 64 10000 6.7 200 13:57 05.03.2020
1628 Clouds 24 1017 64 10000 6.7 200 13:38 05.03.2020
1629 Clouds 25 1017 64 10000 6.7 200 13:20 05.03.2020
1630 Clouds 25 1017 64 10000 6.7 200 13:20 05.03.2020
1631 Clouds 25 1018 60 10000 6.2 200 12:42 05.03.2020
1632 Clouds 25 1018 60 10000 6.2 200 12:21 05.03.2020
1633 Clouds 25 1018 64 10000 5.1 210 11:58 05.03.2020
1634 Clouds 25 1018 64 10000 5.1 210 11:38 05.03.2020
1635 Clouds 25 1018 64 10000 5.1 210 11:19 05.03.2020
1636 Clouds 25 1019 64 10000 5.7 210 10:58 05.03.2020
1637 Clouds 24 1019 64 10000 5.7 210 10:40 05.03.2020
1638 Clouds 23 1019 64 10000 5.7 210 10:21 05.03.2020
1639 Clouds 23 1019 68 10000 5.7 210 09:59 05.03.2020
1640 Clouds 23 1019 68 10000 5.7 210 09:40 05.03.2020
1641 Clouds 22 1019 68 10000 5.7 210 09:19 05.03.2020
1642 Clouds 21 1018 77 10000 5.7 200 08:42 05.03.2020
1643 Clouds 21 1018 77 10000 5.7 200 08:22 05.03.2020
1644 Clouds 20 1018 93 10000 5.1 210 07:42 05.03.2020
1645 Clouds 19 1018 93 10000 5.1 210 07:21 05.03.2020
1646 Clouds 19 1018 93 10000 6.2 210 06:45 05.03.2020
1647 Clouds 19 1018 93 10000 6.2 210 06:20 05.03.2020
1648 Clouds 19 1018 93 10000 6.7 200 05:36 05.03.2020
1649 Clouds 19 1017 100 10000 6.2 200 04:25 05.03.2020
1650 Clouds 19 1017 93 10000 6.2 200 03:58 05.03.2020
1651 Mist 19 1017 93 3000 5.1 200 03:18 05.03.2020
1652 Clouds 19 1018 93 10000 4.1 200 01:28 05.03.2020
1653 Clear 19 1018 88 10000 3.6 200 00:56 05.03.2020
1654 Clear 19 1017 88 10000 4.6 190 23:58 04.03.2020
1655 Clear 19 1017 88 10000 4.6 190 23:58 04.03.2020
1656 Clear 19 1017 88 10000 4.6 190 23:40 04.03.2020
1657 Clear 19 1017 88 10000 4.6 190 23:21 04.03.2020
1658 Clear 19 1017 88 10000 3.6 170 22:56 04.03.2020
1659 Clear 19 1017 88 10000 3.6 170 22:37 04.03.2020
1660 Clear 19 1017 88 10000 3.6 170 22:19 04.03.2020
1661 Clear 19 1017 88 10000 3.1 150 21:56 04.03.2020
1662 Clear 19 1017 88 10000 3.1 150 21:37 04.03.2020
1663 Clear 18 1017 88 10000 3.1 150 21:18 04.03.2020
1664 Clear 19 1016 88 10000 2.1 120 20:40 04.03.2020
1665 Clouds 19 1016 88 10000 2.1 120 20:22 04.03.2020
1666 Clouds 19 1016 88 10000 2.1 10 19:58 04.03.2020
1667 Clouds 19 1016 88 10000 2.1 10 19:39 04.03.2020
1668 Clouds 19 1016 88 10000 2.1 10 19:21 04.03.2020
1669 Clouds 20 1015 88 10000 3.6 340 18:42 04.03.2020
1670 Clouds 19 1015 88 10000 3.6 340 18:24 04.03.2020
1671 Clouds 21 1014 69 10000 5.7 320 17:59 04.03.2020
1672 Clouds 21 1014 69 10000 5.7 320 17:39 04.03.2020
1673 Clear 22 1014 69 10000 5.7 320 17:20 04.03.2020
1674 Clear 23 1013 64 10000 6.7 310 16:56 04.03.2020
1675 Clear 23 1013 64 10000 6.7 310 16:37 04.03.2020
1676 Clear 24 1013 64 10000 6.7 310 16:19 04.03.2020
1677 Clear 25 1013 57 10000 6.7 320 15:44 04.03.2020
1678 Clear 25 1013 57 10000 6.7 320 15:26 04.03.2020
1679 Clear 26 1014 57 10000 6.7 310 14:59 04.03.2020
1680 Clear 26 1014 57 10000 6.7 310 14:40 04.03.2020
1681 Clouds 25 1014 57 10000 6.7 310 14:20 04.03.2020
1682 Clouds 25 1014 64 10000 7.2 320 13:58 04.03.2020
1683 Clouds 24 1014 64 10000 7.2 320 13:39 04.03.2020
1684 Clouds 24 1014 64 10000 7.2 320 13:20 04.03.2020
1685 Clouds 23 1014 68 10000 8.2 310 12:55 04.03.2020
1686 Clouds 22 1014 68 10000 8.2 310 12:37 04.03.2020
1687 Clouds 22 1014 68 10000 8.2 310 12:19 04.03.2020
1688 Clouds 23 1014 68 10000 7.7 320 11:42 04.03.2020
1689 Clouds 23 1014 68 10000 7.7 320 11:42 04.03.2020
1690 Clouds 22 1014 68 10000 7.7 320 11:23 04.03.2020
1691 Clouds 23 1014 64 10000 6.2 320 10:59 04.03.2020
1692 Clouds 23 1014 64 10000 6.2 320 10:41 04.03.2020
1693 Clouds 21 1014 73 10000 6.7 340 10:22 04.03.2020
1694 Clouds 22 1015 88 10000 6.2 330 09:44 04.03.2020
1695 Clouds 22 1015 88 10000 6.2 330 09:44 04.03.2020
1696 Clouds 20 1015 88 10000 6.2 330 09:21 04.03.2020
1697 Clouds 20 1014 93 6000 5.7 330 08:58 04.03.2020
1698 Clouds 19 1014 93 6000 5.7 330 08:40 04.03.2020
1699 Clouds 18 1014 93 6000 5.7 330 08:21 04.03.2020
1700 Clouds 18 1014 88 6000 5.1 320 07:41 04.03.2020
1701 Clouds 18 1014 88 6000 5.1 320 07:23 04.03.2020
1702 Clouds 18 1013 88 10000 6.2 340 06:47 04.03.2020
1703 Clouds 18 1013 88 10000 6.2 340 06:25 04.03.2020
1704 Clouds 18 1012 88 10000 6.2 340 05:54 04.03.2020
1705 Clear 18 1012 88 10000 7.7 330 04:40 04.03.2020
1706 Clear 18 1012 82 10000 6.7 330 03:48 04.03.2020
1707 Clear 18 1012 82 10000 6.7 330 03:30 04.03.2020
1708 Clear 17 1011 77 10000 4.1 320 02:58 04.03.2020
1709 Clear 17 1011 77 10000 4.1 320 02:22 04.03.2020
1710 Clear 18 1012 77 10000 2.6 330 01:56 04.03.2020
1711 Clear 18 1012 77 10000 2.6 330 01:22 04.03.2020
1712 Clear 19 1012 77 10000 1 0 00:36 04.03.2020
1713 Clear 19 1012 77 10000 1 0 00:18 04.03.2020
1714 Clear 19 1012 77 10000 2.1 40 23:40 03.03.2020
1715 Clear 19 1012 77 10000 2.1 40 23:22 03.03.2020
1716 Clear 19 1012 77 10000 2.1 50 22:41 03.03.2020
1717 Clear 20 1012 77 10000 2.1 50 22:20 03.03.2020
1718 Clear 20 1013 73 10000 0.5 0 21:59 03.03.2020
1719 Clear 21 1013 73 10000 0.5 0 21:40 03.03.2020
1720 Clear 21 1013 73 10000 0.5 0 21:21 03.03.2020
1721 Clear 21 1012 73 10000 1 140 20:57 03.03.2020
1722 Clear 22 1012 73 10000 1 140 20:38 03.03.2020
1723 Clear 22 1012 73 10000 1 140 20:18 03.03.2020
1724 Clear 22 1012 73 10000 1 140 20:18 03.03.2020
1725 Clear 23 1012 64 10000 2.1 260 19:56 03.03.2020
1726 Clear 23 1012 64 10000 2.1 260 19:37 03.03.2020
1727 Clear 23 1012 64 10000 2.1 260 19:37 03.03.2020
1728 Clear 23 1012 64 10000 2.1 260 19:18 03.03.2020
1729 Clear 25 1012 57 10000 2.6 230 18:55 03.03.2020
1730 Clear 24 1012 57 10000 2.6 230 18:37 03.03.2020
1731 Clear 25 1012 57 10000 2.6 230 18:18 03.03.2020
1732 Clear 27 1012 45 10000 4.1 180 17:41 03.03.2020
1733 Clear 27 1012 45 10000 4.1 180 17:41 03.03.2020
1734 Clear 28 1012 45 10000 4.1 180 17:22 03.03.2020
1735 Clear 28 1012 42 10000 4.6 180 16:59 03.03.2020
1736 Clear 28 1012 42 10000 4.6 180 16:38 03.03.2020
1737 Clear 29 1012 42 10000 4.6 180 16:20 03.03.2020
1738 Clear 29 1012 40 10000 5.7 180 15:58 03.03.2020
1739 Clear 29 1012 40 10000 5.7 180 15:58 03.03.2020
1740 Clear 29 1012 40 10000 5.7 180 15:40 03.03.2020
1741 Clear 30 1012 40 10000 5.7 180 15:20 03.03.2020
1742 Clear 30 1012 33 10000 5.7 190 14:43 03.03.2020
1743 Clear 30 1012 33 10000 5.7 190 14:21 03.03.2020
1744 Clear 30 1012 35 10000 2.6 0 13:59 03.03.2020
1745 Clear 30 1012 35 10000 2.6 0 13:41 03.03.2020
1746 Clear 30 1012 35 10000 2.6 0 13:23 03.03.2020
1747 Clear 29 1012 40 10000 2.1 0 12:55 03.03.2020
1748 Clear 29 1012 40 10000 2.1 0 12:36 03.03.2020
1749 Clear 29 1012 40 10000 2.1 0 12:18 03.03.2020
1750 Clear 28 1013 42 10000 2.6 210 11:38 03.03.2020
1751 Clear 28 1013 42 10000 2.6 210 11:19 03.03.2020
1752 Clear 27 1013 51 10000 3.1 210 10:57 03.03.2020
1753 Clear 27 1013 51 10000 3.1 210 10:38 03.03.2020
1754 Clear 26 1013 51 10000 3.1 210 10:19 03.03.2020
1755 Clear 25 1013 50 10000 2.1 180 09:45 03.03.2020
1756 Clear 24 1013 60 10000 2.6 200 09:23 03.03.2020
1757 Clear 23 1014 68 10000 3.1 180 08:59 03.03.2020
1758 Clear 22 1014 68 10000 3.1 180 08:39 03.03.2020
1759 Clear 22 1014 68 10000 3.1 180 08:21 03.03.2020
1760 Clear 21 1013 72 10000 2.6 190 07:44 03.03.2020
1761 Clear 19 1013 88 10000 1 0 07:23 03.03.2020
1762 Clear 18 1013 87 10000 0.5 0 06:54 03.03.2020
1763 Clear 17 1013 87 10000 0.5 0 06:27 03.03.2020
1764 Clear 16 1013 87 10000 1 0 05:48 03.03.2020
1765 Clear 16 1013 87 10000 1 0 05:30 03.03.2020
1766 Clear 17 1013 88 10000 1 0 04:38 03.03.2020
1767 Clear 19 1013 77 10000 3.6 250 01:41 03.03.2020
1768 Clear 19 1013 77 10000 3.6 250 01:20 03.03.2020
1769 Clear 19 1014 82 10000 4.1 240 00:38 03.03.2020
1770 Clear 19 1014 82 10000 4.1 240 00:19 03.03.2020
1771 Clear 19 1014 82 10000 5.7 240 23:42 02.03.2020
1772 Clear 19 1014 82 10000 5.7 240 23:23 02.03.2020
1773 Clear 19 1014 82 10000 5.7 240 22:56 02.03.2020
1774 Clear 19 1014 82 10000 5.7 240 22:37 02.03.2020
1775 Clear 19 1014 82 10000 5.7 240 22:19 02.03.2020
1776 Clear 19 1015 82 10000 6.7 240 21:42 02.03.2020
1777 Clear 19 1015 82 10000 6.7 240 21:24 02.03.2020
1778 Clear 19 1014 82 10000 7.7 230 20:59 02.03.2020
1779 Clear 19 1014 82 10000 7.7 230 20:41 02.03.2020
1780 Clear 19 1014 82 10000 7.7 230 20:22 02.03.2020
1781 Clear 19 1014 77 10000 8.2 230 19:57 02.03.2020
1782 Clear 19 1014 77 10000 8.2 230 19:39 02.03.2020
1783 Clear 20 1014 77 10000 8.2 230 19:20 02.03.2020
1784 Clear 20 1013 77 10000 7.2 230 18:55 02.03.2020
1785 Clear 20 1013 77 10000 7.2 230 18:37 02.03.2020
1786 Clear 20 1013 77 10000 7.2 230 18:18 02.03.2020
1787 Clear 21 1013 68 10000 7.2 220 17:55 02.03.2020
1788 Clear 22 1013 68 10000 7.2 220 17:37 02.03.2020
1789 Clear 22 1013 68 10000 7.2 220 17:19 02.03.2020
1790 Clear 24 1013 54 10000 6.2 220 16:41 02.03.2020
1791 Clear 25 1013 54 10000 6.2 220 16:23 02.03.2020
1792 Clear 24 1014 60 10000 6.7 200 15:54 02.03.2020
1793 Clear 24 1014 60 10000 6.7 200 15:36 02.03.2020
1794 Clear 24 1014 60 10000 6.7 200 15:18 02.03.2020
1795 Clear 25 1014 57 10000 5.1 240 14:37 02.03.2020
1796 Clear 24 1014 57 10000 5.1 240 14:19 02.03.2020
1797 Clear 24 1014 57 10000 5.1 240 14:19 02.03.2020
1798 Clear 24 1015 57 10000 4.1 240 13:44 02.03.2020
1799 Clear 24 1015 57 10000 4.1 240 13:20 02.03.2020
1800 Clear 24 1015 53 10000 4.6 320 12:59 02.03.2020
1801 Clear 24 1015 53 10000 4.6 320 12:41 02.03.2020
1802 Clear 23 1015 53 10000 4.6 320 12:19 02.03.2020
1803 Clear 23 1015 56 10000 3.6 310 11:39 02.03.2020
1804 Clear 22 1015 56 10000 3.6 310 11:19 02.03.2020
1805 Clear 21 1016 64 10000 3.6 310 10:56 02.03.2020
1806 Clear 21 1016 64 10000 3.6 310 10:37 02.03.2020
1807 Clear 21 1016 64 10000 3.6 310 10:19 02.03.2020
1808 Clear 22 1016 68 10000 3.1 290 09:49 02.03.2020
1809 Clear 22 1016 68 10000 3.1 290 09:31 02.03.2020
1810 Clear 20 1016 72 10000 2.6 290 08:49 02.03.2020
1811 Clear 17 1015 82 10000 2.6 260 08:23 02.03.2020
1812 Clear 18 1015 87 10000 2.1 310 07:52 02.03.2020
1813 Clouds 16 1015 100 6000 2.1 340 07:32 02.03.2020
1814 Fog 16 1015 100 900 2.6 330 06:53 02.03.2020
1815 Fog 15 1015 100 600 2.6 330 06:26 02.03.2020
1816 Fog 15 1014 93 10000 3.1 310 05:26 02.03.2020
1817 Clear 15 1014 93 10000 2.1 330 03:57 02.03.2020
1818 Clear 16 1014 87 10000 3.1 310 02:57 02.03.2020
1819 Clear 16 1014 87 10000 3.1 310 02:30 02.03.2020
1820 Clear 16 1014 87 10000 3.1 300 01:37 02.03.2020
1821 Clear 16 1014 87 10000 3.1 300 01:19 02.03.2020
1822 Clear 18 1013 77 10000 3.1 290 00:22 02.03.2020
1823 Clear 19 1013 72 10000 2.6 60 23:43 01.03.2020
1824 Clear 19 1013 72 10000 2.6 60 23:24 01.03.2020
1825 Clear 19 1012 82 10000 5.1 230 22:55 01.03.2020
1826 Clear 18 1012 82 10000 5.1 230 22:36 01.03.2020
1827 Clear 19 1012 82 10000 5.1 230 22:18 01.03.2020
1828 Clear 19 1012 82 10000 6.2 240 21:41 01.03.2020
1829 Clear 19 1012 82 10000 6.2 240 21:23 01.03.2020
1830 Clear 19 1012 82 10000 6.7 220 20:56 01.03.2020
1831 Clear 19 1012 82 10000 6.7 220 20:37 01.03.2020
1832 Clouds 19 1012 82 10000 6.7 220 20:19 01.03.2020
1833 Clouds 19 1011 88 10000 8.7 230 19:42 01.03.2020
1834 Clouds 19 1011 88 10000 8.7 230 19:22 01.03.2020
1835 Clouds 20 1010 82 10000 6.2 230 18:58 01.03.2020
1836 Clouds 20 1010 82 10000 6.2 230 18:39 01.03.2020
1837 Clouds 21 1010 82 10000 6.2 230 18:19 01.03.2020
1838 Clouds 21 1010 72 10000 8.2 210 17:55 01.03.2020
1839 Clouds 21 1010 72 10000 8.2 210 17:37 01.03.2020
1840 Clouds 21 1010 72 10000 8.2 210 17:19 01.03.2020
1841 Clouds 24 1010 53 10000 5.7 210 16:54 01.03.2020
1842 Clouds 24 1010 53 10000 5.7 210 16:36 01.03.2020
1843 Clouds 26 1010 53 10000 5.7 210 16:18 01.03.2020
1844 Clouds 27 1010 42 10000 5.1 210 15:55 01.03.2020
1845 Clouds 28 1010 42 10000 5.1 210 15:36 01.03.2020
1846 Clouds 28 1010 42 10000 5.1 210 15:18 01.03.2020
1847 Clouds 27 1011 39 10000 6.2 210 14:55 01.03.2020
1848 Clouds 28 1011 39 10000 6.2 210 14:36 01.03.2020
1849 Clouds 28 1011 39 10000 6.2 210 14:36 01.03.2020
1850 Clear 29 1011 39 10000 6.2 210 14:18 01.03.2020
1851 Clear 31 1011 32 10000 3.6 210 13:43 01.03.2020
1852 Clear 28 1011 42 10000 5.1 220 13:21 01.03.2020
1853 Clear 27 1012 41 10000 4.1 220 12:59 01.03.2020
1854 Clear 27 1012 41 10000 4.1 220 12:40 01.03.2020
1855 Clear 27 1012 41 10000 4.1 220 12:20 01.03.2020
1856 Clear 27 1012 41 10000 3.1 220 11:41 01.03.2020
1857 Clear 25 1012 41 10000 3.1 220 11:22 01.03.2020
1858 Clear 25 1012 47 10000 3.6 200 10:57 01.03.2020
1859 Clear 25 1012 47 10000 3.6 200 10:38 01.03.2020
1860 Clear 24 1012 56 10000 4.6 200 10:19 01.03.2020
1861 Clear 24 1012 60 10000 3.6 210 09:46 01.03.2020
1862 Clear 23 1012 60 10000 3.6 210 09:27 01.03.2020
1863 Clear 22 1012 68 10000 5.1 220 08:57 01.03.2020
1864 Clear 21 1012 68 10000 5.1 220 08:38 01.03.2020
1865 Clear 20 1012 68 10000 5.1 220 08:19 01.03.2020
1866 Clear 20 1011 72 10000 2.1 190 07:42 01.03.2020
1867 Clear 20 1011 72 10000 2.1 190 07:23 01.03.2020
1868 Clear 17 1011 82 10000 1.5 0 06:51 01.03.2020
1869 Clear 16 1011 82 10000 1.5 0 06:29 01.03.2020
1870 Clear 16 1011 87 10000 1 0 04:19 01.03.2020
1871 Clear 17 1011 72 10000 2.1 210 02:27 01.03.2020
1872 Clear 18 1011 63 10000 2.1 200 01:52 01.03.2020
1873 Clear 17 1011 63 10000 2.1 200 01:22 01.03.2020
1874 Clear 18 1012 63 10000 3.1 220 00:43 01.03.2020
1875 Clear 18 1012 63 10000 3.1 220 00:21 01.03.2020
1876 Clear 19 1012 55 10000 5.1 180 23:49 29.02.2020
1877 Clear 19 1012 55 10000 5.1 180 23:30 29.02.2020
1878 Clear 19 1012 52 10000 6.2 180 22:44 29.02.2020
1879 Clear 20 1012 52 10000 6.2 180 22:24 29.02.2020
1880 Clear 19 1012 59 10000 5.7 200 21:42 29.02.2020
1881 Clear 19 1012 59 10000 5.7 200 21:24 29.02.2020
1882 Clear 19 1013 59 10000 5.7 210 20:44 29.02.2020
1883 Clear 20 1013 59 10000 5.7 210 20:22 29.02.2020
1884 Clear 21 1012 56 10000 5.7 210 19:57 29.02.2020
1885 Clear 21 1012 56 10000 5.7 210 19:38 29.02.2020
1886 Clear 21 1012 56 10000 5.7 210 19:20 29.02.2020
1887 Clear 21 1012 56 10000 5.7 210 19:20 29.02.2020
1888 Clear 22 1013 49 10000 5.1 230 18:44 29.02.2020
1889 Clear 23 1013 49 10000 5.1 230 18:25 29.02.2020
1890 Clear 24 1013 46 10000 6.2 220 17:58 29.02.2020
1891 Clear 24 1013 46 10000 6.2 220 17:40 29.02.2020
1892 Clear 24 1013 46 10000 6.2 220 17:40 29.02.2020
1893 Clear 24 1013 46 10000 6.2 220 17:21 29.02.2020
1894 Clear 26 1013 44 10000 6.7 230 16:56 29.02.2020
1895 Clear 26 1013 44 10000 6.7 230 16:37 29.02.2020
1896 Clear 25 1013 44 10000 6.7 230 16:18 29.02.2020
1897 Clear 28 1013 41 10000 5.7 220 15:41 29.02.2020
1898 Clear 28 1013 41 10000 5.7 220 15:23 29.02.2020
1899 Clear 30 1014 28 10000 6.2 210 14:42 29.02.2020
1900 Clear 31 1014 28 10000 6.2 210 14:24 29.02.2020
1901 Clear 31 1014 28 10000 6.2 210 14:24 29.02.2020
1902 Clear 31 1014 25 10000 6.7 180 13:58 29.02.2020
1903 Clear 31 1014 25 10000 6.7 180 13:38 29.02.2020
1904 Clear 30 1014 25 10000 6.7 180 13:20 29.02.2020
1905 Clear 30 1014 28 10000 7.2 170 12:43 29.02.2020
1906 Clear 29 1014 28 10000 7.2 170 12:22 29.02.2020
1907 Clear 30 1015 23 10000 5.1 200 11:58 29.02.2020
1908 Clear 30 1015 23 10000 5.1 200 11:39 29.02.2020
1909 Clear 29 1015 23 10000 5.1 200 11:21 29.02.2020
1910 Clear 27 1015 31 10000 5.1 250 10:47 29.02.2020
1911 Clear 26 1015 31 10000 5.1 250 10:28 29.02.2020
1912 Clear 26 1015 33 10000 4.6 250 09:50 29.02.2020
1913 Clear 25 1015 40 10000 3.6 250 09:27 29.02.2020
1914 Clear 22 1015 40 10000 2.6 230 08:55 29.02.2020
1915 Clear 22 1015 40 10000 2.6 230 08:37 29.02.2020
1916 Clear 20 1015 49 10000 4.1 250 08:19 29.02.2020
1917 Clear 19 1015 55 10000 3.6 240 07:41 29.02.2020
1918 Clear 19 1015 55 10000 3.6 240 07:19 29.02.2020
1919 Clear 18 1015 55 10000 3.1 240 06:50 29.02.2020
1920 Clear 18 1015 55 10000 3.1 240 06:25 29.02.2020
1921 Clear 17 1015 59 10000 2.6 210 05:48 29.02.2020
1922 Clear 17 1015 63 10000 3.1 220 04:50 29.02.2020
1923 Clear 17 1016 59 10000 3.1 210 03:43 29.02.2020
1924 Clear 17 1016 59 10000 3.1 210 03:22 29.02.2020
1925 Clear 17 1016 59 10000 3.6 210 02:38 29.02.2020
1926 Clear 18 1017 63 10000 3.6 110 01:26 29.02.2020
1927 Clear 18 1018 63 10000 4.1 130 00:37 29.02.2020
1928 Clear 18 1018 63 10000 5.7 130 23:56 28.02.2020
1929 Clear 19 1018 63 10000 5.7 130 23:36 28.02.2020
1930 Clear 19 1018 63 10000 5.7 130 23:18 28.02.2020
1931 Clear 19 1018 59 10000 6.2 130 22:41 28.02.2020
1932 Clear 19 1018 59 10000 6.2 130 22:19 28.02.2020
1933 Clear 19 1019 59 10000 7.2 130 21:41 28.02.2020
1934 Clear 20 1019 59 10000 7.2 130 21:21 28.02.2020
1935 Clear 20 1019 52 10000 7.2 130 20:56 28.02.2020
1936 Clear 20 1019 52 10000 7.2 130 20:37 28.02.2020
1937 Clouds 20 1019 52 10000 7.2 130 20:19 28.02.2020
1938 Clouds 20 1019 52 10000 7.2 130 20:19 28.02.2020
1939 Clouds 21 1018 46 10000 7.7 140 19:56 28.02.2020
1940 Clouds 21 1018 46 10000 7.7 140 19:37 28.02.2020
1941 Clouds 21 1018 46 10000 7.7 140 19:18 28.02.2020
1942 Clouds 22 1018 43 10000 8.2 150 18:44 28.02.2020
1943 Clouds 23 1018 43 10000 8.2 150 18:23 28.02.2020
1944 Clouds 23 1018 41 10000 8.7 140 17:41 28.02.2020
1945 Clouds 24 1018 41 10000 8.7 140 17:23 28.02.2020
1946 Clouds 24 1018 41 10000 8.7 140 17:23 28.02.2020
1947 Smoke 24 1018 36 10000 9.3 140 16:56 28.02.2020
1948 Smoke 24 1018 36 10000 9.3 140 16:37 28.02.2020
1949 Smoke 25 1018 36 10000 9.3 140 16:18 28.02.2020
1950 Clouds 25 1018 36 10000 9.3 140 15:55 28.02.2020
1951 Clouds 25 1018 36 10000 9.3 140 15:55 28.02.2020
1952 Clouds 25 1018 36 10000 9.3 140 15:36 28.02.2020
1953 Clouds 26 1018 36 10000 9.3 140 15:18 28.02.2020
1954 Clouds 26 1019 39 10000 10.3 140 14:42 28.02.2020
1955 Clear 27 1019 39 10000 10.3 140 14:19 28.02.2020
1956 Clear 26 1019 36 10000 9.3 130 13:58 28.02.2020
1957 Clear 26 1019 36 10000 9.3 130 13:40 28.02.2020
1958 Clear 27 1019 36 10000 9.3 130 13:19 28.02.2020
1959 Clouds 26 1020 36 10000 9.8 150 12:43 28.02.2020
1960 Clouds 26 1020 36 10000 9.8 150 12:25 28.02.2020
1961 Clouds 26 1020 39 10000 7.7 140 11:55 28.02.2020
1962 Clouds 26 1020 39 10000 7.7 140 11:37 28.02.2020
1963 Clouds 26 1020 39 10000 7.7 140 11:18 28.02.2020
1964 Clouds 25 1021 41 10000 7.2 140 10:43 28.02.2020
1965 Clouds 25 1021 41 10000 7.2 140 10:23 28.02.2020
1966 Clouds 24 1021 44 10000 7.2 150 09:47 28.02.2020
1967 Clouds 24 1021 44 10000 7.2 150 09:22 28.02.2020
1968 Clouds 23 1021 46 10000 7.2 140 08:58 28.02.2020
1969 Clouds 22 1021 46 10000 7.2 140 08:40 28.02.2020
1970 Clouds 22 1021 46 10000 7.2 140 08:20 28.02.2020
1971 Clouds 20 1021 60 10000 6.7 150 07:42 28.02.2020
1972 Clouds 20 1021 60 10000 6.7 150 07:24 28.02.2020
1973 Clouds 19 1021 68 10000 6.2 150 06:47 28.02.2020
1974 Clouds 19 1021 68 10000 6.2 150 06:26 28.02.2020
1975 Clear 18 1020 72 10000 6.2 150 04:47 28.02.2020
1976 Clear 18 1020 72 10000 6.2 150 04:19 28.02.2020
1977 Clear 18 1019 72 10000 10.8 150 02:46 28.02.2020
1978 Clear 18 1019 72 10000 10.8 150 02:28 28.02.2020
1979 Clear 19 1020 63 10000 8.7 140 01:26 28.02.2020
1980 Clear 19 1020 63 10000 9.3 140 00:30 28.02.2020
1981 Clear 19 1020 68 10000 8.7 140 23:42 27.02.2020
1982 Clear 19 1020 68 10000 8.7 140 23:22 27.02.2020
1983 Clear 19 1020 68 10000 9.3 150 22:55 27.02.2020
1984 Clear 19 1020 68 10000 9.3 150 22:37 27.02.2020
1985 Clear 19 1020 68 10000 9.3 150 22:19 27.02.2020
1986 Clouds 19 1020 68 10000 10.8 150 21:41 27.02.2020
1987 Clouds 19 1020 68 10000 10.8 150 21:19 27.02.2020
1988 Clouds 19 1020 68 10000 10.8 160 20:58 27.02.2020
1989 Clouds 19 1020 68 10000 10.8 160 20:39 27.02.2020
1990 Clouds 19 1020 68 10000 10.8 160 20:21 27.02.2020
1991 Clouds 19 1019 63 10000 9.8 160 19:56 27.02.2020
1992 Clouds 19 1019 63 10000 9.8 160 19:38 27.02.2020
1993 Clouds 19 1019 63 10000 9.8 160 19:19 27.02.2020
1994 Clouds 19 1018 63 10000 11.3 160 18:42 27.02.2020
1995 Clouds 20 1018 60 10000 10.8 160 18:24 27.02.2020
1996 Clouds 21 1018 56 10000 12.3 160 17:58 27.02.2020
1997 Clouds 21 1018 56 10000 12.3 160 17:40 27.02.2020
1998 Clouds 20 1018 56 10000 12.3 160 17:19 27.02.2020
1999 Clouds 21 1018 56 10000 12.3 160 16:58 27.02.2020
2000 Clouds 21 1018 56 10000 12.3 160 16:39 27.02.2020
2001 Clouds 21 1018 56 10000 12.3 160 16:19 27.02.2020
2002 Clouds 21 1018 60 10000 14.4 170 15:57 27.02.2020
2003 Clouds 21 1018 60 10000 14.4 170 15:37 27.02.2020
2004 Clouds 22 1018 60 10000 14.4 170 15:18 27.02.2020
2005 Clouds 22 1018 56 10000 13.9 170 14:55 27.02.2020
2006 Clouds 22 1018 56 10000 13.9 170 14:36 27.02.2020
2007 Clouds 22 1018 56 10000 13.9 170 14:18 27.02.2020
2008 Clouds 22 1018 60 10000 13.9 170 13:41 27.02.2020
2009 Clouds 22 1018 60 10000 13.9 170 13:21 27.02.2020
2010 Clouds 22 1018 60 10000 11.8 160 12:47 27.02.2020
2011 Clouds 22 1018 60 10000 11.8 160 12:25 27.02.2020
2012 Clouds 22 1019 56 10000 12.3 170 11:59 27.02.2020
2013 Clouds 22 1019 56 10000 12.3 170 11:39 27.02.2020
2014 Clouds 21 1019 56 10000 12.3 170 11:21 27.02.2020
2015 Clouds 21 1019 52 10000 12.3 170 10:43 27.02.2020
2016 Clouds 21 1019 52 10000 12.3 170 10:22 27.02.2020
2017 Clouds 21 1018 52 10000 11.8 170 09:48 27.02.2020
2018 Clouds 20 1018 59 10000 11.8 170 09:29 27.02.2020
2019 Clouds 20 1018 60 10000 10.8 170 08:57 27.02.2020
2020 Clouds 20 1018 60 10000 10.8 170 08:39 27.02.2020
2021 Clouds 20 1018 60 10000 10.8 170 08:19 27.02.2020
2022 Clouds 19 1018 72 10000 9.3 170 07:43 27.02.2020
2023 Clouds 18 1018 72 10000 9.3 170 07:25 27.02.2020
2024 Clouds 18 1017 72 10000 9.3 160 06:45 27.02.2020
2025 Clouds 17 1016 77 10000 9.3 170 05:34 27.02.2020
2026 Clouds 17 1015 88 10000 10.8 180 03:35 27.02.2020
2027 Clouds 18 1015 93 10000 10.8 180 02:20 27.02.2020
2028 Clouds 18 1014 77 10000 7.7 180 00:44 27.02.2020
2029 Clouds 19 1014 77 10000 7.7 180 00:25 27.02.2020
2030 Clouds 19 1021 83 0 2.24 247 23:39 26.02.2020
2031 Clouds 19 1013 72 10000 8.2 180 23:19 26.02.2020
2032 Clouds 19 1013 72 10000 9.3 190 22:57 26.02.2020
2033 Clouds 19 1013 72 10000 9.3 190 22:38 26.02.2020
2034 Clouds 19 1013 72 10000 9.3 190 22:19 26.02.2020
2035 Clouds 19 1013 72 10000 9.3 190 21:55 26.02.2020
2036 Clouds 19 1013 72 10000 9.3 190 21:36 26.02.2020
2037 Clouds 19 1013 72 10000 9.3 190 21:18 26.02.2020
2038 Clouds 19 1013 77 10000 9.8 190 20:54 26.02.2020
2039 Clouds 19 1013 77 10000 9.8 190 20:36 26.02.2020
2040 Clouds 19 1013 77 10000 9.8 190 20:36 26.02.2020
2041 Clouds 19 1013 77 10000 9.8 190 20:18 26.02.2020
2042 Clouds 20 1012 77 10000 8.7 190 19:44 26.02.2020
2043 Clouds 20 1012 77 10000 8.7 190 19:20 26.02.2020
2044 Clouds 21 1012 73 10000 8.7 180 18:58 26.02.2020
2045 Clouds 21 1012 73 10000 8.7 180 18:39 26.02.2020
2046 Clouds 21 1012 73 10000 8.7 180 18:21 26.02.2020
2047 Clouds 22 1012 68 10000 10.8 190 17:42 26.02.2020
2048 Clouds 22 1012 68 10000 10.8 190 17:42 26.02.2020
2049 Clouds 22 1012 68 10000 10.8 190 17:23 26.02.2020
2050 Clouds 23 1011 64 10000 10.3 190 16:57 26.02.2020
2051 Clouds 23 1011 64 10000 10.3 190 16:39 26.02.2020
2052 -273 0 0 0 0 0 16:21 26.02.2020
2053 Clear 24 1011 60 10000 11.3 190 15:47 26.02.2020
2054 Clear 23 1011 60 10000 11.3 190 15:29 26.02.2020
2055 Clear 24 1011 57 10000 10.3 180 14:59 26.02.2020
2056 Clear 24 1011 57 10000 10.3 180 14:40 26.02.2020
2057 Clouds 24 1011 57 10000 10.3 180 14:21 26.02.2020
2058 Clouds 24 1012 53 10000 9.8 180 13:43 26.02.2020
2059 Clouds 24 1012 53 10000 9.8 180 13:22 26.02.2020
2060 Clouds 24 1012 60 10000 8.7 180 12:42 26.02.2020
2061 Clouds 24 1012 60 10000 8.7 180 12:22 26.02.2020
2062 Clouds 23 1012 64 10000 7.2 190 11:59 26.02.2020
2063 Clouds 23 1012 64 10000 7.2 190 11:40 26.02.2020
2064 Clouds 23 1012 64 10000 7.2 190 11:21 26.02.2020
2065 Clouds 23 1013 73 10000 7.2 180 10:43 26.02.2020
2066 Clouds 23 1013 73 10000 7.2 180 10:24 26.02.2020
2067 Clouds 23 1013 73 10000 5.7 180 09:59 26.02.2020
2068 Clouds 23 1013 73 10000 5.7 180 09:40 26.02.2020
2069 Clouds 23 1013 73 10000 5.7 180 09:40 26.02.2020
2070 Clouds 22 1013 73 10000 5.7 180 09:21 26.02.2020
2071 Clouds 22 1012 78 10000 4.1 190 08:54 26.02.2020
2072 Clouds 22 1012 78 10000 4.1 190 08:36 26.02.2020
2073 Clouds 21 1012 78 10000 4.1 190 08:18 26.02.2020
2074 Clouds 20 1011 83 10000 2.1 190 07:41 26.02.2020
2075 Clouds 19 1011 88 10000 1.5 140 07:21 26.02.2020
2076 Clouds 18 1011 93 10000 0.5 0 06:48 26.02.2020
2077 Clouds 18 1011 93 10000 0.5 0 06:27 26.02.2020
2078 Clouds 17 1010 93 10000 0.5 0 05:48 26.02.2020
2079 Clouds 17 1010 93 10000 0.5 0 05:19 26.02.2020
2080 Clouds 18 1010 93 10000 1.5 150 03:45 26.02.2020
2081 Clouds 18 1009 88 10000 3.6 190 02:18 26.02.2020
2082 Clouds 18 1009 88 10000 3.6 190 01:34 26.02.2020
2083 Clouds 19 1009 82 10000 4.6 190 00:46 26.02.2020
2084 Clouds 19 1009 82 10000 4.6 190 00:21 26.02.2020
2085 Clouds 19 1009 93 10000 4.1 160 23:43 25.02.2020
2086 Clouds 19 1009 93 10000 4.1 160 23:25 25.02.2020
2087 Clouds 19 1009 93 10000 2.6 160 22:57 25.02.2020
2088 Clouds 19 1009 93 10000 2.6 160 22:39 25.02.2020
2089 Clouds 19 1009 93 10000 2.6 160 22:19 25.02.2020
2090 Clouds 19 1009 93 10000 4.6 160 21:38 25.02.2020
2091 Clouds 19 1009 93 10000 4.6 160 21:20 25.02.2020
2092 Clear 19 1009 77 10000 5.7 160 20:57 25.02.2020
2093 Clear 19 1009 77 10000 5.7 160 20:57 25.02.2020
2094 Clear 20 1009 77 10000 5.7 160 20:39 25.02.2020
2095 Clear 19 1009 77 10000 5.7 160 20:20 25.02.2020
2096 Clear 19 1009 77 10000 5.7 160 20:20 25.02.2020
2097 Clear 20 1008 77 10000 4.1 350 19:58 25.02.2020
2098 Clear 21 1008 77 10000 4.1 350 19:40 25.02.2020
2099 Clear 21 1008 77 10000 4.1 350 19:19 25.02.2020
2100 Clear 24 1007 36 10000 4.6 330 18:41 25.02.2020
2101 Clear 24 1007 36 10000 4.6 330 18:21 25.02.2020
2102 Clear 24 1007 36 10000 4.6 330 18:21 25.02.2020
2103 Clear 26 1007 19 10000 4.6 330 17:57 25.02.2020
2104 Clear 31 1007 19 10000 4.6 330 17:37 25.02.2020
2105 Clear 30 1007 19 10000 4.6 330 17:19 25.02.2020
2106 Clear 34 1007 18 10000 4.6 310 16:58 25.02.2020
2107 Clear 34 1007 18 10000 4.6 310 16:39 25.02.2020
2108 Clear 34 1007 18 10000 4.6 310 16:20 25.02.2020
2109 Clear 34 1007 21 10000 2.6 210 15:56 25.02.2020
2110 Clear 34 1007 21 10000 2.6 210 15:37 25.02.2020
2111 Clear 34 1007 21 10000 2.6 210 15:18 25.02.2020
2112 Clear 34 1007 21 10000 2.6 210 15:18 25.02.2020
2113 Clear 36 1007 14 10000 6.7 330 14:54 25.02.2020
2114 Clear 31 1007 14 10000 6.7 330 14:36 25.02.2020
2115 Clear 32 1007 14 10000 6.7 330 14:18 25.02.2020
2116 Clear 32 1007 13 10000 5.7 320 13:54 25.02.2020
2117 Clear 32 1007 13 10000 5.7 320 13:36 25.02.2020
2118 Clear 33 1007 13 10000 5.7 320 13:18 25.02.2020
2119 Clear 36 1008 13 10000 4.1 310 12:39 25.02.2020
2120 Clear 33 1008 13 10000 4.1 310 12:20 25.02.2020
2121 Clear 35 1008 15 10000 3.6 290 11:56 25.02.2020
2122 Clear 35 1008 15 10000 3.6 290 11:38 25.02.2020
2123 Clear 32 1008 15 10000 3.6 290 11:19 25.02.2020
2124 Clear 32 1008 15 10000 3.6 290 11:19 25.02.2020
2125 Clear 32 1008 20 10000 2.6 290 10:56 25.02.2020
2126 Clear 31 1008 20 10000 2.6 290 10:38 25.02.2020
2127 Clear 33 1008 24 10000 2.6 250 10:19 25.02.2020
2128 Clear 31 1009 33 10000 1 0 09:40 25.02.2020
2129 Clear 29 1009 37 10000 1.5 0 09:19 25.02.2020
2130 Clear 27 1009 44 10000 1 0 08:44 25.02.2020
2131 Clear 24 1009 50 10000 1 0 08:25 25.02.2020
2132 Clear 22 1009 64 10000 1 0 07:51 25.02.2020
2133 Clear 20 1009 72 10000 1 0 07:25 25.02.2020
2134 Clear 19 1009 82 10000 1 0 06:59 25.02.2020
2135 Clear 17 1009 82 10000 1 0 06:26 25.02.2020
2136 Clear 15 1009 82 10000 1 110 05:23 25.02.2020
2137 Clear 16 1010 77 10000 1 140 02:44 25.02.2020
2138 Clear 17 1011 82 10000 1 0 01:19 25.02.2020
2139 Clear 18 1012 77 10000 2.1 210 00:34 25.02.2020
2140 Clear 18 1013 77 10000 3.1 230 23:57 24.02.2020
2141 Clear 18 1013 77 10000 3.1 230 23:38 24.02.2020
2142 Clear 18 1013 77 10000 3.1 230 23:19 24.02.2020
2143 Clear 19 1013 77 10000 4.1 210 22:38 24.02.2020
2144 Clear 18 1013 77 10000 4.1 210 22:19 24.02.2020
2145 Clear 19 1014 72 10000 4.6 220 21:56 24.02.2020
2146 Clear 19 1014 72 10000 4.6 220 21:38 24.02.2020
2147 Clear 19 1014 72 10000 4.6 220 21:19 24.02.2020
2148 Clear 19 1014 72 10000 5.7 220 20:55 24.02.2020
2149 Clear 19 1014 72 10000 5.7 220 20:37 24.02.2020
2150 Clear 20 1014 72 10000 5.7 220 20:18 24.02.2020
2151 Clear 20 1013 77 10000 5.1 220 19:56 24.02.2020
2152 Clear 20 1013 77 10000 5.1 220 19:37 24.02.2020
2153 Clear 21 1013 77 10000 5.1 220 19:19 24.02.2020
2154 Clear 21 1013 68 10000 6.2 220 18:42 24.02.2020
2155 Clear 21 1013 68 10000 6.2 220 18:23 24.02.2020
2156 Clear 22 1014 60 10000 5.7 220 17:57 24.02.2020
2157 Clear 23 1014 60 10000 5.7 220 17:38 24.02.2020
2158 Clear 25 1014 60 10000 5.7 220 17:19 24.02.2020
2159 Clear 26 1014 50 10000 6.2 220 16:55 24.02.2020
2160 Clear 26 1014 50 10000 6.2 220 16:37 24.02.2020
2161 Clear 26 1014 50 10000 6.2 220 16:18 24.02.2020
2162 Clear 28 1015 44 10000 6.2 220 15:56 24.02.2020
2163 Clear 28 1015 44 10000 6.2 220 15:38 24.02.2020
2164 Clear 28 1015 44 10000 6.2 220 15:19 24.02.2020
2165 Clear 28 1015 42 10000 6.2 220 14:41 24.02.2020
2166 Clear 28 1015 42 10000 6.2 220 14:23 24.02.2020
2167 Clear 29 1016 36 10000 5.7 220 13:59 24.02.2020
2168 Clear 29 1016 36 10000 5.7 220 13:41 24.02.2020
2169 Clear 28 1016 36 10000 5.7 220 13:22 24.02.2020
2170 Clear 29 1017 39 10000 5.1 210 12:58 24.02.2020
2171 Clear 29 1017 39 10000 5.1 210 12:40 24.02.2020
2172 Clear 27 1017 39 10000 5.1 210 12:22 24.02.2020
2173 Clear 29 1017 36 10000 5.7 190 11:48 24.02.2020
2174 Clear 29 1017 36 10000 5.7 190 11:29 24.02.2020
2175 Clear 26 1017 44 10000 5.1 210 10:51 24.02.2020
2176 Clear 26 1017 44 10000 5.1 210 10:31 24.02.2020
2177 Clear 25 1017 43 10000 4.6 200 09:56 24.02.2020
2178 Clear 24 1017 43 10000 4.6 200 09:38 24.02.2020
2179 Clear 24 1017 43 10000 4.6 200 09:19 24.02.2020
2180 Clear 22 1017 49 10000 5.1 200 08:48 24.02.2020
2181 Clear 21 1017 49 10000 5.1 200 08:28 24.02.2020
2182 Clear 20 1017 59 10000 5.7 230 07:52 24.02.2020
2183 Clear 20 1017 59 10000 5.7 230 07:31 24.02.2020
2184 Clear 18 1016 67 10000 5.1 230 06:48 24.02.2020
2185 Clear 17 1016 67 10000 5.1 230 06:22 24.02.2020
2186 Clear 17 1016 63 10000 6.7 220 05:33 24.02.2020
2187 Clear 17 1016 63 10000 5.1 190 04:49 24.02.2020
2188 Clear 17 1017 59 10000 8.2 190 02:57 24.02.2020
2189 Clear 18 1017 55 10000 6.7 210 01:52 24.02.2020
2190 Clear 18 1017 55 10000 6.7 210 01:28 24.02.2020
2191 Clear 17 1017 67 10000 7.2 180 00:37 24.02.2020
2192 Clear 18 1017 67 10000 7.2 180 00:19 24.02.2020
2193 Clear 18 1018 63 10000 10.3 170 23:42 23.02.2020
2194 Clear 18 1018 63 10000 10.3 170 23:22 23.02.2020
2195 Clear 19 1018 59 10000 8.2 190 22:58 23.02.2020
2196 Clear 19 1018 59 10000 8.2 190 22:40 23.02.2020
2197 Clear 19 1018 59 10000 8.2 190 22:20 23.02.2020
2198 Clear 20 1018 56 10000 9.3 160 21:46 23.02.2020
2199 Clear 20 1018 56 10000 9.3 160 21:20 23.02.2020
2200 Clear 20 1018 52 10000 7.2 140 20:57 23.02.2020
2201 Clear 20 1018 52 10000 7.2 140 20:39 23.02.2020
2202 -273 0 0 0 0 0 20:21 23.02.2020
2203 Clear 20 1017 49 10000 9.8 160 19:59 23.02.2020
2204 Clear 21 1017 49 10000 9.8 160 19:40 23.02.2020
2205 Clear 21 1017 49 10000 9.8 160 19:19 23.02.2020
2206 Clear 21 1017 44 10000 9.8 160 18:59 23.02.2020
2207 Clear 21 1017 44 10000 9.8 160 18:37 23.02.2020
2208 Clear 23 1017 44 10000 9.8 160 18:19 23.02.2020
2209 Clear 23 1017 41 10000 8.7 170 17:57 23.02.2020
2210 Clear 24 1017 41 10000 8.7 170 17:39 23.02.2020
2211 Clear 24 1017 41 10000 8.7 170 17:20 23.02.2020
2212 Clear 25 1017 39 10000 10.3 170 16:54 23.02.2020
2213 Clear 25 1017 39 10000 10.3 170 16:36 23.02.2020
2214 Clear 25 1017 39 10000 10.3 170 16:18 23.02.2020
2215 Clear 26 1017 39 10000 10.8 190 15:39 23.02.2020
2216 Clear 25 1017 39 10000 10.8 190 15:21 23.02.2020
2217 Clear 26 1018 30 10000 9.3 180 14:59 23.02.2020
2218 Clear 27 1018 30 10000 9.3 180 14:40 23.02.2020
2219 Clear 27 1018 30 10000 9.3 180 14:22 23.02.2020
2220 Clear 28 1018 28 10000 9.8 180 13:57 23.02.2020
2221 Clear 28 1018 28 10000 9.8 180 13:39 23.02.2020
2222 Clear 29 1018 28 10000 9.8 180 13:20 23.02.2020
2223 Clear 28 1019 23 10000 4.6 170 12:43 23.02.2020
2224 Clear 29 1019 23 10000 4.6 170 12:23 23.02.2020
2225 Clear 28 1019 26 10000 4.6 160 11:58 23.02.2020
2226 Clear 28 1019 26 10000 4.6 160 11:37 23.02.2020
2227 Clear 28 1019 26 10000 4.6 160 11:19 23.02.2020
2228 Clear 27 1020 29 10000 5.1 140 10:56 23.02.2020
2229 Clear 26 1020 29 10000 5.1 140 10:37 23.02.2020
2230 Clear 26 1020 29 10000 5.1 140 10:19 23.02.2020
2231 Clear 25 1020 36 10000 3.6 120 09:40 23.02.2020
2232 Clear 24 1020 36 10000 3.6 120 09:21 23.02.2020
2233 Clear 24 1020 38 10000 4.1 140 08:57 23.02.2020
2234 Clear 24 1020 38 10000 4.1 140 08:39 23.02.2020
2235 Clear 21 1020 46 10000 1.5 0 08:19 23.02.2020
2236 Clear 20 1019 63 10000 2.1 110 07:40 23.02.2020
2237 Clear 20 1020 52 10000 2.1 110 07:40 23.02.2020
2238 Clear 19 1019 63 10000 2.1 170 06:54 23.02.2020
2239 Clear 17 1018 67 10000 4.1 140 05:54 23.02.2020
2240 Clear 16 1018 72 10000 3.6 130 04:44 23.02.2020
2241 Clear 17 1018 72 10000 3.1 120 03:35 23.02.2020
2242 Clear 18 1018 63 10000 6.7 140 02:37 23.02.2020
2243 Clear 19 1019 72 10000 8.7 150 01:26 23.02.2020
2244 Clear 19 1019 68 10000 9.3 150 00:49 23.02.2020
2245 Clouds 19 1019 68 10000 9.8 150 00:28 23.02.2020
2246 Clouds 19 1019 68 10000 9.8 150 23:59 22.02.2020
2247 Clouds 19 1019 68 10000 9.8 150 23:40 22.02.2020
2248 Clouds 19 1019 68 10000 9.8 150 23:19 22.02.2020
2249 Clouds 19 1019 77 10000 10.8 160 22:41 22.02.2020
2250 Clouds 19 1019 77 10000 10.8 160 22:19 22.02.2020
2251 Clouds 19 1019 77 10000 11.3 170 21:43 22.02.2020
2252 Clouds 19 1019 77 10000 11.3 170 21:24 22.02.2020
2253 Clouds 19 1018 77 10000 8.2 160 20:54 22.02.2020
2254 Clouds 19 1018 77 10000 8.2 160 20:36 22.02.2020
2255 Clouds 19 1018 77 10000 8.2 160 20:18 22.02.2020
2256 Clouds 19 1017 82 10000 7.2 160 19:42 22.02.2020
2257 Clouds 19 1017 82 10000 7.2 160 19:22 22.02.2020
2258 Clouds 20 1017 77 10000 7.7 180 18:54 22.02.2020
2259 Clouds 20 1017 77 10000 7.7 180 18:54 22.02.2020
2260 Clouds 20 1017 77 10000 7.7 180 18:36 22.02.2020
2261 Clouds 20 1017 77 10000 7.7 180 18:18 22.02.2020
2262 Clouds 21 1016 82 10000 8.2 170 17:43 22.02.2020
2263 Clouds 21 1016 82 10000 8.2 170 17:43 22.02.2020
2264 Clouds 21 1016 82 10000 8.2 170 17:25 22.02.2020
2265 Clouds 21 1016 82 10000 7.2 180 16:58 22.02.2020
2266 Clouds 21 1016 82 10000 7.2 180 16:40 22.02.2020
2267 Clouds 20 1016 82 10000 7.2 180 16:20 22.02.2020
2268 Clouds 21 1016 88 10000 6.7 170 15:46 22.02.2020
2269 Clouds 20 1016 88 10000 6.7 170 15:27 22.02.2020
2270 Clouds 21 1016 88 10000 6.7 170 15:27 22.02.2020
2271 Rain 20 1016 93 8000 5.7 190 14:59 22.02.2020
2272 Rain 21 1016 93 8000 5.7 190 14:40 22.02.2020
2273 Rain 21 1016 93 8000 5.7 190 14:40 22.02.2020
2274 Rain 21 1016 93 8000 5.7 190 14:20 22.02.2020
2275 Rain 21 1016 88 2000 3.1 320 13:43 22.02.2020
2276 Rain 21 1016 77 3000 4.1 300 13:20 22.02.2020
2277 Clouds 22 1016 68 10000 5.7 320 12:58 22.02.2020
2278 Clouds 22 1016 68 10000 5.7 320 12:39 22.02.2020
2279 Clouds 22 1016 68 10000 5.7 320 12:20 22.02.2020
2280 Clouds 23 1016 64 10000 5.1 300 11:42 22.02.2020
2281 Clouds 23 1016 64 10000 5.1 300 11:24 22.02.2020
2282 Clouds 22 1016 68 10000 5.7 320 10:55 22.02.2020
2283 Clouds 22 1016 68 10000 5.7 320 10:36 22.02.2020
2284 Clouds 22 1016 68 10000 5.7 320 10:18 22.02.2020
2285 Clouds 21 1016 77 10000 5.1 330 09:42 22.02.2020
2286 Clouds 20 1016 77 10000 5.1 330 09:22 22.02.2020
2287 Clouds 20 1015 82 10000 3.6 320 08:57 22.02.2020
2288 Clouds 20 1015 82 10000 3.6 320 08:38 22.02.2020
2289 Clouds 20 1015 82 10000 3.6 320 08:20 22.02.2020
2290 Clouds 20 1014 77 10000 4.1 330 07:39 22.02.2020
2291 Clouds 20 1014 77 10000 4.1 330 07:18 22.02.2020
2292 Clouds 20 1014 82 10000 2.1 340 06:43 22.02.2020
2293 Clouds 20 1013 77 10000 2.6 330 04:46 22.02.2020
2294 Clouds 20 1013 77 10000 2.6 330 04:25 22.02.2020
2295 Clouds 19 1013 82 10000 1 20 02:42 22.02.2020
2296 Clouds 20 1014 82 10000 1.5 90 01:51 22.02.2020
2297 Clouds 20 1014 82 10000 1.5 90 01:30 22.02.2020
2298 Clouds 20 1014 88 10000 2.1 110 00:50 22.02.2020
2299 Clouds 19 1014 88 10000 2.1 110 00:32 22.02.2020
2300 Clouds 19 1014 82 10000 2.1 140 23:56 21.02.2020
2301 Clouds 19 1014 82 10000 2.1 140 23:37 21.02.2020
2302 Clouds 19 1014 82 10000 2.1 140 23:18 21.02.2020
2303 Clouds 19 1014 82 10000 2.1 140 23:18 21.02.2020
2304 Clouds 19 1014 93 10000 2.6 140 22:42 21.02.2020
2305 Clouds 19 1014 93 10000 2.6 140 22:24 21.02.2020
2306 Clouds 19 1014 88 10000 2.1 150 21:56 21.02.2020
2307 Clouds 19 1014 88 10000 2.1 150 21:56 21.02.2020
2308 Clouds 19 1014 88 10000 2.1 150 21:37 21.02.2020
2309 Clouds 19 1014 88 10000 2.1 150 21:19 21.02.2020
2310 Clouds 20 1013 72 10000 4.6 180 20:41 21.02.2020
2311 Clear 20 1013 72 10000 4.6 180 20:23 21.02.2020
2312 Clear 20 1013 72 10000 5.7 180 19:40 21.02.2020
2313 Clear 21 1013 72 10000 5.7 180 19:21 21.02.2020
2314 Clear 21 1012 73 10000 6.2 160 18:44 21.02.2020
2315 Clear 21 1012 73 10000 6.2 160 18:24 21.02.2020
2316 Clear 22 1012 60 10000 6.7 170 17:57 21.02.2020
2317 Clear 23 1012 60 10000 6.7 170 17:38 21.02.2020
2318 Clear 23 1012 60 10000 6.7 170 17:20 21.02.2020
2319 Clear 24 1012 57 10000 6.2 170 16:55 21.02.2020
2320 Clear 24 1012 57 10000 6.2 170 16:37 21.02.2020
2321 Clear 23 1012 57 10000 6.2 170 16:19 21.02.2020
2322 Clear 24 1012 60 10000 6.7 170 15:40 21.02.2020
2323 Clear 24 1012 60 10000 6.7 170 15:19 21.02.2020
2324 Clear 25 1013 50 10000 6.2 180 14:54 21.02.2020
2325 Clear 25 1013 50 10000 6.2 180 14:36 21.02.2020
2326 Clear 25 1013 50 10000 6.2 180 14:18 21.02.2020
2327 Clear 25 1013 57 10000 5.7 170 13:41 21.02.2020
2328 Clear 25 1013 57 10000 5.7 170 13:21 21.02.2020
2329 Clear 24 1013 60 10000 6.2 160 12:46 21.02.2020
2330 Clear 24 1013 60 10000 6.2 160 12:27 21.02.2020
2331 Clear 24 1014 57 10000 6.7 180 11:58 21.02.2020
2332 Clear 24 1014 57 10000 6.7 180 11:38 21.02.2020
2333 Clear 24 1014 57 10000 6.7 180 11:20 21.02.2020
2334 Clear 24 1014 64 10000 6.7 180 10:55 21.02.2020
2335 Clear 23 1014 64 10000 6.7 180 10:36 21.02.2020
2336 Clear 23 1014 64 10000 6.7 180 10:18 21.02.2020
2337 Clear 22 1014 73 10000 7.7 180 09:42 21.02.2020
2338 Clear 22 1014 73 10000 7.7 180 09:23 21.02.2020
2339 Clear 22 1014 77 10000 6.7 190 08:56 21.02.2020
2340 Clear 21 1014 77 10000 6.7 190 08:37 21.02.2020
2341 Clear 20 1014 77 10000 6.7 190 08:19 21.02.2020
2342 Clouds 19 1013 88 10000 5.7 200 07:55 21.02.2020
2343 Clouds 19 1013 88 10000 5.7 200 07:36 21.02.2020
2344 Clouds 18 1013 88 10000 5.7 200 07:18 21.02.2020
2345 Clouds 18 1013 88 10000 5.1 210 06:39 21.02.2020
2346 Clouds 18 1013 88 10000 5.1 210 06:21 21.02.2020
2347 Clear 18 1012 88 10000 5.1 210 05:35 21.02.2020
2348 Clear 17 1012 88 10000 4.6 210 04:30 21.02.2020
2349 Clear 18 1012 88 10000 5.7 210 03:56 21.02.2020
2350 Clear 18 1012 88 10000 5.7 210 03:20 21.02.2020
2351 Clear 18 1013 88 10000 7.2 220 01:45 21.02.2020
2352 Clear 18 1013 88 10000 7.2 220 01:23 21.02.2020
2353 Clear 19 1013 82 10000 6.7 210 00:40 21.02.2020
2354 Clear 19 1013 82 10000 6.7 210 00:21 21.02.2020
2355 Clear 19 1014 77 10000 7.2 210 23:43 20.02.2020
2356 Clear 19 1014 77 10000 7.2 210 23:22 20.02.2020
2357 Clear 19 1014 77 10000 7.7 200 22:55 20.02.2020
2358 Clear 19 1014 77 10000 7.7 200 22:37 20.02.2020
2359 Clear 19 1014 77 10000 7.7 200 22:18 20.02.2020
2360 Clear 20 1014 72 10000 9.8 190 21:54 20.02.2020
2361 Clear 20 1014 72 10000 9.8 190 21:36 20.02.2020
2362 Clear 20 1014 72 10000 9.8 190 21:18 20.02.2020
2363 Clear 20 1014 77 10000 10.3 190 20:54 20.02.2020
2364 Clear 20 1014 77 10000 10.3 190 20:36 20.02.2020
2365 Clear 20 1014 77 10000 10.3 190 20:18 20.02.2020
2366 Clouds 20 1013 77 10000 9.3 190 19:42 20.02.2020
2367 Clouds 20 1013 77 10000 9.3 190 19:24 20.02.2020
2368 Clouds 21 1013 73 10000 9.8 190 18:58 20.02.2020
2369 Clouds 21 1013 73 10000 9.8 190 18:37 20.02.2020
2370 Clouds 21 1013 73 10000 9.8 190 18:19 20.02.2020
2371 Clouds 22 1013 64 10000 11.3 190 17:40 20.02.2020
2372 Clouds 22 1013 64 10000 11.3 190 17:22 20.02.2020
2373 Clouds 23 1013 60 10000 10.8 180 16:58 20.02.2020
2374 Clouds 23 1013 60 10000 10.8 180 16:39 20.02.2020
2375 Clouds 23 1013 60 10000 10.8 180 16:19 20.02.2020
2376 Clouds 23 1014 57 10000 10.8 190 15:58 20.02.2020
2377 Clouds 23 1014 57 10000 10.8 190 15:39 20.02.2020
2378 Clouds 24 1014 57 10000 10.8 190 15:20 20.02.2020
2379 Clouds 24 1014 60 10000 11.8 190 14:54 20.02.2020
2380 Clouds 23 1014 60 10000 11.8 190 14:36 20.02.2020
2381 Clouds 23 1014 60 10000 11.8 190 14:18 20.02.2020
2382 Clouds 24 1015 57 10000 10.8 180 13:43 20.02.2020
2383 Clouds 24 1015 57 10000 10.8 180 13:19 20.02.2020
2384 Clouds 24 1015 57 10000 9.8 190 12:56 20.02.2020
2385 Clouds 24 1015 57 10000 9.8 190 12:37 20.02.2020
2386 Clouds 24 1015 57 10000 9.8 190 12:18 20.02.2020
2387 Clouds 24 1015 64 10000 10.3 180 11:42 20.02.2020
2388 Clouds 24 1015 64 10000 10.3 180 11:22 20.02.2020
2389 Clouds 24 1015 64 10000 10.3 180 11:22 20.02.2020
2390 Clouds 23 1016 73 10000 10.3 180 10:57 20.02.2020
2391 Clouds 23 1016 73 10000 10.3 180 10:39 20.02.2020
2392 Clouds 23 1016 73 10000 10.3 180 10:21 20.02.2020
2393 Clouds 23 1015 73 10000 8.7 180 09:46 20.02.2020
2394 Clouds 22 1015 73 10000 8.7 180 09:25 20.02.2020
2395 Clouds 22 1015 77 10000 8.7 180 08:59 20.02.2020
2396 Clouds 22 1015 77 10000 8.7 180 08:39 20.02.2020
2397 Clouds 21 1015 77 10000 8.7 180 08:21 20.02.2020
2398 Clouds 21 1015 88 10000 6.7 180 07:45 20.02.2020
2399 Clouds 20 1015 88 10000 6.7 180 07:26 20.02.2020
2400 Clouds 20 1014 93 10000 7.7 180 06:55 20.02.2020
2401 Clouds 20 1014 93 10000 7.7 180 06:27 20.02.2020
2402 Clouds 20 1013 93 10000 7.2 180 05:46 20.02.2020
2403 Clouds 20 1012 100 8000 8.2 180 04:56 20.02.2020
2404 Clouds 20 1012 100 8000 8.2 180 04:23 20.02.2020
2405 Mist 20 1012 100 4000 7.7 190 03:30 20.02.2020
2406 Fog 20 1012 100 900 7.2 190 02:28 20.02.2020
2407 Drizzle 20 1012 100 4000 5.7 200 01:18 20.02.2020
2408 Drizzle 21 1012 94 3000 7.2 190 00:34 20.02.2020
2409 Drizzle 21 1012 94 3000 8.7 190 23:52 19.02.2020
2410 Clouds 21 1012 94 10000 7.7 190 23:23 19.02.2020
2411 Clouds 21 1011 94 10000 7.2 190 22:55 19.02.2020
2412 Clouds 21 1011 94 10000 7.2 190 22:37 19.02.2020
2413 Clouds 21 1011 94 10000 7.2 190 22:18 19.02.2020
2414 Clouds 20 1011 93 10000 6.2 200 21:55 19.02.2020
2415 Clouds 20 1011 93 10000 6.2 200 21:36 19.02.2020
2416 Clouds 20 1011 93 10000 6.2 200 21:18 19.02.2020
2417 Clouds 20 1010 93 10000 6.7 200 20:55 19.02.2020
2418 Clouds 20 1010 93 10000 6.7 200 20:36 19.02.2020
2419 Clouds 20 1010 93 10000 6.7 200 20:18 19.02.2020
2420 Clouds 21 1010 88 10000 5.7 200 19:54 19.02.2020
2421 Clouds 21 1010 88 10000 5.7 200 19:36 19.02.2020
2422 Clouds 21 1010 88 10000 5.7 200 19:18 19.02.2020
2423 Clear 21 1009 82 10000 7.7 200 18:55 19.02.2020
2424 Clear 21 1009 82 10000 7.7 200 18:37 19.02.2020
2425 Clear 22 1009 82 10000 7.7 200 18:19 19.02.2020
2426 Clear 23 1009 69 10000 6.2 210 17:42 19.02.2020
2427 Clear 23 1009 69 10000 6.2 210 17:42 19.02.2020
2428 Clear 23 1009 69 10000 6.2 210 17:19 19.02.2020
2429 Clear 25 1009 61 10000 6.7 200 16:43 19.02.2020
2430 Clear 26 1009 61 10000 6.7 200 16:19 19.02.2020
2431 Clear 27 1009 54 10000 6.2 200 15:58 19.02.2020
2432 Clear 26 1009 54 10000 6.2 200 15:39 19.02.2020
2433 Clear 27 1009 54 10000 6.2 200 15:20 19.02.2020
2434 Clear 27 1009 48 10000 6.2 200 14:42 19.02.2020
2435 Clear 28 1009 48 10000 6.2 200 14:23 19.02.2020
2436 Clear 28 1010 45 10000 5.1 210 13:59 19.02.2020
2437 Clear 28 1010 45 10000 5.1 210 13:40 19.02.2020
2438 Clear 28 1010 45 10000 5.1 210 13:20 19.02.2020
2439 Clear 28 1010 45 10000 4.6 200 12:40 19.02.2020
2440 Clear 28 1010 45 10000 4.6 200 12:19 19.02.2020
2441 Clear 28 1010 45 10000 4.6 200 12:19 19.02.2020
2442 Clear 27 1011 48 10000 5.1 210 11:58 19.02.2020
2443 Clear 27 1011 48 10000 5.1 210 11:37 19.02.2020
2444 Clear 27 1011 48 10000 5.1 210 11:19 19.02.2020
2445 Clear 27 1011 48 10000 5.1 210 11:19 19.02.2020
2446 Clear 26 1012 51 10000 4.1 200 10:56 19.02.2020
2447 Clear 26 1012 51 10000 4.1 200 10:37 19.02.2020
2448 Clear 26 1012 51 10000 4.1 200 10:19 19.02.2020
2449 Clear 25 1011 60 10000 4.1 200 09:56 19.02.2020
2450 Clear 24 1011 60 10000 4.1 200 09:37 19.02.2020
2451 Clear 25 1011 60 10000 4.1 200 09:18 19.02.2020
2452 Clear 24 1011 68 10000 3.1 230 08:43 19.02.2020
2453 Clear 22 1011 68 10000 3.1 230 08:23 19.02.2020
2454 Clear 21 1011 77 10000 1.5 0 07:41 19.02.2020
2455 Clear 21 1011 77 10000 1.5 0 07:20 19.02.2020
2456 Clear 20 1011 82 10000 3.6 210 06:47 19.02.2020
2457 Clear 19 1011 82 10000 3.6 210 06:19 19.02.2020
2458 Clear 19 1010 82 10000 4.6 210 04:18 19.02.2020
2459 Clear 20 1011 73 10000 6.2 200 02:54 19.02.2020
2460 Clear 20 1011 73 10000 6.2 200 02:29 19.02.2020
2461 Clear 21 1012 73 10000 5.7 210 01:23 19.02.2020
2462 Clear 21 1012 68 10000 3.6 200 00:47 19.02.2020
2463 Clear 21 1012 68 10000 3.6 200 00:28 19.02.2020
2464 Clear 21 1013 77 10000 5.1 190 23:42 18.02.2020
2465 Clear 21 1013 77 10000 5.1 190 23:20 18.02.2020
2466 Clear 21 1013 73 10000 4.1 170 22:56 18.02.2020
2467 Clear 21 1013 73 10000 4.1 170 22:37 18.02.2020
2468 Clear 21 1013 73 10000 4.1 170 22:19 18.02.2020
2469 Clear 21 1013 68 10000 3.6 170 21:55 18.02.2020
2470 Clear 22 1013 68 10000 3.6 170 21:37 18.02.2020
2471 Clear 22 1013 68 10000 3.6 170 21:18 18.02.2020
2472 Clear 22 1013 64 10000 6.7 170 20:56 18.02.2020
2473 Clear 22 1013 64 10000 6.7 170 20:37 18.02.2020
2474 Clear 22 1013 64 10000 6.7 170 20:37 18.02.2020
2475 Clear 22 1013 64 10000 6.7 170 20:19 18.02.2020
2476 Clear 22 1013 60 10000 6.7 160 19:42 18.02.2020
2477 Clear 23 1013 60 10000 6.7 160 19:20 18.02.2020
2478 Clear 24 1012 57 10000 8.2 150 18:58 18.02.2020
2479 Clear 24 1012 57 10000 8.2 150 18:40 18.02.2020
2480 Clear 24 1012 57 10000 8.2 150 18:20 18.02.2020
2481 Clear 25 1012 51 10000 10.3 160 17:43 18.02.2020
2482 Clear 26 1012 51 10000 10.3 160 17:20 18.02.2020
2483 Clear 28 1013 48 10000 8.7 170 16:58 18.02.2020
2484 Clear 28 1013 48 10000 8.7 170 16:38 18.02.2020
2485 Clear 28 1013 54 10000 7.2 220 16:18 18.02.2020
2486 Clear 30 1013 45 10000 7.2 200 15:40 18.02.2020
2487 Clear 30 1013 45 10000 7.2 200 15:20 18.02.2020
2488 Clear 30 1014 42 10000 6.7 200 14:57 18.02.2020
2489 Clear 30 1014 42 10000 6.7 200 14:38 18.02.2020
2490 Clear 29 1014 42 10000 6.7 200 14:20 18.02.2020
2491 Clear 30 1014 42 10000 6.2 210 13:41 18.02.2020
2492 Clear 29 1014 42 10000 6.2 210 13:22 18.02.2020
2493 Clear 28 1015 47 10000 6.7 220 12:56 18.02.2020
2494 Clear 28 1015 47 10000 6.7 220 12:38 18.02.2020
2495 Clear 28 1015 47 10000 6.7 220 12:19 18.02.2020
2496 Clear 28 1015 44 10000 6.2 180 11:44 18.02.2020
2497 Clear 28 1015 44 10000 6.2 180 11:26 18.02.2020
2498 Clear 28 1015 45 10000 5.1 220 10:57 18.02.2020
2499 Clear 28 1015 45 10000 5.1 220 10:39 18.02.2020
2500 Clear 28 1015 45 10000 5.1 220 10:18 18.02.2020
2501 Clear 25 1015 50 10000 3.6 250 09:56 18.02.2020
2502 Clear 25 1015 50 10000 3.6 250 09:37 18.02.2020
2503 Clear 24 1015 50 10000 3.6 250 09:18 18.02.2020
2504 Clear 24 1015 56 10000 3.6 240 08:43 18.02.2020
2505 Clear 22 1015 56 10000 3.6 240 08:21 18.02.2020
2506 Clear 22 1015 60 10000 3.6 240 07:57 18.02.2020
2507 Clear 21 1015 60 10000 3.6 240 07:34 18.02.2020
2508 Clear 20 1014 77 10000 4.1 240 06:57 18.02.2020
2509 Clear 19 1014 77 10000 4.1 240 06:39 18.02.2020
2510 Clear 19 1014 77 10000 4.1 240 06:20 18.02.2020
2511 Clear 18 1014 72 10000 3.6 220 05:34 18.02.2020
2512 Clear 18 1014 77 10000 4.1 230 04:28 18.02.2020
2513 Clear 18 1014 77 10000 3.6 230 03:36 18.02.2020
2514 Clear 18 1015 77 10000 1 0 02:38 18.02.2020
2515 Clear 19 1015 68 10000 2.6 250 01:19 18.02.2020
2516 Clear 19 1016 68 10000 3.1 160 00:22 18.02.2020
2517 Clouds 19 1016 68 10000 4.1 170 23:57 17.02.2020
2518 Clouds 19 1016 68 10000 4.1 170 23:38 17.02.2020
2519 Clouds 19 1016 68 10000 4.1 170 23:19 17.02.2020
2520 Clouds 20 1016 64 10000 7.2 160 22:41 17.02.2020
2521 Clouds 20 1016 64 10000 7.2 160 22:21 17.02.2020
2522 Clouds 19 1016 64 10000 11.8 160 21:59 17.02.2020
2523 Clouds 20 1016 64 10000 11.8 160 21:38 17.02.2020
2524 Clouds 19 1016 64 10000 11.8 160 21:18 17.02.2020
2525 Clouds 19 1016 68 10000 9.8 180 20:42 17.02.2020
2526 Clouds 19 1016 68 10000 9.8 180 20:21 17.02.2020
2527 Clouds 19 1016 68 10000 9.8 180 19:59 17.02.2020
2528 Clouds 19 1016 68 10000 9.8 180 19:40 17.02.2020
2529 Clouds 19 1016 68 10000 9.8 180 19:40 17.02.2020
2530 Clouds 19 1016 68 10000 9.8 180 19:20 17.02.2020
2531 Clouds 20 1016 64 10000 10.8 180 18:38 17.02.2020
2532 Clouds 20 1016 64 10000 10.8 180 18:38 17.02.2020
2533 Clouds 20 1016 64 10000 10.8 180 18:20 17.02.2020
2534 Clouds 20 1016 64 10000 10.8 180 18:20 17.02.2020
2535 Clouds 20 1016 60 10000 12.3 170 17:58 17.02.2020
2536 Clouds 21 1016 60 10000 12.3 170 17:38 17.02.2020
2537 Clouds 21 1016 60 10000 12.3 170 17:38 17.02.2020
2538 Clouds 21 1016 60 10000 12.3 170 17:19 17.02.2020
2539 Clouds 22 1016 53 10000 10.3 170 16:57 17.02.2020
2540 Clouds 22 1016 53 10000 10.3 170 16:39 17.02.2020
2541 Clouds 22 1016 53 10000 10.3 170 16:20 17.02.2020
2542 Clouds 23 1017 53 10000 10.8 170 15:45 17.02.2020
2543 Clouds 23 1017 53 10000 10.8 170 15:26 17.02.2020
2544 Clouds 24 1017 53 10000 9.3 170 14:56 17.02.2020
2545 Clouds 23 1017 53 10000 9.3 170 14:38 17.02.2020
2546 Clouds 24 1017 53 10000 9.3 170 14:19 17.02.2020
2547 Clouds 23 1018 60 10000 10.3 170 13:41 17.02.2020
2548 Clouds 23 1018 60 10000 10.3 170 13:22 17.02.2020
2549 Clouds 23 1018 68 10000 9.3 170 12:59 17.02.2020
2550 Clouds 22 1018 68 10000 9.3 170 12:41 17.02.2020
2551 Clouds 22 1018 68 10000 9.3 170 12:22 17.02.2020
2552 Clouds 22 1018 73 10000 9.3 170 11:47 17.02.2020
2553 Clouds 21 1019 88 10000 7.7 170 11:29 17.02.2020
2554 Drizzle 19 1019 93 3000 3.6 180 10:58 17.02.2020
2555 Drizzle 19 1019 93 3000 3.6 180 10:40 17.02.2020
2556 Drizzle 19 1019 93 3000 3.6 180 10:21 17.02.2020
2557 Drizzle 19 1019 93 3000 3.6 180 10:21 17.02.2020
2558 Drizzle 19 1018 100 4000 2.6 150 09:58 17.02.2020
2559 Drizzle 19 1018 100 4000 2.6 150 09:40 17.02.2020
2560 Drizzle 19 1018 93 9000 3.1 170 09:19 17.02.2020
2561 Clouds 19 1017 100 9000 2.1 0 08:56 17.02.2020
2562 Clouds 19 1017 100 9000 2.1 0 08:38 17.02.2020
2563 Clouds 19 1017 100 9000 2.1 0 08:19 17.02.2020
2564 Clouds 19 1017 93 10000 2.6 330 07:40 17.02.2020
2565 Clouds 18 1017 93 10000 2.6 330 07:22 17.02.2020
2566 Clouds 19 1016 93 10000 3.6 330 06:51 17.02.2020
2567 Clouds 19 1016 93 10000 3.6 330 06:30 17.02.2020
2568 Clouds 18 1016 93 10000 3.6 330 05:40 17.02.2020
2569 Rain 18 1015 93 6000 4.1 360 04:40 17.02.2020
2570 Clouds 19 1014 88 10000 6.2 10 03:20 17.02.2020
2571 Clouds 19 1014 88 10000 5.7 330 01:36 17.02.2020
2572 Clouds 19 1014 88 10000 5.7 340 00:41 17.02.2020
2573 Clouds 19 1014 88 10000 5.7 340 00:19 17.02.2020
2574 Clouds 19 1014 88 10000 4.1 360 23:52 16.02.2020
2575 Clouds 19 1014 88 10000 4.1 360 23:29 16.02.2020
2576 Clouds 19 1014 88 10000 6.7 340 22:57 16.02.2020
2577 Clouds 19 1014 88 10000 6.7 340 22:38 16.02.2020
2578 Clouds 19 1014 88 10000 6.7 340 22:20 16.02.2020
2579 Clouds 19 1014 88 10000 6.7 340 22:20 16.02.2020
2580 Clouds 19 1014 88 10000 6.2 320 21:56 16.02.2020
2581 Clouds 19 1014 88 10000 6.2 320 21:56 16.02.2020
2582 Clouds 19 1014 88 10000 6.2 320 21:38 16.02.2020
2583 Clouds 19 1014 88 10000 6.2 320 21:19 16.02.2020
2584 Clouds 19 1013 88 10000 5.1 320 20:56 16.02.2020
2585 Clouds 19 1013 88 10000 5.1 320 20:38 16.02.2020
2586 Clouds 19 1013 88 10000 5.1 320 20:20 16.02.2020
2587 Clouds 20 1012 82 10000 4.1 310 19:57 16.02.2020
2588 Clouds 20 1012 82 10000 4.1 310 19:37 16.02.2020
2589 Clouds 20 1012 82 10000 4.1 310 19:18 16.02.2020
2590 Clouds 20 1011 82 10000 5.7 290 18:42 16.02.2020
2591 Clouds 21 1011 82 10000 5.7 290 18:23 16.02.2020
2592 Clouds 21 1010 68 10000 6.7 310 17:47 16.02.2020
2593 Clouds 22 1010 68 10000 6.7 310 17:22 16.02.2020
2594 Clouds 22 1010 73 10000 8.2 320 16:59 16.02.2020
2595 Clouds 21 1010 73 10000 8.2 320 16:39 16.02.2020
2596 Clouds 22 1010 73 10000 8.2 320 16:21 16.02.2020
2597 Clouds 22 1010 73 10000 8.2 320 16:21 16.02.2020
2598 Clouds 23 1009 64 10000 9.3 310 15:59 16.02.2020
2599 Clouds 23 1009 64 10000 9.3 310 15:40 16.02.2020
2600 Clouds 23 1009 64 10000 9.3 310 15:21 16.02.2020
2601 Clouds 23 1009 60 10000 10.3 320 14:41 16.02.2020
2602 Clouds 23 1009 60 10000 10.3 320 14:23 16.02.2020
2603 Clouds 24 1010 60 10000 11.3 320 13:55 16.02.2020
2604 Clouds 24 1010 60 10000 11.3 320 13:36 16.02.2020
2605 Clouds 25 1010 60 10000 11.3 320 13:18 16.02.2020
2606 Clouds 25 1010 60 10000 11.3 310 12:39 16.02.2020
2607 Clouds 25 1010 60 10000 11.3 310 12:19 16.02.2020
2608 Clouds 25 1010 60 10000 10.8 350 11:40 16.02.2020
2609 Clouds 24 1010 60 10000 10.8 350 11:20 16.02.2020
2610 Clouds 24 1011 69 10000 11.3 330 10:58 16.02.2020
2611 Clouds 24 1011 69 10000 11.3 330 10:40 16.02.2020
2612 Clouds 23 1011 69 10000 11.3 330 10:21 16.02.2020
2613 Clouds 23 1011 69 10000 11.3 330 10:21 16.02.2020
2614 Clouds 23 1010 64 10000 13.9 330 09:59 16.02.2020
2615 Clouds 23 1010 64 10000 13.9 330 09:38 16.02.2020
2616 Clouds 22 1010 64 10000 13.9 330 09:20 16.02.2020
2617 Clouds 21 1010 73 10000 15.4 340 08:50 16.02.2020
2618 Clouds 21 1010 73 10000 15.4 340 08:22 16.02.2020
2619 Clouds 21 1009 72 10000 13.4 330 07:59 16.02.2020
2620 Clouds 20 1009 72 10000 13.4 330 07:40 16.02.2020
2621 Clouds 21 1009 72 10000 9.3 340 06:47 16.02.2020
2622 Clouds 20 1008 72 10000 9.3 30 05:53 16.02.2020
2623 Clouds 21 1007 64 10000 6.7 20 04:37 16.02.2020
2624 Clouds 22 1007 64 10000 8.2 320 03:19 16.02.2020
2625 Clear 21 1006 93 10000 1.5 80 01:58 16.02.2020
2626 Clear 21 1006 93 10000 1.5 80 01:58 16.02.2020
2627 Clear 20 1006 93 10000 1.5 80 01:38 16.02.2020
2628 Clear 20 1006 93 10000 1.5 80 01:19 16.02.2020
2629 Clear 19 1006 88 10000 1.5 0 00:42 16.02.2020
2630 Clear 19 1006 88 10000 1.5 0 00:22 16.02.2020
2631 Clear 20 1006 88 10000 1 0 23:43 15.02.2020
2632 Clear 20 1006 88 10000 1 0 23:25 15.02.2020
2633 Clear 19 1006 88 10000 3.1 230 22:57 15.02.2020
2634 Clear 19 1006 88 10000 3.1 230 22:39 15.02.2020
2635 Clear 19 1006 88 10000 3.1 230 22:19 15.02.2020
2636 Clear 20 1006 82 10000 3.6 220 21:56 15.02.2020
2637 Clear 20 1006 82 10000 3.6 220 21:37 15.02.2020
2638 Clear 20 1006 82 10000 3.6 220 21:19 15.02.2020
2639 Clear 20 1007 82 10000 6.7 230 20:39 15.02.2020
2640 Clear 20 1007 82 10000 6.7 230 20:20 15.02.2020
2641 Clear 20 1007 77 10000 6.7 220 19:44 15.02.2020
2642 Clear 20 1007 77 10000 6.7 220 19:22 15.02.2020
2643 Clear 21 1007 72 10000 8.2 230 18:43 15.02.2020
2644 Clear 21 1007 72 10000 8.2 230 18:23 15.02.2020
2645 Clear 22 1007 64 10000 8.2 220 17:58 15.02.2020
2646 Clear 22 1007 64 10000 8.2 220 17:38 15.02.2020
2647 Clear 22 1007 64 10000 8.2 220 17:19 15.02.2020
2648 Clear 22 1008 60 10000 8.7 210 16:43 15.02.2020
2649 Clear 22 1008 60 10000 8.7 210 16:24 15.02.2020
2650 Clear 23 1008 57 10000 8.7 210 15:58 15.02.2020
2651 Clear 23 1008 57 10000 8.7 210 15:40 15.02.2020
2652 Clear 23 1008 57 10000 8.7 210 15:40 15.02.2020
2653 Clear 25 1008 57 10000 8.7 210 15:22 15.02.2020
2654 Clear 26 1009 50 10000 7.2 220 14:45 15.02.2020
2655 Clear 26 1009 50 10000 7.2 220 14:19 15.02.2020
2656 Clear 26 1009 47 10000 6.7 210 13:56 15.02.2020
2657 Clear 27 1009 47 10000 6.7 210 13:38 15.02.2020
2658 Clear 27 1009 47 10000 6.7 210 13:20 15.02.2020
2659 Clear 26 1010 50 10000 7.7 210 12:42 15.02.2020
2660 Clear 26 1010 50 10000 7.7 210 12:42 15.02.2020
2661 Clear 26 1010 50 10000 7.7 210 12:24 15.02.2020
2662 Clear 26 1010 54 10000 7.2 220 11:52 15.02.2020
2663 Clear 26 1010 54 10000 7.2 220 11:33 15.02.2020
2664 Clear 26 1010 50 10000 6.2 210 10:57 15.02.2020
2665 Clear 25 1010 50 10000 6.2 210 10:39 15.02.2020
2666 Clear 25 1010 50 10000 6.2 210 10:20 15.02.2020
2667 Clear 25 1011 53 10000 5.7 210 09:44 15.02.2020
2668 Clear 24 1011 64 10000 4.6 200 09:25 15.02.2020
2669 Clear 22 1011 77 10000 4.6 220 08:46 15.02.2020
2670 Clear 22 1011 77 10000 4.6 220 08:26 15.02.2020
2671 Clear 20 1011 88 10000 4.6 230 07:59 15.02.2020
2672 Clear 20 1011 88 10000 4.6 230 07:59 15.02.2020
2673 Clear 20 1011 88 10000 4.6 230 07:39 15.02.2020
2674 Clear 20 1011 88 10000 3.6 230 07:20 15.02.2020
2675 Clear 19 1011 88 10000 3.6 230 06:37 15.02.2020
2676 Clear 18 1010 88 10000 4.6 230 05:56 15.02.2020
2677 Clear 17 1010 88 10000 5.1 230 04:49 15.02.2020
2678 Clear 18 1010 88 10000 5.1 230 04:21 15.02.2020
2679 Clear 18 1011 88 10000 4.1 240 02:58 15.02.2020
2680 Clear 18 1011 88 10000 4.1 240 02:24 15.02.2020
2681 Clear 18 1011 88 10000 4.1 230 01:50 15.02.2020
2682 Clear 18 1011 88 10000 4.1 230 01:31 15.02.2020
2683 Clear 19 1011 72 10000 5.7 210 00:28 15.02.2020
2684 Clear 19 1012 77 10000 5.1 220 23:47 14.02.2020
2685 Clear 19 1012 77 10000 5.1 220 23:21 14.02.2020
2686 Clouds 19 1012 77 10000 4.6 230 22:56 14.02.2020
2687 Clouds 19 1012 77 10000 4.6 230 22:56 14.02.2020
2688 Clouds 19 1012 77 10000 4.6 230 22:37 14.02.2020
2689 Clouds 19 1012 77 10000 4.6 230 22:19 14.02.2020
2690 Clouds 20 1012 72 10000 4.6 220 21:49 14.02.2020
2691 Clouds 20 1012 72 10000 4.6 220 21:30 14.02.2020
2692 Clouds 20 1012 68 10000 6.7 200 20:45 14.02.2020
2693 Clouds 20 1012 68 10000 6.7 200 20:20 14.02.2020
2694 Clouds 20 1012 68 10000 8.7 190 19:59 14.02.2020
2695 Clouds 20 1012 68 10000 8.7 190 19:40 14.02.2020
2696 Clouds 20 1012 68 10000 8.7 190 19:22 14.02.2020
2697 Clouds 21 1012 64 10000 9.8 190 18:56 14.02.2020
2698 Clouds 21 1012 64 10000 9.8 190 18:38 14.02.2020
2699 Clouds 21 1012 64 10000 9.8 190 18:19 14.02.2020
2700 Clouds 21 1012 60 10000 8.7 180 17:43 14.02.2020
2701 Clouds 22 1012 60 10000 8.7 180 17:21 14.02.2020
2702 Clouds 23 1012 53 10000 9.3 190 16:58 14.02.2020
2703 Clouds 23 1012 53 10000 9.3 190 16:39 14.02.2020
2704 Clouds 23 1012 53 10000 9.3 190 16:21 14.02.2020
2705 Clouds 23 1012 56 10000 10.3 160 15:56 14.02.2020
2706 Clouds 23 1012 56 10000 10.3 160 15:37 14.02.2020
2707 Clouds 23 1012 56 10000 10.3 160 15:37 14.02.2020
2708 Clouds 23 1012 56 10000 10.3 160 15:37 14.02.2020
2709 Clouds 23 1012 56 10000 10.3 160 15:37 14.02.2020
2710 Clouds 23 1012 56 10000 10.3 160 15:37 14.02.2020
2711 Clouds 23 1012 56 10000 10.3 160 15:19 14.02.2020
2712 Clouds 24 1013 64 10000 8.2 170 14:58 14.02.2020
2713 Clouds 24 1013 64 10000 8.2 170 14:39 14.02.2020
2714 Clouds 24 1013 64 10000 8.2 170 14:21 14.02.2020
2715 Clouds 24 1013 64 10000 7.7 190 13:40 14.02.2020
2716 Clouds 23 1013 64 10000 7.7 190 13:21 14.02.2020
2717 Clouds 24 1013 64 10000 4.6 190 12:58 14.02.2020
2718 Clouds 23 1013 64 10000 4.6 190 12:40 14.02.2020
2719 Clouds 23 1013 64 10000 4.6 190 12:21 14.02.2020
2720 Clouds 23 1014 69 10000 5.1 190 11:59 14.02.2020
2721 Clouds 23 1014 69 10000 5.1 190 11:41 14.02.2020
2722 Clouds 23 1014 69 10000 5.1 190 11:21 14.02.2020
2723 Clouds 22 1014 73 10000 5.7 180 10:56 14.02.2020
2724 Clouds 22 1014 73 10000 5.7 180 10:38 14.02.2020
2725 Clouds 23 1014 73 10000 5.7 180 10:19 14.02.2020
2726 Clouds 21 1014 77 10000 6.7 190 09:43 14.02.2020
2727 Clouds 19 1014 93 10000 6.7 190 09:22 14.02.2020
2728 Clouds 19 1013 93 9000 5.7 190 08:55 14.02.2020
2729 Clouds 19 1013 93 9000 5.7 190 08:37 14.02.2020
2730 Clouds 19 1013 93 9000 5.7 190 08:18 14.02.2020
2731 Clouds 19 1013 100 7000 5.7 180 07:43 14.02.2020
2732 Clouds 19 1013 100 7000 5.7 180 07:24 14.02.2020
2733 Clouds 18 1013 100 6000 5.1 190 06:32 14.02.2020
2734 Mist 18 1012 100 4000 4.6 180 05:59 14.02.2020
2735 Mist 18 1012 100 4000 4.6 180 05:25 14.02.2020
2736 Clouds 19 1012 93 10000 3.1 200 03:31 14.02.2020
2737 Clouds 19 1012 93 10000 2.6 190 02:42 14.02.2020
2738 Clear 19 1013 93 10000 3.1 190 01:50 14.02.2020
2739 Clear 20 1013 88 10000 4.6 200 00:44 14.02.2020
2740 Clear 20 1013 88 10000 4.6 200 00:44 14.02.2020
2741 Clear 20 1013 88 10000 4.6 200 00:24 14.02.2020
2742 Clear 19 1013 100 10000 3.1 190 23:51 13.02.2020
2743 Clear 19 1013 100 10000 3.1 190 23:23 13.02.2020
2744 Clear 20 1013 88 10000 2.6 160 22:56 13.02.2020
2745 Clear 20 1013 88 10000 2.6 160 22:38 13.02.2020
2746 Clear 20 1013 88 10000 2.6 160 22:18 13.02.2020
2747 Clear 20 1013 88 10000 3.6 180 21:41 13.02.2020
2748 Clear 20 1013 88 10000 3.6 180 21:23 13.02.2020
2749 Clear 20 1013 88 10000 4.6 160 20:58 13.02.2020
2750 Clear 20 1013 88 10000 4.6 160 20:40 13.02.2020
2751 Clear 20 1013 88 10000 4.6 160 20:22 13.02.2020
2752 Clear 21 1012 83 10000 5.1 160 19:56 13.02.2020
2753 Clear 21 1012 83 10000 5.1 160 19:37 13.02.2020
2754 Clear 21 1012 83 10000 5.1 160 19:19 13.02.2020
2755 Clear 22 1012 73 10000 6.7 160 18:55 13.02.2020
2756 Clear 22 1012 73 10000 6.7 160 18:37 13.02.2020
2757 Clear 22 1012 73 10000 6.7 160 18:19 13.02.2020
2758 Clear 23 1012 60 10000 6.7 170 17:41 13.02.2020
2759 Clear 23 1012 60 10000 6.7 170 17:22 13.02.2020
2760 Clear 25 1012 47 10000 7.2 170 16:59 13.02.2020
2761 Clear 25 1012 47 10000 7.2 170 16:40 13.02.2020
2762 Clear 25 1012 47 10000 7.2 170 16:20 13.02.2020
2763 Clouds 26 1012 45 10000 3.6 150 15:57 13.02.2020
2764 Clouds 26 1012 45 10000 3.6 150 15:39 13.02.2020
2765 Clouds 26 1012 45 10000 3.6 150 15:19 13.02.2020
2766 Clouds 27 1012 48 10000 5.7 330 14:58 13.02.2020
2767 Clouds 26 1012 48 10000 5.7 330 14:39 13.02.2020
2768 Clouds 26 1012 48 10000 5.7 330 14:21 13.02.2020
2769 Clouds 26 1012 48 10000 5.7 330 14:21 13.02.2020
2770 Clouds 26 1012 51 10000 5.7 320 13:48 13.02.2020
2771 Clouds 26 1012 51 10000 5.7 320 13:19 13.02.2020
2772 Clouds 25 1013 57 10000 6.2 300 12:56 13.02.2020
2773 Clouds 25 1013 57 10000 6.2 300 12:56 13.02.2020
2774 Clouds 25 1013 57 10000 6.2 300 12:38 13.02.2020
2775 Clouds 25 1013 57 10000 6.2 300 12:38 13.02.2020
2776 Clouds 25 1013 57 10000 6.2 300 12:19 13.02.2020
2777 Clouds 27 1012 48 10000 5.7 330 11:47 13.02.2020
2778 Clouds 26 1013 57 10000 5.7 330 11:21 13.02.2020
2779 Clouds 25 1014 57 10000 5.7 330 10:57 13.02.2020
2780 Clouds 25 1014 57 10000 5.7 330 10:39 13.02.2020
2781 Clouds 25 1014 57 10000 5.7 330 10:20 13.02.2020
2782 Clouds 24 1014 60 10000 5.1 30 09:42 13.02.2020
2783 Clouds 24 1014 60 10000 5.1 30 09:23 13.02.2020
2784 Clouds 22 1013 68 10000 6.2 10 08:46 13.02.2020
2785 Clouds 21 1013 77 10000 5.1 10 08:19 13.02.2020
2786 Clouds 21 1013 77 10000 5.1 10 08:19 13.02.2020
2787 Clouds 21 1013 77 10000 5.1 10 08:19 13.02.2020
2788 Clouds 19 1013 88 10000 3.6 360 07:43 13.02.2020
2789 Clouds 19 1013 88 10000 3.6 360 07:23 13.02.2020
2790 Clouds 18 1012 93 10000 3.1 20 06:53 13.02.2020
2791 Clouds 18 1012 93 10000 3.1 20 06:33 13.02.2020
2792 Clouds 17 1012 93 10000 3.6 340 05:50 13.02.2020
2793 Clouds 16 1010 93 10000 2.6 320 04:48 13.02.2020
2794 Clouds 16 1010 93 10000 2.6 320 04:23 13.02.2020
2795 Clouds 16 1011 93 10000 3.1 20 03:41 13.02.2020
2796 Mist 16 1011 93 5000 1.5 0 02:58 13.02.2020
2797 Mist 16 1011 93 5000 1.5 0 02:20 13.02.2020
2798 Mist 16 1012 100 4000 4.1 310 01:54 13.02.2020
2799 Mist 16 1012 100 4000 4.1 310 01:25 13.02.2020
2800 Clear 18 1012 88 10000 4.6 300 00:28 13.02.2020
2801 Clear 18 1010 93 10000 2.1 320 23:43 12.02.2020
2802 Clear 18 1010 93 10000 2.1 320 23:23 12.02.2020
2803 Clear 18 1010 93 10000 2.1 320 23:23 12.02.2020
2804 Clear 18 1010 88 10000 3.1 210 22:59 12.02.2020
2805 Clear 18 1010 88 10000 3.1 210 22:41 12.02.2020
2806 Clear 19 1010 88 10000 3.1 210 22:22 12.02.2020
2807 Clouds 19 1010 93 10000 4.6 210 21:55 12.02.2020
2808 Clouds 19 1010 93 10000 4.6 210 21:37 12.02.2020
2809 Clouds 19 1010 93 10000 4.6 210 21:18 12.02.2020
2810 Clouds 19 1009 93 10000 4.6 220 20:43 12.02.2020
2811 Clouds 20 1009 93 10000 4.6 220 20:25 12.02.2020
2812 Clouds 20 1009 93 10000 7.2 210 20:00 12.02.2020
2813 Clouds 21 1009 93 10000 7.2 210 19:41 12.02.2020
2814 Clouds 21 1009 93 10000 7.2 220 19:22 12.02.2020
2815 Clouds 21 1009 93 10000 7.2 220 18:54 12.02.2020
2816 Clouds 21 1009 93 10000 7.2 220 18:36 12.02.2020
2817 Clouds 22 1009 88 10000 7.2 220 18:18 12.02.2020
2818 Clouds 23 1010 73 10000 7.2 200 17:40 12.02.2020
2819 Clouds 23 1010 73 10000 7.2 200 17:19 12.02.2020
2820 Clear 25 1010 69 10000 7.7 210 16:57 12.02.2020
2821 Clear 25 1010 69 10000 7.7 210 16:37 12.02.2020
2822 Clear 26 1010 69 10000 7.7 210 16:18 12.02.2020
2823 Clear 27 1010 64 10000 7.7 210 15:39 12.02.2020
2824 Clear 27 1010 64 10000 7.7 210 15:20 12.02.2020
2825 Clear 28 1010 61 10000 7.2 200 14:43 12.02.2020
2826 Clear 28 1010 61 10000 7.2 200 14:21 12.02.2020
2827 Clear 30 1010 51 10000 6.2 210 13:59 12.02.2020
2828 Clear 30 1010 51 10000 6.2 210 13:40 12.02.2020
2829 Clear 29 1010 51 10000 6.2 210 13:22 12.02.2020
2830 Clear 29 1011 51 10000 5.7 200 12:58 12.02.2020
2831 Clear 28 1011 51 10000 5.7 200 12:39 12.02.2020
2832 Clear 28 1011 51 10000 5.7 200 12:20 12.02.2020
2833 Clear 28 1011 54 10000 5.1 210 11:59 12.02.2020
2834 Clear 28 1011 54 10000 5.1 210 11:41 12.02.2020
2835 Clear 28 1011 54 10000 5.1 210 11:21 12.02.2020
2836 Clear 27 1011 53 10000 4.6 210 10:58 12.02.2020
2837 Clear 27 1011 53 10000 4.6 210 10:58 12.02.2020
2838 Clear 26 1011 53 10000 4.6 210 10:40 12.02.2020
2839 Clear 26 1011 53 10000 4.6 210 10:20 12.02.2020
2840 Clear 26 1011 53 10000 4.6 210 10:20 12.02.2020
2841 Clear 25 1011 53 10000 4.1 210 09:54 12.02.2020
2842 Clear 25 1011 53 10000 4.1 210 09:36 12.02.2020
2843 Clear 25 1011 53 10000 4.1 210 09:18 12.02.2020
2844 Clear 25 1011 53 10000 4.1 210 09:18 12.02.2020
2845 Clear 25 1011 57 10000 3.6 190 08:55 12.02.2020
2846 Clear 24 1011 64 10000 3.1 220 08:36 12.02.2020
2847 Clear 23 1011 64 10000 3.1 220 08:18 12.02.2020
2848 Clear 23 1011 64 10000 3.1 220 08:18 12.02.2020
2849 Clear 22 1011 73 10000 3.1 210 07:41 12.02.2020
2850 Clear 20 1011 82 10000 3.1 230 07:21 12.02.2020
2851 Clear 20 1010 88 10000 1 0 06:52 12.02.2020
2852 Clear 18 1010 88 10000 1 0 06:20 12.02.2020
2853 Clear 18 1010 93 10000 1.5 180 05:33 12.02.2020
2854 Clear 17 1010 88 10000 3.1 210 04:43 12.02.2020
2855 Clear 18 1010 88 10000 3.1 210 04:24 12.02.2020
2856 Clear 18 1010 82 10000 0.5 0 03:31 12.02.2020
2857 Clear 19 1010 77 10000 2.1 0 02:54 12.02.2020
2858 Clear 19 1010 77 10000 2.1 0 02:27 12.02.2020
2859 Clear 20 1011 68 10000 2.1 230 01:34 12.02.2020
2860 Clear 20 1011 72 10000 4.6 230 00:43 12.02.2020
2861 Clear 20 1011 72 10000 4.6 230 00:25 12.02.2020
2862 Clear 21 1012 72 10000 4.6 230 23:53 11.02.2020
2863 Clear 21 1012 68 10000 5.7 230 23:35 11.02.2020
2864 Clear 21 1012 68 10000 5.7 230 22:59 11.02.2020
2865 Clear 21 1012 68 10000 5.7 230 22:40 11.02.2020
2866 Clear 21 1012 68 10000 5.7 230 22:21 11.02.2020
2867 Clear 21 1012 73 10000 6.2 230 21:57 11.02.2020
2868 Clear 21 1012 73 10000 6.2 230 21:39 11.02.2020
2869 Clear 22 1012 73 10000 6.2 230 21:19 11.02.2020
2870 Clear 21 1012 77 10000 4.1 230 20:59 11.02.2020
2871 -273 0 0 0 0 0 20:39 11.02.2020
2872 Clear 21 1012 77 10000 4.1 230 20:20 11.02.2020
2873 Clear 21 1013 77 10000 6.7 230 19:58 11.02.2020
2874 Clear 22 1013 77 10000 6.7 230 19:40 11.02.2020
2875 Clear 22 1013 77 10000 6.7 230 19:22 11.02.2020
2876 Clear 23 1013 68 10000 6.2 220 18:46 11.02.2020
2877 Clear 23 1013 68 10000 6.2 220 18:28 11.02.2020
2878 Clear 25 1013 64 10000 6.2 210 17:57 11.02.2020
2879 Clear 25 1013 64 10000 6.2 210 17:39 11.02.2020
2880 Clear 26 1013 64 10000 6.2 210 17:20 11.02.2020
2881 Clear 28 1013 61 10000 5.7 210 16:58 11.02.2020
2882 Clear 28 1013 61 10000 5.7 210 16:58 11.02.2020
2883 Clear 29 1013 61 10000 5.7 210 16:40 11.02.2020
2884 Clear 29 1013 61 10000 5.7 210 16:21 11.02.2020
2885 Clear 30 1014 54 10000 6.2 210 15:58 11.02.2020
2886 Clear 29 1014 54 10000 6.2 210 15:39 11.02.2020
2887 Clear 29 1014 54 10000 6.2 210 15:21 11.02.2020
2888 Clear 30 1014 48 10000 5.7 210 14:42 11.02.2020
2889 Clear 30 1014 48 10000 5.7 210 14:19 11.02.2020
2890 Clear 30 1014 48 10000 6.2 210 13:58 11.02.2020
2891 Clear 30 1014 48 10000 6.2 210 13:39 11.02.2020
2892 Clear 30 1014 48 10000 6.2 210 13:20 11.02.2020
2893 Clear 30 1015 51 10000 5.1 210 12:55 11.02.2020
2894 Clear 29 1015 51 10000 5.1 210 12:36 11.02.2020
2895 Clear 29 1015 51 10000 5.1 210 12:18 11.02.2020
2896 Clear 27 1015 50 10000 6.7 220 11:41 11.02.2020
2897 Clear 29 1015 50 10000 6.7 220 11:20 11.02.2020
2898 Clear 28 1015 60 10000 5.7 220 10:55 11.02.2020
2899 Clear 27 1015 60 10000 5.7 220 10:36 11.02.2020
2900 Clear 27 1015 60 10000 5.7 220 10:18 11.02.2020
2901 Clear 24 1015 68 10000 5.1 230 09:44 11.02.2020
2902 Clear 24 1015 68 10000 5.1 230 09:22 11.02.2020
2903 Clear 24 1015 73 10000 4.6 220 08:57 11.02.2020
2904 Clear 23 1015 73 10000 4.6 220 08:39 11.02.2020
2905 Clear 22 1015 77 10000 4.6 220 08:20 11.02.2020
2906 Clear 21 1015 77 10000 4.6 220 07:45 11.02.2020
2907 Clear 20 1015 77 10000 4.6 220 07:25 11.02.2020
2908 Clear 20 1014 88 10000 4.6 230 06:43 11.02.2020
2909 Clear 19 1014 88 10000 4.6 230 06:22 11.02.2020
2910 Clear 18 1014 88 10000 5.1 230 05:47 11.02.2020
2911 Clear 18 1014 88 10000 5.1 230 05:23 11.02.2020
2912 Clear 18 1014 88 10000 5.1 230 04:37 11.02.2020
2913 Clear 19 1014 82 10000 5.7 240 02:53 11.02.2020
2914 Clear 19 1014 82 10000 5.7 240 02:27 11.02.2020
2915 Clear 20 1015 77 10000 5.7 220 01:36 11.02.2020
2916 Clear 20 1015 77 10000 8.7 190 00:40 11.02.2020
2917 Clear 20 1016 73 10000 8.7 190 23:57 10.02.2020
2918 Clear 20 1016 73 10000 8.7 190 23:38 10.02.2020
2919 Clear 21 1016 73 10000 8.7 190 23:19 10.02.2020
2920 Clear 20 1016 77 10000 6.7 210 22:40 10.02.2020
2921 Clear 20 1016 77 10000 6.7 210 22:20 10.02.2020
2922 Clear 19 1015 88 10000 6.2 230 21:46 10.02.2020
2923 Clear 19 1015 88 10000 6.2 230 21:27 10.02.2020
2924 Clear 20 1015 88 10000 7.2 230 20:58 10.02.2020
2925 Clear 20 1015 88 10000 7.2 230 20:40 10.02.2020
2926 Clear 20 1015 88 10000 7.2 230 20:21 10.02.2020
2927 Clear 20 1015 88 10000 7.2 230 20:21 10.02.2020
2928 Clouds 20 1015 82 10000 7.2 230 19:59 10.02.2020
2929 Clouds 20 1015 82 10000 7.2 230 19:39 10.02.2020
2930 Clouds 20 1015 82 10000 7.2 230 19:19 10.02.2020
2931 Clouds 22 1015 73 10000 7.2 220 18:59 10.02.2020
2932 Clouds 22 1015 73 10000 7.2 220 18:41 10.02.2020
2933 Clouds 22 1015 73 10000 7.2 220 18:21 10.02.2020
2934 Clouds 23 1015 69 10000 8.2 200 17:58 10.02.2020
2935 Clouds 24 1015 69 10000 8.2 200 17:39 10.02.2020
2936 Clouds 24 1015 69 10000 8.2 200 17:39 10.02.2020
2937 Clouds 23 1015 69 10000 8.2 200 17:20 10.02.2020
2938 Clouds 24 1015 69 10000 10.3 200 16:59 10.02.2020
2939 Clouds 25 1015 69 10000 10.3 200 16:40 10.02.2020
2940 Clouds 24 1015 69 10000 10.3 200 16:20 10.02.2020
2941 Clouds 24 1015 64 10000 11.3 190 15:58 10.02.2020
2942 Clouds 24 1015 64 10000 11.3 190 15:39 10.02.2020
2943 Clouds 24 1015 64 10000 11.3 190 15:20 10.02.2020
2944 Clouds 27 1016 61 10000 10.3 190 14:56 10.02.2020
2945 Clouds 27 1016 61 10000 10.3 190 14:38 10.02.2020
2946 Clouds 27 1016 61 10000 10.3 190 14:19 10.02.2020
2947 Clouds 26 1016 57 10000 9.3 190 13:43 10.02.2020
2948 Clouds 26 1016 57 10000 9.3 190 13:24 10.02.2020
2949 Clouds 27 1017 54 10000 7.7 200 12:56 10.02.2020
2950 Clouds 27 1017 54 10000 7.7 200 12:38 10.02.2020
2951 Clouds 27 1017 54 10000 7.7 200 12:19 10.02.2020
2952 Clouds 26 1017 54 10000 8.2 200 11:45 10.02.2020
2953 Clouds 26 1017 54 10000 8.2 200 11:21 10.02.2020
2954 Clouds 27 1017 57 10000 7.7 210 10:48 10.02.2020
2955 Clouds 27 1017 57 10000 7.7 210 10:48 10.02.2020
2956 Clouds 27 1017 57 10000 7.7 210 10:30 10.02.2020
2957 Clouds 26 1018 60 10000 6.7 210 09:55 10.02.2020
2958 Clouds 25 1018 60 10000 6.7 210 09:36 10.02.2020
2959 Clouds 25 1018 60 10000 6.7 210 09:18 10.02.2020
2960 Clouds 23 1018 68 10000 6.7 210 08:40 10.02.2020
2961 Clouds 23 1018 68 10000 6.7 210 08:21 10.02.2020
2962 Clouds 22 1018 68 10000 5.1 200 07:55 10.02.2020
2963 Clouds 22 1018 68 10000 5.1 200 07:32 10.02.2020
2964 Clouds 21 1017 73 10000 7.2 190 06:49 10.02.2020
2965 Clouds 19 1017 72 10000 8.2 190 04:59 10.02.2020
2966 Clouds 19 1017 88 10000 7.7 190 03:55 10.02.2020
2967 Clouds 19 1017 88 10000 7.7 190 03:18 10.02.2020
2968 Clouds 19 1017 82 10000 7.2 210 02:42 10.02.2020
2969 Clouds 19 1017 82 10000 8.7 200 01:24 10.02.2020
2970 Clouds 20 1018 77 10000 9.8 190 00:40 10.02.2020
2971 Clouds 20 1018 77 10000 9.8 190 00:21 10.02.2020
2972 Clouds 19 1018 88 10000 7.7 200 23:41 09.02.2020
2973 Clear 19 1018 88 10000 7.7 200 23:23 09.02.2020
2974 Clear 19 1018 88 10000 10.3 190 22:44 09.02.2020
2975 Clear 20 1018 88 10000 10.3 190 22:23 09.02.2020
2976 Clear 20 1018 93 10000 10.3 180 21:57 09.02.2020
2977 Clear 20 1018 93 10000 10.3 180 21:38 09.02.2020
2978 Clear 20 1018 93 10000 10.3 180 21:19 09.02.2020
2979 Clear 20 1017 93 10000 11.8 180 20:44 09.02.2020
2980 Clear 20 1017 93 10000 11.8 180 20:21 09.02.2020
2981 Clouds 20 1017 88 10000 11.3 180 19:55 09.02.2020
2982 Clouds 20 1017 88 10000 11.3 180 19:37 09.02.2020
2983 Clouds 21 1017 88 10000 11.3 180 19:18 09.02.2020
2984 Clouds 21 1016 83 10000 13.9 180 18:42 09.02.2020
2985 Clouds 21 1016 83 10000 13.9 180 18:23 09.02.2020
2986 Clouds 22 1016 78 10000 13.4 180 17:58 09.02.2020
2987 Clouds 22 1016 78 10000 13.4 180 17:39 09.02.2020
2988 Clouds 23 1016 78 10000 13.4 180 17:20 09.02.2020
2989 Clouds 24 1016 73 10000 13.9 180 16:41 09.02.2020
2990 Clouds 24 1016 73 10000 13.9 180 16:22 09.02.2020
2991 Clouds 25 1015 64 10000 12.3 180 15:58 09.02.2020
2992 Clouds 25 1015 64 10000 12.3 180 15:40 09.02.2020
2993 Clouds 25 1015 64 10000 12.3 180 15:21 09.02.2020
2994 Clouds 26 1015 65 10000 11.8 180 14:56 09.02.2020
2995 Clouds 26 1015 65 10000 11.8 180 14:37 09.02.2020
2996 Clouds 26 1016 61 10000 12.3 180 14:19 09.02.2020
2997 Clouds 27 1016 65 10000 12.3 180 13:42 09.02.2020
2998 Clouds 26 1016 65 10000 12.3 180 13:24 09.02.2020
2999 Clouds 26 1017 65 10000 12.3 180 12:55 09.02.2020
3000 Clouds 26 1017 65 10000 12.3 180 12:37 09.02.2020
3001 Clouds 26 1017 65 10000 12.3 180 12:18 09.02.2020
3002 Clouds 26 1017 69 10000 11.8 180 11:40 09.02.2020
3003 Clouds 26 1017 69 10000 11.8 180 11:19 09.02.2020
3004 Clouds 26 1017 65 10000 11.3 180 10:56 09.02.2020
3005 Clouds 26 1017 65 10000 11.3 180 10:38 09.02.2020
3006 Clouds 26 1017 65 10000 11.3 180 10:19 09.02.2020
3007 Clouds 25 1017 69 10000 10.3 180 09:39 09.02.2020
3008 Clouds 24 1017 69 10000 10.3 180 09:20 09.02.2020
3009 Clouds 23 1017 78 10000 11.3 180 08:44 09.02.2020
3010 Clouds 22 1017 78 10000 11.3 180 08:25 09.02.2020
3011 Clouds 21 1017 88 10000 9.3 180 07:54 09.02.2020
3012 Clouds 21 1017 88 10000 9.3 180 07:34 09.02.2020
3013 Clouds 21 1017 88 10000 9.3 180 07:34 09.02.2020
3014 Clouds 20 1016 93 10000 7.7 180 06:42 09.02.2020
3015 Clouds 19 1015 93 10000 8.7 180 05:56 09.02.2020
3016 Clouds 19 1015 93 10000 8.7 180 05:34 09.02.2020
3017 Clouds 19 1015 100 10000 6.7 180 04:52 09.02.2020
3018 Clouds 19 1014 100 10000 7.7 180 03:30 09.02.2020
3019 Mist 18 1014 100 2000 7.2 200 02:43 09.02.2020
3020 Mist 18 1014 100 2000 7.2 210 01:45 09.02.2020
3021 Mist 18 1014 100 2000 7.2 210 01:27 09.02.2020
3022 Clouds 19 1014 93 10000 7.2 220 00:38 09.02.2020
3023 Clouds 19 1014 93 10000 7.2 220 00:18 09.02.2020
3024 Clear 20 1014 93 10000 5.7 220 23:41 08.02.2020
3025 Clear 19 1014 93 10000 5.7 220 23:19 08.02.2020
3026 Clouds 19 1014 93 10000 6.7 200 22:40 08.02.2020
3027 Clouds 20 1014 93 10000 6.7 200 22:21 08.02.2020
3028 Clouds 19 1014 93 10000 6.2 190 21:54 08.02.2020
3029 Clouds 19 1014 93 10000 6.2 190 21:36 08.02.2020
3030 Clouds 19 1014 93 10000 6.2 190 21:18 08.02.2020
3031 Clouds 20 1013 88 10000 6.7 220 20:54 08.02.2020
3032 Clouds 20 1013 88 10000 6.7 220 20:54 08.02.2020
3033 Clouds 20 1013 88 10000 6.7 220 20:36 08.02.2020
3034 Clouds 20 1013 88 10000 6.7 220 20:18 08.02.2020
3035 Clouds 21 1013 82 10000 5.7 220 19:40 08.02.2020
3036 Clouds 21 1013 82 10000 5.7 220 19:20 08.02.2020
3037 Clouds 22 1012 73 10000 4.6 200 18:59 08.02.2020
3038 Clouds 23 1012 73 10000 4.6 200 18:40 08.02.2020
3039 Clouds 23 1012 73 10000 4.6 200 18:22 08.02.2020
3040 Clouds 24 1011 64 10000 6.2 200 17:43 08.02.2020
3041 Clouds 25 1011 64 10000 6.2 200 17:21 08.02.2020
3042 Clouds 27 1011 48 10000 6.2 190 16:57 08.02.2020
3043 Clouds 28 1011 48 10000 6.2 190 16:38 08.02.2020
3044 Clouds 28 1011 48 10000 6.2 190 16:19 08.02.2020
3045 Clouds 29 1011 37 10000 6.7 200 15:41 08.02.2020
3046 Clouds 29 1011 37 10000 6.7 200 15:19 08.02.2020
3047 Clouds 28 1011 35 10000 6.2 200 14:57 08.02.2020
3048 Clouds 29 1011 35 10000 6.2 200 14:39 08.02.2020
3049 Clouds 30 1011 35 10000 6.2 200 14:18 08.02.2020
3050 Clouds 30 1012 35 10000 5.7 180 13:43 08.02.2020
3051 Clouds 30 1012 35 10000 5.7 180 13:23 08.02.2020
3052 Clouds 29 1012 37 10000 5.1 180 12:54 08.02.2020
3053 Clouds 28 1012 37 10000 5.1 180 12:36 08.02.2020
3054 Clouds 28 1012 37 10000 5.1 180 12:18 08.02.2020
3055 Clouds 28 1013 37 10000 4.1 190 11:41 08.02.2020
3056 Clear 29 1013 37 10000 4.1 190 11:21 08.02.2020
3057 Clear 28 1013 39 10000 2.1 0 10:43 08.02.2020
3058 Clear 28 1013 39 10000 2.1 0 10:25 08.02.2020
3059 Clear 26 1013 47 10000 2.1 150 09:55 08.02.2020
3060 Clear 26 1013 47 10000 2.1 150 09:30 08.02.2020
3061 Clear 25 1014 53 10000 1.5 210 08:59 08.02.2020
3062 Clear 24 1014 53 10000 1.5 210 08:39 08.02.2020
3063 Clear 23 1014 53 10000 1.5 210 08:21 08.02.2020
3064 Clear 21 1014 68 10000 3.1 190 07:50 08.02.2020
3065 Clear 21 1014 68 10000 3.1 190 07:31 08.02.2020
3066 Clear 19 1013 77 10000 3.1 220 06:33 08.02.2020
3067 Clear 17 1012 82 10000 3.1 260 05:57 08.02.2020
3068 Clear 17 1012 82 10000 3.1 260 05:32 08.02.2020
3069 Clear 17 1011 77 10000 4.1 260 04:51 08.02.2020
3070 Clear 17 1010 82 10000 3.6 260 03:57 08.02.2020
3071 Clear 18 1010 82 10000 3.6 260 03:20 08.02.2020
3072 Clear 18 1011 77 10000 3.1 240 02:28 08.02.2020
3073 Clear 19 1012 77 10000 1 0 01:28 08.02.2020
3074 Clear 20 1013 68 10000 4.1 220 00:46 08.02.2020
3075 Clear 20 1013 68 10000 4.1 220 00:25 08.02.2020
3076 Clear 20 1013 68 10000 4.1 140 23:57 07.02.2020
3077 Clear 20 1013 68 10000 4.1 140 23:38 07.02.2020
3078 Clear 20 1013 68 10000 4.1 140 23:19 07.02.2020
3079 Clear 20 1013 68 10000 4.1 150 22:41 07.02.2020
3080 Clear 21 1013 68 10000 4.1 150 22:19 07.02.2020
3081 Clouds 21 1013 64 10000 5.1 140 21:57 07.02.2020
3082 Clouds 21 1013 64 10000 5.1 140 21:39 07.02.2020
3083 Clouds 21 1013 64 10000 5.1 140 21:19 07.02.2020
3084 Clouds 21 1013 68 10000 6.7 140 20:39 07.02.2020
3085 Clouds 21 1013 68 10000 6.7 140 20:19 07.02.2020
3086 Clouds 22 1012 64 10000 7.7 140 19:54 07.02.2020
3087 Clouds 22 1012 64 10000 7.7 140 19:36 07.02.2020
3088 Clouds 22 1012 64 10000 7.7 140 19:18 07.02.2020
3089 Clouds 24 1012 53 10000 7.7 140 18:43 07.02.2020
3090 Clouds 24 1012 53 10000 7.7 140 18:24 07.02.2020
3091 Clouds 24 1011 44 10000 8.2 140 17:44 07.02.2020
3092 Clouds 27 1011 44 10000 8.2 140 17:22 07.02.2020
3093 Clouds 27 1011 44 10000 8.2 140 17:22 07.02.2020
3094 Clouds 28 1011 37 10000 7.7 150 16:59 07.02.2020
3095 Clouds 27 1011 37 10000 7.7 150 16:41 07.02.2020
3096 Clouds 29 1011 37 10000 7.7 150 16:22 07.02.2020
3097 Clouds 27 1011 32 10000 5.7 160 15:53 07.02.2020
3098 Clouds 28 1011 32 10000 5.7 160 15:28 07.02.2020
3099 Clouds 28 1011 37 10000 3.6 150 14:55 07.02.2020
3100 Clouds 29 1011 37 10000 3.6 150 14:37 07.02.2020
3101 Clouds 29 1011 37 10000 3.6 150 14:19 07.02.2020
3102 Clouds 28 1012 42 10000 3.1 150 13:56 07.02.2020
3103 Clouds 28 1012 42 10000 3.1 150 13:38 07.02.2020
3104 Clouds 27 1012 42 10000 3.1 150 13:18 07.02.2020
3105 Clouds 26 1013 44 10000 3.1 170 12:41 07.02.2020
3106 Clouds 26 1013 44 10000 3.1 170 12:23 07.02.2020
3107 Clouds 25 1013 44 10000 3.1 200 11:45 07.02.2020
3108 Clouds 25 1013 44 10000 3.1 200 11:22 07.02.2020
3109 Clouds 24 1014 50 10000 3.6 160 10:58 07.02.2020
3110 Clouds 24 1014 50 10000 3.6 160 10:38 07.02.2020
3111 Clouds 24 1014 50 10000 3.6 160 10:19 07.02.2020
3112 Clouds 23 1014 56 10000 4.1 150 09:41 07.02.2020
3113 Clouds 23 1014 56 10000 4.1 150 09:22 07.02.2020
3114 Clouds 21 1014 60 10000 2.6 160 08:47 07.02.2020
3115 Clouds 21 1014 60 10000 2.6 160 08:24 07.02.2020
3116 Clouds 20 1014 68 10000 3.1 170 07:55 07.02.2020
3117 Clouds 20 1014 68 10000 3.1 170 07:33 07.02.2020
3118 Clouds 20 1013 72 10000 2.6 160 06:59 07.02.2020
3119 Clouds 19 1013 72 10000 2.6 160 06:40 07.02.2020
3120 Clouds 19 1013 72 10000 2.6 160 06:19 07.02.2020
3121 Clouds 19 1013 77 10000 4.1 150 05:37 07.02.2020
3122 Clouds 18 1013 77 10000 5.1 140 03:51 07.02.2020
3123 Clouds 18 1013 72 10000 4.6 130 02:23 07.02.2020
3124 Clouds 18 1013 72 10000 4.6 130 02:23 07.02.2020
3125 Clouds 18 1014 72 10000 5.1 140 01:21 07.02.2020
3126 Clouds 18 1014 77 10000 6.2 140 00:29 07.02.2020
3127 Clouds 18 1015 77 10000 6.2 140 23:39 06.02.2020
3128 Clouds 18 1015 77 10000 6.2 140 23:20 06.02.2020
3129 Clouds 18 1015 77 10000 5.7 140 22:56 06.02.2020
3130 Clouds 19 1015 77 10000 5.7 140 22:38 06.02.2020
3131 Clouds 19 1015 77 10000 5.7 140 22:19 06.02.2020
3132 Clouds 19 1015 68 10000 6.7 140 21:37 06.02.2020
3133 Clouds 19 1015 68 10000 6.7 140 21:19 06.02.2020
3134 Clouds 19 1015 68 10000 7.7 140 20:55 06.02.2020
3135 Clouds 19 1015 68 10000 7.7 140 20:37 06.02.2020
3136 Clouds 19 1015 68 10000 7.7 140 20:18 06.02.2020
3137 Clouds 19 1015 72 10000 9.3 150 19:57 06.02.2020
3138 Clouds 19 1015 72 10000 9.3 150 19:37 06.02.2020
3139 Clouds 19 1015 72 10000 9.3 150 19:19 06.02.2020
3140 Clouds 20 1015 64 10000 13.4 160 18:43 06.02.2020
3141 Clouds 20 1015 64 10000 13.4 160 18:25 06.02.2020
3142 Clouds 21 1015 60 10000 12.9 160 17:59 06.02.2020
3143 Clouds 21 1015 60 10000 12.9 160 17:41 06.02.2020
3144 Clouds 21 1015 60 10000 12.9 160 17:20 06.02.2020
3145 Clouds 22 1015 53 10000 13.9 160 16:43 06.02.2020
3146 Clouds 22 1015 53 10000 13.9 160 16:25 06.02.2020
3147 Clouds 23 1016 53 10000 11.8 160 15:54 06.02.2020
3148 Clouds 24 1016 53 10000 11.8 160 15:36 06.02.2020
3149 Clouds 23 1016 53 10000 11.8 160 15:18 06.02.2020
3150 Clouds 24 1016 53 10000 11.8 160 14:46 06.02.2020
3151 Clouds 24 1016 53 10000 11.8 160 14:24 06.02.2020
3152 Clouds 24 1016 49 10000 12.3 170 13:46 06.02.2020
3153 Clouds 23 1016 49 10000 12.3 170 13:27 06.02.2020
3154 Clouds 23 1017 49 10000 10.8 160 12:56 06.02.2020
3155 Clouds 23 1017 49 10000 10.8 160 12:37 06.02.2020
3156 Clouds 23 1017 49 10000 10.8 160 12:37 06.02.2020
3157 Clouds 23 1017 49 10000 10.8 160 12:18 06.02.2020
3158 Clouds 22 1017 53 10000 11.3 170 11:55 06.02.2020
3159 Clouds 22 1017 53 10000 11.3 170 11:37 06.02.2020
3160 Clouds 22 1017 53 10000 11.3 170 11:18 06.02.2020
3161 Clouds 22 1018 49 10000 11.3 170 10:41 06.02.2020
3162 Clouds 22 1018 49 10000 11.3 170 10:22 06.02.2020
3163 Clouds 22 1018 56 10000 10.8 170 09:59 06.02.2020
3164 Clouds 21 1018 56 10000 10.8 170 09:40 06.02.2020
3165 Clouds 21 1018 56 10000 10.8 170 09:20 06.02.2020
3166 Clouds 20 1018 63 10000 10.3 160 08:45 06.02.2020
3167 Clouds 20 1018 63 10000 10.3 160 08:45 06.02.2020
3168 Clouds 20 1018 63 10000 10.3 160 08:24 06.02.2020
3169 Clouds 20 1017 63 10000 9.3 160 07:56 06.02.2020
3170 Clouds 19 1017 63 10000 9.3 160 07:32 06.02.2020
3171 Clouds 19 1017 68 10000 9.3 160 06:53 06.02.2020
3172 Clouds 18 1017 68 10000 9.3 160 06:19 06.02.2020
3173 Clouds 18 1016 68 10000 8.7 170 05:40 06.02.2020
3174 Clouds 18 1016 72 10000 9.3 170 04:18 06.02.2020
3175 Clouds 18 1016 77 10000 7.7 180 03:18 06.02.2020
3176 Clouds 18 1016 77 10000 7.7 180 03:18 06.02.2020
3177 Clouds 18 1016 77 10000 7.7 170 01:57 06.02.2020
3178 Clouds 18 1016 77 10000 7.7 170 01:24 06.02.2020
3179 Clouds 19 1016 77 10000 7.7 160 00:41 06.02.2020
3180 Clouds 19 1016 77 10000 7.7 160 00:19 06.02.2020
3181 Clouds 19 1016 77 10000 7.7 170 23:42 05.02.2020
3182 Clouds 19 1016 77 10000 7.7 170 23:23 05.02.2020
3183 Clouds 19 1016 82 10000 4.6 170 22:54 05.02.2020
3184 Clouds 19 1016 82 10000 4.6 170 22:36 05.02.2020
3185 Clouds 19 1016 82 10000 4.6 170 22:18 05.02.2020
3186 Clouds 19 1016 72 10000 4.1 160 21:40 05.02.2020
3187 Clouds 19 1016 72 10000 4.1 160 21:22 05.02.2020
3188 Clouds 19 1015 77 10000 3.1 150 20:55 05.02.2020
3189 Clouds 19 1015 77 10000 3.1 150 20:36 05.02.2020
3190 Clouds 19 1015 77 10000 3.1 150 20:18 05.02.2020
3191 Clouds 20 1014 72 10000 3.1 130 19:55 05.02.2020
3192 Clouds 20 1014 72 10000 3.1 130 19:36 05.02.2020
3193 Clouds 20 1014 72 10000 3.1 130 19:18 05.02.2020
3194 Clouds 21 1014 68 10000 5.1 180 18:43 05.02.2020
3195 Clouds 20 1014 68 10000 5.1 180 18:20 05.02.2020
3196 Clouds 20 1013 72 10000 6.7 190 17:55 05.02.2020
3197 Clouds 20 1013 72 10000 6.7 190 17:36 05.02.2020
3198 Clouds 20 1013 72 10000 6.7 190 17:18 05.02.2020
3199 Clouds 20 1012 73 10000 6.7 190 16:42 05.02.2020
3200 Clouds 20 1012 73 10000 6.7 190 16:24 05.02.2020
3201 Clouds 21 1012 64 10000 6.2 300 15:57 05.02.2020
3202 Clouds 21 1012 64 10000 6.2 300 15:38 05.02.2020
3203 Clouds 21 1012 64 10000 6.2 300 15:18 05.02.2020
3204 Clouds 23 1012 60 10000 7.7 300 14:42 05.02.2020
3205 Clouds 23 1012 60 10000 7.7 300 14:23 05.02.2020
3206 Clouds 24 1012 57 10000 9.3 300 13:57 05.02.2020
3207 Clouds 24 1012 57 10000 9.3 300 13:38 05.02.2020
3208 Clouds 24 1012 57 10000 9.3 300 13:19 05.02.2020
3209 Clouds 23 1012 56 10000 8.7 300 12:40 05.02.2020
3210 Clouds 24 1012 56 10000 8.7 300 12:22 05.02.2020
3211 Clouds 24 1012 56 10000 8.2 320 11:42 05.02.2020
3212 Clouds 23 1012 56 10000 8.2 320 11:24 05.02.2020
3213 Clouds 23 1012 60 10000 8.2 320 10:59 05.02.2020
3214 Clouds 23 1012 60 10000 8.2 320 10:39 05.02.2020
3215 Clouds 22 1012 60 10000 8.2 320 10:19 05.02.2020
3216 Clouds 22 1012 60 10000 8.2 320 10:19 05.02.2020
3217 Clouds 22 1012 60 10000 7.2 310 09:44 05.02.2020
3218 Clouds 22 1012 60 10000 7.2 310 09:22 05.02.2020
3219 Clouds 22 1012 60 10000 6.7 320 08:59 05.02.2020
3220 Clouds 22 1012 60 10000 6.7 320 08:41 05.02.2020
3221 Clouds 20 1011 72 10000 6.7 330 08:22 05.02.2020
3222 Clouds 19 1011 77 10000 5.1 340 07:45 05.02.2020
3223 Clouds 19 1011 77 10000 5.1 340 07:26 05.02.2020
3224 Clouds 19 1010 88 10000 5.1 350 06:43 05.02.2020
3225 Clouds 19 1010 88 10000 5.1 350 06:22 05.02.2020
3226 Clouds 18 1010 82 10000 5.7 330 05:49 05.02.2020
3227 Clouds 18 1010 82 10000 5.7 330 05:18 05.02.2020
3228 Clouds 19 1009 88 10000 3.6 340 04:44 05.02.2020
3229 Clouds 19 1009 88 10000 3.1 340 03:36 05.02.2020
3230 Clouds 20 1009 88 10000 1 90 02:24 05.02.2020
3231 Clouds 20 1009 88 10000 1.5 120 01:35 05.02.2020
3232 Clouds 21 1010 88 10000 3.1 190 00:42 05.02.2020
3233 Clouds 20 1010 88 10000 4.1 200 23:43 04.02.2020
3234 Clouds 20 1010 88 10000 4.1 200 23:23 04.02.2020
3235 Clouds 20 1010 88 10000 4.6 190 22:59 04.02.2020
3236 Clouds 20 1010 88 10000 4.6 190 22:41 04.02.2020
3237 Clouds 21 1010 88 10000 4.6 190 22:21 04.02.2020
3238 Clouds 21 1010 94 10000 6.7 190 21:59 04.02.2020
3239 Clouds 21 1010 94 10000 6.7 190 21:40 04.02.2020
3240 Clouds 21 1010 94 10000 6.7 190 21:19 04.02.2020
3241 Clouds 21 1010 94 10000 6.7 190 21:19 04.02.2020
3242 Clouds 21 1010 94 10000 6.7 190 21:19 04.02.2020
3243 Clouds 21 1009 94 10000 6.7 180 20:58 04.02.2020
3244 Clouds 21 1009 94 10000 6.7 180 20:38 04.02.2020
3245 Clouds 21 1009 94 10000 6.7 180 20:20 04.02.2020
3246 Clouds 22 1009 88 10000 6.2 170 19:56 04.02.2020
3247 Clouds 22 1009 88 10000 6.2 170 19:38 04.02.2020
3248 Clouds 22 1009 88 10000 6.2 170 19:19 04.02.2020
3249 Clouds 22 1009 88 10000 6.2 170 18:54 04.02.2020
3250 Clouds 22 1009 88 10000 6.2 170 18:36 04.02.2020
3251 Clouds 22 1008 88 10000 6.7 170 18:18 04.02.2020
3252 Fog 22 1008 88 2000 5.1 170 17:41 04.02.2020
3253 Clear 23 1008 73 10000 4.1 180 17:20 04.02.2020
3254 Clear 25 1008 54 10000 1.5 0 16:40 04.02.2020
3255 Clear 25 1008 54 10000 1.5 0 16:21 04.02.2020
3256 Clear 24 1008 65 10000 7.2 330 15:59 04.02.2020
3257 Clear 25 1008 65 10000 7.2 330 15:41 04.02.2020
3258 Clear 25 1008 65 10000 7.2 330 15:21 04.02.2020
3259 Clear 24 1008 69 10000 8.2 320 14:58 04.02.2020
3260 Clear 25 1008 69 10000 8.2 320 14:40 04.02.2020
3261 Clear 25 1008 69 10000 8.2 320 14:20 04.02.2020
3262 Clear 26 1009 61 10000 8.2 310 13:55 04.02.2020
3263 Clear 26 1009 61 10000 8.2 310 13:36 04.02.2020
3264 Clear 26 1009 61 10000 8.2 310 13:18 04.02.2020
3265 Clear 27 1009 54 10000 7.2 320 12:42 04.02.2020
3266 Clear 28 1009 54 10000 7.2 320 12:42 04.02.2020
3267 Clear 28 1009 54 10000 7.2 320 12:24 04.02.2020
3268 Clear 27 1010 61 10000 5.7 320 11:57 04.02.2020
3269 Clear 27 1010 61 10000 5.7 320 11:38 04.02.2020
3270 Clear 28 1010 61 10000 5.7 320 11:19 04.02.2020
3271 Clear 28 1011 61 10000 4.1 330 10:49 04.02.2020
3272 Clear 26 1011 65 10000 4.1 320 10:26 04.02.2020
3273 Clear 25 1011 69 10000 4.1 320 09:58 04.02.2020
3274 Clear 24 1011 69 10000 4.1 320 09:39 04.02.2020
3275 Clear 25 1011 69 10000 4.1 320 09:21 04.02.2020
3276 Clouds 22 1011 88 7000 3.1 290 08:46 04.02.2020
3277 Clouds 22 1011 88 7000 3.1 290 08:27 04.02.2020
3278 Fog 20 1011 94 3000 2.6 330 07:53 04.02.2020
3279 Fog 20 1011 100 1000 1.5 0 07:25 04.02.2020
3280 Fog 19 1011 100 500 1.5 0 06:58 04.02.2020
3281 Fog 20 1010 93 200 1.5 0 06:40 04.02.2020
3282 Fog 19 1010 93 200 2.6 230 05:34 04.02.2020
3283 Clouds 20 1010 93 8000 2.6 220 04:28 04.02.2020
3284 Clouds 20 1010 93 9000 3.1 230 03:48 04.02.2020
3285 Clouds 20 1010 93 9000 3.1 230 03:29 04.02.2020
3286 Clouds 20 1010 93 6000 5.1 240 02:42 04.02.2020
3287 Clouds 20 1010 93 6000 5.1 240 02:24 04.02.2020
3288 Clouds 20 1010 100 10000 6.7 230 01:45 04.02.2020
3289 Clouds 20 1011 100 10000 5.7 230 00:56 04.02.2020
3290 Clouds 20 1011 100 10000 5.7 230 00:23 04.02.2020
3291 Clouds 21 1011 100 10000 6.2 220 23:49 03.02.2020
3292 Clouds 21 1011 100 10000 6.2 220 23:30 03.02.2020
3293 Mist 21 1011 100 3400 6.7 230 22:58 03.02.2020
3294 Mist 21 1011 100 3400 6.7 230 22:38 03.02.2020
3295 Mist 21 1011 100 3400 6.7 230 22:19 03.02.2020
3296 Mist 21 1012 100 3100 6.7 220 21:41 03.02.2020
3297 Mist 21 1012 100 3100 6.7 220 21:20 03.02.2020
3298 Mist 21 1012 100 3100 6.7 220 21:20 03.02.2020
3299 Mist 21 1012 100 1800 6.2 210 20:56 03.02.2020
3300 Mist 21 1012 100 1800 6.2 210 20:38 03.02.2020
3301 Mist 21 1012 100 1800 6.2 210 20:38 03.02.2020
3302 Fog 21 1012 100 800 7.2 210 20:18 03.02.2020
3303 Fog 22 1012 100 800 6.7 210 19:42 03.02.2020
3304 Fog 22 1012 100 800 6.7 210 19:23 03.02.2020
3305 Mist 22 1012 94 2000 7.2 210 18:59 03.02.2020
3306 Mist 23 1012 94 2000 7.2 210 18:40 03.02.2020
3307 Mist 24 1012 94 2000 7.2 210 18:21 03.02.2020
3308 Clouds 24 1012 94 8000 7.7 200 17:57 03.02.2020
3309 Clouds 24 1012 94 8000 7.7 200 17:39 03.02.2020
3310 Clouds 25 1012 88 10000 8.2 200 17:19 03.02.2020
3311 Clouds 24 1012 78 10000 8.7 200 16:40 03.02.2020
3312 Fog 25 1013 78 4000 7.7 180 16:22 03.02.2020
3313 Clouds 26 1013 65 10000 7.2 170 15:58 03.02.2020
3314 Clouds 26 1013 65 10000 7.2 170 15:39 03.02.2020
3315 Clouds 26 1013 65 10000 7.2 170 15:20 03.02.2020
3316 Clouds 27 1013 57 10000 7.7 170 14:57 03.02.2020
3317 Clouds 27 1013 57 10000 7.7 170 14:39 03.02.2020
3318 Clouds 27 1013 57 10000 7.7 170 14:21 03.02.2020
3319 Clouds 26 1014 61 10000 5.7 170 13:43 03.02.2020
3320 Clouds 26 1014 61 10000 5.7 170 13:21 03.02.2020
3321 Clouds 26 1014 57 10000 4.1 170 12:58 03.02.2020
3322 Clouds 26 1014 57 10000 4.1 170 12:40 03.02.2020
3323 Clouds 27 1014 57 10000 4.1 170 12:21 03.02.2020
3324 Clouds 28 1015 51 10000 1.5 0 11:56 03.02.2020
3325 Clouds 28 1015 51 10000 1.5 0 11:37 03.02.2020
3326 Clouds 28 1015 51 10000 1.5 0 11:18 03.02.2020
3327 Clouds 27 1015 54 10000 2.6 0 10:41 03.02.2020
3328 Clouds 26 1015 61 10000 3.1 300 10:22 03.02.2020
3329 Clouds 25 1015 64 10000 3.6 320 09:48 03.02.2020
3330 Clouds 25 1015 64 10000 3.6 320 09:25 03.02.2020
3331 Clouds 24 1015 73 10000 3.1 300 08:57 03.02.2020
3332 Clouds 22 1015 73 10000 3.1 300 08:39 03.02.2020
3333 Clouds 22 1015 73 10000 3.1 300 08:21 03.02.2020
3334 Clouds 21 1015 83 10000 2.1 320 07:41 03.02.2020
3335 Clouds 20 1015 93 10000 2.6 330 07:21 03.02.2020
3336 Clouds 19 1014 100 8000 2.1 350 06:51 03.02.2020
3337 Clouds 19 1014 100 8000 2.1 350 06:30 03.02.2020
3338 Clouds 19 1014 93 7000 2.6 330 05:48 03.02.2020
3339 Fog 19 1014 100 2000 2.1 310 05:30 03.02.2020
3340 Fog 19 1014 100 500 1 0 04:30 03.02.2020
3341 Fog 19 1013 100 500 3.6 220 02:38 03.02.2020
3342 Fog 19 1013 100 500 3.6 220 02:18 03.02.2020
3343 Fog 19 1014 100 800 5.1 220 00:48 03.02.2020
3344 Fog 19 1014 100 800 5.1 220 00:25 03.02.2020
3345 Mist 20 1014 93 4000 5.1 210 23:40 02.02.2020
3346 Fog 20 1014 100 900 5.1 210 23:22 02.02.2020
3347 Fog 19 1014 93 2000 5.7 210 22:58 02.02.2020
3348 Fog 20 1014 93 2000 5.7 210 22:39 02.02.2020
3349 Fog 20 1014 93 2000 5.7 210 22:21 02.02.2020
3350 Fog 20 1014 93 2000 5.7 210 22:21 02.02.2020
3351 Fog 20 1014 93 2000 5.7 210 22:21 02.02.2020
3352 Mist 20 1013 93 5000 5.7 210 21:57 02.02.2020
3353 Mist 20 1013 93 5000 5.7 210 21:38 02.02.2020
3354 Mist 20 1013 93 5000 5.7 210 21:20 02.02.2020
3355 Mist 20 1013 93 5000 5.7 210 21:20 02.02.2020
3356 Mist 20 1013 94 3000 7.2 210 20:57 02.02.2020
3357 Mist 20 1013 94 3000 7.2 210 20:57 02.02.2020
3358 Mist 21 1013 94 3000 7.2 210 20:38 02.02.2020
3359 Mist 21 1013 94 3000 7.2 210 20:20 02.02.2020
3360 Mist 21 1013 94 3000 6.2 210 19:56 02.02.2020
3361 Mist 22 1013 94 3000 6.2 210 19:38 02.02.2020
3362 Mist 22 1013 94 3000 6.2 210 19:19 02.02.2020
3363 Clouds 22 1013 88 10000 6.7 210 18:55 02.02.2020
3364 Clouds 22 1013 88 10000 6.7 210 18:36 02.02.2020
3365 Clouds 23 1013 78 10000 6.7 210 18:18 02.02.2020
3366 Clouds 25 1012 65 10000 6.2 190 17:56 02.02.2020
3367 Clouds 25 1012 65 10000 6.2 190 17:37 02.02.2020
3368 Clear 26 1012 65 10000 6.2 190 17:18 02.02.2020
3369 Clear 26 1013 61 10000 6.7 180 16:56 02.02.2020
3370 Clear 27 1013 61 10000 6.7 180 16:37 02.02.2020
3371 Clear 27 1013 61 10000 6.7 180 16:18 02.02.2020
3372 Clear 28 1013 57 10000 5.7 180 15:40 02.02.2020
3373 Clear 28 1013 57 10000 5.7 180 15:20 02.02.2020
3374 Clear 28 1013 57 10000 5.7 180 15:20 02.02.2020
3375 Clear 29 1014 54 10000 5.7 170 14:59 02.02.2020
3376 Clear 29 1014 54 10000 5.7 170 14:41 02.02.2020
3377 Clear 28 1014 54 10000 5.7 170 14:18 02.02.2020
3378 Clear 29 1014 48 10000 3.1 0 13:58 02.02.2020
3379 Clear 28 1014 48 10000 3.1 0 13:37 02.02.2020
3380 Clear 28 1014 48 10000 3.1 0 13:19 02.02.2020
3381 Clear 28 1014 51 10000 6.2 310 12:46 02.02.2020
3382 Clear 28 1014 51 10000 6.2 310 12:23 02.02.2020
3383 Clear 30 1014 45 10000 5.7 320 11:59 02.02.2020
3384 Clear 29 1014 45 10000 5.7 320 11:41 02.02.2020
3385 Clear 30 1014 45 10000 5.7 320 11:19 02.02.2020
3386 Clear 31 1014 45 10000 2.6 0 10:56 02.02.2020
3387 Clear 30 1014 45 10000 2.6 0 10:37 02.02.2020
3388 Clear 29 1014 48 10000 1.5 0 10:19 02.02.2020
3389 Clear 27 1014 61 10000 1.5 0 09:56 02.02.2020
3390 Clear 27 1014 61 10000 1.5 0 09:38 02.02.2020
3391 Clear 26 1014 61 10000 1.5 0 09:19 02.02.2020
3392 Clear 26 1013 69 10000 1 0 08:43 02.02.2020
3393 Clear 24 1014 78 10000 3.1 240 08:24 02.02.2020
3394 Clear 23 1014 78 10000 3.1 240 08:24 02.02.2020
3395 Clear 22 1013 83 10000 2.1 180 07:47 02.02.2020
3396 Clouds 21 1013 93 9000 3.6 240 07:28 02.02.2020
3397 Clouds 19 1013 93 6000 2.6 220 06:44 02.02.2020
3398 Clouds 19 1013 93 6000 2.6 220 06:26 02.02.2020
3399 Clear 18 1012 93 10000 3.6 230 05:47 02.02.2020
3400 Clear 18 1012 93 10000 2.1 170 04:48 02.02.2020
3401 Clear 18 1012 88 10000 3.1 230 03:26 02.02.2020
3402 Clear 18 1013 93 10000 1 0 02:33 02.02.2020
3403 Clouds 18 1013 88 10000 3.1 240 01:54 02.02.2020
3404 Clouds 18 1013 88 10000 3.1 240 01:54 02.02.2020
3405 Clouds 19 1013 88 10000 3.1 240 01:23 02.02.2020
3406 Clouds 19 1013 88 10000 7.7 230 00:44 02.02.2020
3407 Clouds 19 1013 88 10000 7.7 230 00:22 02.02.2020
3408 Clouds 20 1012 82 10000 4.1 230 23:47 01.02.2020
3409 Clouds 20 1012 82 10000 4.1 230 23:23 01.02.2020
3410 Clouds 21 1012 77 10000 6.2 220 22:54 01.02.2020
3411 Clouds 21 1012 77 10000 6.2 220 22:36 01.02.2020
3412 Clouds 20 1012 77 10000 6.2 220 22:18 01.02.2020
3413 Clouds 21 1012 77 10000 5.7 220 21:39 01.02.2020
3414 Clouds 20 1012 77 10000 5.7 220 21:18 01.02.2020
3415 Clouds 21 1011 88 10000 8.2 210 20:41 01.02.2020
3416 Clouds 20 1011 88 10000 8.2 210 20:20 01.02.2020
3417 Clouds 21 1011 88 10000 7.2 220 19:57 01.02.2020
3418 Clouds 21 1011 88 10000 7.2 220 19:39 01.02.2020
3419 Clouds 21 1011 88 10000 7.2 220 19:20 01.02.2020
3420 Clouds 22 1012 78 10000 8.2 210 18:58 01.02.2020
3421 Clouds 22 1012 78 10000 8.2 210 18:40 01.02.2020
3422 Clouds 22 1012 78 10000 8.2 210 18:22 01.02.2020
3423 Clouds 23 1012 78 10000 8.7 210 17:58 01.02.2020
3424 Clouds 24 1012 78 10000 8.7 210 17:39 01.02.2020
3425 Clouds 23 1012 78 10000 8.7 210 17:20 01.02.2020
3426 Clouds 24 1012 69 10000 9.3 200 16:44 01.02.2020
3427 Clouds 25 1012 69 10000 9.3 200 16:25 01.02.2020
3428 Clouds 25 1012 69 10000 9.3 200 16:25 01.02.2020
3429 Clouds 22 1013 73 10000 8.2 200 15:59 01.02.2020
3430 Clouds 22 1013 73 10000 8.2 200 15:40 01.02.2020
3431 Clouds 24 1013 73 10000 8.2 200 15:22 01.02.2020
3432 Clouds 27 1013 57 10000 7.7 210 14:54 01.02.2020
3433 Clouds 26 1013 57 10000 7.7 210 14:36 01.02.2020
3434 Clouds 27 1013 57 10000 7.7 210 14:18 01.02.2020
3435 Clouds 28 1013 51 10000 8.2 190 13:42 01.02.2020
3436 Clouds 29 1013 51 10000 8.2 190 13:18 01.02.2020
3437 Clouds 29 1013 51 10000 8.2 190 13:18 01.02.2020
3438 Clouds 26 1014 50 10000 7.2 200 12:43 01.02.2020
3439 Clouds 26 1014 50 10000 7.2 200 12:24 01.02.2020
3440 Clouds 26 1014 50 10000 6.2 210 11:56 01.02.2020
3441 Clouds 26 1014 50 10000 6.2 210 11:37 01.02.2020
3442 Clouds 28 1014 50 10000 6.2 210 11:18 01.02.2020
3443 Clouds 29 1014 47 10000 5.1 200 10:54 01.02.2020
3444 Clouds 29 1014 47 10000 5.1 200 10:36 01.02.2020
3445 Clouds 26 1014 53 10000 6.2 210 10:18 01.02.2020
3446 Clouds 24 1015 57 10000 4.6 200 09:41 01.02.2020
3447 Clouds 24 1015 57 10000 4.6 200 09:22 01.02.2020
3448 Clouds 23 1014 64 10000 5.1 240 08:58 01.02.2020
3449 Clouds 23 1014 64 10000 5.1 240 08:36 01.02.2020
3450 Clouds 22 1014 68 10000 8.2 180 07:46 01.02.2020
3451 Clouds 20 1014 88 10000 6.2 250 07:25 01.02.2020
3452 Clouds 20 1014 77 10000 4.6 240 06:50 01.02.2020
3453 Clouds 18 1013 82 10000 6.2 200 05:55 01.02.2020
3454 Clouds 18 1013 82 10000 6.2 200 05:37 01.02.2020
3455 Clouds 18 1013 77 10000 7.7 200 03:40 01.02.2020
3456 Clouds 18 1013 77 10000 7.7 200 03:20 01.02.2020
3457 Clouds 18 1014 77 10000 7.2 210 02:41 01.02.2020
3458 Clouds 18 1014 77 10000 7.2 210 02:22 01.02.2020
3459 Clouds 18 1014 82 10000 7.7 210 01:48 01.02.2020
3460 Clouds 19 1014 82 10000 7.7 210 01:28 01.02.2020
3461 Clouds 19 1015 82 10000 8.2 200 00:25 01.02.2020
3462 Clouds 18 1015 93 10000 9.3 200 23:42 31.01.2020
3463 Clouds 18 1015 93 10000 9.3 200 23:19 31.01.2020
3464 Clouds 18 1015 93 10000 9.3 200 23:19 31.01.2020
3465 Clouds 19 1015 88 10000 9.8 190 22:58 31.01.2020
3466 Clouds 19 1015 88 10000 9.8 190 22:58 31.01.2020
3467 Clouds 19 1015 88 10000 9.8 190 22:40 31.01.2020
3468 Clouds 19 1015 88 10000 9.8 190 22:21 31.01.2020
3469 Clouds 19 1016 88 10000 10.3 190 21:55 31.01.2020
3470 Clouds 20 1016 88 10000 10.3 190 21:37 31.01.2020
3471 Clouds 20 1016 88 10000 10.3 190 21:19 31.01.2020
3472 Clouds 20 1016 88 10000 11.3 190 20:55 31.01.2020
3473 Clouds 20 1016 88 10000 11.3 190 20:37 31.01.2020
3474 Clouds 20 1016 88 10000 11.3 190 20:18 31.01.2020
3475 Clouds 20 1016 88 10000 10.8 190 19:55 31.01.2020
3476 Clouds 20 1016 88 10000 10.3 190 19:36 31.01.2020
3477 Clouds 20 1016 88 10000 10.3 190 19:18 31.01.2020
3478 Clouds 21 1015 77 10000 11.8 190 18:39 31.01.2020
3479 Clouds 21 1015 77 10000 11.8 190 18:21 31.01.2020
3480 Clouds 22 1016 83 10000 10.8 190 17:46 31.01.2020
3481 Clouds 22 1016 83 10000 10.8 190 17:28 31.01.2020
3482 Clouds 22 1016 78 10000 11.3 180 16:58 31.01.2020
3483 Clouds 23 1016 78 10000 11.3 180 16:39 31.01.2020
3484 Clouds 23 1016 78 10000 11.3 180 16:19 31.01.2020
3485 Clouds 23 1016 73 10000 11.8 190 15:58 31.01.2020
3486 Clouds 23 1016 73 10000 11.8 190 15:40 31.01.2020
3487 Clouds 23 1016 73 10000 11.8 190 15:20 31.01.2020
3488 Clouds 24 1016 69 10000 11.8 190 14:45 31.01.2020
3489 Clouds 24 1016 69 10000 11.8 190 14:25 31.01.2020
3490 Clouds 25 1016 57 10000 9.3 190 13:59 31.01.2020
3491 Clouds 25 1016 57 10000 9.3 190 13:38 31.01.2020
3492 Clouds 25 1016 57 10000 9.3 190 13:20 31.01.2020
3493 Clouds 25 1016 57 10000 9.3 180 12:45 31.01.2020
3494 Clouds 25 1016 57 10000 8.2 180 12:24 31.01.2020
3495 Clouds 25 1016 60 10000 7.7 180 11:56 31.01.2020
3496 Clouds 25 1016 60 10000 7.7 180 11:37 31.01.2020
3497 Clouds 24 1016 60 10000 7.7 180 11:19 31.01.2020
3498 Clouds 24 1016 69 10000 8.2 190 10:55 31.01.2020
3499 Clouds 24 1016 69 10000 8.2 190 10:36 31.01.2020
3500 Clouds 23 1016 69 10000 8.2 190 10:18 31.01.2020
3501 Clouds 22 1016 73 10000 6.7 190 09:42 31.01.2020
3502 Clouds 22 1016 73 10000 6.7 190 09:21 31.01.2020
3503 Clouds 21 1015 88 10000 5.7 200 08:56 31.01.2020
3504 Clouds 21 1015 88 10000 5.7 200 08:38 31.01.2020
3505 Clouds 21 1015 88 10000 5.7 200 08:19 31.01.2020
3506 Clouds 21 1015 88 10000 7.2 200 07:46 31.01.2020
3507 Clouds 19 1014 100 10000 5.1 210 07:19 31.01.2020
3508 Clouds 18 1013 100 6000 5.7 210 06:34 31.01.2020
3509 Clouds 17 1012 93 6000 4.6 220 05:54 31.01.2020
3510 Clouds 17 1012 93 6000 4.6 220 05:54 31.01.2020
3511 Clouds 18 1012 93 6000 4.1 210 05:20 31.01.2020
3512 Clouds 18 1010 93 10000 5.1 220 03:52 31.01.2020
3513 Clouds 18 1011 93 10000 5.1 210 02:49 31.01.2020
3514 Clouds 18 1011 93 10000 3.1 210 01:30 31.01.2020
3515 Clouds 18 1011 82 10000 3.6 210 00:39 31.01.2020
3516 Clouds 18 1011 82 10000 3.6 210 00:39 31.01.2020
3517 Clouds 18 1011 82 10000 3.6 210 00:20 31.01.2020
3518 Clouds 18 1011 82 10000 3.6 210 23:40 30.01.2020
3519 Clear 19 1011 82 10000 3.6 210 23:21 30.01.2020
3520 Clear 20 1011 77 10000 4.1 210 22:39 30.01.2020
3521 Clear 20 1011 77 10000 4.1 210 22:21 30.01.2020
3522 Clear 21 1011 72 10000 4.1 210 21:58 30.01.2020
3523 Clear 21 1011 72 10000 4.1 210 21:40 30.01.2020
3524 Clear 21 1011 72 10000 4.1 210 21:18 30.01.2020
3525 Clear 21 1010 77 10000 5.1 220 20:56 30.01.2020
3526 Clear 21 1010 77 10000 5.1 220 20:38 30.01.2020
3527 Clear 22 1010 77 10000 5.1 220 20:19 30.01.2020
3528 Clear 22 1010 73 10000 4.1 220 19:44 30.01.2020
3529 Clear 23 1010 73 10000 4.1 220 19:19 30.01.2020
3530 Clear 23 1010 73 10000 4.1 220 19:19 30.01.2020
3531 Clear 23 1010 64 10000 4.6 220 18:59 30.01.2020
3532 Clear 23 1010 64 10000 4.6 220 18:37 30.01.2020
3533 Clear 24 1010 64 10000 4.6 220 18:18 30.01.2020
3534 Clear 26 1010 54 10000 5.1 210 17:42 30.01.2020
3535 Clear 28 1010 54 10000 5.1 210 17:20 30.01.2020
3536 Clear 28 1011 51 10000 5.7 210 16:59 30.01.2020
3537 Clear 28 1011 51 10000 5.7 210 16:40 30.01.2020
3538 Clear 28 1011 51 10000 5.7 210 16:21 30.01.2020
3539 Clear 30 1011 37 10000 6.7 200 15:45 30.01.2020
3540 Clear 30 1011 37 10000 6.7 200 15:22 30.01.2020
3541 Clear 30 1011 31 10000 5.7 200 14:58 30.01.2020
3542 Clear 30 1011 31 10000 5.7 200 14:40 30.01.2020
3543 Clear 32 1011 31 10000 5.7 200 14:22 30.01.2020
3544 Clear 32 1012 29 10000 5.7 210 13:42 30.01.2020
3545 Clear 31 1012 29 10000 5.7 210 13:24 30.01.2020
3546 Clear 31 1012 29 10000 4.6 200 12:57 30.01.2020
3547 Clear 31 1012 29 10000 4.6 200 12:38 30.01.2020
3548 Clear 31 1012 29 10000 4.6 200 12:19 30.01.2020
3549 Clear 30 1012 35 10000 4.1 220 11:41 30.01.2020
3550 Clear 30 1012 35 10000 4.1 220 11:41 30.01.2020
3551 Clear 30 1012 35 10000 4.1 220 11:41 30.01.2020
3552 Clear 31 1012 35 10000 4.1 220 11:23 30.01.2020
3553 Clear 27 1013 44 10000 4.1 220 10:59 30.01.2020
3554 Clear 27 1013 44 10000 4.1 220 10:40 30.01.2020
3555 Clear 27 1013 44 10000 4.1 220 10:21 30.01.2020
3556 Clear 26 1013 44 10000 5.1 220 09:46 30.01.2020
3557 Clear 26 1013 44 10000 5.1 220 09:27 30.01.2020
3558 Clear 25 1013 49 10000 3.6 200 08:55 30.01.2020
3559 Clear 24 1013 49 10000 3.6 200 08:36 30.01.2020
3560 Clear 23 1013 49 10000 3.6 200 08:18 30.01.2020
3561 Clear 21 1014 56 10000 6.7 160 07:44 30.01.2020
3562 Clear 21 1014 56 10000 6.7 160 07:20 30.01.2020
3563 Clear 19 1014 68 10000 4.6 200 06:46 30.01.2020
3564 Clear 19 1014 68 10000 4.6 200 06:26 30.01.2020
3565 Clear 19 1014 68 10000 4.6 200 06:26 30.01.2020
3566 Clear 18 1013 72 10000 3.6 200 05:43 30.01.2020
3567 Clear 17 1013 72 10000 3.6 200 05:19 30.01.2020
3568 Clouds 18 1014 68 10000 9.8 170 03:48 30.01.2020
3569 Clouds 18 1014 68 10000 9.8 170 03:26 30.01.2020
3570 Clouds 18 1015 63 10000 10.8 170 01:57 30.01.2020
3571 Clouds 18 1015 63 10000 11.3 160 00:38 30.01.2020
3572 Clouds 19 1015 63 10000 11.3 160 00:19 30.01.2020
3573 Clouds 19 1016 63 10000 10.8 180 23:45 29.01.2020
3574 Clouds 19 1016 63 10000 10.8 180 23:21 29.01.2020
3575 Clouds 19 1016 63 10000 10.8 180 23:21 29.01.2020
3576 Clouds 19 1016 68 10000 12.3 160 22:56 29.01.2020
3577 Clouds 19 1016 68 10000 12.3 160 22:38 29.01.2020
3578 Clouds 19 1016 68 10000 12.3 160 22:19 29.01.2020
3579 Clouds 19 1016 68 10000 10.3 180 21:57 29.01.2020
3580 Clouds 19 1016 68 10000 10.3 180 21:38 29.01.2020
3581 Clouds 19 1016 68 10000 10.3 180 21:18 29.01.2020
3582 Clouds 19 1016 68 10000 9.8 190 20:57 29.01.2020
3583 Clouds 19 1016 68 10000 9.8 190 20:37 29.01.2020
3584 Clouds 19 1016 68 10000 9.8 190 20:19 29.01.2020
3585 Clouds 19 1017 68 10000 10.3 190 19:55 29.01.2020
3586 Clouds 19 1017 68 10000 10.3 190 19:37 29.01.2020
3587 Clouds 19 1017 68 10000 10.3 190 19:18 29.01.2020
3588 Clouds 20 1016 64 10000 10.8 190 18:42 29.01.2020
3589 Clouds 21 1016 64 10000 10.8 190 18:19 29.01.2020
3590 Clouds 21 1016 64 10000 11.3 180 17:56 29.01.2020
3591 Clouds 21 1016 64 10000 11.3 180 17:37 29.01.2020
3592 Clouds 21 1016 64 10000 11.3 180 17:19 29.01.2020
3593 Clouds 23 1017 56 10000 12.9 180 16:41 29.01.2020
3594 Clouds 22 1017 56 10000 12.9 180 16:22 29.01.2020
3595 Clouds 23 1017 56 10000 12.3 180 15:55 29.01.2020
3596 Clouds 23 1017 56 10000 12.3 180 15:36 29.01.2020
3597 Clouds 23 1017 56 10000 12.3 180 15:18 29.01.2020
3598 Clouds 24 1017 56 10000 13.9 190 14:41 29.01.2020
3599 Clouds 24 1017 56 10000 13.9 190 14:20 29.01.2020
3600 Clouds 25 1017 56 10000 12.3 180 13:41 29.01.2020
3601 Clouds 25 1017 56 10000 12.3 180 13:23 29.01.2020
3602 Clouds 25 1017 56 10000 12.3 180 13:23 29.01.2020
3603 Clouds 24 1018 60 10000 12.3 180 12:59 29.01.2020
3604 Clouds 24 1018 60 10000 12.3 180 12:39 29.01.2020
3605 Clouds 24 1018 60 10000 12.3 180 12:21 29.01.2020
3606 Clouds 24 1018 60 10000 11.3 180 11:58 29.01.2020
3607 Clouds 24 1018 60 10000 11.3 180 11:40 29.01.2020
3608 Clouds 24 1018 60 10000 11.3 180 11:20 29.01.2020
3609 Clouds 24 1018 69 10000 10.3 170 10:46 29.01.2020
3610 Clouds 24 1018 69 10000 10.3 170 10:22 29.01.2020
3611 Clouds 22 1017 83 10000 8.7 190 09:58 29.01.2020
3612 Clouds 22 1017 83 10000 8.7 190 09:39 29.01.2020
3613 Clouds 22 1017 83 10000 8.7 190 09:18 29.01.2020
3614 Clouds 21 1017 83 10000 7.7 180 08:44 29.01.2020
3615 Clouds 21 1017 83 10000 7.2 180 08:24 29.01.2020
3616 Clouds 21 1017 93 10000 5.7 180 07:45 29.01.2020
3617 Clouds 20 1017 93 10000 5.7 180 07:26 29.01.2020
3618 Clouds 19 1016 100 10000 6.2 180 06:56 29.01.2020
3619 Clouds 19 1016 100 10000 6.2 180 06:56 29.01.2020
3620 Clouds 19 1016 100 10000 6.2 180 06:37 29.01.2020
3621 Clouds 19 1016 100 10000 6.2 180 06:19 29.01.2020
3622 Clouds 19 1016 100 10000 5.1 180 05:50 29.01.2020
3623 Drizzle 19 1016 100 4000 4.6 190 05:31 29.01.2020
3624 Clouds 19 1015 100 10000 3.6 180 04:38 29.01.2020
3625 Clouds 19 1015 100 10000 3.6 180 03:59 29.01.2020
3626 Drizzle 19 1016 100 6000 3.1 150 02:34 29.01.2020
3627 Clouds 19 1016 93 10000 3.6 160 01:18 29.01.2020
3628 Clouds 19 1016 100 10000 3.6 150 00:38 29.01.2020
3629 Clouds 19 1016 100 10000 3.6 150 00:20 29.01.2020
3630 Clouds 20 1017 93 10000 4.1 160 23:39 28.01.2020
3631 Clouds 20 1017 93 10000 4.1 160 23:19 28.01.2020
3632 Clouds 20 1017 88 10000 4.1 150 22:49 28.01.2020
3633 Clouds 20 1017 88 10000 4.1 150 22:27 28.01.2020
3634 Clouds 20 1017 88 10000 3.1 150 21:57 28.01.2020
3635 Clouds 20 1017 88 10000 3.1 150 21:38 28.01.2020
3636 Clouds 19 1017 88 10000 3.1 150 21:19 28.01.2020
3637 Clouds 20 1016 82 10000 5.7 190 20:46 28.01.2020
3638 Clouds 20 1016 82 10000 5.7 190 20:26 28.01.2020
3639 Clouds 20 1016 77 10000 6.7 170 19:56 28.01.2020
3640 Clouds 20 1016 77 10000 6.7 170 19:37 28.01.2020
3641 Clouds 21 1016 77 10000 6.7 170 19:19 28.01.2020
3642 Clear 21 1016 64 10000 7.7 180 18:54 28.01.2020
3643 Clear 21 1016 64 10000 7.7 180 18:36 28.01.2020
3644 Clear 21 1016 64 10000 7.7 180 18:18 28.01.2020
3645 Clear 23 1015 57 10000 7.2 180 17:54 28.01.2020
3646 Clear 23 1015 57 10000 7.2 180 17:36 28.01.2020
3647 Clear 24 1015 57 10000 7.2 180 17:18 28.01.2020
3648 Clear 23 1015 53 10000 6.7 160 16:44 28.01.2020
3649 Clear 23 1015 53 10000 6.7 160 16:25 28.01.2020
3650 Clear 24 1015 50 10000 4.6 150 15:57 28.01.2020
3651 Clear 24 1015 50 10000 4.6 150 15:38 28.01.2020
3652 Clear 24 1015 50 10000 4.6 150 15:18 28.01.2020
3653 Clear 24 1016 50 10000 4.1 170 14:44 28.01.2020
3654 Clear 25 1016 50 10000 4.1 170 14:20 28.01.2020
3655 Clear 25 1016 47 10000 4.1 190 13:43 28.01.2020
3656 Clear 25 1016 47 10000 4.1 190 13:24 28.01.2020
3657 Clear 24 1016 47 10000 4.1 0 12:46 28.01.2020
3658 Clear 24 1016 47 10000 4.1 0 12:25 28.01.2020
3659 Clear 23 1017 53 10000 2.1 0 11:59 28.01.2020
3660 Clear 23 1017 53 10000 2.1 0 11:41 28.01.2020
3661 Clear 23 1017 53 10000 2.1 0 11:22 28.01.2020
3662 Clear 22 1017 56 10000 3.6 190 10:55 28.01.2020
3663 Clear 22 1017 56 10000 3.6 190 10:36 28.01.2020
3664 Clear 22 1017 56 10000 3.6 190 10:18 28.01.2020
3665 Clear 22 1017 60 10000 3.1 160 09:41 28.01.2020
3666 Clear 22 1017 60 10000 3.1 160 09:20 28.01.2020
3667 Clear 21 1018 68 10000 2.6 170 08:46 28.01.2020
3668 Clear 21 1018 68 10000 2.6 170 08:26 28.01.2020
3669 Clouds 20 1018 77 10000 3.1 190 07:56 28.01.2020
3670 Clouds 20 1018 77 10000 3.1 190 07:34 28.01.2020
3671 Clouds 17 1018 93 10000 2.1 170 06:48 28.01.2020
3672 Clouds 17 1018 93 10000 2.1 170 06:25 28.01.2020
3673 Clouds 16 1017 87 10000 1.5 180 05:40 28.01.2020
3674 Clouds 15 1017 87 10000 1.5 180 05:21 28.01.2020
3675 Clouds 15 1018 93 10000 3.1 180 03:50 28.01.2020
3676 Clouds 15 1018 87 10000 4.1 180 02:49 28.01.2020
3677 Clouds 15 1018 87 10000 4.1 180 02:25 28.01.2020
3678 Clouds 16 1018 82 10000 3.1 190 01:56 28.01.2020
3679 Clouds 16 1018 82 10000 3.1 190 01:22 28.01.2020
3680 Clouds 16 1019 77 10000 4.1 190 00:45 28.01.2020
3681 Clouds 16 1019 77 10000 4.1 190 00:23 28.01.2020
3682 Clouds 16 1019 72 10000 5.7 190 23:44 27.01.2020
3683 Clouds 16 1019 72 10000 5.7 190 23:20 27.01.2020
3684 Clouds 16 1020 67 10000 5.1 190 22:45 27.01.2020
3685 Clouds 17 1020 67 10000 5.1 190 22:20 27.01.2020
3686 Clouds 17 1020 67 10000 5.1 190 22:20 27.01.2020
3687 Clouds 17 1020 72 10000 6.7 190 21:58 27.01.2020
3688 Clouds 17 1020 72 10000 6.7 190 21:39 27.01.2020
3689 Clouds 17 1020 72 10000 6.7 190 21:19 27.01.2020
3690 Clouds 17 1020 72 10000 6.7 190 21:19 27.01.2020
3691 Clouds 17 1020 72 10000 6.7 190 21:19 27.01.2020
3692 Clouds 17 1019 67 10000 5.7 190 20:57 27.01.2020
3693 Clouds 17 1019 67 10000 5.7 190 20:38 27.01.2020
3694 Clouds 17 1019 67 10000 5.7 190 20:20 27.01.2020
3695 Clouds 17 1019 67 10000 5.7 190 20:20 27.01.2020
3696 Clouds 18 1019 59 10000 7.2 190 19:57 27.01.2020
3697 Clouds 18 1019 59 10000 7.2 190 19:39 27.01.2020
3698 Clouds 18 1019 59 10000 7.2 190 19:21 27.01.2020
3699 Clouds 19 1019 55 10000 8.7 190 18:40 27.01.2020
3700 Clouds 19 1019 55 10000 8.7 190 18:40 27.01.2020
3701 -273 0 0 0 0 0 18:22 27.01.2020
3702 Clouds 20 1019 52 10000 9.3 190 17:58 27.01.2020
3703 Clouds 20 1019 52 10000 9.3 190 17:39 27.01.2020
3704 Clouds 20 1019 52 10000 9.3 190 17:39 27.01.2020
3705 Clouds 20 1019 52 10000 9.3 190 17:19 27.01.2020
3706 Clouds 21 1020 52 10000 8.7 170 16:56 27.01.2020
3707 Clouds 21 1020 52 10000 8.7 170 16:37 27.01.2020
3708 Clouds 21 1020 52 10000 8.7 170 16:19 27.01.2020
3709 Clouds 22 1020 46 10000 8.7 180 15:42 27.01.2020
3710 Clouds 22 1020 46 10000 8.7 180 15:20 27.01.2020
3711 Clouds 22 1021 46 10000 8.2 170 14:59 27.01.2020
3712 Clouds 22 1021 46 10000 8.2 170 14:40 27.01.2020
3713 Clouds 22 1021 46 10000 8.2 170 14:21 27.01.2020
3714 Clouds 21 1021 43 10000 7.7 190 13:46 27.01.2020
3715 Clouds 21 1021 43 10000 7.7 190 13:24 27.01.2020
3716 Clouds 22 1022 40 10000 8.2 190 12:58 27.01.2020
3717 Clouds 23 1022 40 10000 8.2 190 12:39 27.01.2020
3718 Clouds 22 1022 40 10000 8.2 190 12:21 27.01.2020
3719 Clouds 22 1023 43 10000 7.7 190 11:43 27.01.2020
3720 Clouds 23 1023 43 10000 7.7 190 11:22 27.01.2020
3721 Clouds 21 1023 52 10000 7.7 190 10:57 27.01.2020
3722 Clouds 21 1023 52 10000 7.7 190 10:39 27.01.2020
3723 Clouds 21 1023 52 10000 7.7 190 10:20 27.01.2020
3724 Clouds 21 1023 49 10000 6.2 190 09:40 27.01.2020
3725 Clouds 20 1023 49 10000 6.2 190 09:19 27.01.2020
3726 Clouds 20 1024 59 10000 6.2 180 08:57 27.01.2020
3727 Clouds 20 1024 59 10000 6.2 180 08:39 27.01.2020
3728 Clouds 19 1024 59 10000 6.2 180 08:19 27.01.2020
3729 Clouds 18 1024 72 10000 5.1 160 07:47 27.01.2020
3730 Clouds 18 1024 72 10000 5.1 160 07:29 27.01.2020
3731 Clouds 17 1024 77 10000 3.1 180 06:38 27.01.2020
3732 Clouds 15 1024 82 10000 2.6 200 05:46 27.01.2020
3733 Clouds 14 1024 87 10000 3.1 190 04:37 27.01.2020
3734 Clouds 14 1023 87 10000 2.6 150 03:35 27.01.2020
3735 Clouds 15 1024 87 10000 3.1 170 01:56 27.01.2020
3736 Clouds 15 1024 87 10000 3.1 170 01:27 27.01.2020
3737 Clouds 16 1025 77 10000 1.5 0 00:42 27.01.2020
3738 Clouds 16 1025 77 10000 1.5 0 00:22 27.01.2020
3739 Clouds 17 1024 67 10000 4.6 190 23:44 26.01.2020
3740 Clouds 16 1024 67 10000 4.6 190 23:26 26.01.2020
3741 Clouds 16 1024 72 10000 3.1 180 22:59 26.01.2020
3742 Clouds 16 1024 72 10000 3.1 180 22:39 26.01.2020
3743 Clouds 16 1024 72 10000 3.1 180 22:20 26.01.2020
3744 Clouds 16 1024 72 10000 3.1 170 21:58 26.01.2020
3745 Clouds 16 1024 72 10000 3.1 170 21:39 26.01.2020
3746 Clouds 16 1024 72 10000 3.1 170 21:21 26.01.2020
3747 Clouds 17 1023 63 10000 3.6 160 20:58 26.01.2020
3748 Clouds 17 1023 63 10000 3.6 160 20:38 26.01.2020
3749 Clouds 17 1023 63 10000 3.6 160 20:19 26.01.2020
3750 Clouds 17 1022 63 10000 5.1 170 19:59 26.01.2020
3751 Clouds 17 1022 63 10000 5.1 170 19:38 26.01.2020
3752 Clouds 18 1022 63 10000 5.1 170 19:20 26.01.2020
3753 Clouds 19 1022 52 10000 7.7 180 18:56 26.01.2020
3754 Clouds 19 1022 52 10000 7.7 180 18:38 26.01.2020
3755 Clouds 19 1022 52 10000 7.7 180 18:20 26.01.2020
3756 Clouds 20 1021 42 10000 7.2 180 17:55 26.01.2020
3757 Clouds 20 1021 42 10000 7.2 180 17:37 26.01.2020
3758 Clouds 20 1021 42 10000 7.2 180 17:18 26.01.2020
3759 Clouds 20 1021 49 10000 8.7 180 16:56 26.01.2020
3760 Clouds 21 1021 49 10000 8.7 180 16:38 26.01.2020
3761 Clouds 21 1021 49 10000 8.7 180 16:18 26.01.2020
3762 Clouds 22 1020 37 10000 7.7 180 15:43 26.01.2020
3763 Clouds 22 1019 43 10000 6.7 180 15:21 26.01.2020
3764 Clouds 21 1019 43 10000 6.7 180 14:58 26.01.2020
3765 Clouds 21 1019 43 10000 6.7 180 14:38 26.01.2020
3766 Clouds 22 1019 40 10000 8.2 200 14:19 26.01.2020
3767 Clouds 22 1019 40 10000 8.2 200 14:19 26.01.2020
3768 Clouds 22 1019 40 10000 8.2 200 13:40 26.01.2020
3769 Clouds 22 1019 40 10000 8.2 200 13:19 26.01.2020
3770 Clouds 21 1019 49 10000 7.2 200 12:56 26.01.2020
3771 Clouds 21 1019 49 10000 7.2 200 12:37 26.01.2020
3772 Clouds 21 1019 49 10000 7.2 200 12:19 26.01.2020
3773 Clouds 21 1019 49 10000 8.2 200 11:57 26.01.2020
3774 Clouds 20 1019 49 10000 8.2 200 11:36 26.01.2020
3775 Clouds 20 1019 49 10000 8.2 200 11:18 26.01.2020
3776 Clouds 20 1019 49 10000 8.2 200 11:18 26.01.2020
3777 Clouds 20 1018 52 10000 8.7 220 10:55 26.01.2020
3778 Clouds 20 1018 52 10000 8.7 220 10:37 26.01.2020
3779 Clouds 20 1018 52 10000 8.7 220 10:19 26.01.2020
3780 Clouds 20 1018 52 10000 8.7 220 10:19 26.01.2020
3781 Clouds 20 1017 49 10000 7.2 220 09:42 26.01.2020
3782 Clouds 20 1017 49 10000 7.2 220 09:23 26.01.2020
3783 Clouds 20 1017 59 10000 4.1 230 08:59 26.01.2020
3784 Clouds 19 1017 59 10000 4.1 230 08:41 26.01.2020
3785 Clouds 18 1017 59 10000 4.1 230 08:21 26.01.2020
3786 Clouds 18 1016 67 10000 4.1 260 07:50 26.01.2020
3787 Clouds 17 1016 67 10000 4.1 260 07:27 26.01.2020
3788 Clouds 17 1015 67 10000 4.1 260 06:51 26.01.2020
3789 Clouds 16 1015 67 10000 4.1 260 06:23 26.01.2020
3790 Clouds 15 1013 87 10000 2.6 320 05:28 26.01.2020
3791 Rain 15 1012 87 8000 1 0 03:57 26.01.2020
3792 Rain 15 1012 93 8000 4.1 240 02:38 26.01.2020
3793 Rain 16 1012 88 10000 5.1 250 01:45 26.01.2020
3794 Rain 16 1012 88 10000 5.1 250 01:23 26.01.2020
3795 Clouds 17 1011 82 10000 5.7 320 00:43 26.01.2020
3796 Clouds 18 1011 82 10000 5.7 320 00:25 26.01.2020
3797 Clouds 18 1011 88 10000 7.2 320 23:40 25.01.2020
3798 Clouds 17 1011 88 10000 4.1 310 23:21 25.01.2020
3799 Clouds 17 1011 88 10000 4.1 310 22:56 25.01.2020
3800 Clouds 17 1011 88 10000 4.1 310 22:56 25.01.2020
3801 Clouds 17 1011 88 10000 4.1 310 22:37 25.01.2020
3802 Clouds 17 1011 88 10000 4.1 310 22:37 25.01.2020
3803 Clouds 18 1010 88 0 1.34 293 22:18 25.01.2020
3804 Clouds 18 1019 91 0 1.34 168 21:55 25.01.2020
3805 Clouds 19 1011 77 0 3.85 309 21:37 25.01.2020
3806 Clouds 19 1011 93 10000 4.6 320 21:19 25.01.2020
3807 Clouds 19 1011 93 10000 4.6 320 20:43 25.01.2020
3808 Clouds 20 1010 76 0 4.41 279 20:24 25.01.2020
3809 Clouds 20 1010 76 0 4.41 279 19:48 25.01.2020
3810 Clouds 20 1010 77 0 4.47 330 19:20 25.01.2020
3811 Clouds 20 1007 74 0 0.45 295 19:20 25.01.2020
3812 Clouds 20 1010 77 0 4.47 330 18:59 25.01.2020
3813 Clouds 20 1010 77 0 4.47 330 18:41 25.01.2020
3814 Clouds 20 1010 82 10000 3.6 310 18:21 25.01.2020
3815 Clouds 20 1010 82 10000 3.6 310 17:56 25.01.2020
3816 Clouds 20 1006 70 0 0.45 8 17:37 25.01.2020
3817 Clouds 20 1017 81 0 1.34 353 17:18 25.01.2020
3818 Clouds 20 1010 82 10000 6.7 310 16:42 25.01.2020
3819 Clouds 20 1010 82 10000 6.7 310 16:42 25.01.2020
3820 Clouds 20 1010 82 10000 6.7 310 16:23 25.01.2020
3821 Clouds 20 1010 77 10000 9.3 310 15:56 25.01.2020
3822 Clouds 21 1010 77 10000 9.3 310 15:38 25.01.2020
3823 Clouds 22 1010 64 10000 10.3 310 15:19 25.01.2020
3824 Clouds 23 1010 64 10000 10.3 310 14:42 25.01.2020
3825 Clouds 24 1010 64 10000 10.3 310 14:19 25.01.2020
3826 Clouds 24 1010 64 10000 9.8 320 13:45 25.01.2020
3827 Clouds 24 1010 64 10000 9.8 320 13:26 25.01.2020
3828 Clouds 25 1011 60 0 9.39 320 12:57 25.01.2020
3829 Clouds 24 1011 60 0 9.39 320 12:37 25.01.2020
3830 Clouds 23 1011 60 10000 9.8 310 12:19 25.01.2020
3831 Clouds 23 1011 60 10000 9.8 310 11:40 25.01.2020
3832 Clouds 23 1011 60 10000 9.8 310 11:19 25.01.2020
3833 Clouds 22 1011 68 10000 5.7 320 10:55 25.01.2020
3834 Clouds 22 1011 68 10000 5.7 320 10:37 25.01.2020
3835 Clouds 22 1011 68 10000 5.7 320 10:18 25.01.2020
3836 Clouds 21 1011 77 10000 4.1 320 09:40 25.01.2020
3837 Clouds 21 1011 77 10000 4.1 320 09:19 25.01.2020
3838 Clouds 20 1011 82 10000 4.6 320 08:42 25.01.2020
3839 Clouds 19 1011 88 10000 4.1 320 07:57 25.01.2020
3840 Clouds 19 1011 88 10000 4.6 320 07:28 25.01.2020
3841 Clouds 18 1011 93 10000 2.6 330 06:33 25.01.2020
3842 Clouds 18 1011 93 10000 2.6 330 06:33 25.01.2020
3843 Clouds 17 1011 100 10000 2.1 10 05:57 25.01.2020
3844 Clouds 17 1011 100 10000 2.1 10 05:38 25.01.2020
3845 Clouds 17 1011 100 10000 2.1 10 05:38 25.01.2020
3846 Clouds 16 1010 93 10000 3.1 330 04:19 25.01.2020
3847 Clouds 16 1011 100 10000 2.1 320 03:49 25.01.2020
3848 Clouds 17 1011 93 10000 2.6 310 02:37 25.01.2020
3849 Clouds 18 1011 88 10000 1 270 01:57 25.01.2020
3850 Clouds 18 1011 88 10000 1 270 01:23 25.01.2020
3851 Clouds 17 1012 93 10000 2.1 340 00:39 25.01.2020
3852 Clouds 17 1012 93 10000 2.1 340 00:18 25.01.2020
3853 Clouds 18 1012 93 10000 2.6 230 23:42 24.01.2020
3854 Clouds 18 1012 93 10000 2.6 230 23:42 24.01.2020
3855 Clouds 18 1012 93 10000 2.6 230 23:24 24.01.2020
3856 Clouds 18 1012 100 10000 4.1 240 22:46 24.01.2020
3857 Clouds 18 1012 100 10000 4.1 240 22:46 24.01.2020
3858 Clouds 18 1012 100 10000 4.1 240 22:28 24.01.2020
3859 Clouds 19 1011 93 10000 5.1 240 21:58 24.01.2020
3860 Clouds 19 1011 93 10000 5.1 240 21:40 24.01.2020
3861 Clouds 19 1011 93 10000 5.1 240 21:19 24.01.2020
3862 Clouds 20 1011 88 10000 6.2 240 20:43 24.01.2020
3863 Clouds 20 1011 88 10000 6.2 240 20:22 24.01.2020
3864 Clouds 20 1010 88 10000 5.7 230 19:58 24.01.2020
3865 Clouds 20 1010 88 10000 5.7 230 19:58 24.01.2020
3866 Clouds 20 1010 88 10000 5.7 230 19:40 24.01.2020
3867 Clouds 20 1010 88 10000 5.7 230 19:22 24.01.2020
3868 Clouds 20 1010 88 10000 5.7 230 19:22 24.01.2020
3869 Clear 20 1010 77 10000 6.7 230 18:56 24.01.2020
3870 Clear 21 1010 77 10000 6.7 230 18:37 24.01.2020
3871 Clear 21 1010 77 10000 6.7 230 18:19 24.01.2020
3872 Clear 22 1010 69 10000 6.7 220 17:42 24.01.2020
3873 Clear 23 1010 69 10000 6.7 220 17:21 24.01.2020
3874 Clear 25 1010 61 10000 7.2 210 16:45 24.01.2020
3875 Clear 26 1010 61 10000 7.2 210 16:22 24.01.2020
3876 Clear 26 1010 57 10000 6.7 220 15:57 24.01.2020
3877 Clear 26 1010 57 10000 6.7 220 15:39 24.01.2020
3878 Clear 26 1010 57 10000 6.7 220 15:20 24.01.2020
3879 Clear 26 1010 51 10000 6.7 220 14:41 24.01.2020
3880 Clear 27 1010 51 10000 6.7 220 14:23 24.01.2020
3881 Clear 27 1011 45 10000 5.1 210 13:57 24.01.2020
3882 Clear 27 1011 45 10000 5.1 210 13:39 24.01.2020
3883 Clear 27 1011 45 10000 5.1 210 13:19 24.01.2020
3884 Clear 26 1011 47 10000 4.1 200 12:41 24.01.2020
3885 Clear 27 1011 47 10000 4.1 200 12:18 24.01.2020
3886 Clear 26 1011 47 10000 3.1 0 11:43 24.01.2020
3887 Clear 27 1011 47 10000 3.1 0 11:19 24.01.2020
3888 Clear 25 1011 50 10000 4.1 310 10:43 24.01.2020
3889 Clear 24 1011 50 10000 4.1 310 10:22 24.01.2020
3890 Clear 25 1011 50 10000 2.1 190 09:57 24.01.2020
3891 Clear 25 1011 50 10000 2.1 190 09:39 24.01.2020
3892 Clear 25 1011 50 10000 2.1 190 09:39 24.01.2020
3893 Clear 25 1011 50 10000 2.1 190 09:21 24.01.2020
3894 Clear 23 1010 53 10000 3.1 190 08:40 24.01.2020
3895 Clear 23 1010 53 10000 3.1 190 08:20 24.01.2020
3896 Clear 22 1010 64 10000 4.6 150 07:51 24.01.2020
3897 Clear 22 1010 64 10000 4.6 150 07:32 24.01.2020
3898 Clear 21 1009 72 10000 3.1 180 06:48 24.01.2020
3899 Clear 20 1009 72 10000 3.1 180 06:29 24.01.2020
3900 Clear 19 1008 77 10000 5.7 170 05:58 24.01.2020
3901 Clear 19 1008 77 10000 6.2 180 04:57 24.01.2020
3902 Clear 19 1008 68 10000 4.6 190 02:53 24.01.2020
3903 Clear 20 1008 68 10000 4.6 190 02:25 24.01.2020
3904 Clear 19 1009 72 10000 4.6 190 01:45 24.01.2020
3905 Clear 19 1009 72 10000 4.6 190 01:26 24.01.2020
3906 Clear 20 1009 68 10000 8.7 190 00:25 24.01.2020
3907 Clear 20 1009 68 10000 3.1 180 23:49 23.01.2020
3908 Clear 20 1009 68 10000 3.1 180 23:31 23.01.2020
3909 Clear 21 1009 64 10000 2.1 210 22:59 23.01.2020
3910 Clear 21 1009 64 10000 2.1 210 22:38 23.01.2020
3911 Clear 21 1009 64 10000 2.1 210 22:19 23.01.2020
3912 Clear 21 1009 56 10000 3.6 200 21:57 23.01.2020
3913 Clear 21 1009 56 10000 3.6 200 21:39 23.01.2020
3914 Clear 22 1009 56 10000 3.6 200 21:20 23.01.2020
3915 Clear 22 1009 56 10000 1.5 0 20:58 23.01.2020
3916 Clear 22 1009 56 10000 1.5 0 20:38 23.01.2020
3917 Clear 22 1009 56 10000 1.5 0 20:38 23.01.2020
3918 Clear 22 1009 56 10000 1.5 0 20:19 23.01.2020
3919 Clear 22 1009 56 10000 1.5 0 20:19 23.01.2020
3920 Clear 23 1008 53 10000 5.1 140 19:56 23.01.2020
3921 Clear 23 1008 53 10000 5.1 140 19:38 23.01.2020
3922 Clear 24 1008 53 10000 5.1 140 19:19 23.01.2020
3923 Clear 25 1008 47 10000 7.7 140 18:42 23.01.2020
3924 Clear 26 1008 47 10000 7.7 140 18:21 23.01.2020
3925 Clear 26 1008 47 10000 7.7 140 18:21 23.01.2020
3926 Clear 27 1008 39 10000 7.7 140 17:58 23.01.2020
3927 Clear 27 1008 39 10000 7.7 140 17:40 23.01.2020
3928 Clear 28 1008 39 10000 7.7 140 17:20 23.01.2020
3929 Clear 28 1009 35 10000 7.7 140 16:56 23.01.2020
3930 Clear 28 1009 35 10000 7.7 140 16:37 23.01.2020
3931 Clear 28 1009 35 10000 7.7 140 16:18 23.01.2020
3932 Clear 28 1009 35 10000 8.2 140 15:55 23.01.2020
3933 Clear 28 1009 35 10000 8.2 140 15:37 23.01.2020
3934 Clear 29 1009 35 10000 8.2 140 15:18 23.01.2020
3935 Clear 28 1010 35 10000 9.3 140 14:55 23.01.2020
3936 Clear 28 1010 35 10000 9.3 140 14:37 23.01.2020
3937 Clear 28 1010 35 10000 9.3 140 14:19 23.01.2020
3938 Clear 28 1011 35 10000 8.7 140 13:40 23.01.2020
3939 Clear 29 1011 35 10000 8.7 140 13:20 23.01.2020
3940 Clear 29 1011 32 10000 6.7 150 12:47 23.01.2020
3941 Clear 29 1011 32 10000 6.7 150 12:25 23.01.2020
3942 Clear 28 1012 34 10000 5.7 140 11:59 23.01.2020
3943 Clear 28 1012 34 10000 5.7 140 11:39 23.01.2020
3944 Clear 28 1012 34 10000 5.7 140 11:20 23.01.2020
3945 Clear 27 1012 34 10000 5.7 140 10:45 23.01.2020
3946 Clear 27 1012 34 10000 5.7 140 10:23 23.01.2020
3947 Clear 26 1012 39 10000 5.1 150 09:59 23.01.2020
3948 Clear 27 1012 39 10000 5.1 150 09:39 23.01.2020
3949 Clear 26 1012 39 10000 5.1 150 09:20 23.01.2020
3950 Clear 25 1012 44 10000 4.6 140 08:43 23.01.2020
3951 Clear 24 1012 44 10000 4.6 140 08:24 23.01.2020
3952 Clouds 23 1012 49 10000 2.1 140 07:49 23.01.2020
3953 Clouds 22 1012 49 10000 2.1 140 07:27 23.01.2020
3954 Clear 21 1012 60 10000 0.5 0 06:54 23.01.2020
3955 Clear 20 1012 60 10000 0.5 0 06:24 23.01.2020
3956 Clear 19 1011 72 10000 2.6 130 05:58 23.01.2020
3957 Clear 18 1011 63 10000 3.6 150 04:24 23.01.2020
3958 Clear 18 1011 63 10000 3.6 150 04:24 23.01.2020
3959 Clear 19 1011 59 10000 3.6 150 02:45 23.01.2020
3960 Clear 19 1011 59 10000 3.1 140 01:50 23.01.2020
3961 Clear 19 1011 59 10000 3.6 140 00:29 23.01.2020
3962 Clear 19 1012 59 10000 6.2 150 23:57 22.01.2020
3963 Clear 19 1012 59 10000 6.2 150 23:38 22.01.2020
3964 Clear 19 1012 59 10000 6.2 150 23:20 22.01.2020
3965 Clear 20 1012 49 10000 5.7 140 22:42 22.01.2020
3966 Clear 20 1012 49 10000 5.7 140 22:23 22.01.2020
3967 Clear 20 1012 60 10000 6.2 140 21:56 22.01.2020
3968 Clear 20 1012 60 10000 6.2 140 21:36 22.01.2020
3969 Clear 20 1012 60 10000 6.2 140 21:18 22.01.2020
3970 Clear 21 1012 68 10000 7.7 140 20:41 22.01.2020
3971 Clear 21 1012 68 10000 7.7 140 20:23 22.01.2020
3972 Clouds 21 1012 68 10000 8.7 150 19:58 22.01.2020
3973 Clouds 20 1012 68 10000 8.7 150 19:39 22.01.2020
3974 Clouds 21 1012 68 10000 8.7 150 19:19 22.01.2020
3975 Clouds 22 1012 60 10000 9.8 140 18:57 22.01.2020
3976 Clouds 22 1012 60 10000 9.8 140 18:38 22.01.2020
3977 Clouds 22 1012 60 10000 9.8 140 18:20 22.01.2020
3978 Clouds 22 1011 56 10000 10.3 150 17:55 22.01.2020
3979 Clouds 22 1011 56 10000 10.3 150 17:55 22.01.2020
3980 Clouds 23 1011 56 10000 10.3 150 17:37 22.01.2020
3981 Clouds 23 1011 56 10000 10.3 150 17:19 22.01.2020
3982 Clouds 26 1011 47 10000 8.7 130 16:43 22.01.2020
3983 Clouds 25 1011 47 10000 8.7 130 16:23 22.01.2020
3984 Clouds 25 1012 50 10000 9.3 140 15:59 22.01.2020
3985 Clouds 24 1012 50 10000 9.3 140 15:41 22.01.2020
3986 Clouds 25 1012 50 10000 9.3 140 15:22 22.01.2020
3987 Clouds 26 1012 50 10000 10.3 140 14:58 22.01.2020
3988 Clouds 25 1012 50 10000 10.3 140 14:37 22.01.2020
3989 Clouds 25 1012 50 10000 10.3 140 14:18 22.01.2020
3990 Clouds 25 1013 53 10000 9.8 140 13:55 22.01.2020
3991 Clouds 25 1013 53 10000 9.8 140 13:36 22.01.2020
3992 Clouds 25 1013 53 10000 9.8 140 13:36 22.01.2020
3993 Clouds 25 1013 53 10000 9.8 140 13:36 22.01.2020
3994 Clouds 25 1013 53 10000 9.8 140 13:18 22.01.2020
3995 Clouds 24 1013 60 10000 10.8 140 12:55 22.01.2020
3996 Clouds 24 1013 60 10000 10.8 140 12:37 22.01.2020
3997 Clouds 24 1013 60 10000 10.8 140 12:18 22.01.2020
3998 Clouds 23 1013 68 10000 10.3 150 11:56 22.01.2020
3999 Clouds 22 1013 68 10000 10.3 150 11:37 22.01.2020
4000 Clouds 22 1013 68 10000 10.3 150 11:18 22.01.2020
4001 Clouds 22 1014 68 10000 8.7 170 10:44 22.01.2020
4002 Clouds 21 1014 68 10000 8.7 170 10:20 22.01.2020
4003 Clouds 21 1014 68 10000 3.6 180 09:44 22.01.2020
4004 Clouds 21 1014 68 10000 3.6 180 09:25 22.01.2020
4005 Clouds 21 1014 73 10000 3.6 160 08:58 22.01.2020
4006 Clouds 20 1014 73 10000 3.6 160 08:40 22.01.2020
4007 Clouds 20 1014 73 10000 3.6 160 08:21 22.01.2020
4008 Clouds 19 1013 82 10000 2.1 270 07:54 22.01.2020
4009 Clouds 19 1013 82 10000 2.1 270 07:36 22.01.2020
4010 Clouds 18 1013 82 10000 2.1 270 07:18 22.01.2020
4011 Clouds 17 1013 93 10000 4.1 320 06:30 22.01.2020
4012 Clouds 18 1012 88 10000 4.1 320 05:41 22.01.2020
4013 Clouds 18 1012 88 10000 4.1 320 05:41 22.01.2020
4014 Clouds 17 1011 87 10000 5.7 320 04:20 22.01.2020
4015 Clouds 17 1011 87 10000 5.7 320 03:23 22.01.2020
4016 Clouds 17 1011 87 10000 5.7 320 03:23 22.01.2020
4017 Clouds 19 1011 77 10000 2.6 260 02:27 22.01.2020
4018 Clouds 20 1012 77 10000 3.6 260 00:45 22.01.2020
4019 Clouds 20 1012 77 10000 3.6 260 00:26 22.01.2020
4020 Clouds 20 1012 73 10000 1 0 23:39 21.01.2020
4021 Clouds 21 1012 73 10000 1 0 23:21 21.01.2020
4022 Clouds 21 1012 73 10000 3.6 240 22:59 21.01.2020
4023 Clouds 21 1012 73 10000 3.6 240 22:39 21.01.2020
4024 Clouds 21 1012 73 10000 3.6 240 22:20 21.01.2020
4025 Clouds 21 1012 73 10000 2.1 160 21:56 21.01.2020
4026 Clouds 21 1012 73 10000 2.1 160 21:38 21.01.2020
4027 Clouds 21 1012 73 10000 2.1 160 21:19 21.01.2020
4028 Clouds 21 1012 73 10000 5.1 130 20:56 21.01.2020
4029 Clouds 21 1012 73 10000 5.1 130 20:37 21.01.2020
4030 Clouds 21 1012 73 10000 5.1 130 20:18 21.01.2020
4031 Clouds 21 1012 73 10000 5.1 130 20:18 21.01.2020
4032 Clouds 22 1011 68 10000 5.7 140 19:56 21.01.2020
4033 Clouds 22 1011 68 10000 5.7 140 19:37 21.01.2020
4034 Clouds 22 1011 68 10000 5.7 140 19:19 21.01.2020
4035 Clouds 23 1011 60 10000 5.7 140 18:55 21.01.2020
4036 Clouds 23 1011 60 10000 5.7 140 18:36 21.01.2020
4037 Clouds 24 1011 60 10000 5.7 140 18:18 21.01.2020
4038 Clouds 24 1011 54 10000 6.7 140 17:43 21.01.2020
4039 Clouds 26 1011 54 10000 6.7 140 17:20 21.01.2020
4040 Clouds 26 1011 54 10000 7.2 140 16:58 21.01.2020
4041 Clouds 25 1011 51 10000 5.1 160 16:37 21.01.2020
4042 Clouds 25 1011 51 10000 5.1 160 16:18 21.01.2020
4043 Clouds 26 1011 51 10000 5.1 160 15:41 21.01.2020
4044 Clouds 26 1011 51 10000 5.1 160 15:20 21.01.2020
4045 Clouds 26 1012 48 10000 4.6 160 14:58 21.01.2020
4046 Clouds 26 1012 48 10000 4.6 160 14:37 21.01.2020
4047 Clouds 26 1012 48 10000 4.6 160 14:19 21.01.2020
4048 Clouds 26 1012 47 10000 4.6 180 13:39 21.01.2020
4049 Clouds 26 1012 47 10000 4.6 180 13:19 21.01.2020
4050 Clouds 27 1012 45 10000 4.1 200 12:43 21.01.2020
4051 Clouds 27 1012 45 10000 4.1 200 12:25 21.01.2020
4052 Clear 26 1013 47 10000 6.2 330 11:57 21.01.2020
4053 Clear 26 1013 47 10000 6.2 330 11:38 21.01.2020
4054 Clear 26 1013 47 10000 6.2 330 11:20 21.01.2020
4055 Clear 25 1013 53 10000 5.1 330 10:44 21.01.2020
4056 Clear 24 1013 53 10000 5.1 330 10:23 21.01.2020
4057 Clear 24 1013 53 10000 5.1 330 10:23 21.01.2020
4058 Clear 24 1013 53 10000 1.5 0 09:59 21.01.2020
4059 Clear 24 1013 53 10000 1.5 0 09:40 21.01.2020
4060 Clear 24 1013 53 10000 1.5 0 09:22 21.01.2020
4061 Clear 24 1013 53 10000 1.5 0 08:48 21.01.2020
4062 Clear 24 1013 60 10000 2.1 240 08:27 21.01.2020
4063 Clear 23 1013 60 10000 3.1 230 07:57 21.01.2020
4064 Clear 23 1013 60 10000 3.1 230 07:38 21.01.2020
4065 Clear 22 1013 68 10000 2.1 280 07:19 21.01.2020
4066 Clear 21 1012 82 10000 1.5 0 06:45 21.01.2020
4067 Clear 20 1012 82 10000 1.5 0 06:23 21.01.2020
4068 Clear 20 1012 82 10000 1.5 0 06:23 21.01.2020
4069 Clear 19 1011 80 0 1.79 225 05:41 21.01.2020
4070 Clear 19 1012 82 10000 1 0 04:39 21.01.2020
4071 Clear 19 1012 77 10000 2.1 230 02:54 21.01.2020
4072 Clear 19 1012 82 10000 1.5 190 01:47 21.01.2020
4073 Clear 19 1012 77 10000 2.1 150 00:54 21.01.2020
4074 Clear 19 1012 77 10000 2.1 150 00:32 21.01.2020
4075 Clear 20 1012 68 10000 1.5 0 23:57 20.01.2020
4076 Clear 20 1012 68 10000 1.5 0 23:37 20.01.2020
4077 Clear 20 1012 68 10000 1.5 0 23:18 20.01.2020
4078 Clear 20 1012 68 10000 1 0 22:56 20.01.2020
4079 Clear 20 1012 68 10000 1 0 22:36 20.01.2020
4080 Clear 20 1012 68 10000 1 0 22:18 20.01.2020
4081 Clear 20 1013 68 10000 4.1 130 21:55 20.01.2020
4082 Clear 20 1013 68 10000 4.1 130 21:36 20.01.2020
4083 Clear 20 1013 68 10000 4.1 130 21:18 20.01.2020
4084 Clouds 21 1012 68 10000 4.6 130 20:54 20.01.2020
4085 Clouds 21 1012 68 10000 4.6 130 20:36 20.01.2020
4086 Clouds 21 1012 68 10000 4.6 130 20:18 20.01.2020
4087 Clouds 21 1012 68 10000 4.6 130 20:18 20.01.2020
4088 Clouds 21 1012 64 10000 6.7 130 19:54 20.01.2020
4089 Clouds 21 1012 64 10000 6.7 130 19:54 20.01.2020
4090 Clouds 21 1012 64 10000 6.7 130 19:36 20.01.2020
4091 Clouds 21 1012 64 10000 6.7 130 19:18 20.01.2020
4092 Clouds 23 1011 60 10000 5.7 140 18:42 20.01.2020
4093 Clouds 24 1011 60 10000 5.7 140 18:21 20.01.2020
4094 Clouds 24 1011 57 10000 7.7 140 17:39 20.01.2020
4095 Clouds 24 1011 57 10000 7.7 140 17:19 20.01.2020
4096 Clouds 25 1011 53 10000 10.8 150 16:55 20.01.2020
4097 Clouds 26 1011 53 10000 10.8 150 16:36 20.01.2020
4098 Clouds 25 1011 53 10000 10.8 150 16:18 20.01.2020
4099 Clouds 27 1011 47 10000 8.2 140 15:41 20.01.2020
4100 Clouds 28 1011 47 10000 8.2 140 15:22 20.01.2020
4101 Clouds 28 1011 44 10000 7.7 150 14:59 20.01.2020
4102 Clouds 27 1011 44 10000 7.7 150 14:41 20.01.2020
4103 Clouds 27 1011 44 10000 7.7 150 14:21 20.01.2020
4104 Clouds 27 1012 44 10000 6.2 150 13:57 20.01.2020
4105 Clouds 27 1012 44 10000 6.2 150 13:38 20.01.2020
4106 Clouds 27 1012 44 10000 6.2 150 13:20 20.01.2020
4107 Clouds 27 1012 50 10000 6.7 140 12:44 20.01.2020
4108 Clouds 27 1012 50 10000 6.7 140 12:25 20.01.2020
4109 Clouds 27 1012 50 10000 6.7 140 12:25 20.01.2020
4110 Clouds 27 1013 47 10000 7.2 140 11:56 20.01.2020
4111 Clouds 25 1013 47 10000 7.2 140 11:37 20.01.2020
4112 Clouds 26 1013 47 10000 7.2 140 11:19 20.01.2020
4113 Clouds 26 1012 50 10000 6.2 150 10:47 20.01.2020
4114 Clouds 26 1012 50 10000 6.2 150 10:21 20.01.2020
4115 Clouds 24 1013 56 10000 8.2 130 09:42 20.01.2020
4116 Clouds 24 1013 56 10000 8.2 130 09:24 20.01.2020
4117 Clouds 23 1012 60 10000 8.2 140 08:59 20.01.2020
4118 Clouds 23 1012 60 10000 8.2 140 08:39 20.01.2020
4119 Clouds 22 1012 60 10000 8.2 140 08:20 20.01.2020
4120 Clouds 21 1012 64 10000 6.2 130 07:41 20.01.2020
4121 Clouds 21 1012 64 10000 6.2 130 07:21 20.01.2020
4122 Clouds 20 1012 68 10000 6.7 140 06:44 20.01.2020
4123 Clouds 20 1012 68 10000 6.7 140 06:24 20.01.2020
4124 Rain 19 1012 68 10000 8.2 130 05:41 20.01.2020
4125 Rain 19 1012 68 10000 8.2 130 05:20 20.01.2020
4126 Clouds 19 1011 68 10000 6.7 130 04:24 20.01.2020
4127 Clouds 19 1012 77 10000 8.7 150 02:33 20.01.2020
4128 Rain 19 1008 60 0 4.47 151 01:40 20.01.2020
4129 Clouds 19 1013 82 10000 8.2 150 01:20 20.01.2020
4130 Clouds 19 1013 82 10000 8.2 150 00:43 20.01.2020
4131 Clouds 18 1013 82 10000 8.2 150 00:21 20.01.2020
4132 Clouds 19 1013 77 10000 9.3 150 23:38 19.01.2020
4133 Clouds 19 1013 77 10000 9.3 150 23:19 19.01.2020
4134 Clouds 20 1013 77 10000 8.7 140 22:56 19.01.2020
4135 Clouds 19 1013 77 10000 8.7 140 22:37 19.01.2020
4136 Clouds 19 1013 77 10000 8.7 140 22:19 19.01.2020
4137 Clouds 20 1013 68 10000 8.7 140 21:56 19.01.2020
4138 Clouds 20 1013 68 10000 8.7 140 21:38 19.01.2020
4139 Clouds 20 1013 68 10000 8.7 140 21:38 19.01.2020
4140 Clouds 20 1013 68 10000 8.7 140 21:19 19.01.2020
4141 Clouds 20 1012 68 10000 10.3 130 20:57 19.01.2020
4142 Clouds 20 1012 68 10000 10.3 130 20:38 19.01.2020
4143 Clouds 20 1012 68 10000 10.3 130 20:20 19.01.2020
4144 Clouds 20 1012 64 10000 9.3 130 19:56 19.01.2020
4145 Clouds 20 1012 64 10000 9.3 130 19:37 19.01.2020
4146 Clouds 20 1012 64 10000 9.3 130 19:19 19.01.2020
4147 Clouds 19 1012 68 10000 8.7 130 18:55 19.01.2020
4148 Clouds 20 1012 68 10000 9.8 130 18:37 19.01.2020
4149 Clouds 20 1012 68 10000 9.8 130 18:19 19.01.2020
4150 Clouds 20 1011 82 10000 10.3 140 17:58 19.01.2020
4151 Clouds 19 1011 82 10000 10.3 140 17:39 19.01.2020
4152 Clouds 19 1011 82 10000 10.3 140 17:20 19.01.2020
4153 Clouds 19 1012 77 10000 10.8 130 16:57 19.01.2020
4154 Clouds 19 1012 77 10000 10.8 130 16:38 19.01.2020
4155 Clouds 19 1012 77 10000 10.8 130 16:19 19.01.2020
4156 Clouds 19 1012 77 10000 10.8 140 15:57 19.01.2020
4157 Clouds 18 1012 82 10000 12.3 150 15:37 19.01.2020
4158 Clouds 19 1012 82 10000 12.3 150 15:19 19.01.2020
4159 Rain 19 1012 82 10000 12.3 150 14:57 19.01.2020
4160 Rain 19 1012 82 10000 12.3 150 14:38 19.01.2020
4161 Rain 19 1012 82 10000 12.3 150 14:18 19.01.2020
4162 Rain 19 1013 88 8000 12.3 150 13:55 19.01.2020
4163 Rain 19 1013 88 8000 12.3 150 13:37 19.01.2020
4164 Rain 18 1013 88 9000 11.8 150 13:18 19.01.2020
4165 Rain 17 1013 93 10000 11.3 160 12:54 19.01.2020
4166 Rain 17 1013 93 10000 11.3 160 12:36 19.01.2020
4167 Rain 18 1013 88 7000 10.3 160 12:18 19.01.2020
4168 Rain 18 1013 77 10000 11.3 160 11:39 19.01.2020
4169 Rain 18 1013 77 10000 11.3 160 11:20 19.01.2020
4170 Rain 17 1013 87 10000 10.3 160 10:55 19.01.2020
4171 Rain 17 1013 87 10000 10.3 160 10:37 19.01.2020
4172 Rain 17 1013 87 10000 10.3 160 10:18 19.01.2020
4173 Rain 17 1013 87 10000 10.3 160 10:18 19.01.2020
4174 Rain 17 1013 87 9000 9.3 150 09:44 19.01.2020
4175 Rain 18 1013 77 10000 9.8 160 09:25 19.01.2020
4176 Rain 18 1013 72 10000 9.3 150 08:58 19.01.2020
4177 Rain 18 1013 72 10000 9.3 150 08:39 19.01.2020
4178 Rain 18 1013 72 10000 9.3 150 08:21 19.01.2020
4179 Clouds 18 1012 63 10000 11.3 160 07:42 19.01.2020
4180 Clouds 18 1012 63 10000 11.3 160 07:22 19.01.2020
4181 Clouds 18 1011 59 10000 9.8 150 06:51 19.01.2020
4182 Clouds 18 1011 77 10000 7.2 150 05:41 19.01.2020
4183 Clouds 17 1012 77 10000 10.8 150 02:44 19.01.2020
4184 Clouds 17 1012 77 10000 10.8 150 02:21 19.01.2020
4185 Clouds 17 1013 77 10000 10.3 150 01:25 19.01.2020
4186 Rain 17 1013 82 9000 10.8 150 00:50 19.01.2020
4187 Rain 17 1013 82 9000 10.8 150 00:29 19.01.2020
4188 Rain 17 1013 63 10000 14.4 150 23:58 18.01.2020
4189 Rain 17 1013 63 10000 14.4 150 23:40 18.01.2020
4190 Rain 18 1013 63 10000 14.4 150 23:21 18.01.2020
4191 Clouds 17 1013 72 10000 13.9 150 22:55 18.01.2020
4192 Clouds 17 1013 72 10000 13.9 150 22:37 18.01.2020
4193 Clouds 17 1013 72 10000 13.9 150 22:37 18.01.2020
4194 Clouds 17 1013 72 10000 13.9 150 22:19 18.01.2020
4195 Clouds 17 1012 67 10000 15.9 160 21:57 18.01.2020
4196 Clouds 17 1012 67 10000 15.9 160 21:37 18.01.2020
4197 Clouds 18 1012 67 10000 15.9 160 21:19 18.01.2020
4198 Clouds 18 1012 67 10000 13.4 150 20:43 18.01.2020
4199 Clouds 18 1012 67 10000 13.4 150 20:21 18.01.2020
4200 Clouds 18 1011 67 10000 17 150 19:58 18.01.2020
4201 Clouds 18 1011 67 10000 17 150 19:40 18.01.2020
4202 Clouds 18 1012 67 10000 15.9 160 19:22 18.01.2020
4203 Clouds 18 1012 63 10000 13.9 170 18:42 18.01.2020
4204 Clouds 19 1011 63 10000 14.4 150 18:22 18.01.2020
4205 Clouds 19 1011 63 10000 14.9 150 17:56 18.01.2020
4206 Clouds 19 1011 63 10000 14.9 150 17:37 18.01.2020
4207 Clouds 20 1010 56 10000 14.4 150 17:19 18.01.2020
4208 Clouds 20 1011 60 10000 16.5 150 16:55 18.01.2020
4209 Clouds 20 1011 60 10000 16.5 150 16:55 18.01.2020
4210 Clouds 21 1011 60 10000 16.5 150 16:36 18.01.2020
4211 Clouds 21 1011 56 10000 15.9 160 16:18 18.01.2020
4212 Clouds 22 1011 49 10000 12.9 150 15:41 18.01.2020
4213 Clouds 23 1011 49 10000 12.9 150 15:23 18.01.2020
4214 Clouds 23 1011 50 10000 13.4 150 14:57 18.01.2020
4215 Clouds 23 1011 50 10000 13.4 150 14:38 18.01.2020
4216 Clouds 24 1011 50 10000 13.4 150 14:18 18.01.2020
4217 Clouds 25 1011 50 10000 13.4 150 13:43 18.01.2020
4218 Clouds 25 1011 47 10000 12.9 160 13:24 18.01.2020
4219 Clouds 25 1011 47 10000 11.8 150 12:57 18.01.2020
4220 Clouds 25 1011 47 10000 11.8 150 12:57 18.01.2020
4221 Clouds 24 1011 47 10000 11.8 150 12:38 18.01.2020
4222 Clouds 25 1011 47 10000 11.8 150 12:20 18.01.2020
4223 Clouds 25 1011 50 10000 12.3 150 11:44 18.01.2020
4224 Clouds 25 1012 50 10000 12.9 150 11:21 18.01.2020
4225 Clouds 25 1011 50 10000 11.8 150 10:57 18.01.2020
4226 Clouds 25 1011 50 10000 11.8 150 10:38 18.01.2020
4227 Clouds 25 1011 47 10000 10.3 140 10:19 18.01.2020
4228 Clouds 24 1011 49 10000 9.8 140 09:43 18.01.2020
4229 Clouds 24 1011 49 10000 9.8 140 09:24 18.01.2020
4230 Clouds 23 1011 53 10000 10.8 130 08:55 18.01.2020
4231 Clouds 23 1011 53 10000 10.8 130 08:37 18.01.2020
4232 Clouds 22 1011 53 10000 10.8 130 08:19 18.01.2020
4233 Clouds 22 1012 53 10000 9.3 140 07:45 18.01.2020
4234 Clouds 21 1012 56 10000 9.8 150 07:26 18.01.2020
4235 Clouds 20 1011 68 10000 8.7 140 06:47 18.01.2020
4236 Clouds 19 1011 77 10000 8.2 140 05:59 18.01.2020
4237 Clouds 18 1011 77 10000 8.2 140 05:19 18.01.2020
4238 Clouds 19 1012 77 10000 12.9 160 02:55 18.01.2020
4239 Clouds 19 1012 77 10000 12.9 160 01:54 18.01.2020
4240 Clouds 19 1012 77 10000 12.9 160 01:30 18.01.2020
4241 Clouds 19 1013 72 10000 12.3 160 00:37 18.01.2020
4242 Clouds 19 1013 72 10000 12.3 160 00:18 18.01.2020
4243 Clouds 19 1014 82 10000 9.8 170 23:41 17.01.2020
4244 Clouds 19 1014 82 10000 9.8 170 23:20 17.01.2020
4245 Clouds 20 1014 64 10000 10.8 160 22:45 17.01.2020
4246 Clouds 20 1014 64 10000 10.8 160 22:22 17.01.2020
4247 Clouds 20 1014 68 10000 11.3 160 21:59 17.01.2020
4248 Clouds 20 1014 68 10000 11.3 160 21:41 17.01.2020
4249 Clouds 20 1014 68 10000 11.3 160 21:22 17.01.2020
4250 Clouds 20 1014 72 10000 11.3 160 20:57 17.01.2020
4251 Clouds 20 1014 72 10000 11.3 160 20:38 17.01.2020
4252 Clouds 20 1014 72 10000 11.3 160 20:20 17.01.2020
4253 Clouds 20 1013 72 10000 11.8 170 19:55 17.01.2020
4254 Clouds 20 1013 72 10000 11.8 170 19:55 17.01.2020
4255 Clouds 20 1013 72 10000 11.8 170 19:37 17.01.2020
4256 Clouds 20 1013 72 10000 11.8 170 19:18 17.01.2020
4257 Clouds 21 1013 64 10000 11.8 160 18:47 17.01.2020
4258 Clouds 21 1013 64 10000 11.8 160 18:29 17.01.2020
4259 Clouds 22 1013 60 10000 13.9 160 17:58 17.01.2020
4260 Clouds 22 1013 60 10000 13.9 160 17:39 17.01.2020
4261 Clouds 23 1013 60 10000 13.9 160 17:20 17.01.2020
4262 Clouds 23 1013 60 10000 14.4 170 16:43 17.01.2020
4263 Clouds 24 1013 57 10000 12.9 170 16:21 17.01.2020
4264 Clouds 24 1013 57 10000 14.4 170 15:55 17.01.2020
4265 Clouds 24 1013 57 10000 14.4 170 15:37 17.01.2020
4266 Clouds 24 1013 57 10000 14.4 170 15:19 17.01.2020
4267 Clouds 24 1013 64 10000 14.9 170 14:43 17.01.2020
4268 Clouds 23 1013 64 10000 14.9 170 14:23 17.01.2020
4269 Clouds 24 1013 60 10000 15.4 170 13:42 17.01.2020
4270 Clouds 25 1013 61 10000 14.4 170 13:23 17.01.2020
4271 Clouds 26 1013 61 10000 13.9 170 12:47 17.01.2020
4272 Clouds 26 1013 61 10000 13.9 170 12:23 17.01.2020
4273 Clouds 25 1013 69 10000 15.4 170 11:43 17.01.2020
4274 Clouds 24 1013 69 10000 15.4 170 11:20 17.01.2020
4275 Clouds 25 1012 69 10000 14.9 180 10:57 17.01.2020
4276 Clouds 25 1012 69 10000 14.9 180 10:39 17.01.2020
4277 Clouds 25 1012 69 10000 14.9 180 10:20 17.01.2020
4278 Clouds 25 1012 69 10000 13.4 180 09:44 17.01.2020
4279 Clouds 24 1012 69 10000 13.4 180 09:21 17.01.2020
4280 Clouds 25 1012 65 10000 9.8 190 08:58 17.01.2020
4281 Clouds 26 1012 65 10000 9.8 190 08:40 17.01.2020
4282 Clouds 25 1012 65 10000 9.8 190 08:21 17.01.2020
4283 Clouds 25 1012 73 10000 9.8 180 07:48 17.01.2020
4284 Clouds 24 1012 73 10000 9.8 180 07:29 17.01.2020
4285 Clouds 24 1011 64 10000 10.3 170 06:56 17.01.2020
4286 Clouds 23 1011 64 10000 10.3 170 06:36 17.01.2020
4287 Clouds 22 1011 73 10000 11.3 170 05:19 17.01.2020
4288 Clear 21 1010 88 10000 8.2 190 03:38 17.01.2020
4289 Clear 21 1010 88 10000 9.8 200 02:42 17.01.2020
4290 Clear 21 1011 78 10000 8.7 200 01:45 17.01.2020
4291 Clear 22 1011 78 10000 9.8 180 01:27 17.01.2020
4292 Clear 22 1011 78 10000 9.8 180 00:40 17.01.2020
4293 Clear 22 1011 78 10000 9.8 180 00:19 17.01.2020
4294 Clouds 22 1011 73 10000 9.3 190 23:41 16.01.2020
4295 Clouds 22 1011 73 10000 9.3 190 23:22 16.01.2020
4296 Clouds 22 1012 83 10000 10.3 190 22:42 16.01.2020
4297 Clouds 22 1012 83 10000 10.3 190 22:22 16.01.2020
4298 Clouds 22 1012 83 10000 10.3 190 22:22 16.01.2020
4299 Clouds 22 1012 88 10000 11.3 200 21:57 16.01.2020
4300 Clouds 22 1012 88 10000 11.3 200 21:38 16.01.2020
4301 Clouds 22 1012 88 10000 11.3 200 21:19 16.01.2020
4302 Clouds 22 1011 88 10000 10.8 190 20:58 16.01.2020
4303 Clouds 22 1011 88 10000 10.8 190 20:39 16.01.2020
4304 Clouds 22 1011 88 10000 10.8 190 20:19 16.01.2020
4305 Clouds 23 1011 83 10000 11.8 190 19:56 16.01.2020
4306 Clouds 23 1011 83 10000 11.8 190 19:38 16.01.2020
4307 Clouds 23 1011 83 10000 11.8 190 19:19 16.01.2020
4308 Clouds 24 1011 69 10000 11.3 180 18:55 16.01.2020
4309 Clouds 24 1011 69 10000 11.3 180 18:37 16.01.2020
4310 Clouds 25 1011 69 10000 11.3 180 18:18 16.01.2020
4311 Clouds 24 1011 73 10000 12.3 180 17:42 16.01.2020
4312 Clouds 25 1011 73 10000 12.3 180 17:23 16.01.2020
4313 Clouds 25 1010 69 10000 12.9 180 16:57 16.01.2020
4314 Clouds 26 1010 69 10000 12.9 180 16:39 16.01.2020
4315 Clouds 26 1010 69 10000 12.9 180 16:19 16.01.2020
4316 Clouds 27 1010 65 10000 12.3 180 15:44 16.01.2020
4317 Clouds 28 1010 65 10000 12.3 180 15:23 16.01.2020
4318 Clouds 28 1011 65 10000 11.8 190 14:57 16.01.2020
4319 Clouds 28 1011 65 10000 11.8 190 14:57 16.01.2020
4320 Clouds 28 1011 65 10000 11.8 190 14:39 16.01.2020
4321 Clouds 27 1011 65 10000 11.8 190 14:20 16.01.2020
4322 Clouds 27 1011 65 10000 11.3 190 13:45 16.01.2020
4323 Clouds 27 1011 65 10000 11.3 190 13:26 16.01.2020
4324 Clouds 26 1011 69 10000 11.8 190 12:47 16.01.2020
4325 Clouds 26 1011 69 10000 11.8 190 12:29 16.01.2020
4326 Clouds 27 1012 65 10000 9.3 200 11:59 16.01.2020
4327 Clouds 27 1012 65 10000 9.3 200 11:41 16.01.2020
4328 Clouds 27 1012 65 10000 9.3 200 11:41 16.01.2020
4329 Clouds 27 1012 65 10000 9.3 200 11:23 16.01.2020
4330 Clouds 27 1011 65 10000 8.2 210 10:55 16.01.2020
4331 Clouds 27 1011 65 10000 8.2 210 10:37 16.01.2020
4332 Clouds 27 1011 65 10000 8.2 210 10:18 16.01.2020
4333 Clouds 27 1011 65 10000 7.2 220 09:42 16.01.2020
4334 Clouds 28 1011 65 10000 7.2 220 09:24 16.01.2020
4335 Clouds 27 1011 69 10000 6.2 240 08:58 16.01.2020
4336 Clouds 26 1011 69 10000 6.2 240 08:40 16.01.2020
4337 Clear 25 1011 69 10000 6.2 240 08:19 16.01.2020
4338 Clear 24 1011 78 10000 6.7 240 07:42 16.01.2020
4339 Clear 24 1011 78 10000 6.7 240 07:23 16.01.2020
4340 Clear 24 1010 78 10000 5.7 210 06:52 16.01.2020
4341 Clear 23 1010 78 10000 5.7 210 06:34 16.01.2020
4342 Clear 22 1009 88 10000 6.2 230 05:49 16.01.2020
4343 Clear 22 1009 88 10000 6.7 240 04:50 16.01.2020
4344 Clear 22 1009 88 10000 6.7 240 03:57 16.01.2020
4345 Clear 23 1009 73 10000 6.2 190 02:47 16.01.2020
4346 Clear 23 1009 73 10000 6.2 190 02:21 16.01.2020
4347 Clear 24 1011 73 10000 8.7 180 00:43 16.01.2020
4348 Clear 24 1011 73 10000 8.7 180 00:23 16.01.2020
4349 Clear 23 1011 73 10000 8.2 200 23:45 15.01.2020
4350 Clear 23 1011 73 10000 8.2 200 23:22 15.01.2020
4351 Clear 24 1011 69 10000 9.3 200 22:57 15.01.2020
4352 Clear 24 1011 69 10000 9.3 200 22:38 15.01.2020
4353 Clear 23 1011 69 10000 9.3 200 22:18 15.01.2020
4354 Clear 24 1011 65 10000 10.3 180 21:56 15.01.2020
4355 Clear 24 1011 65 10000 10.3 180 21:37 15.01.2020
4356 Clear 24 1011 65 10000 10.3 180 21:18 15.01.2020
4357 Clear 24 1011 69 10000 8.2 200 20:55 15.01.2020
4358 Clear 24 1011 69 10000 8.2 200 20:37 15.01.2020
4359 Clear 24 1011 69 10000 8.2 200 20:18 15.01.2020
4360 Clouds 23 1011 73 10000 9.8 190 19:54 15.01.2020
4361 Clouds 23 1011 73 10000 9.8 190 19:36 15.01.2020
4362 Clouds 23 1011 73 10000 9.8 190 19:18 15.01.2020
4363 Clouds 24 1011 73 10000 10.8 190 18:56 15.01.2020
4364 Clouds 24 1011 73 10000 10.8 190 18:37 15.01.2020
4365 Clouds 24 1011 73 10000 10.8 190 18:37 15.01.2020
4366 Clouds 25 1011 73 10000 10.8 190 18:19 15.01.2020
4367 Clouds 25 1010 69 10000 10.8 190 17:55 15.01.2020
4368 Clouds 26 1010 69 10000 10.8 190 17:36 15.01.2020
4369 Clouds 27 1010 69 10000 10.8 190 17:18 15.01.2020
4370 Clouds 28 1011 69 10000 11.8 190 16:40 15.01.2020
4371 Clouds 28 1011 69 10000 11.8 190 16:21 15.01.2020
4372 Clouds 28 1011 69 10000 11.8 190 16:21 15.01.2020
4373 Clouds 29 1011 65 10000 10.8 200 15:56 15.01.2020
4374 Clouds 28 1011 65 10000 10.8 200 15:38 15.01.2020
4375 Clouds 29 1011 65 10000 10.8 200 15:18 15.01.2020
4376 Clouds 28 1011 65 10000 10.8 200 14:42 15.01.2020
4377 Clouds 30 1011 65 10000 10.8 200 14:19 15.01.2020
4378 Clouds 30 1011 65 10000 9.8 210 13:46 15.01.2020
4379 Clouds 30 1011 65 10000 9.8 210 13:26 15.01.2020
4380 Clouds 30 1011 61 10000 8.2 200 12:59 15.01.2020
4381 Clouds 30 1011 61 10000 8.2 200 12:39 15.01.2020
4382 Clouds 31 1011 61 10000 8.2 200 12:19 15.01.2020
4383 Clouds 31 1011 61 10000 8.2 200 12:19 15.01.2020
4384 Clouds 33 1012 54 10000 6.2 210 11:57 15.01.2020
4385 Clouds 33 1012 54 10000 6.2 210 11:37 15.01.2020
4386 Clouds 31 1012 54 10000 6.2 210 11:19 15.01.2020
4387 Clouds 30 1012 58 10000 6.2 210 10:43 15.01.2020
4388 Clouds 30 1012 58 10000 6.2 210 10:25 15.01.2020
4389 Clouds 30 1012 51 10000 6.2 220 09:45 15.01.2020
4390 Clouds 29 1012 51 10000 6.2 220 09:26 15.01.2020
4391 Clouds 28 1012 58 10000 4.1 160 08:59 15.01.2020
4392 Clouds 29 1012 58 10000 4.1 160 08:41 15.01.2020
4393 Clouds 26 1012 65 10000 4.1 220 08:22 15.01.2020
4394 Clouds 24 1012 78 10000 4.6 240 07:52 15.01.2020
4395 Clouds 24 1012 78 10000 4.6 240 07:32 15.01.2020
4396 Clouds 23 1011 73 10000 4.6 190 06:46 15.01.2020
4397 Clouds 22 1011 83 10000 5.7 230 06:20 15.01.2020
4398 Clouds 21 1011 88 10000 5.1 230 04:44 15.01.2020
4399 Clouds 22 1011 88 10000 5.7 210 02:39 15.01.2020
4400 Clouds 22 1012 94 10000 5.7 200 01:28 15.01.2020
4401 Clouds 22 1012 94 10000 8.7 190 00:59 15.01.2020
4402 Clouds 22 1012 94 10000 8.7 190 00:36 15.01.2020
4403 Clouds 22 1012 94 10000 8.7 190 00:18 15.01.2020
4404 Clouds 22 1012 94 10000 10.3 200 23:45 14.01.2020
4405 Clouds 22 1012 94 10000 10.3 200 23:24 14.01.2020
4406 Clouds 22 1012 94 10000 8.7 190 22:41 14.01.2020
4407 Clouds 22 1012 94 10000 8.7 190 22:20 14.01.2020
4408 Clouds 22 1012 94 10000 9.3 190 21:59 14.01.2020
4409 Clouds 22 1012 94 10000 9.3 190 21:41 14.01.2020
4410 Clouds 22 1012 94 10000 9.3 190 21:23 14.01.2020
4411 Clouds 23 1011 94 10000 9.3 190 21:00 14.01.2020
4412 Clouds 22 1011 94 10000 9.3 190 20:41 14.01.2020
4413 Clouds 22 1011 94 10000 9.3 190 20:21 14.01.2020
4414 Clouds 23 1011 94 10000 7.7 210 19:56 14.01.2020
4415 Clouds 23 1011 94 10000 7.7 210 19:38 14.01.2020
4416 Clouds 23 1011 94 10000 7.7 210 19:19 14.01.2020
4417 Clouds 23 1011 94 10000 9.3 190 18:56 14.01.2020
4418 Clouds 23 1011 94 10000 9.3 190 18:38 14.01.2020
4419 Clouds 23 1011 88 10000 10.8 190 18:19 14.01.2020
4420 Clouds 24 1011 83 10000 11.3 190 17:39 14.01.2020
4421 Clouds 24 1011 83 10000 11.3 190 17:19 14.01.2020
4422 Clouds 25 1011 78 10000 10.3 200 16:57 14.01.2020
4423 Clouds 26 1011 78 10000 10.3 200 16:38 14.01.2020
4424 Clouds 27 1011 78 10000 10.3 200 16:20 14.01.2020
4425 Clouds 28 1011 65 10000 9.3 200 15:55 14.01.2020
4426 Clouds 27 1011 65 10000 9.3 200 15:37 14.01.2020
4427 Clouds 28 1011 65 10000 9.3 200 15:18 14.01.2020
4428 Clouds 29 1011 65 10000 9.3 200 14:43 14.01.2020
4429 Clouds 29 1011 65 10000 9.3 200 14:20 14.01.2020
4430 Clouds 29 1012 61 10000 8.2 190 13:43 14.01.2020
4431 Clouds 29 1012 61 10000 8.2 190 13:20 14.01.2020
4432 Clouds 28 1012 65 10000 8.2 200 12:59 14.01.2020
4433 Clouds 28 1012 65 10000 8.2 200 12:40 14.01.2020
4434 Clouds 29 1012 65 10000 8.2 200 12:20 14.01.2020
4435 Clouds 29 1013 61 10000 7.2 200 11:42 14.01.2020
4436 Clouds 30 1013 61 10000 7.2 200 11:23 14.01.2020
4437 Clouds 30 1013 54 10000 6.7 200 10:58 14.01.2020
4438 Clouds 28 1013 54 10000 6.7 200 10:39 14.01.2020
4439 Clouds 28 1013 54 10000 6.7 200 10:19 14.01.2020
4440 Clouds 27 1012 54 10000 5.1 210 09:57 14.01.2020
4441 Clouds 27 1012 54 10000 5.1 210 09:39 14.01.2020
4442 Clouds 27 1012 54 10000 5.1 210 09:20 14.01.2020
4443 Clouds 27 1012 65 10000 1.5 0 08:44 14.01.2020
4444 Clouds 26 1012 65 10000 1.5 0 08:23 14.01.2020
4445 Clouds 24 1012 78 10000 4.1 230 07:53 14.01.2020
4446 Clouds 23 1012 78 10000 4.1 230 07:31 14.01.2020
4447 Clouds 22 1012 94 10000 4.1 240 06:51 14.01.2020
4448 Clouds 21 1012 94 10000 4.1 240 06:23 14.01.2020
4449 Clouds 21 1012 94 10000 2.6 220 05:25 14.01.2020
4450 Clouds 20 1011 94 10000 3.1 240 03:51 14.01.2020
4451 Clouds 20 1011 88 10000 2.6 220 02:42 14.01.2020
4452 Clouds 21 1012 94 10000 4.6 250 01:53 14.01.2020
4453 Clouds 21 1012 94 10000 5.7 230 00:51 14.01.2020
4454 Clouds 21 1012 94 10000 5.7 230 00:32 14.01.2020
4455 Clouds 21 1012 94 10000 5.7 230 00:32 14.01.2020
4456 Clouds 21 1012 88 10000 6.2 230 23:55 13.01.2020
4457 Clouds 21 1012 88 10000 6.2 230 23:37 13.01.2020
4458 Clouds 22 1012 88 10000 6.2 230 23:18 13.01.2020
4459 Clouds 21 1012 94 10000 6.7 230 22:42 13.01.2020
4460 Clouds 22 1012 94 10000 6.7 230 22:21 13.01.2020
4461 Clouds 22 1012 94 10000 5.1 230 21:57 13.01.2020
4462 Clouds 22 1012 94 10000 5.1 230 21:38 13.01.2020
4463 Clouds 22 1012 94 10000 5.1 230 21:38 13.01.2020
4464 Clouds 22 1012 94 10000 5.1 230 21:19 13.01.2020
4465 Clouds 22 1012 94 10000 6.7 210 20:58 13.01.2020
4466 Clouds 22 1012 94 10000 6.7 210 20:40 13.01.2020
4467 Clouds 22 1012 94 10000 6.7 210 20:22 13.01.2020
4468 Clouds 22 1013 88 10000 7.2 220 19:59 13.01.2020
4469 Clouds 22 1013 88 10000 7.2 220 19:39 13.01.2020
4470 Clouds 22 1013 88 10000 7.2 220 19:20 13.01.2020
4471 Clouds 23 1013 88 10000 8.7 200 18:56 13.01.2020
4472 Clouds 23 1013 88 10000 8.7 200 18:37 13.01.2020
4473 Clouds 23 1013 88 10000 8.7 200 18:37 13.01.2020
4474 Clouds 23 1013 88 10000 8.7 200 18:18 13.01.2020
4475 Clouds 23 1013 88 10000 9.8 190 17:43 13.01.2020
4476 Clouds 24 1013 88 10000 9.8 190 17:25 13.01.2020
4477 Clouds 25 1013 83 10000 9.8 190 16:57 13.01.2020
4478 Clouds 25 1013 83 10000 9.8 190 16:38 13.01.2020
4479 Clouds 26 1013 78 10000 9.3 190 16:20 13.01.2020
4480 Clouds 26 1013 73 0 9.39 190 15:44 13.01.2020
4481 Clouds 27 1013 73 0 9.39 190 15:24 13.01.2020
4482 Clouds 26 1013 73 0 9.39 190 14:59 13.01.2020
4483 Clouds 26 1013 69 0 8.49 180 14:39 13.01.2020
4484 Clouds 26 1013 69 0 8.49 180 14:39 13.01.2020
4485 Clouds 26 1013 69 0 8.49 180 14:20 13.01.2020
4486 Clouds 29 1013 61 0 8.05 200 13:55 13.01.2020
4487 Clear 28 1013 61 0 8.05 200 13:37 13.01.2020
4488 Clear 29 1013 61 0 8.05 200 13:19 13.01.2020
4489 Clear 30 1013 51 0 5.81 210 12:43 13.01.2020
4490 Clear 29 1014 45 10000 4.6 200 12:23 13.01.2020
4491 Clear 28 1014 45 10000 4.6 200 11:57 13.01.2020
4492 Clear 29 1014 45 10000 4.6 200 11:37 13.01.2020
4493 Clear 29 1014 45 10000 4.6 200 11:37 13.01.2020
4494 Clear 29 1014 45 10000 4.6 200 11:19 13.01.2020
4495 Clear 29 1014 48 10000 4.1 200 10:56 13.01.2020
4496 Clear 29 1014 48 10000 4.1 200 10:37 13.01.2020
4497 Clear 29 1014 48 10000 4.1 200 10:19 13.01.2020
4498 Clear 28 1014 45 10000 2.6 200 09:44 13.01.2020
4499 Clear 26 1013 54 10000 3.6 210 09:24 13.01.2020
4500 Clear 25 1013 57 10000 3.6 220 08:57 13.01.2020
4501 Clear 25 1013 57 10000 3.6 220 08:57 13.01.2020
4502 Clear 24 1013 64 10000 3.6 260 08:37 13.01.2020
4503 Clear 24 1013 64 10000 3.6 260 08:18 13.01.2020
4504 Clear 23 1013 73 10000 2.1 320 07:44 13.01.2020
4505 Clear 22 1013 83 10000 1.5 0 07:26 13.01.2020
4506 Clear 21 1013 88 10000 3.6 220 06:39 13.01.2020
4507 Clear 19 1013 93 10000 3.6 240 05:42 13.01.2020
4508 Clear 19 1013 93 10000 3.6 240 05:19 13.01.2020
4509 Clear 20 1013 93 10000 4.6 240 03:46 13.01.2020
4510 Clear 20 1013 93 10000 5.7 240 02:51 13.01.2020
4511 Clear 20 1013 93 10000 5.7 240 02:30 13.01.2020
4512 Clear 20 1013 88 10000 4.6 230 01:33 13.01.2020
4513 Clouds 20 1014 88 10000 5.1 240 00:55 13.01.2020
4514 Clouds 20 1014 88 10000 5.1 240 00:36 13.01.2020
4515 Clouds 20 1014 88 10000 5.1 240 00:18 13.01.2020
4516 Clouds 21 1015 83 10000 5.7 230 23:40 12.01.2020
4517 Clouds 21 1015 83 10000 5.7 230 23:22 12.01.2020
4518 Clouds 21 1015 83 10000 4.6 230 22:57 12.01.2020
4519 Clouds 21 1015 83 10000 4.6 230 22:39 12.01.2020
4520 Clouds 21 1015 83 10000 4.6 230 22:19 12.01.2020
4521 Clouds 21 1015 88 10000 5.7 220 21:54 12.01.2020
4522 Clouds 21 1015 88 10000 5.7 220 21:54 12.01.2020
4523 Clouds 21 1015 88 10000 5.7 220 21:36 12.01.2020
4524 Clouds 21 1015 88 10000 5.7 220 21:18 12.01.2020
4525 Clouds 22 1014 83 10000 5.7 220 20:54 12.01.2020
4526 Clouds 22 1014 83 10000 5.7 220 20:36 12.01.2020
4527 Clouds 22 1014 83 10000 5.7 220 20:18 12.01.2020
4528 Clouds 22 1014 78 10000 7.2 210 19:54 12.01.2020
4529 Clouds 22 1014 78 10000 7.2 210 19:36 12.01.2020
4530 Clouds 22 1014 78 10000 7.2 210 19:18 12.01.2020
4531 Clouds 23 1014 78 10000 9.8 200 18:54 12.01.2020
4532 Clouds 23 1014 78 10000 9.8 200 18:36 12.01.2020
4533 Clouds 23 1014 78 10000 9.8 200 18:18 12.01.2020
4534 Clouds 24 1014 69 10000 10.3 200 17:42 12.01.2020
4535 Clouds 25 1014 69 10000 10.3 200 17:21 12.01.2020
4536 Clouds 24 1014 69 10000 9.8 200 16:57 12.01.2020
4537 Clouds 25 1014 69 10000 9.8 200 16:38 12.01.2020
4538 Clouds 25 1014 69 10000 9.8 200 16:20 12.01.2020
4539 Clouds 25 1014 65 10000 9.8 200 15:55 12.01.2020
4540 Clouds 25 1014 65 10000 9.8 200 15:55 12.01.2020
4541 Clouds 25 1014 65 10000 9.8 200 15:36 12.01.2020
4542 Clouds 25 1014 65 10000 9.8 200 15:18 12.01.2020
4543 Clear 25 1015 65 10000 9.8 190 14:42 12.01.2020
4544 Clear 26 1015 65 10000 9.8 190 14:22 12.01.2020
4545 Clear 25 1016 61 10000 10.3 180 13:56 12.01.2020
4546 Clear 25 1016 61 10000 10.3 180 13:38 12.01.2020
4547 Clear 25 1016 61 10000 10.3 180 13:20 12.01.2020
4548 Clear 27 1016 61 10000 10.8 190 12:55 12.01.2020
4549 Clear 27 1016 61 10000 10.8 190 12:37 12.01.2020
4550 Clear 27 1016 61 10000 10.8 190 12:18 12.01.2020
4551 Clouds 27 1016 57 10000 10.8 190 11:41 12.01.2020
4552 Clouds 27 1016 57 10000 10.8 190 11:22 12.01.2020
4553 Clouds 26 1016 60 10000 10.3 190 10:56 12.01.2020
4554 Clouds 26 1016 60 10000 10.3 190 10:37 12.01.2020
4555 Clouds 26 1016 60 10000 10.3 190 10:18 12.01.2020
4556 Clouds 25 1016 60 10000 9.8 190 09:41 12.01.2020
4557 Clouds 25 1016 60 10000 9.8 190 09:22 12.01.2020
4558 Clouds 24 1016 73 10000 9.3 190 08:48 12.01.2020
4559 Clouds 23 1016 73 10000 9.3 190 08:24 12.01.2020
4560 Clouds 22 1016 77 10000 7.2 200 07:47 12.01.2020
4561 Clouds 22 1016 77 10000 7.2 200 07:26 12.01.2020
4562 Clouds 22 1016 77 10000 7.2 200 07:26 12.01.2020
4563 Clear 21 1016 93 0 5.36 190 06:59 12.01.2020
4564 Clear 21 1023 83 0 2.24 163 06:36 12.01.2020
4565 Clouds 20 1016 93 10000 5.7 190 05:52 12.01.2020
4566 Clouds 19 1015 88 10000 5.7 200 04:54 12.01.2020
4567 Clear 19 1015 88 10000 4.1 200 03:43 12.01.2020
4568 Clear 19 1016 88 10000 5.7 200 02:46 12.01.2020
4569 Clear 19 1016 88 10000 5.7 200 02:24 12.01.2020
4570 Clear 19 1016 88 10000 5.7 200 01:34 12.01.2020
4571 Clear 19 1016 88 10000 5.1 200 00:46 12.01.2020
4572 Clear 19 1016 88 10000 5.1 200 00:22 12.01.2020
4573 Clear 20 1017 82 10000 6.2 200 23:56 11.01.2020
4574 Clear 20 1017 82 10000 6.2 200 23:38 11.01.2020
4575 Clear 20 1017 82 10000 6.2 200 23:18 11.01.2020
4576 Clear 20 1017 88 10000 6.2 200 22:56 11.01.2020
4577 Clear 20 1017 88 10000 6.2 200 22:37 11.01.2020
4578 Clear 20 1017 88 10000 6.2 200 22:19 11.01.2020
4579 Clear 20 1017 82 10000 5.1 180 21:44 11.01.2020
4580 Clear 20 1017 82 10000 5.1 180 21:19 11.01.2020
4581 Clear 20 1016 88 10000 6.2 190 20:56 11.01.2020
4582 Clear 20 1016 88 10000 6.2 190 20:38 11.01.2020
4583 Clear 20 1016 88 10000 6.2 190 20:19 11.01.2020
4584 Clear 21 1016 83 10000 6.7 180 19:56 11.01.2020
4585 Clear 21 1016 83 10000 6.7 180 19:38 11.01.2020
4586 Clear 21 1016 83 10000 6.7 180 19:20 11.01.2020
4587 Clear 22 1015 73 10000 7.7 180 18:55 11.01.2020
4588 Clear 22 1015 73 10000 7.7 180 18:36 11.01.2020
4589 Clear 22 1015 73 10000 7.7 180 18:18 11.01.2020
4590 Clear 22 1015 73 10000 7.7 180 18:18 11.01.2020
4591 Clear 22 1015 73 10000 7.7 180 18:18 11.01.2020
4592 Clear 22 1015 73 10000 7.7 180 18:18 11.01.2020
4593 Clear 23 1015 69 10000 7.7 170 17:57 11.01.2020
4594 Clear 23 1015 69 10000 7.7 170 17:38 11.01.2020
4595 Clear 23 1015 69 10000 7.7 170 17:18 11.01.2020
4596 Clear 24 1014 64 10000 8.2 160 16:43 11.01.2020
4597 Clear 24 1014 64 10000 8.2 160 16:24 11.01.2020
4598 Clear 25 1014 65 10000 7.7 170 15:56 11.01.2020
4599 Clear 25 1014 65 10000 7.7 170 15:37 11.01.2020
4600 Clear 25 1014 65 10000 7.7 170 15:19 11.01.2020
4601 Clear 25 1015 61 10000 8.2 170 14:44 11.01.2020
4602 Clear 26 1015 61 10000 8.2 170 14:24 11.01.2020
4603 Clear 26 1015 61 10000 5.7 150 13:57 11.01.2020
4604 Clear 26 1015 61 10000 5.7 150 13:37 11.01.2020
4605 Clear 26 1015 61 10000 5.7 150 13:19 11.01.2020
4606 Clear 26 1014 57 10000 5.7 160 12:44 11.01.2020
4607 Clear 26 1014 57 10000 5.7 160 12:26 11.01.2020
4608 Clear 26 1014 54 10000 3.1 310 11:56 11.01.2020
4609 Clear 26 1014 54 10000 3.1 310 11:38 11.01.2020
4610 Clear 26 1014 54 10000 3.1 310 11:18 11.01.2020
4611 Clear 25 1014 57 10000 3.6 280 10:44 11.01.2020
4612 Clear 24 1014 64 10000 3.1 300 10:24 11.01.2020
4613 Clear 24 1014 64 10000 3.1 300 10:24 11.01.2020
4614 Clear 25 1014 64 10000 3.6 310 09:43 11.01.2020
4615 Clear 25 1014 64 10000 3.6 310 09:21 11.01.2020
4616 Clear 23 1014 68 10000 2.6 320 08:43 11.01.2020
4617 Clear 22 1014 68 10000 2.6 320 08:24 11.01.2020
4618 Clear 21 1014 82 10000 3.1 330 07:59 11.01.2020
4619 Clear 20 1014 82 10000 3.1 330 07:41 11.01.2020
4620 Clear 20 1014 82 10000 3.1 330 07:22 11.01.2020
4621 Clear 19 1014 93 10000 2.1 330 06:42 11.01.2020
4622 Clear 17 1013 93 10000 2.1 330 05:29 11.01.2020
4623 Clear 17 1013 93 10000 1 300 04:40 11.01.2020
4624 Clear 17 1013 93 10000 1 300 04:21 11.01.2020
4625 Clear 17 1013 88 10000 1.5 330 02:46 11.01.2020
4626 Clear 18 1013 93 10000 1.5 0 01:47 11.01.2020
4627 Clear 19 1013 93 10000 1.5 0 01:25 11.01.2020
4628 Clear 19 1014 88 10000 3.6 220 00:52 11.01.2020
4629 Clear 19 1014 88 10000 3.6 220 00:25 11.01.2020
4630 Clear 20 1014 88 10000 4.1 240 23:58 10.01.2020
4631 Clear 20 1014 88 10000 4.1 240 23:39 10.01.2020
4632 Clear 20 1014 88 10000 4.1 240 23:20 10.01.2020
4633 Clear 20 1014 88 10000 4.1 230 22:41 10.01.2020
4634 Clear 20 1014 88 10000 4.1 230 22:22 10.01.2020
4635 Clear 20 1014 88 10000 3.1 230 21:59 10.01.2020
4636 Clear 20 1014 88 10000 3.1 230 21:41 10.01.2020
4637 Clear 21 1014 88 10000 3.1 230 21:21 10.01.2020
4638 Clear 21 1014 88 10000 3.6 210 20:59 10.01.2020
4639 Clear 21 1014 88 10000 3.6 210 20:40 10.01.2020
4640 Clear 21 1014 88 10000 3.6 210 20:22 10.01.2020
4641 Clear 22 1014 78 10000 5.1 210 19:41 10.01.2020
4642 Clear 23 1014 78 10000 5.1 210 19:21 10.01.2020
4643 Clear 24 1014 64 10000 5.1 200 18:58 10.01.2020
4644 Clear 24 1014 64 10000 5.1 200 18:40 10.01.2020
4645 Clear 25 1014 64 10000 5.1 200 18:18 10.01.2020
4646 Clear 26 1014 57 10000 5.7 180 17:56 10.01.2020
4647 Clear 26 1014 57 10000 5.7 180 17:38 10.01.2020
4648 Clear 26 1014 57 10000 5.7 180 17:20 10.01.2020
4649 Clear 26 1014 54 10000 6.7 190 16:55 10.01.2020
4650 Clear 26 1014 54 10000 6.7 190 16:36 10.01.2020
4651 Clear 27 1014 54 10000 6.7 190 16:18 10.01.2020
4652 Clear 27 1015 47 10000 7.2 180 15:55 10.01.2020
4653 Clear 26 1015 47 10000 7.2 180 15:36 10.01.2020
4654 Clear 28 1015 47 10000 7.2 180 15:18 10.01.2020
4655 Clear 27 1015 47 10000 6.7 190 14:42 10.01.2020
4656 Clear 28 1015 47 10000 6.7 190 14:20 10.01.2020
4657 Clear 28 1015 44 10000 5.7 210 13:58 10.01.2020
4658 Clear 28 1015 44 10000 5.7 210 13:58 10.01.2020
4659 Clear 28 1015 44 10000 5.7 210 13:40 10.01.2020
4660 Clear 28 1015 44 10000 5.7 210 13:22 10.01.2020
4661 Clear 27 1016 44 10000 4.6 210 12:57 10.01.2020
4662 Clear 27 1016 44 10000 4.6 210 12:38 10.01.2020
4663 Clear 27 1016 42 10000 5.1 200 12:18 10.01.2020
4664 Clear 27 1016 42 10000 5.1 200 11:54 10.01.2020
4665 Clear 26 1016 47 10000 4.1 200 11:36 10.01.2020
4666 Clear 25 1016 47 10000 4.1 200 11:18 10.01.2020
4667 Clear 26 1017 47 10000 4.1 200 10:42 10.01.2020
4668 Clear 26 1017 47 10000 4.1 200 10:24 10.01.2020
4669 Clear 25 1017 47 10000 3.1 220 09:56 10.01.2020
4670 Clear 24 1017 53 10000 2.6 230 09:37 10.01.2020
4671 Clear 24 1017 53 10000 2.6 230 09:19 10.01.2020
4672 Clear 22 1017 64 10000 1.5 0 08:41 10.01.2020
4673 Clear 22 1017 64 10000 1.5 0 08:23 10.01.2020
4674 Clouds 21 1018 72 10000 2.1 240 07:44 10.01.2020
4675 Clouds 20 1018 72 10000 2.1 240 07:26 10.01.2020
4676 Clouds 19 1018 77 10000 3.6 220 06:46 10.01.2020
4677 Clouds 19 1018 77 10000 3.6 220 06:26 10.01.2020
4678 Clouds 17 1017 88 10000 3.1 240 05:48 10.01.2020
4679 Clouds 17 1017 82 10000 3.6 210 03:37 10.01.2020
4680 Clouds 17 1017 82 10000 3.6 210 03:18 10.01.2020
4681 Clouds 17 1018 82 10000 5.1 180 02:49 10.01.2020
4682 Clouds 17 1019 82 10000 5.1 170 01:47 10.01.2020
4683 Clouds 17 1019 82 10000 5.1 170 01:28 10.01.2020
4684 Clouds 18 1019 82 10000 5.7 190 00:44 10.01.2020
4685 Clouds 18 1020 82 10000 5.1 190 23:58 09.01.2020
4686 Clouds 18 1020 82 10000 5.1 190 23:39 09.01.2020
4687 Clouds 18 1020 82 10000 5.1 190 23:20 09.01.2020
4688 Clouds 18 1020 82 10000 6.2 180 22:57 09.01.2020
4689 Clouds 18 1020 82 10000 6.2 180 22:39 09.01.2020
4690 Clouds 18 1020 82 10000 6.2 180 22:19 09.01.2020
4691 Clouds 18 1020 82 10000 6.2 180 22:19 09.01.2020
4692 Clouds 18 1020 82 10000 7.7 180 21:57 09.01.2020
4693 Clouds 18 1020 82 10000 7.7 180 21:38 09.01.2020
4694 Clouds 18 1020 82 10000 7.7 180 21:19 09.01.2020
4695 Clouds 18 1020 82 10000 8.2 180 20:58 09.01.2020
4696 Clouds 18 1020 82 10000 8.2 180 20:39 09.01.2020
4697 Clouds 18 1020 82 10000 8.2 180 20:20 09.01.2020
4698 Clouds 18 1019 88 10000 7.7 180 19:57 09.01.2020
4699 Clouds 18 1019 88 10000 7.7 180 19:38 09.01.2020
4700 Clouds 19 1019 88 10000 7.7 180 19:19 09.01.2020
4701 Clouds 19 1018 82 10000 8.7 170 18:55 09.01.2020
4702 Clouds 20 1018 82 10000 8.7 170 18:55 09.01.2020
4703 Clouds 20 1018 82 10000 8.7 170 18:37 09.01.2020
4704 Clouds 20 1018 82 10000 8.7 170 18:19 09.01.2020
4705 Clouds 20 1018 82 10000 9.3 180 17:41 09.01.2020
4706 Clouds 21 1018 82 10000 9.3 180 17:18 09.01.2020
4707 Clouds 23 1017 47 10000 6.7 200 16:55 09.01.2020
4708 Clouds 23 1017 47 10000 6.7 200 16:36 09.01.2020
4709 Clouds 24 1017 47 10000 6.7 200 16:18 09.01.2020
4710 Clouds 24 1017 41 10000 3.6 260 15:41 09.01.2020
4711 Clouds 25 1017 41 10000 3.6 260 15:19 09.01.2020
4712 Clouds 25 1017 44 10000 5.1 320 14:55 09.01.2020
4713 Clouds 25 1017 44 10000 5.1 320 14:36 09.01.2020
4714 Clouds 25 1017 44 10000 5.1 320 14:18 09.01.2020
4715 Clouds 24 1017 47 10000 6.7 320 13:54 09.01.2020
4716 Clouds 24 1017 47 10000 6.7 320 13:36 09.01.2020
4717 Clouds 24 1017 47 10000 6.7 320 13:18 09.01.2020
4718 Clouds 25 1017 47 10000 7.2 330 12:41 09.01.2020
4719 Clouds 25 1017 47 10000 7.2 330 12:22 09.01.2020
4720 Clouds 24 1018 53 10000 6.2 320 11:58 09.01.2020
4721 Clouds 24 1018 53 10000 6.2 320 11:40 09.01.2020
4722 Clouds 23 1018 53 10000 6.2 320 11:22 09.01.2020
4723 Clouds 23 1017 53 10000 6.2 310 10:44 09.01.2020
4724 Clouds 23 1017 53 10000 6.2 310 10:23 09.01.2020
4725 Clouds 23 1017 60 10000 5.1 300 09:59 09.01.2020
4726 Clouds 23 1017 60 10000 5.1 300 09:39 09.01.2020
4727 Clouds 22 1017 60 10000 5.1 300 09:21 09.01.2020
4728 Clouds 22 1017 60 10000 5.1 300 09:21 09.01.2020
4729 Clouds 22 1017 68 10000 6.2 320 08:55 09.01.2020
4730 Clouds 22 1017 68 10000 6.2 320 08:37 09.01.2020
4731 Clouds 20 1017 68 10000 6.2 320 08:19 09.01.2020
4732 Clouds 21 1016 68 10000 4.6 310 07:42 09.01.2020
4733 Clouds 21 1016 68 10000 4.6 310 07:42 09.01.2020
4734 Clouds 20 1016 68 10000 4.6 310 07:23 09.01.2020
4735 Clouds 19 1016 77 10000 5.1 340 06:39 09.01.2020
4736 Clouds 19 1016 77 10000 5.1 340 06:20 09.01.2020
4737 Clouds 18 1015 82 10000 5.7 330 05:49 09.01.2020
4738 Clouds 18 1015 82 10000 5.7 330 04:44 09.01.2020
4739 Clouds 18 1014 77 10000 5.1 330 03:38 09.01.2020
4740 Clouds 18 1014 82 10000 6.2 330 02:54 09.01.2020
4741 Clouds 18 1014 82 10000 6.2 330 02:28 09.01.2020
4742 Clouds 17 1014 88 10000 3.1 350 01:39 09.01.2020
4743 Clouds 18 1015 77 10000 3.1 350 00:43 09.01.2020
4744 Clouds 19 1015 77 10000 3.1 350 00:21 09.01.2020
4745 Clouds 20 1015 68 10000 2.1 330 23:55 08.01.2020
4746 Clouds 19 1015 68 10000 2.1 330 23:37 08.01.2020
4747 Clouds 19 1015 68 10000 2.1 330 23:18 08.01.2020
4748 Clouds 20 1015 68 10000 2.6 210 22:39 08.01.2020
4749 Clouds 20 1015 68 10000 2.6 210 22:21 08.01.2020
4750 Clouds 19 1014 72 10000 3.6 170 21:58 08.01.2020
4751 Clouds 19 1014 72 10000 3.6 170 21:38 08.01.2020
4752 Clouds 19 1014 72 10000 3.6 170 21:20 08.01.2020
4753 Clouds 19 1014 72 10000 3.6 170 21:20 08.01.2020
4754 Clouds 20 1014 72 10000 5.7 210 20:58 08.01.2020
4755 Clouds 20 1014 72 10000 5.7 210 20:40 08.01.2020
4756 Clouds 20 1014 72 10000 5.7 210 20:20 08.01.2020
4757 Clouds 20 1013 77 10000 4.6 190 19:56 08.01.2020
4758 Clouds 20 1013 77 10000 4.6 190 19:37 08.01.2020
4759 Clouds 20 1012 73 10000 6.7 210 19:19 08.01.2020
4760 Clouds 20 1012 73 10000 6.7 210 19:19 08.01.2020
4761 Clouds 20 1012 73 10000 6.7 210 18:56 08.01.2020
4762 Clouds 20 1012 73 10000 6.7 210 18:37 08.01.2020
4763 Clouds 20 1012 73 10000 6.7 210 18:18 08.01.2020
4764 Clouds 21 1010 68 10000 7.2 210 17:55 08.01.2020
4765 Clouds 21 1010 68 10000 7.2 210 17:36 08.01.2020
4766 Clouds 21 1010 68 10000 7.2 210 17:18 08.01.2020
4767 Clouds 21 1010 64 10000 6.2 220 16:54 08.01.2020
4768 Clouds 22 1010 64 10000 6.2 220 16:36 08.01.2020
4769 Clouds 22 1010 64 10000 6.2 220 16:18 08.01.2020
4770 Clouds 23 1009 60 10000 6.2 230 15:40 08.01.2020
4771 Clouds 23 1009 60 10000 6.2 230 15:20 08.01.2020
4772 Clouds 24 1009 54 10000 6.2 310 14:56 08.01.2020
4773 Clouds 24 1009 54 10000 6.2 310 14:38 08.01.2020
4774 Clouds 24 1009 54 10000 6.2 310 14:19 08.01.2020
4775 Clouds 25 1009 54 10000 6.7 320 13:40 08.01.2020
4776 Clouds 25 1009 54 10000 6.7 320 13:19 08.01.2020
4777 Clouds 24 1010 69 10000 7.7 310 12:42 08.01.2020
4778 Clouds 24 1010 69 10000 7.7 310 12:19 08.01.2020
4779 Clouds 25 1010 69 10000 6.7 320 11:55 08.01.2020
4780 Clouds 25 1010 69 10000 6.7 320 11:37 08.01.2020
4781 Clouds 25 1010 69 10000 6.7 320 11:19 08.01.2020
4782 Clouds 24 1009 73 10000 5.7 310 10:55 08.01.2020
4783 Clouds 24 1009 73 10000 5.7 310 10:37 08.01.2020
4784 Clouds 24 1009 73 10000 5.7 310 10:18 08.01.2020
4785 Clouds 24 1009 69 10000 5.7 300 09:41 08.01.2020
4786 Clouds 22 1009 78 10000 6.2 310 09:19 08.01.2020
4787 Clouds 23 1009 73 10000 6.2 320 08:56 08.01.2020
4788 Clouds 23 1009 73 10000 6.2 320 08:37 08.01.2020
4789 Clouds 21 1009 78 10000 4.1 340 08:19 08.01.2020
4790 Clouds 20 1009 82 9000 2.6 340 07:48 08.01.2020
4791 Clouds 20 1009 82 9000 2.6 340 07:29 08.01.2020
4792 Clouds 18 1008 93 10000 2.6 310 06:45 08.01.2020
4793 Clouds 19 1008 93 10000 2.6 310 06:19 08.01.2020
4794 Clouds 18 1007 100 10000 1 0 05:41 08.01.2020
4795 Clouds 19 1006 100 8000 1.5 0 04:56 08.01.2020
4796 Clouds 19 1006 100 8000 1.5 0 04:24 08.01.2020
4797 Mist 19 1006 94 3000 3.1 200 02:45 08.01.2020
4798 Mist 19 1006 94 3000 3.1 200 02:21 08.01.2020
4799 Clouds 19 1006 100 8000 2.6 240 01:42 08.01.2020
4800 Clouds 19 1006 100 8000 2.6 240 01:19 08.01.2020
4801 Clouds 20 1006 94 10000 1.5 0 00:27 08.01.2020
4802 Clouds 20 1007 94 10000 2.1 210 23:55 07.01.2020
4803 Clouds 20 1007 94 10000 2.1 210 23:37 07.01.2020
4804 Clouds 20 1007 94 10000 2.1 210 23:19 07.01.2020
4805 Clouds 20 1007 94 10000 3.6 210 22:40 07.01.2020
4806 Clouds 21 1007 94 10000 3.6 210 22:20 07.01.2020
4807 Clear 20 1007 94 10000 3.6 210 21:56 07.01.2020
4808 Clear 20 1007 94 10000 3.6 210 21:38 07.01.2020
4809 Clear 21 1007 94 10000 3.6 210 21:20 07.01.2020
4810 Clear 21 1007 88 10000 4.6 210 20:55 07.01.2020
4811 Clear 22 1007 88 10000 4.6 210 20:36 07.01.2020
4812 Clear 22 1007 88 10000 4.6 210 20:18 07.01.2020
4813 Clear 23 1006 78 10000 4.6 230 19:38 07.01.2020
4814 Clear 22 1006 78 10000 4.6 230 19:20 07.01.2020
4815 Clear 24 1006 69 10000 4.1 210 18:58 07.01.2020
4816 Clear 24 1006 69 10000 4.1 210 18:40 07.01.2020
4817 Clear 24 1006 69 10000 4.1 210 18:40 07.01.2020
4818 Clear 25 1006 69 10000 4.1 210 18:19 07.01.2020
4819 Clear 25 1006 57 10000 5.1 180 17:59 07.01.2020
4820 Clear 25 1006 57 10000 5.1 180 17:39 07.01.2020
4821 Clear 27 1006 57 10000 5.1 180 17:21 07.01.2020
4822 Clear 27 1006 48 10000 6.7 190 16:57 07.01.2020
4823 Clear 27 1006 48 10000 6.7 190 16:38 07.01.2020
4824 Clear 27 1006 48 10000 6.7 190 16:19 07.01.2020
4825 Clear 29 1006 42 10000 5.1 200 15:58 07.01.2020
4826 Clear 29 1006 42 10000 5.1 200 15:39 07.01.2020
4827 Clear 30 1006 42 10000 5.1 200 15:21 07.01.2020
4828 Clear 30 1007 42 10000 5.1 190 14:54 07.01.2020
4829 Clear 28 1007 42 10000 5.1 190 14:36 07.01.2020
4830 Clouds 29 1007 42 10000 5.1 190 14:18 07.01.2020
4831 Clouds 29 1008 42 10000 6.7 210 13:39 07.01.2020
4832 Clouds 29 1008 42 10000 6.7 210 13:19 07.01.2020
4833 Clouds 27 1008 39 10000 4.6 200 12:41 07.01.2020
4834 Clouds 29 1008 39 10000 4.6 200 12:20 07.01.2020
4835 Clouds 28 1009 39 10000 3.1 100 11:55 07.01.2020
4836 Clouds 28 1009 39 10000 3.1 100 11:36 07.01.2020
4837 Clouds 28 1009 39 10000 3.1 100 11:18 07.01.2020
4838 Clouds 27 1009 44 10000 1 0 10:41 07.01.2020
4839 Clouds 27 1009 44 10000 1 0 10:41 07.01.2020
4840 Clouds 26 1009 44 10000 1 0 10:23 07.01.2020
4841 Clouds 26 1009 47 10000 1 0 09:58 07.01.2020
4842 Clouds 25 1009 47 10000 1 0 09:38 07.01.2020
4843 Clouds 25 1009 53 10000 1.5 0 09:20 07.01.2020
4844 Clouds 22 1010 68 10000 2.6 250 08:43 07.01.2020
4845 Clouds 21 1010 68 10000 2.6 250 08:25 07.01.2020
4846 Clouds 21 1009 64 10000 2.6 210 07:54 07.01.2020
4847 Clouds 21 1009 64 10000 2.6 210 07:28 07.01.2020
4848 Clouds 21 1009 64 10000 2.6 210 07:28 07.01.2020
4849 Clouds 21 1009 64 10000 2.6 210 07:28 07.01.2020
4850 Clouds 20 1009 64 10000 2.6 210 06:53 07.01.2020
4851 Clouds 20 1009 64 10000 2.6 210 06:34 07.01.2020
4852 Clouds 19 1008 72 10000 1 0 05:55 07.01.2020
4853 Clouds 19 1008 72 10000 2.6 200 04:41 07.01.2020
4854 Clouds 19 1008 68 10000 4.1 170 03:27 07.01.2020
4855 -273 0 0 0 0 0 02:22 07.01.2020
4856 Clouds 19 1009 68 10000 8.7 160 01:54 07.01.2020
4857 Clouds 19 1009 68 10000 8.7 160 01:30 07.01.2020
4858 Clouds 19 1010 68 10000 7.7 180 00:37 07.01.2020
4859 Clouds 19 1010 68 10000 7.7 180 00:19 07.01.2020
4860 Clouds 19 1012 63 10000 8.7 160 23:55 06.01.2020
4861 Clouds 19 1012 63 10000 8.7 160 23:36 06.01.2020
4862 Clouds 19 1012 63 10000 8.7 160 23:18 06.01.2020
4863 Clouds 20 1011 64 10000 7.7 190 22:42 06.01.2020
4864 Clouds 20 1011 64 10000 7.7 190 22:22 06.01.2020
4865 Clouds 19 1012 72 10000 7.7 180 21:56 06.01.2020
4866 Clouds 19 1012 72 10000 7.7 180 21:38 06.01.2020
4867 Clouds 19 1012 72 10000 7.7 180 21:20 06.01.2020
4868 Clouds 19 1012 72 10000 7.7 180 21:20 06.01.2020
4869 Clouds 19 1012 68 10000 7.7 190 20:56 06.01.2020
4870 Clouds 19 1012 68 10000 7.7 190 20:38 06.01.2020
4871 Clouds 19 1012 68 10000 7.7 190 20:20 06.01.2020
4872 Clouds 19 1012 68 10000 9.3 180 19:56 06.01.2020
4873 Clouds 19 1012 68 10000 9.3 180 19:56 06.01.2020
4874 Clouds 20 1012 68 10000 9.3 180 19:37 06.01.2020
4875 Clouds 20 1012 68 10000 9.3 180 19:19 06.01.2020
4876 Clouds 20 1012 68 10000 9.3 180 19:19 06.01.2020
4877 Clouds 20 1013 60 10000 9.3 190 18:46 06.01.2020
4878 Clouds 20 1013 60 10000 9.3 190 18:21 06.01.2020
4879 Clouds 20 1013 60 10000 9.8 180 17:58 06.01.2020
4880 Clouds 21 1013 60 10000 9.8 180 17:37 06.01.2020
4881 Clouds 21 1013 60 10000 9.8 180 17:18 06.01.2020
4882 Clouds 21 1013 56 10000 10.8 190 16:44 06.01.2020
4883 Clouds 21 1013 56 10000 10.8 190 16:25 06.01.2020
4884 Clouds 21 1013 56 10000 10.8 190 16:25 06.01.2020
4885 Clouds 21 1013 52 10000 8.7 180 15:59 06.01.2020
4886 Clouds 21 1013 52 10000 8.7 180 15:39 06.01.2020
4887 Clouds 21 1013 52 10000 8.7 180 15:19 06.01.2020
4888 Clouds 21 1014 56 10000 8.2 170 14:57 06.01.2020
4889 Clouds 21 1014 56 10000 8.2 170 14:39 06.01.2020
4890 Clouds 21 1014 56 10000 8.2 170 14:18 06.01.2020
4891 Clouds 22 1014 53 10000 8.7 190 13:54 06.01.2020
4892 Clouds 22 1014 53 10000 8.7 190 13:36 06.01.2020
4893 Clouds 22 1014 53 10000 8.7 190 13:18 06.01.2020
4894 Clouds 21 1014 56 10000 6.7 190 12:41 06.01.2020
4895 Clouds 21 1014 56 10000 6.7 190 12:20 06.01.2020
4896 Clouds 22 1014 49 10000 6.7 190 11:57 06.01.2020
4897 Clouds 22 1014 49 10000 6.7 190 11:38 06.01.2020
4898 Clouds 22 1014 49 10000 6.7 190 11:38 06.01.2020
4899 Clouds 22 1014 49 10000 6.7 190 11:20 06.01.2020
4900 Clouds 21 1015 52 10000 5.7 160 10:43 06.01.2020
4901 Clouds 21 1015 52 10000 5.7 160 10:43 06.01.2020
4902 Clouds 21 1015 52 10000 5.7 160 10:25 06.01.2020
4903 Clouds 21 1014 52 10000 5.7 170 09:57 06.01.2020
4904 Clouds 21 1014 52 10000 5.7 170 09:37 06.01.2020
4905 Clouds 21 1014 52 10000 5.7 170 09:19 06.01.2020
4906 Clouds 19 1014 59 10000 5.1 180 08:43 06.01.2020
4907 Clouds 19 1014 59 10000 5.1 180 08:24 06.01.2020
4908 Clouds 19 1014 68 10000 4.1 210 07:48 06.01.2020
4909 Clouds 18 1014 68 10000 4.1 210 07:26 06.01.2020
4910 Clouds 18 1014 63 10000 3.1 200 06:45 06.01.2020
4911 Clouds 18 1014 63 10000 3.1 200 06:19 06.01.2020
4912 Clouds 17 1014 72 10000 3.6 210 05:42 06.01.2020
4913 Clouds 17 1013 72 10000 3.1 200 04:33 06.01.2020
4914 Clouds 17 1013 72 10000 3.6 210 03:59 06.01.2020
4915 Clouds 18 1013 72 10000 3.6 200 02:46 06.01.2020
4916 Clouds 18 1013 72 10000 3.6 200 02:23 06.01.2020
4917 Clouds 17 1014 88 10000 2.6 200 01:43 06.01.2020
4918 Clouds 17 1014 88 10000 2.6 200 01:21 06.01.2020
4919 Clouds 18 1013 82 10000 2.1 140 00:41 06.01.2020
4920 Clouds 18 1013 82 10000 2.1 140 00:20 06.01.2020
4921 Clouds 18 1014 77 10000 3.6 160 23:41 05.01.2020
4922 Clouds 18 1014 77 10000 3.6 160 23:22 05.01.2020
4923 Clouds 18 1014 82 10000 1.5 0 22:55 05.01.2020
4924 Clouds 18 1014 82 10000 1.5 0 22:37 05.01.2020
4925 Clouds 19 1014 82 10000 1.5 0 22:19 05.01.2020
4926 Clouds 18 1014 82 10000 4.1 180 21:54 05.01.2020
4927 Clouds 18 1014 82 10000 4.1 180 21:36 05.01.2020
4928 Clouds 19 1014 82 10000 4.1 180 21:18 05.01.2020
4929 Clouds 19 1014 82 10000 4.1 180 20:54 05.01.2020
4930 Clouds 19 1014 82 10000 4.1 180 20:36 05.01.2020
4931 Clouds 19 1014 82 10000 4.1 180 20:18 05.01.2020
4932 Clouds 20 1014 82 10000 1.5 140 19:41 05.01.2020
4933 Clouds 20 1014 82 10000 1.5 140 19:21 05.01.2020
4934 Clouds 20 1013 82 10000 3.1 120 18:57 05.01.2020
4935 Clouds 19 1013 82 10000 3.1 120 18:38 05.01.2020
4936 Clouds 19 1013 82 10000 3.1 120 18:20 05.01.2020
4937 Clouds 20 1013 82 10000 4.6 130 17:59 05.01.2020
4938 Clouds 19 1013 82 10000 4.6 130 17:39 05.01.2020
4939 Clouds 20 1013 82 10000 4.6 130 17:20 05.01.2020
4940 Clouds 21 1013 68 10000 4.6 300 16:57 05.01.2020
4941 Clouds 21 1013 68 10000 4.6 300 16:39 05.01.2020
4942 Clouds 21 1013 68 10000 4.6 300 16:20 05.01.2020
4943 Clouds 22 1013 68 10000 6.7 280 15:41 05.01.2020
4944 Clouds 22 1013 68 10000 6.7 280 15:22 05.01.2020
4945 Clouds 22 1013 68 10000 6.7 280 15:22 05.01.2020
4946 Clouds 22 1013 68 10000 6.7 280 15:22 05.01.2020
4947 Clouds 23 1013 60 10000 7.2 300 14:57 05.01.2020
4948 Clouds 23 1013 60 10000 7.2 300 14:39 05.01.2020
4949 Clouds 23 1013 60 10000 7.2 300 14:21 05.01.2020
4950 Clouds 23 1014 56 10000 7.2 300 13:59 05.01.2020
4951 Clouds 23 1014 56 10000 7.2 300 13:39 05.01.2020
4952 Clouds 23 1014 56 10000 7.2 300 13:20 05.01.2020
4953 Clouds 23 1013 53 10000 8.2 310 12:57 05.01.2020
4954 Clouds 23 1013 53 10000 8.2 310 12:38 05.01.2020
4955 Clouds 23 1013 53 10000 8.2 310 12:20 05.01.2020
4956 Clouds 23 1013 53 10000 8.2 310 12:20 05.01.2020
4957 Clouds 23 1013 56 10000 8.2 300 11:55 05.01.2020
4958 Clouds 23 1013 56 10000 8.2 300 11:36 05.01.2020
4959 Clouds 23 1013 56 10000 8.2 300 11:18 05.01.2020
4960 Clouds 22 1013 64 10000 7.2 300 10:41 05.01.2020
4961 Clouds 22 1013 64 10000 7.2 300 10:20 05.01.2020
4962 Clouds 22 1013 64 10000 7.2 300 10:20 05.01.2020
4963 Clouds 22 1013 68 10000 7.2 320 09:57 05.01.2020
4964 Clouds 22 1013 68 10000 7.2 320 09:38 05.01.2020
4965 Clouds 22 1013 68 10000 7.2 320 09:20 05.01.2020
4966 Clouds 22 1013 77 10000 6.2 330 08:45 05.01.2020
4967 Clouds 21 1013 77 10000 6.2 330 08:21 05.01.2020
4968 Clouds 20 1013 82 10000 5.1 330 07:47 05.01.2020
4969 Clouds 20 1013 82 10000 5.1 330 07:29 05.01.2020
4970 Clouds 19 1012 88 10000 4.1 340 06:55 05.01.2020
4971 Clouds 18 1012 93 10000 3.6 300 05:43 05.01.2020
4972 Clouds 17 1011 93 10000 3.1 330 04:56 05.01.2020
4973 Clouds 17 1011 93 10000 3.1 330 04:19 05.01.2020
4974 Clouds 18 1011 88 10000 3.1 340 03:40 05.01.2020
4975 Clouds 19 1012 82 10000 2.6 310 02:36 05.01.2020
4976 Clouds 19 1012 82 10000 2.6 310 02:36 05.01.2020
4977 Clouds 19 1012 82 10000 2.6 310 02:18 05.01.2020
4978 Clouds 19 1012 77 10000 2.1 60 01:21 05.01.2020
4979 Clouds 19 1012 82 10000 0.5 0 00:58 05.01.2020
4980 Clouds 19 1012 82 10000 0.5 0 00:39 05.01.2020
4981 Clouds 18 1012 82 10000 0.5 0 00:20 05.01.2020
4982 Clouds 18 1013 82 10000 1.5 60 23:58 04.01.2020
4983 Clouds 18 1013 82 10000 1.5 60 23:38 04.01.2020
4984 Clouds 18 1013 82 10000 1.5 60 23:18 04.01.2020
4985 Clouds 19 1012 72 10000 2.1 160 22:39 04.01.2020
4986 Clouds 19 1012 72 10000 2.1 160 22:20 04.01.2020
4987 Clouds 19 1012 77 10000 2.6 190 21:56 04.01.2020
4988 Clouds 19 1012 77 10000 2.6 190 21:37 04.01.2020
4989 Clouds 19 1012 77 10000 2.6 190 21:19 04.01.2020
4990 Clouds 19 1012 77 10000 2.6 190 21:19 04.01.2020
4991 Clouds 19 1012 77 10000 2.6 190 21:19 04.01.2020
4992 Clouds 19 1012 72 10000 3.6 200 20:56 04.01.2020
4993 Clear 19 1012 72 10000 3.6 200 20:37 04.01.2020
4994 Clear 19 1012 72 10000 3.6 200 20:19 04.01.2020
4995 Clear 20 1012 68 10000 5.7 170 19:42 04.01.2020
4996 Clear 20 1012 68 10000 5.7 170 19:23 04.01.2020
4997 Clear 21 1011 60 10000 6.2 180 18:58 04.01.2020
4998 Clear 21 1011 60 10000 6.2 180 18:39 04.01.2020
4999 Clear 21 1011 60 10000 6.2 180 18:20 04.01.2020
5000 Clouds 22 1010 60 10000 7.7 160 17:58 04.01.2020
5001 Clouds 23 1010 60 10000 7.7 160 17:40 04.01.2020
5002 Clouds 23 1010 60 10000 7.7 160 17:21 04.01.2020
5003 Clear 23 1010 60 10000 6.2 170 16:42 04.01.2020
5004 Clear 23 1010 60 10000 6.2 170 16:24 04.01.2020
5005 Clear 23 1010 60 10000 5.7 170 15:59 04.01.2020
5006 Clear 23 1010 60 10000 5.7 170 15:41 04.01.2020
5007 Clear 24 1010 60 10000 5.7 170 15:19 04.01.2020
5008 Clear 24 1010 57 10000 6.2 160 14:58 04.01.2020
5009 Clear 24 1010 57 10000 6.2 160 14:58 04.01.2020
5010 Clear 24 1010 57 10000 6.2 160 14:58 04.01.2020
5011 Clear 24 1010 57 10000 6.2 160 14:39 04.01.2020
5012 Clouds 24 1010 57 10000 6.2 160 14:19 04.01.2020
5013 Clouds 24 1011 61 10000 5.1 200 13:56 04.01.2020
5014 Clouds 24 1011 61 10000 5.1 200 13:37 04.01.2020
5015 Clouds 24 1011 61 10000 5.1 200 13:18 04.01.2020
5016 Clouds 25 1011 61 10000 4.6 200 12:42 04.01.2020
5017 Clouds 25 1011 61 10000 4.6 200 12:20 04.01.2020
5018 Clouds 26 1012 57 10000 3.6 190 11:59 04.01.2020
5019 Clouds 25 1012 57 10000 3.6 190 11:40 04.01.2020
5020 Clouds 26 1012 57 10000 3.6 190 11:20 04.01.2020
5021 Clouds 24 1012 60 10000 3.6 220 10:58 04.01.2020
5022 Clouds 25 1012 60 10000 3.6 220 10:38 04.01.2020
5023 Clouds 24 1012 60 10000 3.6 220 10:19 04.01.2020
5024 Clouds 24 1012 64 10000 3.6 230 09:42 04.01.2020
5025 Clouds 23 1012 64 10000 3.6 230 09:24 04.01.2020
5026 Clouds 22 1012 68 10000 4.1 230 08:44 04.01.2020
5027 Clouds 22 1012 68 10000 4.1 230 08:25 04.01.2020
5028 Clouds 20 1013 82 10000 3.6 240 07:51 04.01.2020
5029 Clouds 20 1013 82 10000 3.6 240 07:32 04.01.2020
5030 Clouds 19 1012 93 10000 4.1 240 06:39 04.01.2020
5031 Clouds 18 1012 93 10000 4.1 240 05:46 04.01.2020
5032 Clouds 18 1013 93 10000 4.1 230 04:48 04.01.2020
5033 Clouds 18 1013 88 10000 5.1 220 04:28 04.01.2020
5034 Clouds 18 1013 88 10000 5.1 220 03:20 04.01.2020
5035 Clouds 18 1013 88 10000 7.2 210 02:38 04.01.2020
5036 Clear 18 1013 88 10000 7.2 210 02:18 04.01.2020
5037 Clear 18 1014 88 10000 6.2 210 01:32 04.01.2020
5038 Clear 18 1014 88 10000 6.2 210 01:32 04.01.2020
5039 Clear 18 1014 88 10000 6.2 210 01:32 04.01.2020
5040 Clear 18 1014 88 10000 5.7 200 00:58 04.01.2020
5041 Clear 18 1014 88 10000 5.7 200 00:29 04.01.2020
5042 Clear 19 1015 82 10000 6.7 200 23:53 03.01.2020
5043 Clear 19 1015 82 10000 6.7 200 23:28 03.01.2020
5044 Clouds 19 1015 82 10000 6.7 200 22:57 03.01.2020
5045 Clouds 19 1015 82 10000 6.7 200 22:39 03.01.2020
5046 Clouds 19 1015 82 10000 6.7 200 22:18 03.01.2020
5047 Clouds 19 1016 82 10000 7.2 200 21:57 03.01.2020
5048 Clouds 19 1016 82 10000 7.2 200 21:37 03.01.2020
5049 Clouds 19 1016 82 10000 7.2 200 21:18 03.01.2020
5050 Clouds 19 1016 82 10000 7.7 200 20:54 03.01.2020
5051 Clouds 19 1016 82 10000 7.7 200 20:36 03.01.2020
5052 Clouds 19 1016 82 10000 7.7 200 20:18 03.01.2020
5053 Clouds 20 1016 77 10000 8.2 190 19:42 03.01.2020
5054 Clouds 20 1016 77 10000 8.2 190 19:23 03.01.2020
5055 Clouds 20 1015 73 10000 9.3 190 18:54 03.01.2020
5056 Clouds 20 1015 73 10000 9.3 190 18:36 03.01.2020
5057 Clouds 20 1015 73 10000 9.3 190 18:18 03.01.2020
5058 Clouds 22 1015 68 10000 9.8 190 17:41 03.01.2020
5059 Clouds 21 1015 68 10000 9.8 190 17:21 03.01.2020
5060 Clouds 22 1015 64 10000 9.3 180 16:45 03.01.2020
5061 Clouds 22 1015 64 10000 9.3 180 16:26 03.01.2020
5062 Clouds 23 1015 64 10000 8.2 180 16:00 03.01.2020
5063 Clouds 23 1015 64 10000 8.2 180 15:41 03.01.2020
5064 Clouds 23 1015 64 10000 8.2 180 15:19 03.01.2020
5065 Clouds 24 1015 57 10000 8.2 180 14:40 03.01.2020
5066 Clouds 24 1015 57 10000 8.2 180 14:40 03.01.2020
5067 Clouds 24 1015 57 10000 8.2 180 14:20 03.01.2020
5068 Clouds 23 1016 64 10000 8.7 180 13:59 03.01.2020
5069 Clouds 23 1016 64 10000 8.7 180 13:40 03.01.2020
5070 Clouds 24 1016 64 10000 8.7 180 13:21 03.01.2020
5071 Clouds 24 1016 64 10000 8.2 190 12:41 03.01.2020
5072 Clouds 24 1016 64 10000 8.2 190 12:22 03.01.2020
5073 Clouds 24 1016 60 10000 8.7 190 11:54 03.01.2020
5074 Clouds 24 1016 60 10000 8.7 190 11:35 03.01.2020
5075 Clouds 24 1016 64 10000 8.2 200 10:58 03.01.2020
5076 Clouds 24 1016 64 10000 8.2 200 10:40 03.01.2020
5077 Clouds 24 1016 64 10000 8.2 200 10:22 03.01.2020
5078 Clouds 23 1016 68 10000 8.2 190 09:56 03.01.2020
5079 Clouds 23 1016 68 10000 8.2 190 09:38 03.01.2020
5080 Clouds 23 1016 68 10000 8.2 190 09:20 03.01.2020
5081 Clouds 23 1016 68 10000 9.3 190 08:45 03.01.2020
5082 Clouds 23 1016 68 10000 9.3 190 08:23 03.01.2020
5083 Clouds 21 1016 77 10000 7.7 200 07:57 03.01.2020
5084 Clouds 20 1016 77 10000 7.7 200 07:38 03.01.2020
5085 Clouds 20 1016 77 10000 7.7 200 07:18 03.01.2020
5086 Clouds 20 1016 82 10000 5.1 210 06:42 03.01.2020
5087 Clouds 20 1016 82 10000 5.1 210 06:22 03.01.2020
5088 Clouds 18 1015 88 10000 6.2 220 05:20 03.01.2020
5089 Clouds 19 1014 88 10000 6.7 200 03:45 03.01.2020
5090 Clouds 19 1014 82 10000 8.7 200 02:54 03.01.2020
5091 Clouds 19 1015 82 10000 8.7 190 01:54 03.01.2020
5092 Clouds 19 1015 82 10000 8.7 190 01:36 03.01.2020
5093 Clouds 19 1015 82 10000 8.7 190 01:36 03.01.2020
5094 Clouds 19 1015 82 10000 8.7 190 00:46 03.01.2020
5095 Clouds 19 1015 82 10000 8.7 190 00:26 03.01.2020
5096 Clouds 19 1015 82 10000 8.2 190 23:54 02.01.2020
5097 Clouds 19 1015 82 10000 8.2 190 23:36 02.01.2020
5098 Clouds 19 1015 82 10000 8.2 190 23:18 02.01.2020
5099 Clouds 19 1016 82 10000 8.7 190 22:42 02.01.2020
5100 Clouds 19 1016 82 10000 8.7 190 22:20 02.01.2020
5101 Clouds 19 1016 82 10000 8.7 200 21:57 02.01.2020
5102 Clouds 19 1016 82 10000 8.7 200 21:38 02.01.2020
5103 Clouds 19 1016 82 10000 8.7 200 21:20 02.01.2020
5104 Clouds 19 1015 82 10000 9.3 190 20:56 02.01.2020
5105 Clouds 19 1015 82 10000 9.3 190 20:38 02.01.2020
5106 Clouds 19 1015 82 10000 9.3 190 20:20 02.01.2020
5107 Clouds 19 1016 82 10000 8.7 180 19:54 02.01.2020
5108 Clouds 20 1016 82 10000 8.7 180 19:36 02.01.2020
5109 Clouds 20 1016 82 10000 8.7 180 19:18 02.01.2020
5110 Clouds 21 1015 73 10000 9.8 180 18:54 02.01.2020
5111 Clouds 21 1015 73 10000 9.8 180 18:36 02.01.2020
5112 Clouds 21 1015 73 10000 9.8 180 18:18 02.01.2020
5113 Clouds 22 1015 68 10000 11.3 190 17:55 02.01.2020
5114 Clouds 22 1015 68 10000 11.3 190 17:36 02.01.2020
5115 Clouds 22 1015 68 10000 11.3 190 17:18 02.01.2020
5116 Clouds 23 1015 64 10000 10.3 180 16:41 02.01.2020
5117 Clouds 23 1015 64 10000 10.3 180 16:20 02.01.2020
5118 Clouds 23 1015 64 10000 10.3 180 15:58 02.01.2020
5119 Clouds 23 1015 64 10000 10.3 180 15:40 02.01.2020
5120 Clouds 23 1015 64 10000 10.3 180 15:40 02.01.2020
5121 Clouds 23 1015 64 10000 10.3 180 15:22 02.01.2020
5122 Clouds 23 1015 60 10000 10.8 180 14:57 02.01.2020
5123 Clouds 23 1015 60 10000 10.8 180 14:37 02.01.2020
5124 Clouds 23 1015 60 10000 10.8 180 14:18 02.01.2020
5125 Clouds 23 1015 64 10000 10.8 190 13:51 02.01.2020
5126 Clouds 23 1015 64 10000 10.8 190 13:32 02.01.2020
5127 Clouds 23 1015 64 10000 10.8 190 12:47 02.01.2020
5128 Clouds 23 1015 64 10000 10.8 190 12:28 02.01.2020
5129 Clouds 24 1015 69 10000 11.3 190 11:59 02.01.2020
5130 Clouds 24 1015 69 10000 11.3 190 11:41 02.01.2020
5131 Clouds 23 1015 69 10000 11.3 190 11:20 02.01.2020
5132 Clouds 23 1015 69 10000 10.3 190 10:45 02.01.2020
5133 Clouds 23 1015 69 10000 10.3 190 10:26 02.01.2020
5134 Clouds 23 1015 78 10000 9.8 190 09:55 02.01.2020
5135 Clouds 23 1015 83 10000 9.8 200 09:34 02.01.2020
5136 Clouds 23 1014 73 10000 6.7 200 08:53 02.01.2020
5137 Clouds 22 1014 73 10000 6.7 200 08:32 02.01.2020
5138 Clouds 21 1014 77 10000 7.7 190 07:57 02.01.2020
5139 Clouds 21 1014 77 10000 7.7 190 07:31 02.01.2020
5140 Clouds 20 1014 93 10000 7.2 190 06:57 02.01.2020
5141 Clouds 20 1014 93 10000 7.2 190 06:57 02.01.2020
5142 Clouds 20 1014 93 10000 7.2 190 06:39 02.01.2020
5143 Clouds 19 1013 100 10000 6.7 190 05:38 02.01.2020
5144 Clouds 19 1013 100 10000 7.7 190 04:34 02.01.2020
5145 Clouds 19 1013 93 10000 6.2 200 03:23 02.01.2020
5146 Clouds 19 1013 93 10000 6.2 210 02:20 02.01.2020
5147 Clouds 19 1013 93 10000 5.7 220 01:48 02.01.2020
5148 Clouds 19 1013 93 10000 5.7 220 01:23 02.01.2020
5149 Clouds 19 1013 88 10000 5.1 210 00:38 02.01.2020
5150 Clouds 19 1013 88 10000 5.1 210 00:20 02.01.2020
5151 Clouds 19 1013 88 10000 7.2 190 23:42 01.01.2020
5152 Clouds 19 1013 88 10000 7.2 190 23:21 01.01.2020
5153 Clouds 19 1013 88 10000 7.2 190 23:21 01.01.2020
5154 Clouds 20 1013 88 10000 8.7 190 22:39 01.01.2020
5155 Clouds 20 1013 88 10000 8.7 190 22:39 01.01.2020
5156 Clouds 20 1013 88 10000 8.7 190 22:20 01.01.2020
5157 Clouds 20 1013 88 10000 8.7 190 22:20 01.01.2020
5158 Clouds 20 1013 88 10000 10.3 190 21:58 01.01.2020
5159 Clouds 20 1013 88 10000 10.3 190 21:39 01.01.2020
5160 Clouds 20 1013 88 10000 10.3 190 21:20 01.01.2020
5161 Clouds 20 1013 88 10000 10.3 190 20:56 01.01.2020
5162 Clouds 20 1013 88 10000 10.3 190 20:38 01.01.2020
5163 Clouds 20 1013 88 10000 10.3 190 20:20 01.01.2020
5164 Clouds 20 1012 82 10000 10.8 190 19:56 01.01.2020
5165 Clouds 20 1012 82 10000 10.8 190 19:37 01.01.2020
5166 Clouds 20 1012 82 10000 10.8 190 19:19 01.01.2020
5167 Clouds 21 1012 77 10000 11.3 190 18:56 01.01.2020
5168 Clouds 21 1012 77 10000 11.3 190 18:37 01.01.2020
5169 Clouds 22 1012 77 10000 11.3 190 18:19 01.01.2020
5170 Clouds 23 1012 73 10000 12.3 190 17:57 01.01.2020
5171 Clouds 22 1012 73 10000 12.3 190 17:39 01.01.2020
5172 Clouds 23 1012 73 10000 12.3 190 17:19 01.01.2020
5173 Clouds 23 1012 73 10000 12.3 190 16:56 01.01.2020
5174 Clouds 23 1012 73 10000 12.3 190 16:56 01.01.2020
5175 Clouds 23 1012 73 10000 12.3 190 16:37 01.01.2020
5176 Clouds 23 1012 73 10000 12.3 190 16:19 01.01.2020
5177 Clouds 23 1012 69 10000 11.8 190 15:54 01.01.2020
5178 Clouds 23 1012 64 10000 11.3 190 15:36 01.01.2020
5179 Clouds 23 1012 64 10000 11.3 190 15:18 01.01.2020
5180 Clouds 25 1013 57 10000 9.8 190 14:41 01.01.2020
5181 Clouds 27 1013 57 10000 9.8 190 14:22 01.01.2020
5182 Clouds 26 1013 60 10000 10.8 190 13:57 01.01.2020
5183 Clouds 26 1013 60 10000 10.8 190 13:38 01.01.2020
5184 Clouds 27 1013 60 10000 10.8 190 13:19 01.01.2020
5185 Clouds 27 1013 53 10000 8.2 190 12:57 01.01.2020
5186 Clouds 27 1013 53 10000 8.2 190 12:39 01.01.2020
5187 Clouds 27 1013 53 10000 8.2 190 12:19 01.01.2020
5188 Clouds 25 1014 50 10000 7.2 190 11:56 01.01.2020
5189 Clouds 27 1014 50 10000 7.2 190 11:37 01.01.2020
5190 Clouds 27 1014 50 10000 7.2 190 11:18 01.01.2020
5191 Clouds 26 1014 50 10000 6.2 200 10:54 01.01.2020
5192 Clouds 26 1014 50 10000 6.2 200 10:36 01.01.2020
5193 Clouds 26 1014 50 10000 6.2 200 10:18 01.01.2020
5194 Clouds 24 1014 53 10000 8.2 190 09:38 01.01.2020
5195 Clouds 24 1014 53 10000 8.2 190 09:19 01.01.2020
5196 Clouds 23 1013 53 10000 7.2 190 08:56 01.01.2020
5197 Clouds 23 1013 53 10000 7.2 190 08:37 01.01.2020
5198 Clouds 23 1013 53 10000 7.2 190 08:37 01.01.2020
5199 Clouds 23 1013 53 10000 7.2 190 08:19 01.01.2020
5200 Clouds 21 1013 60 10000 7.2 180 07:55 01.01.2020
5201 Clouds 21 1013 60 10000 7.2 180 07:37 01.01.2020
5202 Clouds 20 1013 64 10000 7.2 190 06:45 01.01.2020
5203 Clouds 20 1013 64 10000 7.2 190 06:22 01.01.2020
5204 Clouds 18 1013 72 10000 6.2 200 05:23 01.01.2020
5205 Clouds 18 1012 68 10000 6.2 190 03:47 01.01.2020
5206 Clouds 18 1012 68 10000 6.2 190 03:23 01.01.2020
5207 Clouds 18 1012 68 10000 7.2 190 02:57 01.01.2020
5208 Clouds 18 1012 68 10000 7.2 190 02:37 01.01.2020
5209 Clouds 18 1013 68 10000 8.2 190 01:59 01.01.2020
5210 Clouds 18 1013 68 10000 8.2 190 01:38 01.01.2020
5211 Clouds 18 1013 68 10000 8.2 190 01:20 01.01.2020
5212 Clouds 19 1013 63 10000 8.2 180 00:44 01.01.2020
5213 Clouds 19 1013 63 10000 8.2 180 00:25 01.01.2020
5214 Clouds 19 1014 60 10000 9.8 190 23:41 31.12.2019
5215 Clouds 19 1014 60 10000 9.8 190 23:22 31.12.2019
5216 Clouds 19 1013 60 10000 7.7 170 22:58 31.12.2019
5217 Clouds 19 1013 60 10000 7.7 170 22:39 31.12.2019
5218 Clouds 20 1013 60 10000 7.7 170 22:20 31.12.2019
5219 Clouds 20 1013 60 10000 8.7 180 21:58 31.12.2019
5220 Clouds 20 1013 60 10000 8.7 180 21:40 31.12.2019
5221 Clouds 20 1013 60 10000 8.7 180 21:21 31.12.2019
5222 Clouds 20 1013 68 10000 8.7 200 20:56 31.12.2019
5223 Clouds 20 1013 68 10000 8.7 200 20:37 31.12.2019
5224 Clouds 20 1013 68 10000 8.7 200 20:19 31.12.2019
5225 Clouds 20 1013 64 10000 10.3 190 19:54 31.12.2019
5226 Clouds 20 1013 64 10000 10.3 190 19:36 31.12.2019
5227 Clouds 20 1013 64 10000 10.3 190 19:18 31.12.2019
5228 Clouds 20 1013 64 10000 10.3 190 18:54 31.12.2019
5229 Clouds 20 1013 64 10000 10.3 190 18:54 31.12.2019
5230 Clouds 21 1013 64 10000 10.3 190 18:36 31.12.2019
5231 Clouds 21 1013 64 10000 10.3 190 18:18 31.12.2019
5232 Clouds 21 1013 64 10000 10.3 190 18:18 31.12.2019
5233 Clouds 22 1012 60 10000 10.3 180 17:54 31.12.2019
5234 Clouds 22 1012 60 10000 10.3 180 17:36 31.12.2019
5235 Clouds 22 1012 60 10000 10.3 180 17:18 31.12.2019
5236 Clouds 22 1013 60 10000 12.9 190 16:54 31.12.2019
5237 Clouds 23 1013 60 10000 12.9 190 16:36 31.12.2019
5238 Clouds 23 1013 60 10000 12.9 190 16:18 31.12.2019
5239 Clouds 23 1013 60 10000 12.9 190 16:18 31.12.2019
5240 Clouds 24 1014 56 10000 13.9 180 15:54 31.12.2019
5241 Clouds 24 1014 56 10000 13.9 180 15:36 31.12.2019
5242 Clouds 24 1014 56 10000 13.9 180 15:36 31.12.2019
5243 Clouds 24 1014 56 10000 13.9 180 15:18 31.12.2019
5244 Clear 23 1014 53 10000 13.9 190 14:54 31.12.2019
5245 Clear 23 1014 53 10000 13.9 190 14:36 31.12.2019
5246 Clear 23 1014 53 10000 13.9 190 14:18 31.12.2019
5247 Clear 24 1014 53 10000 12.3 190 13:54 31.12.2019
5248 Clear 24 1014 53 10000 12.3 190 13:36 31.12.2019
5249 Clear 24 1014 53 10000 12.3 190 13:18 31.12.2019
5250 Clouds 24 1014 50 10000 10.8 190 12:40 31.12.2019
5251 Clouds 24 1014 50 10000 10.8 190 12:40 31.12.2019
5252 Clouds 24 1014 50 10000 10.8 190 12:20 31.12.2019
5253 Clouds 24 1014 50 10000 9.3 190 11:57 31.12.2019
5254 Clouds 24 1014 50 10000 9.3 190 11:39 31.12.2019
5255 Clouds 24 1014 50 10000 9.3 190 11:20 31.12.2019
5256 Clouds 24 1014 50 10000 7.7 190 10:58 31.12.2019
5257 Clouds 25 1014 50 10000 7.7 190 10:38 31.12.2019
5258 Clouds 25 1014 50 10000 7.7 190 10:20 31.12.2019
5259 Clouds 24 1014 53 10000 8.7 180 09:59 31.12.2019
5260 Clouds 24 1014 53 10000 8.7 180 09:40 31.12.2019
5261 Clouds 24 1014 53 10000 8.7 180 09:21 31.12.2019
5262 Clouds 22 1014 56 10000 8.7 190 08:58 31.12.2019
5263 Clouds 22 1014 56 10000 8.7 190 08:39 31.12.2019
5264 Clouds 22 1014 56 10000 8.7 190 08:20 31.12.2019
5265 Clouds 21 1014 60 10000 7.7 190 07:43 31.12.2019
5266 Clouds 20 1014 60 10000 7.7 190 07:22 31.12.2019
5267 Clouds 20 1014 63 10000 8.2 170 06:50 31.12.2019
5268 Clouds 19 1014 68 10000 9.3 170 05:59 31.12.2019
5269 Clouds 18 1014 72 10000 9.3 190 04:30 31.12.2019
5270 Clear 18 1014 68 10000 8.7 180 03:59 31.12.2019
5271 Clear 18 1014 68 10000 8.7 190 02:56 31.12.2019
5272 Clouds 18 1014 68 10000 8.7 190 02:19 31.12.2019
5273 Clouds 18 1015 68 10000 10.3 180 01:48 31.12.2019
5274 Clouds 18 1015 68 10000 10.3 180 01:48 31.12.2019
5275 Clouds 18 1015 68 10000 10.3 180 01:28 31.12.2019
5276 Clouds 18 1015 72 10000 8.7 180 00:47 31.12.2019
5277 Clouds 18 1015 72 10000 8.7 180 00:23 31.12.2019
5278 Clouds 18 1015 72 10000 8.7 180 00:23 31.12.2019
5279 Clouds 18 1015 77 10000 10.3 190 23:58 30.12.2019
5280 Clouds 18 1015 77 10000 10.3 190 23:38 30.12.2019
5281 Clouds 18 1015 77 10000 10.3 190 23:20 30.12.2019
5282 Clouds 18 1015 77 10000 10.8 180 22:58 30.12.2019
5283 Clouds 18 1015 77 10000 10.8 180 22:40 30.12.2019
5284 Clouds 18 1015 77 10000 10.8 180 22:20 30.12.2019
5285 Clouds 18 1015 77 10000 10.8 180 22:20 30.12.2019
5286 Clouds 18 1015 77 10000 10.3 170 21:57 30.12.2019
5287 Clouds 18 1015 77 10000 10.3 170 21:39 30.12.2019
5288 Clouds 18 1015 77 10000 10.3 170 21:39 30.12.2019
5289 Clouds 18 1015 77 10000 10.3 170 21:19 30.12.2019
5290 Clouds 18 1015 77 10000 11.3 170 20:58 30.12.2019
5291 Clouds 18 1015 77 10000 11.3 170 20:40 30.12.2019
5292 Clouds 18 1015 77 10000 11.3 170 20:20 30.12.2019
5293 Clouds 19 1015 77 10000 11.8 170 19:58 30.12.2019
5294 Clouds 19 1015 77 10000 11.8 170 19:38 30.12.2019
5295 Clouds 18 1015 77 10000 11.8 170 19:19 30.12.2019
5296 Clouds 19 1014 68 10000 12.9 180 18:58 30.12.2019
5297 Clouds 20 1014 68 10000 12.9 180 18:40 30.12.2019
5298 Clouds 20 1014 68 10000 12.9 180 18:20 30.12.2019
5299 Clouds 21 1014 60 10000 13.4 170 17:56 30.12.2019
5300 Clouds 21 1014 60 10000 13.4 170 17:56 30.12.2019
5301 Clouds 21 1014 60 10000 13.4 170 17:38 30.12.2019
5302 Clouds 21 1014 60 10000 13.4 170 17:19 30.12.2019
5303 Clouds 21 1014 60 10000 12.9 180 16:58 30.12.2019
5304 Clouds 21 1014 60 10000 12.9 180 16:37 30.12.2019
5305 Clouds 21 1014 60 10000 12.9 180 16:19 30.12.2019
5306 Clouds 22 1014 60 10000 14.4 180 15:56 30.12.2019
5307 Clouds 23 1014 60 10000 14.4 180 15:37 30.12.2019
5308 Clouds 23 1014 60 10000 14.4 180 15:18 30.12.2019
5309 Clouds 23 1013 60 10000 14.4 180 14:43 30.12.2019
5310 Clouds 23 1013 60 10000 14.4 180 14:43 30.12.2019
5311 Clouds 23 1013 60 10000 14.4 180 14:20 30.12.2019
5312 Clouds 23 1013 60 10000 13.4 180 13:58 30.12.2019
5313 Clouds 23 1013 60 10000 13.4 180 13:40 30.12.2019
5314 Clouds 24 1013 60 10000 13.4 180 13:21 30.12.2019
5315 Clouds 24 1013 60 10000 13.4 180 12:56 30.12.2019
5316 Clouds 23 1013 60 10000 13.4 180 12:37 30.12.2019
5317 Clouds 24 1013 60 10000 13.4 180 12:18 30.12.2019
5318 Clouds 23 1013 64 10000 12.9 180 11:42 30.12.2019
5319 Clouds 24 1013 64 10000 12.9 180 11:20 30.12.2019
5320 Clouds 24 1013 68 10000 12.9 170 10:58 30.12.2019
5321 Clouds 24 1013 68 10000 12.9 170 10:40 30.12.2019
5322 Clouds 24 1013 68 10000 12.9 170 10:18 30.12.2019
5323 Clouds 23 1012 68 10000 10.3 180 09:42 30.12.2019
5324 Clouds 23 1012 68 10000 10.3 180 09:20 30.12.2019
5325 Clouds 23 1012 68 10000 9.3 180 08:56 30.12.2019
5326 Clouds 23 1012 68 10000 9.3 180 08:37 30.12.2019
5327 Clear 22 1012 68 10000 9.3 180 08:18 30.12.2019
5328 Clouds 22 1011 64 10000 7.7 170 07:42 30.12.2019
5329 Clouds 21 1010 72 10000 6.7 180 06:59 30.12.2019
5330 Clouds 20 1010 72 10000 6.7 180 06:24 30.12.2019
5331 Clear 19 1009 77 10000 6.2 200 04:23 30.12.2019
5332 Clear 19 1009 77 10000 8.2 190 03:42 30.12.2019
5333 Clear 19 1009 77 10000 7.7 170 02:41 30.12.2019
5334 Clear 19 1009 77 10000 7.7 170 02:20 30.12.2019
5335 Clear 19 1009 77 10000 7.2 170 01:26 30.12.2019
5336 Clear 20 1010 72 10000 8.2 160 00:47 30.12.2019
5337 Clear 20 1010 72 10000 8.2 160 00:26 30.12.2019
5338 Clear 20 1010 72 10000 9.3 180 23:40 29.12.2019
5339 Clear 20 1010 72 10000 9.3 180 23:22 29.12.2019
5340 Clear 20 1010 68 10000 8.7 170 22:57 29.12.2019
5341 Clear 20 1010 68 10000 8.7 170 22:38 29.12.2019
5342 Clear 20 1010 68 10000 8.7 170 22:38 29.12.2019
5343 Clear 20 1010 68 10000 8.7 170 22:20 29.12.2019
5344 Clear 20 1009 64 10000 8.2 190 21:54 29.12.2019
5345 Clear 20 1009 64 10000 8.2 190 21:36 29.12.2019
5346 Clear 20 1009 64 10000 8.2 190 21:18 29.12.2019
5347 Clear 20 1009 64 10000 7.7 190 20:54 29.12.2019
5348 Clear 20 1009 64 10000 7.7 190 20:36 29.12.2019
5349 Clear 20 1009 64 10000 7.7 190 20:18 29.12.2019
5350 Clouds 20 1010 68 10000 7.2 200 19:40 29.12.2019
5351 Clouds 21 1010 68 10000 7.2 200 19:22 29.12.2019
5352 Clear 21 1009 64 10000 8.2 190 18:59 29.12.2019
5353 Clear 21 1009 64 10000 8.2 190 18:59 29.12.2019
5354 Clear 22 1009 64 10000 8.2 190 18:40 29.12.2019
5355 Clear 22 1009 64 10000 8.2 190 18:21 29.12.2019
5356 Clear 22 1009 53 10000 7.7 200 17:58 29.12.2019
5357 Clear 23 1009 53 10000 7.7 200 17:39 29.12.2019
5358 Clear 23 1009 53 10000 7.7 200 17:20 29.12.2019
5359 Clear 24 1009 47 10000 8.7 200 16:58 29.12.2019
5360 Clear 24 1009 47 10000 8.7 200 16:40 29.12.2019
5361 Clear 24 1009 47 10000 8.7 200 16:40 29.12.2019
5362 Clear 25 1009 47 10000 8.7 200 16:21 29.12.2019
5363 Clear 26 1010 47 10000 8.7 200 15:59 29.12.2019
5364 Clear 27 1010 47 10000 8.7 200 15:40 29.12.2019
5365 Clear 27 1010 47 10000 8.7 200 15:20 29.12.2019
5366 Clear 27 1010 44 10000 8.2 190 15:00 29.12.2019
5367 Clear 28 1010 44 10000 8.2 190 14:41 29.12.2019
5368 Clear 28 1010 44 10000 8.2 190 14:19 29.12.2019
5369 Clear 27 1010 44 10000 8.2 200 13:59 29.12.2019
5370 Clear 27 1010 44 10000 8.2 200 13:40 29.12.2019
5371 Clear 27 1010 44 10000 8.2 200 13:22 29.12.2019
5372 Clear 27 1010 44 10000 8.2 200 13:22 29.12.2019
5373 Clear 28 1010 42 10000 6.7 190 12:57 29.12.2019
5374 Clear 30 1010 42 10000 6.7 190 12:38 29.12.2019
5375 Clear 30 1010 42 10000 6.7 190 12:20 29.12.2019
5376 Clear 29 1010 42 10000 7.7 200 11:41 29.12.2019
5377 Clear 28 1010 42 10000 7.7 200 11:22 29.12.2019
5378 Clear 28 1010 34 10000 2.1 220 10:57 29.12.2019
5379 Clear 27 1010 34 10000 2.1 220 10:39 29.12.2019
5380 Clear 27 1010 34 10000 2.1 220 10:18 29.12.2019
5381 Clear 26 1010 36 10000 1.5 0 09:46 29.12.2019
5382 Clear 25 1010 36 10000 1.5 0 09:28 29.12.2019
5383 Clear 23 1010 49 10000 1.5 0 08:56 29.12.2019
5384 Clear 24 1010 49 10000 1.5 0 08:38 29.12.2019
5385 Clear 22 1010 49 10000 1.5 0 08:20 29.12.2019
5386 Clear 22 1010 53 10000 1 0 07:44 29.12.2019
5387 Clear 22 1010 53 10000 1 0 07:25 29.12.2019
5388 Clouds 21 1010 60 10000 2.1 240 06:38 29.12.2019
5389 Clouds 20 1009 72 10000 2.1 270 06:18 29.12.2019
5390 Clear 19 1007 73 0 4.39 144 05:44 29.12.2019
5391 Clear 18 1008 72 10000 6.2 170 04:32 29.12.2019
5392 Clear 18 1008 72 10000 3.1 180 03:35 29.12.2019
5393 Clear 19 1009 68 10000 6.7 150 02:30 29.12.2019
5394 Clear 19 1009 68 10000 9.3 150 01:52 29.12.2019
5395 Clouds 19 1009 68 10000 9.3 150 01:29 29.12.2019
5396 Clouds 19 1009 68 10000 8.7 150 00:45 29.12.2019
5397 Clouds 19 1010 68 10000 8.2 150 00:25 29.12.2019
5398 Clouds 19 1010 68 10000 8.2 150 00:25 29.12.2019
5399 Clouds 19 1010 68 10000 8.2 150 23:55 28.12.2019
5400 Clouds 19 1010 68 10000 8.2 150 23:37 28.12.2019
5401 Clear 19 1010 68 10000 8.2 150 23:18 28.12.2019
5402 Clear 19 1010 68 10000 10.3 160 22:37 28.12.2019
5403 Clear 19 1010 68 10000 10.3 160 22:18 28.12.2019
5404 Clear 20 1010 60 10000 9.8 150 21:56 28.12.2019
5405 Clear 20 1010 60 10000 9.8 150 21:37 28.12.2019
5406 Clear 20 1010 60 10000 9.8 150 21:19 28.12.2019
5407 Clear 20 1010 60 10000 9.8 150 20:54 28.12.2019
5408 Clear 20 1010 60 10000 9.8 150 20:54 28.12.2019
5409 Clear 20 1010 60 10000 9.8 150 20:36 28.12.2019
5410 Clear 21 1010 60 10000 9.8 150 20:18 28.12.2019
5411 Clear 21 1010 53 10000 8.2 150 19:43 28.12.2019
5412 Clear 22 1010 53 10000 8.2 150 19:24 28.12.2019
5413 Clear 22 1009 44 10000 8.2 140 18:59 28.12.2019
5414 Clear 22 1009 44 10000 8.2 140 18:41 28.12.2019
5415 Clear 24 1009 44 10000 8.2 140 18:20 28.12.2019
5416 Clear 24 1009 39 10000 10.3 160 17:59 28.12.2019
5417 Clear 25 1009 39 10000 10.3 160 17:39 28.12.2019
5418 Clear 25 1009 39 10000 10.3 160 17:21 28.12.2019
5419 Clear 25 1010 44 10000 9.8 180 16:50 28.12.2019
5420 Clear 25 1010 44 10000 9.8 180 16:27 28.12.2019
5421 Clear 26 1010 39 10000 8.2 200 15:58 28.12.2019
5422 Clear 27 1010 39 10000 8.2 200 15:39 28.12.2019
5423 Clear 28 1010 39 10000 8.2 200 15:21 28.12.2019
5424 Clear 28 1010 39 10000 8.2 200 15:21 28.12.2019
5425 Clear 29 1011 34 10000 6.7 220 14:47 28.12.2019
5426 Clear 28 1011 34 10000 6.7 220 14:25 28.12.2019
5427 Clear 28 1011 30 10000 6.7 190 13:58 28.12.2019
5428 Clear 30 1011 30 10000 6.7 190 13:39 28.12.2019
5429 Clear 29 1011 30 10000 6.7 190 13:20 28.12.2019
5430 Clear 29 1011 30 10000 6.7 190 13:20 28.12.2019
5431 Clear 29 1012 32 10000 8.2 170 12:56 28.12.2019
5432 Clear 29 1012 32 10000 8.2 170 12:37 28.12.2019
5433 Clear 29 1012 32 10000 8.2 170 12:19 28.12.2019
5434 Clear 28 1013 34 10000 8.2 170 11:40 28.12.2019
5435 Clear 28 1013 34 10000 8.2 170 11:21 28.12.2019
5436 Clear 27 1013 38 10000 9.3 160 10:55 28.12.2019
5437 Clear 27 1013 38 10000 9.3 160 10:36 28.12.2019
5438 Clear 26 1013 38 10000 9.3 160 10:18 28.12.2019
5439 Clear 25 1013 38 10000 9.8 160 09:45 28.12.2019
5440 Clear 24 1013 43 10000 9.8 170 09:23 28.12.2019
5441 Clear 23 1013 43 10000 7.2 140 08:57 28.12.2019
5442 Clear 23 1013 52 10000 7.2 170 08:38 28.12.2019
5443 Clear 21 1013 52 10000 7.2 170 08:19 28.12.2019
5444 Clear 19 1014 55 10000 3.6 170 07:41 28.12.2019
5445 Clear 19 1014 67 10000 1 0 06:59 28.12.2019
5446 Clear 16 1009 28 0 2.98 142 05:43 28.12.2019
5447 Clear 14 1014 81 10000 0.5 0 03:48 28.12.2019
5448 Clear 15 1015 76 10000 1.5 170 02:50 28.12.2019
5449 Clear 15 1015 76 10000 1.5 170 02:20 28.12.2019
5450 Clear 15 1015 72 10000 3.6 190 01:53 28.12.2019
5451 Clear 16 1015 72 10000 3.6 190 01:22 28.12.2019
5452 Clear 16 1016 67 10000 3.1 170 00:44 28.12.2019
5453 Clear 16 1016 67 10000 3.1 170 00:26 28.12.2019
5454 Clear 16 1017 67 10000 3.1 170 23:56 27.12.2019
5455 Clear 17 1017 67 10000 3.1 170 23:36 27.12.2019
5456 Clear 17 1017 67 10000 3.1 170 23:18 27.12.2019
5457 Clear 17 1018 63 10000 4.6 170 22:55 27.12.2019
5458 Clear 17 1018 63 10000 4.6 170 22:37 27.12.2019
5459 Clear 17 1018 63 10000 4.6 170 22:19 27.12.2019
5460 Clear 17 1018 59 10000 7.2 150 21:41 27.12.2019
5461 Clear 17 1018 59 10000 7.2 150 21:23 27.12.2019
5462 Clouds 18 1019 59 10000 10.3 160 20:44 27.12.2019
5463 Clouds 18 1019 59 10000 10.3 160 20:26 27.12.2019
5464 Clouds 18 1019 52 10000 10.3 160 19:58 27.12.2019
5465 Clouds 19 1019 52 10000 10.3 160 19:40 27.12.2019
5466 Clouds 19 1019 52 10000 10.3 160 19:19 27.12.2019
5467 Clouds 19 1020 49 10000 10.3 160 18:55 27.12.2019
5468 Clouds 20 1020 49 10000 10.3 160 18:36 27.12.2019
5469 Clouds 20 1020 52 10000 10.8 170 18:18 27.12.2019
5470 Clouds 20 1020 52 10000 12.9 170 17:55 27.12.2019
5471 Clouds 20 1020 52 10000 12.9 170 17:36 27.12.2019
5472 Clouds 20 1020 52 10000 12.9 170 17:18 27.12.2019
5473 Clouds 21 1020 49 10000 12.9 160 16:41 27.12.2019
5474 Clouds 21 1020 49 10000 12.9 160 16:22 27.12.2019
5475 Clouds 21 1021 46 10000 14.4 170 15:57 27.12.2019
5476 Clouds 21 1021 46 10000 14.4 170 15:37 27.12.2019
5477 Clouds 21 1021 46 10000 14.4 170 15:19 27.12.2019
5478 Clouds 22 1022 46 10000 12.9 170 14:55 27.12.2019
5479 Clouds 22 1022 46 10000 12.9 170 14:37 27.12.2019
5480 Clouds 23 1022 46 10000 12.9 170 14:19 27.12.2019
5481 Clouds 23 1022 46 10000 12.9 170 14:19 27.12.2019
5482 Clouds 22 1022 49 10000 12.9 170 13:46 27.12.2019
5483 Clouds 22 1022 49 10000 12.9 170 13:23 27.12.2019
5484 Clouds 22 1022 46 10000 11.8 170 12:49 27.12.2019
5485 Clouds 22 1022 46 10000 11.8 170 12:29 27.12.2019
5486 Clouds 23 1023 40 10000 10.3 180 11:59 27.12.2019
5487 Clouds 23 1023 40 10000 10.3 180 11:41 27.12.2019
5488 Clouds 22 1023 40 10000 9.3 180 11:20 27.12.2019
5489 Clouds 22 1023 40 10000 7.7 160 10:47 27.12.2019
5490 Clouds 22 1023 40 10000 7.7 160 10:24 27.12.2019
5491 Clouds 21 1024 45 10000 7.7 160 09:58 27.12.2019
5492 Clouds 21 1024 45 10000 7.7 160 09:39 27.12.2019
5493 Clouds 20 1024 45 10000 7.7 160 09:21 27.12.2019
5494 Clouds 20 1024 52 10000 6.2 130 08:49 27.12.2019
5495 Clouds 20 1024 52 10000 6.2 130 08:30 27.12.2019
5496 Clouds 19 1024 67 10000 3.1 130 07:48 27.12.2019
5497 Clouds 18 1024 67 10000 3.1 130 07:25 27.12.2019
5498 Clouds 15 1024 87 10000 1.5 0 06:33 27.12.2019
5499 Rain 13 1022 93 10000 1 0 04:51 27.12.2019
5500 Rain 14 1022 87 10000 3.1 50 02:35 27.12.2019
5501 Clouds 14 1022 76 10000 1.5 0 01:56 27.12.2019
5502 Clouds 14 1022 76 10000 1.5 0 01:23 27.12.2019
5503 Clouds 14 1022 71 10000 1.5 80 00:53 27.12.2019
5504 Clouds 14 1022 71 10000 1.5 80 00:34 27.12.2019
5505 Clouds 15 1021 71 10000 0.5 0 23:59 26.12.2019
5506 Clouds 15 1021 71 10000 0.5 0 23:40 26.12.2019
5507 Clouds 15 1021 71 10000 0.5 0 23:21 26.12.2019
5508 Clouds 15 1021 59 10000 1.5 0 22:43 26.12.2019
5509 Clouds 16 1021 59 10000 1.5 0 22:21 26.12.2019
5510 Clouds 16 1020 58 10000 2.1 310 21:56 26.12.2019
5511 Clouds 16 1020 58 10000 2.1 310 21:37 26.12.2019
5512 Clouds 15 1020 58 10000 2.1 310 21:19 26.12.2019
5513 Clouds 15 1019 54 10000 2.6 280 20:45 26.12.2019
5514 Clouds 15 1019 54 10000 2.6 280 20:22 26.12.2019
5515 Clouds 16 1018 51 10000 6.2 250 19:58 26.12.2019
5516 Clouds 16 1018 51 10000 6.2 250 19:39 26.12.2019
5517 Clouds 16 1018 51 10000 6.2 250 19:20 26.12.2019
5518 Clouds 16 1017 44 10000 5.7 260 18:57 26.12.2019
5519 Clouds 17 1017 44 10000 5.7 260 18:38 26.12.2019
5520 Clouds 17 1017 44 10000 5.7 260 18:19 26.12.2019
5521 Clouds 17 1016 45 10000 6.7 260 17:43 26.12.2019
5522 Clouds 17 1016 45 10000 6.7 260 17:22 26.12.2019
5523 Clouds 18 1016 45 10000 7.7 270 16:58 26.12.2019
5524 Clouds 18 1016 45 10000 7.7 270 16:40 26.12.2019
5525 Clouds 18 1016 45 10000 7.7 270 16:21 26.12.2019
5526 Clouds 17 1015 59 10000 6.2 270 15:41 26.12.2019
5527 -273 0 0 0 0 0 15:22 26.12.2019
5528 Rain 17 1015 72 10000 6.2 250 14:59 26.12.2019
5529 Rain 17 1015 72 10000 6.2 250 14:39 26.12.2019
5530 Rain 18 1015 55 10000 6.7 270 14:20 26.12.2019
5531 Clouds 18 1014 63 10000 6.2 250 13:43 26.12.2019
5532 Clouds 17 1014 63 10000 6.2 250 13:21 26.12.2019
5533 Clouds 17 1014 63 10000 10.3 290 12:58 26.12.2019
5534 Clouds 18 1014 63 10000 10.3 290 12:38 26.12.2019
5535 Clouds 18 1014 63 10000 10.3 290 12:19 26.12.2019
5536 Clouds 18 1013 87 10000 7.2 330 11:57 26.12.2019
5537 Clouds 17 1013 87 10000 7.2 330 11:38 26.12.2019
5538 Clouds 17 1013 87 10000 7.2 330 11:20 26.12.2019
5539 Clouds 15 1013 93 10000 5.7 340 10:42 26.12.2019
5540 Clouds 15 1013 93 10000 5.7 340 10:19 26.12.2019
5541 Rain 16 1012 87 10000 8.2 330 09:50 26.12.2019
5542 Rain 16 1012 87 10000 8.2 330 09:31 26.12.2019
5543 Clouds 16 1012 82 10000 5.7 330 08:43 26.12.2019
5544 Clouds 16 1012 82 10000 5.7 330 08:25 26.12.2019
5545 Clouds 15 1012 93 10000 6.7 360 07:53 26.12.2019
5546 Clouds 15 1012 93 10000 6.7 360 07:28 26.12.2019
5547 Clouds 15 1012 93 10000 4.6 350 06:54 26.12.2019
5548 Clouds 15 1012 93 10000 4.6 350 06:32 26.12.2019
5549 Rain 15 1012 87 10000 6.7 310 05:45 26.12.2019
5550 Rain 16 1011 77 10000 7.2 350 04:59 26.12.2019
5551 Rain 16 1011 77 10000 7.2 350 04:30 26.12.2019
5552 Clouds 16 1011 72 10000 5.7 360 02:58 26.12.2019
5553 Clouds 16 1011 72 10000 5.7 360 02:34 26.12.2019
5554 Clouds 16 1012 77 10000 6.2 360 01:51 26.12.2019
5555 Clouds 16 1012 77 10000 6.2 360 01:33 26.12.2019
5556 Clouds 16 1013 77 10000 5.7 350 00:50 26.12.2019
5557 Clouds 16 1013 77 10000 5.7 350 00:27 26.12.2019
5558 Clouds 16 1013 82 10000 4.6 350 23:59 25.12.2019
5559 Clouds 16 1013 82 10000 4.6 350 23:40 25.12.2019
5560 Clouds 16 1013 82 10000 4.6 350 23:21 25.12.2019
5561 Clouds 17 1013 72 10000 4.6 320 22:59 25.12.2019
5562 Clouds 17 1013 72 10000 4.6 320 22:39 25.12.2019
5563 Clouds 17 1013 72 10000 4.6 320 22:21 25.12.2019
5564 Clouds 17 1013 72 10000 4.1 310 21:59 25.12.2019
5565 Clouds 17 1013 72 10000 4.1 310 21:39 25.12.2019
5566 Clouds 17 1013 72 10000 4.1 310 21:20 25.12.2019
5567 Clouds 17 1012 72 10000 4.6 320 20:56 25.12.2019
5568 Clouds 17 1012 72 10000 4.6 320 20:38 25.12.2019
5569 Clouds 17 1012 72 10000 4.6 320 20:38 25.12.2019
5570 Clouds 17 1012 72 10000 4.6 320 20:18 25.12.2019
5571 Clouds 17 1012 72 10000 4.6 320 20:18 25.12.2019
5572 Clouds 18 1013 63 10000 5.7 310 19:43 25.12.2019
5573 Clouds 18 1013 63 10000 5.7 310 19:24 25.12.2019
5574 Clouds 18 1012 63 10000 6.2 310 18:58 25.12.2019
5575 Clouds 18 1012 63 10000 6.2 310 18:37 25.12.2019
5576 Clouds 18 1012 63 10000 6.2 310 18:18 25.12.2019
5577 Clouds 18 1012 68 10000 6.7 300 17:41 25.12.2019
5578 Clouds 19 1012 68 10000 6.7 300 17:19 25.12.2019
5579 Clouds 19 1012 68 10000 6.2 300 16:58 25.12.2019
5580 Clouds 19 1012 68 10000 6.2 300 16:37 25.12.2019
5581 Clouds 19 1012 68 10000 6.2 300 16:18 25.12.2019
5582 Rain 19 1012 68 10000 8.7 290 15:57 25.12.2019
5583 Rain 19 1012 68 10000 8.7 290 15:39 25.12.2019
5584 Rain 19 1012 68 10000 8.7 290 15:20 25.12.2019
5585 Clouds 21 1012 46 10000 9.8 300 14:57 25.12.2019
5586 Clouds 21 1012 46 10000 9.8 300 14:39 25.12.2019
5587 Clouds 21 1012 46 10000 9.8 300 14:20 25.12.2019
5588 Clouds 20 1013 45 10000 9.3 300 13:45 25.12.2019
5589 Clouds 20 1013 45 10000 9.3 300 13:21 25.12.2019
5590 Clouds 20 1013 59 10000 6.2 300 12:57 25.12.2019
5591 Clouds 20 1013 59 10000 6.2 300 12:38 25.12.2019
5592 Clouds 19 1013 59 10000 6.2 300 12:20 25.12.2019
5593 Clouds 19 1013 48 10000 9.3 310 11:43 25.12.2019
5594 Clouds 19 1013 48 10000 9.3 310 11:23 25.12.2019
5595 Clouds 20 1013 45 10000 9.3 300 10:59 25.12.2019
5596 Clouds 21 1013 45 10000 9.3 300 10:37 25.12.2019
5597 Clouds 20 1013 45 10000 9.3 300 10:19 25.12.2019
5598 Clouds 21 1013 43 10000 8.7 320 09:45 25.12.2019
5599 Clouds 20 1013 43 10000 8.7 320 09:27 25.12.2019
5600 Clouds 20 1013 49 10000 8.2 330 08:47 25.12.2019
5601 Clouds 19 1013 49 10000 8.2 330 08:28 25.12.2019
5602 Clouds 19 1013 59 10000 6.2 340 07:48 25.12.2019
5603 Clouds 18 1013 59 10000 6.2 340 07:29 25.12.2019
5604 Clouds 17 1013 82 10000 4.1 350 06:49 25.12.2019
5605 Clouds 16 1013 82 10000 4.1 350 06:22 25.12.2019
5606 Clouds 14 1012 87 10000 3.6 20 05:18 25.12.2019
5607 Clouds 14 1012 93 10000 2.6 360 04:38 25.12.2019
5608 Clouds 14 1012 87 10000 3.1 330 03:58 25.12.2019
5609 Clouds 14 1012 87 10000 3.1 330 03:40 25.12.2019
5610 Clouds 15 1012 82 10000 2.1 350 02:39 25.12.2019
5611 Clouds 15 1013 82 10000 2.1 310 01:59 25.12.2019
5612 Clouds 15 1013 82 10000 2.1 310 01:25 25.12.2019
5613 Clouds 15 1013 82 10000 1.5 40 00:52 25.12.2019
5614 Clouds 15 1013 82 10000 1.5 40 00:29 25.12.2019
5615 Clouds 16 1020 84 0 1.87 291 23:56 24.12.2019
5616 Clouds 16 1020 83 0 1.87 291 23:38 24.12.2019
5617 Clouds 16 1013 72 10000 1 0 23:20 24.12.2019
5618 Clouds 16 1013 72 10000 1 0 22:40 24.12.2019
5619 Clouds 16 1013 72 10000 1 0 22:21 24.12.2019
5620 Clouds 16 1013 72 10000 2.1 180 21:43 24.12.2019
5621 Clouds 17 1013 72 10000 2.1 180 21:23 24.12.2019
5622 Clouds 17 1013 77 10000 2.6 260 20:55 24.12.2019
5623 Clouds 17 1013 77 10000 2.6 260 20:36 24.12.2019
5624 Clouds 17 1013 77 10000 2.6 260 20:18 24.12.2019
5625 Clouds 18 1013 68 10000 4.6 240 19:43 24.12.2019
5626 Clouds 18 1013 68 10000 4.6 240 19:19 24.12.2019
5627 Clouds 19 1012 64 10000 2.6 250 18:43 24.12.2019
5628 Clouds 19 1012 64 10000 2.6 250 18:24 24.12.2019
5629 Clouds 19 1012 64 10000 4.6 310 17:58 24.12.2019
5630 Clouds 20 1012 64 10000 4.6 310 17:38 24.12.2019
5631 Clouds 20 1012 64 10000 4.6 310 17:20 24.12.2019
5632 Clouds 20 1012 64 10000 3.1 280 16:55 24.12.2019
5633 Clouds 20 1012 64 10000 3.1 280 16:37 24.12.2019
5634 Clouds 19 1012 77 10000 2.6 230 16:19 24.12.2019
5635 Clouds 19 1012 77 10000 2.6 230 16:19 24.12.2019
5636 Clouds 20 1013 72 10000 6.2 310 15:55 24.12.2019
5637 Clouds 20 1013 72 10000 6.2 310 15:36 24.12.2019
5638 Clouds 20 1013 72 10000 6.2 310 15:18 24.12.2019
5639 Clouds 20 1013 68 10000 8.7 310 14:55 24.12.2019
5640 Clouds 21 1013 68 10000 8.7 310 14:36 24.12.2019
5641 Clouds 21 1013 68 10000 8.7 310 14:18 24.12.2019
5642 Clouds 22 1013 53 10000 7.7 310 13:55 24.12.2019
5643 Clouds 22 1013 53 10000 7.7 310 13:37 24.12.2019
5644 Clouds 22 1013 53 10000 7.7 310 13:18 24.12.2019
5645 Clouds 22 1010 84 0 6.37 311 12:55 24.12.2019
5646 Clouds 22 1013 56 10000 8.2 300 12:36 24.12.2019
5647 Clouds 22 1013 56 10000 8.2 300 12:18 24.12.2019
5648 Clouds 23 1013 56 10000 8.2 300 11:54 24.12.2019
5649 Clouds 22 1013 56 10000 8.2 300 11:36 24.12.2019
5650 Clouds 22 1013 56 10000 8.2 300 11:36 24.12.2019
5651 Clouds 22 1013 56 10000 8.2 300 11:18 24.12.2019
5652 Clouds 22 1013 56 10000 7.2 310 10:55 24.12.2019
5653 Clouds 22 1013 56 10000 7.2 310 10:36 24.12.2019
5654 Clouds 22 1013 56 10000 7.2 310 10:18 24.12.2019
5655 Clouds 21 1013 60 10000 7.7 320 09:54 24.12.2019
5656 Clouds 21 1013 60 10000 7.7 320 09:36 24.12.2019
5657 Clouds 21 1013 60 10000 7.7 320 09:18 24.12.2019
5658 Clouds 20 1013 64 10000 7.2 320 08:42 24.12.2019
5659 Clouds 20 1013 64 10000 7.2 320 08:42 24.12.2019
5660 Clouds 20 1013 64 10000 7.2 320 08:19 24.12.2019
5661 Clouds 19 1013 72 10000 8.2 340 07:45 24.12.2019
5662 Clouds 19 1013 72 10000 8.2 340 07:24 24.12.2019
5663 Clouds 19 1013 72 10000 8.2 340 07:24 24.12.2019
5664 Clouds 18 1013 82 10000 4.6 50 06:44 24.12.2019
5665 Clouds 17 1013 82 10000 4.6 50 06:22 24.12.2019
5666 Clouds 16 1012 87 10000 4.1 360 05:57 24.12.2019
5667 Clouds 16 1012 87 10000 4.1 360 05:20 24.12.2019
5668 Clouds 15 1012 87 10000 5.1 360 04:36 24.12.2019
5669 Clear 14 1011 87 10000 3.1 360 03:50 24.12.2019
5670 Clear 14 1011 87 10000 2.6 30 02:59 24.12.2019
5671 Clear 14 1011 87 10000 2.6 30 02:19 24.12.2019
5672 Clear 14 1012 87 10000 2.1 30 01:42 24.12.2019
5673 Clear 14 1012 87 10000 2.1 30 01:20 24.12.2019
5674 Clear 14 1012 87 10000 2.6 40 00:43 24.12.2019
5675 Clear 15 1012 87 10000 2.6 40 00:23 24.12.2019
5676 Clear 15 1013 82 10000 2.6 60 23:55 23.12.2019
5677 Clear 15 1013 82 10000 2.6 60 23:37 23.12.2019
5678 Clear 16 1013 82 10000 2.6 60 23:19 23.12.2019
5679 Clear 16 1013 87 10000 2.1 140 22:54 23.12.2019
5680 Clear 16 1013 87 10000 2.1 140 22:36 23.12.2019
5681 Clear 16 1013 87 10000 2.1 140 22:18 23.12.2019
5682 Clear 17 1012 77 10000 4.1 180 21:55 23.12.2019
5683 Clear 17 1012 77 10000 4.1 180 21:36 23.12.2019
5684 Clear 17 1012 77 10000 4.1 180 21:18 23.12.2019
5685 Clear 17 1012 77 10000 3.1 160 20:56 23.12.2019
5686 Clear 17 1012 77 10000 3.1 160 20:38 23.12.2019
5687 Clear 17 1012 77 10000 3.1 160 20:18 23.12.2019
5688 Clear 18 1012 68 10000 4.6 170 19:54 23.12.2019
5689 Clear 18 1012 68 10000 4.6 170 19:36 23.12.2019
5690 Clear 19 1012 68 10000 4.6 170 19:18 23.12.2019
5691 Clear 19 1012 68 10000 4.6 170 19:18 23.12.2019
5692 Clear 20 1011 64 10000 5.7 170 18:55 23.12.2019
5693 Clear 20 1011 64 10000 5.7 170 18:36 23.12.2019
5694 Clear 20 1011 64 10000 5.7 170 18:18 23.12.2019
5695 Clear 21 1011 60 10000 6.2 180 17:55 23.12.2019
5696 Clear 21 1011 60 10000 6.2 180 17:37 23.12.2019
5697 Clear 21 1011 60 10000 6.2 180 17:18 23.12.2019
5698 Clear 22 1011 60 10000 6.2 180 16:42 23.12.2019
5699 Clear 22 1011 60 10000 6.2 180 16:19 23.12.2019
5700 Clear 22 1011 60 10000 6.2 170 15:59 23.12.2019
5701 Clear 22 1011 60 10000 6.2 170 15:38 23.12.2019
5702 Clear 22 1011 60 10000 6.2 170 15:20 23.12.2019
5703 Clouds 22 1012 64 10000 6.2 160 14:59 23.12.2019
5704 Clouds 23 1012 64 10000 6.2 160 14:39 23.12.2019
5705 Clouds 23 1012 64 10000 6.2 160 14:39 23.12.2019
5706 Clouds 23 1012 64 10000 6.2 160 14:21 23.12.2019
5707 Clouds 24 1012 57 10000 7.2 170 13:58 23.12.2019
5708 Clouds 24 1012 57 10000 7.2 170 13:40 23.12.2019
5709 Clouds 24 1012 57 10000 7.2 170 13:22 23.12.2019
5710 Clouds 23 1012 60 10000 4.6 180 12:56 23.12.2019
5711 Clouds 23 1012 60 10000 4.6 180 12:37 23.12.2019
5712 Clouds 24 1012 60 10000 4.6 180 12:19 23.12.2019
5713 Clouds 23 1013 60 10000 4.6 180 11:44 23.12.2019
5714 Clouds 23 1013 60 10000 4.6 180 11:26 23.12.2019
5715 Clouds 23 1013 60 10000 5.7 170 10:57 23.12.2019
5716 Clouds 23 1013 60 10000 5.7 170 10:57 23.12.2019
5717 Clouds 23 1013 60 10000 5.7 170 10:39 23.12.2019
5718 Clouds 23 1013 60 10000 5.7 170 10:20 23.12.2019
5719 Clouds 23 1013 64 10000 6.2 190 09:59 23.12.2019
5720 Clouds 23 1013 64 10000 6.2 190 09:39 23.12.2019
5721 Clouds 22 1013 64 10000 6.2 190 09:21 23.12.2019
5722 Clouds 21 1014 73 10000 6.7 200 08:56 23.12.2019
5723 Clouds 21 1014 73 10000 6.7 200 08:38 23.12.2019
5724 Clouds 21 1014 73 10000 6.7 200 08:19 23.12.2019
5725 Clouds 20 1013 82 10000 5.7 200 07:43 23.12.2019
5726 Clouds 20 1013 82 10000 5.7 200 07:20 23.12.2019
5727 Clouds 19 1013 88 10000 6.2 220 06:53 23.12.2019
5728 Clouds 19 1013 88 10000 6.2 220 06:25 23.12.2019
5729 Clouds 18 1012 93 10000 5.7 230 05:50 23.12.2019
5730 Clouds 18 1012 93 10000 5.7 230 05:27 23.12.2019
5731 Clouds 17 1012 93 10000 4.1 240 04:31 23.12.2019
5732 Clouds 17 1013 93 10000 5.1 220 03:18 23.12.2019
5733 Clouds 17 1013 93 10000 5.1 220 02:40 23.12.2019
5734 Clouds 18 1013 93 10000 5.1 220 02:18 23.12.2019
5735 Clouds 18 1014 93 10000 4.6 220 01:41 23.12.2019
5736 Clouds 18 1014 93 10000 4.6 220 01:20 23.12.2019
5737 Clouds 18 1014 93 10000 6.2 230 00:43 23.12.2019
5738 Clouds 18 1014 93 10000 6.2 230 00:21 23.12.2019
5739 Clouds 18 1015 88 10000 5.7 210 23:39 22.12.2019
5740 Clouds 18 1015 88 10000 5.7 210 23:21 22.12.2019
5741 Clouds 18 1016 88 10000 5.1 230 22:58 22.12.2019
5742 Clouds 18 1016 88 10000 5.1 230 22:40 22.12.2019
5743 Clouds 19 1016 88 10000 5.1 230 22:19 22.12.2019
5744 Clouds 19 1016 88 10000 7.7 210 21:57 22.12.2019
5745 Clouds 19 1016 88 10000 7.7 210 21:39 22.12.2019
5746 Clouds 19 1016 88 10000 7.7 210 21:21 22.12.2019
5747 Clouds 19 1016 77 10000 8.7 200 20:58 22.12.2019
5748 Clouds 19 1016 77 10000 8.7 200 20:38 22.12.2019
5749 Clouds 19 1016 77 10000 8.7 200 20:18 22.12.2019
5750 Clouds 19 1017 72 10000 9.3 200 19:55 22.12.2019
5751 Clouds 20 1017 72 10000 9.3 200 19:37 22.12.2019
5752 Clouds 19 1017 72 10000 9.3 200 19:19 22.12.2019
5753 Clouds 20 1017 68 10000 10.3 190 18:40 22.12.2019
5754 Clouds 21 1017 68 10000 10.3 190 18:22 22.12.2019
5755 Clouds 21 1017 64 10000 10.8 190 17:55 22.12.2019
5756 Clouds 21 1017 64 10000 10.8 190 17:37 22.12.2019
5757 Clouds 21 1017 64 10000 10.8 190 17:18 22.12.2019
5758 Clouds 22 1018 56 10000 10.3 190 16:57 22.12.2019
5759 Clouds 23 1018 56 10000 10.3 190 16:38 22.12.2019
5760 Clouds 23 1018 56 10000 10.3 190 16:19 22.12.2019
5761 Clouds 24 1018 53 10000 10.3 190 15:56 22.12.2019
5762 Clouds 24 1018 53 10000 10.3 190 15:37 22.12.2019
5763 Clouds 24 1018 53 10000 10.3 190 15:19 22.12.2019
5764 Clouds 25 1019 47 10000 8.7 190 14:54 22.12.2019
5765 Clouds 25 1019 47 10000 8.7 190 14:36 22.12.2019
5766 Clouds 25 1019 47 10000 8.7 190 14:18 22.12.2019
5767 Clouds 25 1020 44 10000 6.7 200 13:55 22.12.2019
5768 Clouds 25 1020 44 10000 6.7 200 13:36 22.12.2019
5769 Clouds 25 1020 44 10000 6.7 200 13:18 22.12.2019
5770 Clouds 24 1020 44 10000 6.2 190 12:55 22.12.2019
5771 Clouds 25 1020 44 10000 6.2 190 12:37 22.12.2019
5772 Clouds 25 1020 44 10000 6.2 190 12:18 22.12.2019
5773 Clouds 25 1020 36 10000 2.6 190 11:54 22.12.2019
5774 Clouds 25 1020 36 10000 2.6 190 11:36 22.12.2019
5775 Clear 24 1020 36 10000 2.6 190 11:18 22.12.2019
5776 Clear 24 1020 33 10000 3.6 250 10:54 22.12.2019
5777 Clear 25 1020 33 10000 3.6 250 10:36 22.12.2019
5778 Clear 23 1020 37 10000 2.6 220 10:18 22.12.2019
5779 Clear 22 1020 37 10000 2.6 220 09:40 22.12.2019
5780 Clear 22 1020 37 10000 2.6 220 09:22 22.12.2019
5781 Clear 21 1020 46 10000 3.6 220 08:59 22.12.2019
5782 Clear 21 1020 46 10000 3.6 220 08:38 22.12.2019
5783 Clouds 20 1021 52 10000 3.1 210 08:18 22.12.2019
5784 Clouds 18 1021 55 10000 5.1 240 07:38 22.12.2019
5785 Clouds 18 1021 55 10000 5.1 240 07:20 22.12.2019
5786 Clouds 18 1021 59 10000 5.1 230 06:40 22.12.2019
5787 Clouds 16 1020 72 10000 5.1 190 05:54 22.12.2019
5788 Clear 16 1020 72 10000 5.1 190 05:21 22.12.2019
5789 Clear 15 1021 67 10000 4.6 160 04:29 22.12.2019
5790 Clear 15 1021 63 10000 7.2 180 03:53 22.12.2019
5791 Clear 16 1021 67 10000 6.2 180 02:40 22.12.2019
5792 Clear 16 1021 67 10000 6.2 180 02:40 22.12.2019
5793 Clouds 16 1022 72 10000 4.1 190 01:47 22.12.2019
5794 Clouds 16 1029 75 0 0.89 193 01:28 22.12.2019
5795 Clouds 17 1029 74 0 1.34 222 00:47 22.12.2019
5796 Clouds 16 1021 72 0 1.34 180 00:23 22.12.2019
5797 Clouds 17 1030 71 0 1.34 187 23:56 21.12.2019
5798 Clouds 16 1030 70 0 1.34 186 23:38 21.12.2019
5799 Clouds 17 1024 59 10000 5.7 170 23:19 21.12.2019
5800 Clouds 17 1024 59 10000 5.7 170 22:41 21.12.2019
5801 Clouds 17 1024 59 10000 5.7 170 22:19 21.12.2019
5802 Clouds 17 1023 59 10000 5.1 170 21:57 21.12.2019
5803 Clouds 17 1023 59 10000 5.1 170 21:38 21.12.2019
5804 Clouds 17 1023 59 10000 5.1 170 21:19 21.12.2019
5805 Clouds 17 1023 59 10000 6.7 180 20:59 21.12.2019
5806 Clouds 17 1023 59 10000 6.7 180 20:39 21.12.2019
5807 Clouds 17 1023 59 10000 6.7 180 20:21 21.12.2019
5808 Clouds 18 1023 59 10000 7.2 180 19:58 21.12.2019
5809 Clouds 18 1023 59 10000 7.2 180 19:40 21.12.2019
5810 Clouds 18 1023 59 10000 7.2 180 19:19 21.12.2019
5811 Clouds 19 1023 52 10000 8.2 180 18:45 21.12.2019
5812 Clouds 20 1023 52 10000 8.2 180 18:24 21.12.2019
5813 Clouds 20 1022 46 10000 8.2 180 17:57 21.12.2019
5814 Clouds 20 1022 46 10000 8.2 180 17:57 21.12.2019
5815 Clouds 20 1022 46 10000 8.2 180 17:39 21.12.2019
5816 Clouds 21 1022 46 10000 8.2 180 17:21 21.12.2019
5817 Clouds 21 1021 46 10000 7.7 180 16:59 21.12.2019
5818 Clouds 21 1021 46 10000 7.7 180 16:41 21.12.2019
5819 Clouds 21 1021 46 10000 7.7 180 16:19 21.12.2019
5820 Clouds 22 1021 43 10000 8.2 180 15:57 21.12.2019
5821 Clouds 22 1021 43 10000 8.2 180 15:38 21.12.2019
5822 Clouds 22 1021 43 10000 8.2 180 15:38 21.12.2019
5823 Clouds 22 1021 43 10000 8.2 180 15:19 21.12.2019
5824 Clouds 22 1021 46 10000 8.2 180 14:57 21.12.2019
5825 Clouds 22 1021 46 10000 8.2 180 14:38 21.12.2019
5826 Clouds 22 1021 46 10000 8.2 180 14:18 21.12.2019
5827 Clouds 22 1021 46 10000 7.7 180 13:55 21.12.2019
5828 Clouds 22 1021 46 10000 7.7 180 13:37 21.12.2019
5829 Clouds 22 1021 46 10000 7.7 180 13:18 21.12.2019
5830 Clouds 22 1020 46 10000 7.2 190 12:54 21.12.2019
5831 Clouds 22 1020 46 10000 7.2 190 12:36 21.12.2019
5832 Clouds 22 1020 46 10000 7.2 190 12:18 21.12.2019
5833 Clouds 22 1020 49 10000 6.7 200 11:42 21.12.2019
5834 Clouds 22 1020 49 10000 6.7 200 11:24 21.12.2019
5835 Clouds 21 1020 46 10000 4.1 240 10:56 21.12.2019
5836 Clouds 21 1020 46 10000 4.1 240 10:37 21.12.2019
5837 Clouds 21 1020 46 10000 4.1 240 10:19 21.12.2019
5838 Clouds 21 1020 46 10000 4.1 240 10:19 21.12.2019
5839 Clouds 20 1019 56 10000 4.1 250 09:42 21.12.2019
5840 Clouds 20 1019 56 10000 4.1 250 09:21 21.12.2019
5841 Clouds 20 1019 60 10000 4.1 240 08:57 21.12.2019
5842 Clouds 20 1019 60 10000 4.1 240 08:37 21.12.2019
5843 Clouds 19 1019 60 10000 4.1 240 08:19 21.12.2019
5844 Clouds 18 1018 88 10000 2.1 280 07:44 21.12.2019
5845 Clouds 18 1018 88 10000 2.1 280 07:22 21.12.2019
5846 Clouds 17 1018 93 10000 2.6 320 06:44 21.12.2019
5847 Clouds 18 1018 93 10000 2.6 320 06:25 21.12.2019
5848 Clouds 17 1016 100 10000 2.6 320 05:51 21.12.2019
5849 Rain 16 1016 100 10000 1.5 0 04:58 21.12.2019
5850 Rain 17 1015 93 8000 1.5 0 03:57 21.12.2019
5851 Rain 18 1015 88 10000 5.1 300 02:53 21.12.2019
5852 Clouds 19 1015 82 10000 6.2 340 01:59 21.12.2019
5853 Clouds 19 1015 82 10000 6.2 340 01:28 21.12.2019
5854 Clouds 19 1015 82 10000 4.1 360 00:55 21.12.2019
5855 Clouds 19 1015 82 10000 4.1 360 00:37 21.12.2019
5856 Clouds 19 1015 82 10000 4.1 360 00:18 21.12.2019
5857 Clouds 19 1015 82 10000 4.6 330 23:38 20.12.2019
5858 Clouds 19 1015 82 10000 4.6 330 23:19 20.12.2019
5859 Clouds 19 1015 82 10000 4.6 330 23:19 20.12.2019
5860 Clouds 20 1016 88 10000 5.1 330 22:43 20.12.2019
5861 Clouds 19 1016 88 10000 5.1 330 22:21 20.12.2019
5862 Clouds 20 1015 77 10000 5.7 320 21:59 20.12.2019
5863 Clouds 20 1015 77 10000 5.7 320 21:40 20.12.2019
5864 Clouds 20 1015 77 10000 5.7 320 21:20 20.12.2019
5865 Clouds 20 1015 77 10000 7.2 320 20:41 20.12.2019
5866 Clouds 20 1015 77 10000 7.2 320 20:22 20.12.2019
5867 Clouds 20 1015 72 10000 6.2 330 19:59 20.12.2019
5868 Clouds 20 1015 72 10000 6.2 330 19:40 20.12.2019
5869 Clouds 20 1015 72 10000 6.2 330 19:20 20.12.2019
5870 Clouds 20 1014 72 10000 6.7 320 18:56 20.12.2019
5871 Clouds 20 1014 72 10000 6.7 320 18:56 20.12.2019
5872 Clouds 20 1014 72 10000 6.7 320 18:56 20.12.2019
5873 Clouds 20 1014 72 10000 6.7 320 18:38 20.12.2019
5874 Clouds 20 1014 72 10000 6.7 320 18:20 20.12.2019
5875 Clouds 21 1013 73 10000 7.2 310 17:54 20.12.2019
5876 Clouds 21 1013 73 10000 7.2 310 17:36 20.12.2019
5877 Clouds 21 1013 73 10000 7.2 310 17:18 20.12.2019
5878 Clouds 22 1013 68 10000 8.2 310 16:40 20.12.2019
5879 Clouds 22 1013 68 10000 9.8 310 16:20 20.12.2019
5880 Clouds 22 1013 68 10000 9.8 310 16:20 20.12.2019
5881 Clouds 23 1013 56 10000 9.8 310 15:57 20.12.2019
5882 Clouds 23 1013 56 10000 9.8 310 15:39 20.12.2019
5883 Clouds 23 1013 56 10000 9.8 310 15:20 20.12.2019
5884 Clouds 23 1013 56 10000 10.8 310 14:59 20.12.2019
5885 Clouds 23 1013 56 10000 10.8 310 14:40 20.12.2019
5886 Clouds 23 1013 56 10000 10.8 310 14:22 20.12.2019
5887 Clouds 24 1013 53 10000 9.8 310 13:55 20.12.2019
5888 Clouds 24 1013 53 10000 9.8 310 13:36 20.12.2019
5889 Clouds 24 1013 53 10000 9.8 310 13:18 20.12.2019
5890 Clouds 24 1014 50 10000 9.8 310 12:41 20.12.2019
5891 Clouds 24 1014 50 10000 9.8 310 12:19 20.12.2019
5892 Clouds 24 1014 53 10000 9.8 320 11:59 20.12.2019
5893 Clouds 24 1014 53 10000 9.8 320 11:40 20.12.2019
5894 Clouds 23 1014 53 10000 9.8 320 11:21 20.12.2019
5895 Clouds 23 1014 53 10000 9.8 330 10:59 20.12.2019
5896 Clouds 23 1014 53 10000 9.8 330 10:41 20.12.2019
5897 Clouds 22 1014 53 10000 9.8 330 10:20 20.12.2019
5898 Clouds 22 1015 68 10000 8.7 330 09:56 20.12.2019
5899 Clouds 21 1015 68 10000 8.7 330 09:38 20.12.2019
5900 Clouds 21 1015 68 10000 8.7 330 09:19 20.12.2019
5901 Clouds 22 1015 73 10000 8.2 350 08:43 20.12.2019
5902 Clouds 20 1015 93 10000 6.2 350 08:25 20.12.2019
5903 Rain 19 1015 88 4000 7.2 350 07:59 20.12.2019
5904 Rain 19 1015 88 4000 7.2 350 07:41 20.12.2019
5905 Clouds 19 1015 82 10000 5.7 10 07:19 20.12.2019
5906 Clouds 19 1014 88 10000 6.7 360 06:52 20.12.2019
5907 Clouds 19 1014 88 10000 6.7 360 06:33 20.12.2019
5908 Clouds 18 1014 82 10000 6.7 340 05:55 20.12.2019
5909 Clouds 18 1014 82 10000 6.7 340 05:36 20.12.2019
5910 Clouds 18 1013 82 10000 6.2 10 04:33 20.12.2019
5911 Clouds 17 1013 93 10000 7.2 350 03:30 20.12.2019
5912 Rain 17 1013 93 7000 8.7 350 02:44 20.12.2019
5913 Clouds 18 1013 82 10000 7.2 360 01:52 20.12.2019
5914 Clouds 18 1013 82 10000 7.2 360 01:33 20.12.2019
5915 Clouds 18 1013 82 10000 5.7 360 00:44 20.12.2019
5916 Clouds 18 1013 82 10000 5.7 360 00:25 20.12.2019
5917 Clouds 19 1014 72 10000 8.7 350 23:44 19.12.2019
5918 Clouds 19 1014 72 10000 8.7 350 23:26 19.12.2019
5919 Clouds 19 1014 77 10000 8.7 350 22:59 19.12.2019
5920 Clouds 19 1014 77 10000 8.7 350 22:37 19.12.2019
5921 Clouds 19 1014 77 10000 8.7 350 22:19 19.12.2019
5922 Clouds 19 1014 77 10000 7.7 340 21:55 19.12.2019
5923 Clouds 19 1014 77 10000 7.7 340 21:37 19.12.2019
5924 Clouds 19 1014 77 10000 7.7 340 21:18 19.12.2019
5925 Clouds 19 1013 77 10000 8.2 340 20:55 19.12.2019
5926 Clouds 19 1013 77 10000 8.2 340 20:36 19.12.2019
5927 Clouds 19 1013 77 10000 8.2 340 20:18 19.12.2019
5928 Clouds 19 1013 77 10000 7.7 340 19:56 19.12.2019
5929 Clouds 19 1013 77 10000 7.7 340 19:37 19.12.2019
5930 Clouds 19 1013 77 10000 7.7 340 19:19 19.12.2019
5931 Clouds 19 1012 77 10000 9.3 330 18:41 19.12.2019
5932 Clouds 19 1012 77 10000 9.3 330 18:23 19.12.2019
5933 Clouds 20 1012 72 10000 10.8 330 17:58 19.12.2019
5934 Clouds 20 1012 72 10000 10.8 330 17:40 19.12.2019
5935 Clouds 20 1012 72 10000 10.8 330 17:19 19.12.2019
5936 Clouds 20 1012 72 10000 10.8 330 17:19 19.12.2019
5937 Clouds 20 1012 68 10000 10.3 320 16:59 19.12.2019
5938 Clouds 20 1012 68 10000 10.3 320 16:41 19.12.2019
5939 Clouds 21 1012 68 10000 10.3 320 16:22 19.12.2019
5940 Clouds 21 1012 68 10000 11.3 320 15:59 19.12.2019
5941 Clouds 21 1012 68 10000 11.3 320 15:40 19.12.2019
5942 Clouds 21 1012 68 10000 11.3 320 15:20 19.12.2019
5943 Clouds 20 1012 72 10000 9.8 320 14:59 19.12.2019
5944 Clouds 20 1012 72 10000 9.8 320 14:41 19.12.2019
5945 Clouds 20 1012 72 10000 9.8 320 14:41 19.12.2019
5946 Clouds 20 1012 64 10000 10.3 320 14:19 19.12.2019
5947 Clouds 21 1011 64 10000 11.8 320 13:57 19.12.2019
5948 Clouds 21 1011 64 10000 11.8 320 13:38 19.12.2019
5949 Clouds 20 1011 64 10000 11.8 320 13:19 19.12.2019
5950 Clouds 20 1012 60 10000 11.8 310 12:55 19.12.2019
5951 Clouds 20 1012 60 10000 11.8 310 12:37 19.12.2019
5952 Clouds 20 1012 64 10000 12.3 320 12:19 19.12.2019
5953 Clouds 20 1012 68 10000 11.8 320 11:57 19.12.2019
5954 Clouds 20 1012 68 10000 11.8 320 11:39 19.12.2019
5955 Clouds 19 1012 68 10000 11.8 320 11:18 19.12.2019
5956 Clouds 19 1012 68 10000 10.8 320 10:55 19.12.2019
5957 Clouds 19 1012 68 10000 10.8 320 10:37 19.12.2019
5958 Clouds 19 1012 68 10000 10.8 320 10:18 19.12.2019
5959 Clouds 19 1012 59 10000 10.3 320 09:40 19.12.2019
5960 Clouds 19 1012 60 10000 9.8 320 09:21 19.12.2019
5961 Clouds 19 1012 68 10000 10.3 340 08:58 19.12.2019
5962 Clouds 19 1012 68 10000 10.3 340 08:40 19.12.2019
5963 Clouds 19 1012 68 10000 10.3 340 08:19 19.12.2019
5964 Clouds 19 1012 72 10000 10.8 350 07:57 19.12.2019
5965 Clouds 18 1012 72 10000 10.8 350 07:38 19.12.2019
5966 Clouds 18 1012 72 10000 10.8 350 07:19 19.12.2019
5967 Clouds 17 1012 77 10000 8.2 350 06:49 19.12.2019
5968 Clouds 17 1012 77 10000 8.2 350 06:29 19.12.2019
5969 Clouds 16 1012 77 10000 6.2 350 05:55 19.12.2019
5970 Clouds 16 1012 77 10000 6.2 350 05:34 19.12.2019
5971 Clouds 16 1012 77 10000 4.6 360 04:52 19.12.2019
5972 Clouds 16 1011 82 10000 4.6 360 03:21 19.12.2019
5973 Clouds 16 1012 77 10000 5.1 350 02:22 19.12.2019
5974 Clouds 16 1012 82 10000 4.6 350 01:22 19.12.2019
5975 Clouds 16 1013 77 10000 4.6 350 00:41 19.12.2019
5976 Clouds 16 1013 77 10000 4.6 350 00:22 19.12.2019
5977 Clouds 16 1014 82 10000 2.6 360 23:57 18.12.2019
5978 Clouds 16 1014 82 10000 2.6 360 23:38 18.12.2019
5979 Clouds 16 1014 82 10000 2.6 360 23:18 18.12.2019
5980 Clouds 16 1014 77 10000 4.1 330 22:55 18.12.2019
5981 Clouds 16 1014 77 10000 4.1 330 22:36 18.12.2019
5982 Clouds 16 1014 77 10000 4.1 330 22:18 18.12.2019
5983 Clouds 17 1013 77 10000 4.6 320 21:56 18.12.2019
5984 Clouds 17 1013 77 10000 4.6 320 21:56 18.12.2019
5985 Clouds 17 1013 77 10000 4.6 320 21:37 18.12.2019
5986 Clouds 17 1013 77 10000 4.6 320 21:19 18.12.2019
5987 Rain 17 1013 72 10000 6.2 320 20:55 18.12.2019
5988 Rain 17 1013 72 10000 6.2 320 20:55 18.12.2019
5989 Rain 17 1013 72 10000 6.2 320 20:37 18.12.2019
5990 Rain 18 1013 72 10000 6.2 320 20:18 18.12.2019
5991 Clouds 17 1013 72 10000 5.7 320 19:55 18.12.2019
5992 Clouds 18 1013 72 10000 5.7 320 19:37 18.12.2019
5993 Clouds 18 1013 72 10000 5.7 320 19:18 18.12.2019
5994 Clouds 18 1013 72 10000 5.7 320 19:18 18.12.2019
5995 Clouds 18 1013 63 10000 6.7 320 18:44 18.12.2019
5996 Clouds 18 1013 63 10000 6.7 320 18:25 18.12.2019
5997 Clouds 18 1013 63 10000 6.7 320 18:25 18.12.2019
5998 Clouds 19 1012 63 10000 6.7 310 17:57 18.12.2019
5999 Clouds 18 1012 63 10000 6.7 310 17:39 18.12.2019
6000 Clouds 19 1012 63 10000 6.7 310 17:19 18.12.2019
6001 Clouds 19 1011 55 10000 8.7 310 16:55 18.12.2019
6002 Clouds 19 1011 55 10000 8.7 310 16:37 18.12.2019
6003 Clouds 20 1011 55 10000 8.7 310 16:18 18.12.2019
6004 Clouds 20 1011 49 10000 9.8 300 15:55 18.12.2019
6005 Clouds 20 1011 49 10000 9.8 300 15:37 18.12.2019
6006 Clouds 20 1011 49 10000 9.8 300 15:18 18.12.2019
6007 Clouds 20 1011 52 10000 10.3 310 14:40 18.12.2019
6008 Clouds 20 1011 52 10000 10.3 310 14:21 18.12.2019
6009 Clouds 21 1010 49 10000 11.3 310 13:57 18.12.2019
6010 Clouds 21 1010 49 10000 11.3 310 13:38 18.12.2019
6011 Clouds 21 1010 49 10000 11.3 310 13:19 18.12.2019
6012 Clouds 21 1010 49 10000 10.8 310 12:57 18.12.2019
6013 Clouds 21 1010 49 10000 10.8 310 12:38 18.12.2019
6014 Clouds 21 1010 49 10000 10.8 310 12:19 18.12.2019
6015 Clouds 20 1010 56 10000 11.3 310 11:55 18.12.2019
6016 Clouds 20 1010 56 10000 11.3 310 11:55 18.12.2019
6017 Clouds 21 1010 56 10000 11.3 310 11:37 18.12.2019
6018 Clouds 20 1010 56 10000 11.3 310 11:19 18.12.2019
6019 Clouds 20 1010 56 10000 10.8 310 10:55 18.12.2019
6020 Clouds 20 1010 56 10000 10.8 310 10:37 18.12.2019
6021 Clouds 20 1010 56 10000 10.8 310 10:19 18.12.2019
6022 Rain 19 1009 68 10000 8.2 300 09:50 18.12.2019
6023 Rain 19 1009 68 10000 8.2 300 09:50 18.12.2019
6024 Rain 19 1009 68 10000 8.2 300 09:18 18.12.2019
6025 Clouds 19 1009 72 10000 6.7 310 08:41 18.12.2019
6026 Clouds 18 1009 72 10000 6.7 310 08:22 18.12.2019
6027 Clouds 18 1009 82 10000 6.7 320 07:43 18.12.2019
6028 Clouds 18 1009 82 10000 6.7 320 07:23 18.12.2019
6029 Clouds 17 1009 87 10000 4.6 310 06:56 18.12.2019
6030 Clouds 17 1009 87 10000 4.6 310 06:27 18.12.2019
6031 Drizzle 16 1009 87 10000 3.6 280 05:54 18.12.2019
6032 Rain 15 1008 82 4000 4.6 350 04:57 18.12.2019
6033 Clouds 16 1006 87 10000 7.2 350 02:55 18.12.2019
6034 Clouds 16 1006 87 10000 7.2 350 02:37 18.12.2019
6035 Clouds 16 1006 87 10000 7.2 350 02:18 18.12.2019
6036 Clouds 17 1007 87 10000 7.7 350 01:41 18.12.2019
6037 Clouds 16 1007 87 10000 7.7 350 01:22 18.12.2019
6038 Clouds 16 1007 87 10000 7.7 350 01:22 18.12.2019
6039 Clouds 16 1007 100 10000 6.7 350 00:41 18.12.2019
6040 Clouds 16 1007 100 10000 6.7 350 00:23 18.12.2019
6041 Clouds 16 1007 93 10000 6.7 350 23:57 17.12.2019
6042 Clouds 16 1007 93 10000 6.7 350 23:39 17.12.2019
6043 Rain 16 1008 93 2000 9.3 320 23:19 17.12.2019
6044 Rain 16 1008 87 3000 9.8 340 22:56 17.12.2019
6045 Rain 16 1008 87 3000 9.8 340 22:38 17.12.2019
6046 Rain 17 1007 82 7000 8.7 350 22:19 17.12.2019
6047 Rain 17 1007 77 4500 10.8 340 21:55 17.12.2019
6048 Rain 17 1007 77 4500 10.8 340 21:55 17.12.2019
6049 Rain 17 1007 77 4500 10.8 340 21:55 17.12.2019
6050 Rain 18 1007 77 4500 10.8 340 21:37 17.12.2019
6051 Rain 18 1007 77 4500 10.8 340 21:37 17.12.2019
6052 Drizzle 19 1007 63 10000 10.3 340 21:19 17.12.2019
6053 Clouds 19 1007 63 10000 9.8 340 20:57 17.12.2019
6054 Clouds 19 1007 63 10000 9.8 340 20:38 17.12.2019
6055 Clouds 19 1007 63 10000 9.8 340 20:18 17.12.2019
6056 Clouds 19 1007 68 10000 8.7 330 19:56 17.12.2019
6057 Clouds 19 1007 68 10000 8.7 330 19:37 17.12.2019
6058 Clouds 19 1007 68 10000 8.7 330 19:18 17.12.2019
6059 Clouds 19 1007 68 10000 8.7 330 19:18 17.12.2019
6060 Clouds 19 1007 68 10000 11.3 320 18:43 17.12.2019
6061 Clouds 19 1007 68 10000 11.3 320 18:43 17.12.2019
6062 Clouds 19 1007 68 10000 11.3 320 18:23 17.12.2019
6063 Clouds 19 1007 68 10000 10.8 330 17:59 17.12.2019
6064 Clouds 19 1007 68 10000 10.8 330 17:41 17.12.2019
6065 Clouds 20 1007 68 10000 10.8 330 17:20 17.12.2019
6066 Clouds 20 1007 64 10000 12.9 310 16:56 17.12.2019
6067 Clouds 20 1007 64 10000 12.9 310 16:38 17.12.2019
6068 Clouds 20 1007 64 10000 12.9 310 16:19 17.12.2019
6069 Clouds 21 1007 64 10000 11.8 300 15:58 17.12.2019
6070 Clouds 21 1007 64 10000 11.8 300 15:37 17.12.2019
6071 Clouds 21 1007 64 10000 11.8 300 15:19 17.12.2019
6072 Clouds 21 1006 64 10000 12.3 300 14:56 17.12.2019
6073 Clouds 21 1006 60 10000 12.3 310 14:37 17.12.2019
6074 Clouds 21 1006 60 10000 12.3 310 14:18 17.12.2019
6075 Clouds 21 1006 60 10000 12.3 310 14:18 17.12.2019
6076 Clouds 21 1006 60 10000 12.3 310 14:18 17.12.2019
6077 Clouds 21 1005 64 10000 13.9 310 13:56 17.12.2019
6078 Clouds 21 1005 64 10000 13.9 310 13:37 17.12.2019
6079 Clouds 21 1005 64 10000 13.9 310 13:18 17.12.2019
6080 Clouds 22 1006 60 10000 11.3 300 12:55 17.12.2019
6081 Clouds 22 1006 60 10000 11.3 300 12:37 17.12.2019
6082 Clouds 22 1006 60 10000 11.3 300 12:18 17.12.2019
6083 Clouds 22 1006 60 10000 9.8 320 11:55 17.12.2019
6084 Clouds 23 1006 60 10000 9.8 320 11:36 17.12.2019
6085 Clear 23 1006 60 10000 9.8 320 11:18 17.12.2019
6086 Clouds 22 1005 64 10000 8.2 330 10:55 17.12.2019
6087 Clouds 22 1005 64 10000 8.2 330 10:36 17.12.2019
6088 Clouds 22 1005 64 10000 8.2 330 10:18 17.12.2019
6089 Clouds 22 1005 77 10000 10.3 310 09:42 17.12.2019
6090 Clouds 22 1005 77 10000 10.3 310 09:21 17.12.2019
6091 Clear 23 1006 64 10000 7.2 320 08:58 17.12.2019
6092 Clear 22 1006 64 10000 7.2 320 08:39 17.12.2019
6093 Clear 22 1006 64 10000 7.2 320 08:21 17.12.2019
6094 Clear 21 1006 68 10000 6.2 340 07:57 17.12.2019
6095 Clear 20 1006 68 10000 6.2 340 07:39 17.12.2019
6096 Clear 20 1006 68 10000 6.2 340 07:19 17.12.2019
6097 Clear 20 1005 77 10000 3.1 10 06:41 17.12.2019
6098 Clear 18 1005 77 10000 3.1 10 06:22 17.12.2019
6099 Clear 18 1005 87 10000 2.6 10 05:40 17.12.2019
6100 Clear 14 1005 93 10000 3.1 320 04:48 17.12.2019
6101 Clear 15 1005 93 10000 2.1 340 03:40 17.12.2019
6102 Clouds 15 1005 93 10000 1.5 20 02:22 17.12.2019
6103 Clouds 16 1006 93 10000 0.5 90 01:21 17.12.2019
6104 Clouds 16 1007 87 10000 0.5 30 00:45 17.12.2019
6105 Clouds 17 1007 87 10000 0.5 30 00:21 17.12.2019
6106 Clouds 18 1008 88 10000 2.1 190 23:44 16.12.2019
6107 Clouds 18 1008 88 10000 2.1 190 23:20 16.12.2019
6108 Clouds 18 1008 82 10000 3.1 200 22:59 16.12.2019
6109 Clouds 18 1008 82 10000 3.1 200 22:39 16.12.2019
6110 Clouds 18 1008 82 10000 3.1 200 22:21 16.12.2019
6111 Clouds 18 1009 82 10000 4.1 210 21:57 16.12.2019
6112 Clouds 18 1009 82 10000 4.1 210 21:57 16.12.2019
6113 Clouds 18 1009 82 10000 4.1 210 21:39 16.12.2019
6114 Clouds 18 1009 82 10000 4.1 210 21:20 16.12.2019
6115 Clouds 18 1010 88 10000 3.6 210 20:58 16.12.2019
6116 Clouds 18 1010 88 10000 3.6 210 20:39 16.12.2019
6117 Clouds 18 1010 88 10000 3.6 210 20:19 16.12.2019
6118 Clouds 19 1011 77 10000 4.6 210 19:57 16.12.2019
6119 Clouds 19 1011 77 10000 4.6 210 19:37 16.12.2019
6120 Clouds 19 1011 77 10000 4.6 210 19:19 16.12.2019
6121 Clouds 20 1011 68 10000 6.7 210 18:59 16.12.2019
6122 Clouds 20 1011 68 10000 6.7 210 18:41 16.12.2019
6123 Clouds 20 1011 68 10000 6.7 210 18:20 16.12.2019
6124 Clouds 22 1011 60 10000 6.7 180 17:59 16.12.2019
6125 Clouds 22 1011 60 10000 6.7 180 17:40 16.12.2019
6126 Clouds 22 1011 60 10000 6.7 180 17:40 16.12.2019
6127 Clear 23 1011 60 10000 6.7 180 17:21 16.12.2019
6128 Clear 24 1012 49 10000 7.2 180 16:58 16.12.2019
6129 Clear 23 1012 49 10000 7.2 180 16:39 16.12.2019
6130 Clear 23 1012 49 10000 7.2 180 16:39 16.12.2019
6131 Clear 24 1012 49 10000 7.2 180 16:20 16.12.2019
6132 Clear 24 1013 44 10000 7.7 210 15:59 16.12.2019
6133 Clear 25 1013 44 10000 7.7 210 15:39 16.12.2019
6134 Clear 25 1013 44 10000 7.7 210 15:21 16.12.2019
6135 Clear 24 1013 41 10000 7.2 190 14:57 16.12.2019
6136 Clear 25 1013 41 10000 7.2 190 14:37 16.12.2019
6137 Clouds 26 1013 41 10000 7.2 190 14:19 16.12.2019
6138 Clouds 25 1014 34 10000 5.7 200 13:57 16.12.2019
6139 Clouds 25 1014 34 10000 5.7 200 13:38 16.12.2019
6140 Clouds 25 1014 34 10000 5.7 200 13:20 16.12.2019
6141 Clear 25 1014 31 10000 4.6 210 12:58 16.12.2019
6142 Clear 25 1014 31 10000 4.6 210 12:39 16.12.2019
6143 Clear 25 1014 31 10000 4.6 210 12:20 16.12.2019
6144 Clouds 25 1015 29 10000 2.6 220 11:59 16.12.2019
6145 Clouds 25 1015 29 10000 2.6 220 11:41 16.12.2019
6146 Clear 26 1015 29 10000 2.6 220 11:21 16.12.2019
6147 Clouds 26 1016 29 10000 2.1 0 10:58 16.12.2019
6148 Clouds 25 1016 29 10000 2.1 0 10:40 16.12.2019
6149 Clouds 25 1016 29 10000 2.1 0 10:20 16.12.2019
6150 Clouds 23 1016 28 10000 1.5 0 09:46 16.12.2019
6151 Clear 21 1017 32 10000 1.5 0 09:28 16.12.2019
6152 Clouds 21 1017 35 10000 1.5 0 08:58 16.12.2019
6153 Clouds 20 1017 42 10000 1.5 0 08:38 16.12.2019
6154 Clouds 19 1017 42 10000 1.5 0 08:18 16.12.2019
6155 Clouds 19 1017 42 10000 1.5 0 08:18 16.12.2019
6156 Clouds 18 1018 55 10000 2.6 170 07:47 16.12.2019
6157 Clouds 17 1018 55 10000 2.6 170 07:29 16.12.2019
6158 Clouds 17 1018 67 10000 3.1 250 06:46 16.12.2019
6159 Clouds 17 1018 67 10000 3.1 250 06:26 16.12.2019
6160 Clouds 15 1018 67 10000 3.1 250 05:54 16.12.2019
6161 Clouds 15 1018 67 10000 3.1 250 05:35 16.12.2019
6162 Clouds 15 1018 62 10000 4.6 170 04:27 16.12.2019
6163 Clouds 15 1020 67 10000 5.1 180 02:49 16.12.2019
6164 Clear 14 1021 76 10000 3.6 180 01:45 16.12.2019
6165 Clear 15 1022 72 10000 4.1 170 00:54 16.12.2019
6166 Clear 15 1022 72 10000 4.1 170 00:36 16.12.2019
6167 Clear 15 1022 72 10000 4.1 170 00:18 16.12.2019
6168 Clear 15 1022 71 10000 4.6 160 23:40 15.12.2019
6169 Clear 15 1022 71 10000 4.6 160 23:21 15.12.2019
6170 Clear 15 1023 62 10000 4.6 190 22:56 15.12.2019
6171 Clear 15 1023 62 10000 4.6 190 22:38 15.12.2019
6172 Clear 15 1023 62 10000 4.6 190 22:18 15.12.2019
6173 Clear 15 1023 62 10000 4.6 180 21:57 15.12.2019
6174 Clear 15 1023 62 10000 4.6 180 21:38 15.12.2019
6175 Clear 15 1023 62 10000 4.6 180 21:19 15.12.2019
6176 Clear 15 1023 58 10000 5.1 190 20:57 15.12.2019
6177 Clear 15 1023 58 10000 5.1 190 20:38 15.12.2019
6178 Clouds 16 1023 58 10000 5.1 190 20:19 15.12.2019
6179 Clouds 16 1023 58 10000 6.7 170 19:57 15.12.2019
6180 Clouds 16 1023 58 10000 6.7 170 19:39 15.12.2019
6181 Clouds 16 1023 58 10000 6.7 170 19:39 15.12.2019
6182 Clouds 16 1023 58 10000 6.7 170 19:18 15.12.2019
6183 Clouds 17 1023 48 10000 7.2 180 18:57 15.12.2019
6184 Clouds 17 1023 48 10000 7.2 180 18:38 15.12.2019
6185 Clouds 18 1023 48 10000 7.2 180 18:18 15.12.2019
6186 Clouds 18 1022 45 10000 7.2 180 17:56 15.12.2019
6187 Clouds 18 1022 45 10000 7.2 180 17:37 15.12.2019
6188 Clouds 18 1022 45 10000 7.2 180 17:19 15.12.2019
6189 Clouds 19 1022 45 10000 5.7 170 16:56 15.12.2019
6190 Clouds 19 1022 45 10000 5.7 170 16:38 15.12.2019
6191 Clouds 19 1022 45 10000 5.7 170 16:20 15.12.2019
6192 Clouds 20 1022 45 10000 6.2 190 15:55 15.12.2019
6193 Clouds 20 1022 45 10000 6.2 190 15:37 15.12.2019
6194 Clouds 20 1022 45 10000 6.2 190 15:18 15.12.2019
6195 Clouds 20 1022 48 10000 6.2 170 14:55 15.12.2019
6196 Clouds 20 1022 48 10000 6.2 170 14:36 15.12.2019
6197 Clouds 20 1022 48 10000 6.2 170 14:18 15.12.2019
6198 Clouds 20 1023 42 10000 6.7 200 13:55 15.12.2019
6199 Clouds 21 1023 42 10000 6.7 200 13:36 15.12.2019
6200 Clouds 21 1023 42 10000 6.7 200 13:18 15.12.2019
6201 Clouds 20 1023 48 10000 5.1 240 12:56 15.12.2019
6202 Clouds 20 1023 48 10000 5.1 240 12:37 15.12.2019
6203 Clouds 20 1023 48 10000 5.1 240 12:19 15.12.2019
6204 Clouds 19 1023 52 10000 3.6 260 11:38 15.12.2019
6205 Clouds 19 1023 52 10000 3.6 260 11:20 15.12.2019
6206 Clouds 20 1023 48 10000 3.1 0 10:58 15.12.2019
6207 Clouds 19 1023 48 10000 3.1 0 10:40 15.12.2019
6208 Clouds 19 1023 48 10000 3.1 0 10:20 15.12.2019
6209 Rain 17 1022 55 6000 3.6 260 09:59 15.12.2019
6210 Rain 18 1022 55 6000 3.6 260 09:38 15.12.2019
6211 Rain 17 1022 55 6000 3.6 260 09:20 15.12.2019
6212 Clouds 17 1022 63 10000 2.6 270 08:55 15.12.2019
6213 Clouds 16 1022 63 10000 2.6 270 08:37 15.12.2019
6214 Clouds 16 1022 63 10000 2.6 270 08:19 15.12.2019
6215 Clouds 16 1022 62 10000 2.6 210 07:53 15.12.2019
6216 Clouds 17 1022 62 10000 2.6 210 07:31 15.12.2019
6217 Clouds 16 1021 54 10000 2.1 270 06:30 15.12.2019
6218 Clouds 15 1020 62 10000 1.5 240 05:50 15.12.2019
6219 Clouds 14 1020 62 10000 1.5 240 05:23 15.12.2019
6220 Clouds 14 1020 58 10000 0.5 0 04:24 15.12.2019
6221 Clouds 15 1019 58 10000 1 0 02:59 15.12.2019
6222 Clouds 15 1019 58 10000 1 0 02:32 15.12.2019
6223 Clouds 15 1019 62 10000 2.1 310 01:42 15.12.2019
6224 Clouds 15 1019 62 10000 2.1 310 01:19 15.12.2019
6225 Clouds 15 1019 58 10000 1.5 0 00:51 15.12.2019
6226 Clouds 15 1019 58 10000 1.5 0 00:33 15.12.2019
6227 Clouds 15 1019 62 10000 1.5 0 23:55 14.12.2019
6228 Clouds 15 1019 62 10000 1.5 0 23:37 14.12.2019
6229 Clouds 15 1019 62 10000 1.5 0 23:18 14.12.2019
6230 Clouds 15 1019 62 10000 1.5 0 23:18 14.12.2019
6231 Clouds 15 1018 71 10000 1.5 0 22:56 14.12.2019
6232 Clouds 15 1018 71 10000 1.5 0 22:37 14.12.2019
6233 Clouds 15 1018 71 10000 1.5 0 22:18 14.12.2019
6234 Clouds 16 1018 63 10000 4.1 210 21:55 14.12.2019
6235 Clouds 16 1018 63 10000 4.1 210 21:36 14.12.2019
6236 Clouds 16 1018 63 10000 4.1 210 21:18 14.12.2019
6237 Clouds 16 1016 67 10000 5.1 230 20:42 14.12.2019
6238 Clouds 16 1016 67 10000 5.1 230 20:20 14.12.2019
6239 Rain 17 1015 67 10000 6.2 220 19:59 14.12.2019
6240 Rain 17 1015 67 10000 6.2 220 19:39 14.12.2019
6241 Rain 17 1015 67 10000 6.2 220 19:21 14.12.2019
6242 Clouds 18 1015 68 10000 5.7 260 18:57 14.12.2019
6243 Clouds 17 1015 68 10000 5.7 260 18:38 14.12.2019
6244 Clouds 18 1015 68 10000 5.7 260 18:20 14.12.2019
6245 Clouds 17 1014 77 10000 6.7 260 17:54 14.12.2019
6246 Clouds 17 1014 77 10000 6.7 260 17:36 14.12.2019
6247 Clouds 17 1014 77 10000 6.7 260 17:18 14.12.2019
6248 Clouds 17 1014 93 10000 5.7 240 16:41 14.12.2019
6249 Clouds 17 1014 93 10000 5.7 240 16:19 14.12.2019
6250 Rain 17 1014 88 4000 7.2 240 15:55 14.12.2019
6251 Rain 17 1014 88 4000 7.2 240 15:36 14.12.2019
6252 Rain 19 1013 72 10000 7.2 250 15:18 14.12.2019
6253 Rain 20 1013 64 10000 10.3 310 14:54 14.12.2019
6254 Rain 21 1013 64 10000 10.3 310 14:36 14.12.2019
6255 Rain 22 1013 64 10000 10.3 310 14:18 14.12.2019
6256 Clouds 23 1013 53 10000 9.3 300 13:42 14.12.2019
6257 Clouds 23 1013 53 10000 9.3 300 13:19 14.12.2019
6258 Clouds 23 1013 53 10000 9.3 300 13:19 14.12.2019
6259 Clouds 23 1013 53 10000 9.8 310 12:57 14.12.2019
6260 Clouds 23 1013 53 10000 9.8 310 12:38 14.12.2019
6261 Clouds 23 1013 53 10000 9.8 310 12:38 14.12.2019
6262 Clouds 23 1013 53 10000 9.8 310 12:20 14.12.2019
6263 Clouds 23 1013 60 10000 9.8 320 11:56 14.12.2019
6264 Clouds 23 1013 60 10000 9.8 320 11:38 14.12.2019
6265 Clouds 23 1013 56 10000 8.7 290 11:19 14.12.2019
6266 Clouds 22 1013 56 10000 8.7 290 10:56 14.12.2019
6267 Clouds 23 1013 56 10000 8.7 290 10:38 14.12.2019
6268 Clouds 23 1013 56 10000 8.7 290 10:19 14.12.2019
6269 Clouds 22 1013 60 10000 7.7 300 09:43 14.12.2019
6270 Clouds 22 1013 60 10000 7.7 300 09:23 14.12.2019
6271 Clouds 21 1013 77 10000 4.6 310 08:59 14.12.2019
6272 Clouds 21 1013 77 10000 4.6 310 08:59 14.12.2019
6273 Clouds 21 1013 77 10000 4.6 310 08:40 14.12.2019
6274 Clouds 20 1013 77 10000 4.6 310 08:19 14.12.2019
6275 Clouds 20 1013 93 10000 4.6 320 07:41 14.12.2019
6276 Clouds 19 1013 93 10000 4.6 320 07:22 14.12.2019
6277 Clouds 20 1012 88 10000 4.6 320 06:55 14.12.2019
6278 Clouds 19 1012 88 10000 4.6 320 06:36 14.12.2019
6279 Clouds 19 1011 93 10000 2.6 300 05:52 14.12.2019
6280 Clouds 19 1012 93 10000 4.1 300 04:34 14.12.2019
6281 Clouds 19 1011 93 10000 3.1 300 02:25 14.12.2019
6282 Clouds 19 1012 93 10000 3.6 240 01:44 14.12.2019
6283 Clouds 19 1012 93 10000 3.6 240 01:44 14.12.2019
6284 Clouds 19 1012 93 10000 3.6 240 01:22 14.12.2019
6285 Clouds 19 1012 88 10000 4.6 220 00:43 14.12.2019
6286 Clouds 19 1012 88 10000 4.6 220 00:24 14.12.2019
6287 Clouds 19 1012 93 10000 2.1 170 23:43 13.12.2019
6288 Clouds 19 1012 93 10000 2.1 170 23:22 13.12.2019
6289 Clouds 19 1013 93 10000 4.6 180 22:59 13.12.2019
6290 Clouds 19 1013 93 10000 4.6 180 22:40 13.12.2019
6291 Clouds 19 1013 93 10000 4.6 180 22:19 13.12.2019
6292 Clouds 19 1013 93 10000 5.7 190 21:55 13.12.2019
6293 Clouds 19 1013 93 10000 5.7 190 21:36 13.12.2019
6294 Clouds 19 1013 93 10000 5.7 190 21:18 13.12.2019
6295 Clouds 20 1012 93 10000 4.6 210 20:40 13.12.2019
6296 Clouds 20 1012 93 10000 4.6 210 20:21 13.12.2019
6297 Clouds 20 1011 82 10000 4.6 190 19:58 13.12.2019
6298 Clouds 20 1011 82 10000 4.6 190 19:40 13.12.2019
6299 Clouds 20 1011 82 10000 4.6 190 19:21 13.12.2019
6300 Clouds 22 1011 73 10000 4.1 190 18:58 13.12.2019
6301 Clouds 22 1011 73 10000 4.1 190 18:40 13.12.2019
6302 Clouds 22 1011 73 10000 4.1 190 18:19 13.12.2019
6303 Clouds 22 1011 73 10000 4.1 190 18:19 13.12.2019
6304 Clouds 22 1010 64 10000 5.1 190 17:42 13.12.2019
6305 Clouds 22 1010 64 10000 5.1 190 17:20 13.12.2019
6306 Clouds 23 1011 57 10000 4.1 180 16:59 13.12.2019
6307 Clouds 23 1011 57 10000 4.1 180 16:39 13.12.2019
6308 Clouds 23 1011 57 10000 4.1 180 16:20 13.12.2019
6309 Clouds 24 1011 57 10000 3.1 0 15:44 13.12.2019
6310 Clouds 24 1011 57 10000 3.1 0 15:23 13.12.2019
6311 Clouds 24 1011 57 10000 3.1 0 15:23 13.12.2019
6312 Clouds 24 1011 57 10000 4.1 320 14:59 13.12.2019
6313 Clouds 24 1011 57 10000 4.1 320 14:41 13.12.2019
6314 Clear 25 1011 57 10000 4.1 320 14:20 13.12.2019
6315 Clear 24 1012 57 10000 5.1 330 13:57 13.12.2019
6316 Clear 25 1012 57 10000 5.1 330 13:38 13.12.2019
6317 Clear 24 1012 57 10000 5.1 330 13:19 13.12.2019
6318 Clear 25 1012 54 10000 5.1 190 12:42 13.12.2019
6319 Clear 25 1012 54 10000 5.1 190 12:20 13.12.2019
6320 Clear 26 1012 51 10000 3.6 320 11:57 13.12.2019
6321 Clear 26 1012 51 10000 3.6 320 11:39 13.12.2019
6322 Clear 26 1012 51 10000 3.6 320 11:21 13.12.2019
6323 Clear 25 1012 54 10000 2.1 0 10:42 13.12.2019
6324 Clear 25 1012 54 10000 2.1 0 10:23 13.12.2019
6325 Clear 24 1013 64 10000 3.1 300 09:56 13.12.2019
6326 Clear 24 1013 64 10000 3.1 300 09:38 13.12.2019
6327 Clear 23 1013 64 10000 3.1 300 09:18 13.12.2019
6328 Clear 23 1013 64 10000 3.1 300 09:18 13.12.2019
6329 Clear 21 1013 77 10000 3.6 300 08:41 13.12.2019
6330 Clear 21 1013 77 10000 3.6 300 08:23 13.12.2019
6331 Clear 20 1013 82 10000 4.6 310 07:46 13.12.2019
6332 Clear 20 1013 82 10000 4.6 310 07:21 13.12.2019
6333 Clear 20 1013 82 10000 4.6 320 06:55 13.12.2019
6334 Clear 20 1013 82 10000 4.6 320 06:29 13.12.2019
6335 Clear 19 1012 82 10000 3.6 200 05:46 13.12.2019
6336 Clear 18 1012 82 10000 3.6 200 05:27 13.12.2019
6337 Clear 18 1011 82 10000 3.6 240 04:35 13.12.2019
6338 Clear 19 1011 82 10000 5.7 220 03:46 13.12.2019
6339 Clear 20 1011 77 10000 4.1 190 02:34 13.12.2019
6340 Clouds 20 1011 77 10000 5.7 240 01:44 13.12.2019
6341 Clouds 20 1012 73 10000 6.2 190 00:56 13.12.2019
6342 Clouds 21 1012 73 10000 6.2 190 00:37 13.12.2019
6343 Clouds 21 1012 64 10000 3.6 210 23:57 12.12.2019
6344 Clouds 21 1012 64 10000 3.6 210 23:39 12.12.2019
6345 Clouds 21 1012 64 10000 3.6 210 23:20 12.12.2019
6346 Clouds 21 1012 64 10000 3.6 170 22:55 12.12.2019
6347 Clouds 21 1012 64 10000 3.6 170 22:37 12.12.2019
6348 Clouds 21 1012 64 10000 3.6 170 22:18 12.12.2019
6349 Clouds 21 1012 73 10000 5.1 250 21:54 12.12.2019
6350 Clouds 21 1012 73 10000 5.1 250 21:36 12.12.2019
6351 Clouds 21 1012 73 10000 5.1 250 21:18 12.12.2019
6352 Clouds 22 1012 64 10000 2.6 0 20:55 12.12.2019
6353 Clouds 22 1012 64 10000 2.6 0 20:37 12.12.2019
6354 Clear 22 1012 64 10000 2.6 0 20:19 12.12.2019
6355 Clear 23 1011 60 10000 4.1 230 19:42 12.12.2019
6356 Clear 23 1011 60 10000 4.1 230 19:22 12.12.2019
6357 Clear 22 1011 69 10000 7.2 240 18:58 12.12.2019
6358 Clear 23 1011 69 10000 7.2 240 18:40 12.12.2019
6359 Clear 24 1011 69 10000 7.2 240 18:20 12.12.2019
6360 Clear 26 1011 57 10000 6.7 240 17:58 12.12.2019
6361 Clear 26 1011 57 10000 6.7 240 17:58 12.12.2019
6362 Clear 26 1011 57 10000 6.7 240 17:39 12.12.2019
6363 Clouds 26 1011 57 10000 6.7 240 17:20 12.12.2019
6364 Clouds 26 1011 57 10000 5.7 230 16:57 12.12.2019
6365 Clouds 26 1011 57 10000 5.7 230 16:39 12.12.2019
6366 Clouds 26 1011 57 10000 5.7 230 16:20 12.12.2019
6367 Clouds 26 1012 54 10000 6.2 240 15:56 12.12.2019
6368 Clouds 26 1012 54 10000 6.2 240 15:56 12.12.2019
6369 Clouds 26 1012 54 10000 6.2 240 15:38 12.12.2019
6370 Clouds 28 1012 54 10000 6.2 240 15:18 12.12.2019
6371 Clouds 27 1012 47 10000 6.7 240 14:38 12.12.2019
6372 Clouds 24 1012 47 10000 6.7 240 14:38 12.12.2019
6373 Clouds 26 1012 47 10000 6.7 240 14:20 12.12.2019
6374 Clouds 26 1012 44 10000 4.6 220 13:58 12.12.2019
6375 Clouds 26 1012 44 10000 4.6 220 13:40 12.12.2019
6376 Clouds 26 1012 44 10000 4.6 220 13:21 12.12.2019
6377 Clouds 26 1013 42 10000 4.1 200 12:59 12.12.2019
6378 Clouds 26 1013 42 10000 4.1 200 12:40 12.12.2019
6379 Clouds 26 1013 42 10000 4.1 200 12:21 12.12.2019
6380 Clouds 26 1014 44 10000 4.6 170 11:57 12.12.2019
6381 Clouds 26 1014 44 10000 4.6 170 11:38 12.12.2019
6382 Clouds 26 1014 44 10000 4.6 170 11:19 12.12.2019
6383 Clouds 26 1014 50 10000 5.1 160 10:56 12.12.2019
6384 Clouds 26 1014 50 10000 5.1 160 10:38 12.12.2019
6385 Clouds 26 1014 50 10000 5.1 160 10:20 12.12.2019
6386 Clouds 25 1014 54 10000 1.5 0 09:55 12.12.2019
6387 Clouds 25 1014 54 10000 1.5 0 09:37 12.12.2019
6388 Clouds 23 1014 60 10000 1.5 0 09:19 12.12.2019
6389 Clouds 22 1015 68 10000 2.1 240 08:43 12.12.2019
6390 Clear 22 1015 68 10000 2.1 240 08:25 12.12.2019
6391 Clear 21 1014 77 10000 2.6 300 07:49 12.12.2019
6392 Clear 21 1014 77 10000 2.6 300 07:27 12.12.2019
6393 Clear 21 1014 72 10000 1.5 0 06:56 12.12.2019
6394 Clear 20 1014 72 10000 1.5 0 06:35 12.12.2019
6395 Clear 18 1013 93 10000 0.5 0 05:42 12.12.2019
6396 Clear 18 1013 88 10000 1 240 04:55 12.12.2019
6397 Clear 18 1013 88 10000 1 240 04:23 12.12.2019
6398 Clear 18 1012 88 10000 2.1 290 02:40 12.12.2019
6399 Clouds 18 1012 88 10000 2.1 290 02:22 12.12.2019
6400 Clouds 18 1013 93 10000 1 200 01:54 12.12.2019
6401 Clouds 18 1013 93 10000 1 200 01:32 12.12.2019
6402 Clouds 19 1013 88 10000 1 0 00:47 12.12.2019
6403 Clouds 19 1013 88 10000 1 0 00:21 12.12.2019
6404 Clouds 20 1013 82 10000 3.6 250 23:45 11.12.2019
6405 Clouds 20 1013 82 10000 3.6 250 23:21 11.12.2019
6406 Clouds 20 1013 88 10000 5.1 240 22:59 11.12.2019
6407 Clouds 20 1013 88 10000 5.1 240 22:39 11.12.2019
6408 Clouds 20 1013 88 10000 5.1 240 22:20 11.12.2019
6409 Clouds 20 1013 88 10000 5.7 240 21:59 11.12.2019
6410 Clouds 20 1013 88 10000 5.7 240 21:39 11.12.2019
6411 Clouds 20 1013 88 10000 5.7 240 21:20 11.12.2019
6412 Clouds 20 1013 82 10000 6.7 240 20:57 11.12.2019
6413 Clouds 20 1013 82 10000 6.7 240 20:39 11.12.2019
6414 Clouds 20 1013 82 10000 6.7 240 20:19 11.12.2019
6415 Clouds 20 1012 82 10000 6.2 230 19:58 11.12.2019
6416 Clouds 20 1012 82 10000 6.2 230 19:40 11.12.2019
6417 Clouds 20 1012 82 10000 6.2 230 19:20 11.12.2019
6418 Clouds 21 1012 77 10000 6.2 220 18:57 11.12.2019
6419 Clouds 21 1012 77 10000 6.2 220 18:38 11.12.2019
6420 Clouds 22 1012 77 10000 6.2 220 18:18 11.12.2019
6421 Clouds 22 1012 73 10000 7.2 210 17:55 11.12.2019
6422 Clouds 22 1012 73 10000 7.2 210 17:36 11.12.2019
6423 Clouds 22 1012 73 10000 7.2 210 17:18 11.12.2019
6424 Clouds 22 1012 69 10000 7.7 200 16:55 11.12.2019
6425 Clouds 22 1012 69 10000 7.7 200 16:55 11.12.2019
6426 Clouds 22 1012 69 10000 7.7 200 16:36 11.12.2019
6427 Clouds 22 1012 69 10000 7.7 200 16:18 11.12.2019
6428 Clouds 22 1012 69 10000 7.7 200 16:18 11.12.2019
6429 Clouds 24 1013 64 10000 7.2 190 15:54 11.12.2019
6430 Clouds 24 1013 64 10000 7.2 190 15:36 11.12.2019
6431 Clouds 24 1013 64 10000 7.2 190 15:18 11.12.2019
6432 Clouds 23 1013 69 10000 6.7 190 14:54 11.12.2019
6433 Clouds 23 1014 60 10000 6.7 180 14:36 11.12.2019
6434 Clouds 24 1014 60 10000 6.7 180 14:18 11.12.2019
6435 Clouds 24 1014 60 10000 6.7 180 13:41 11.12.2019
6436 Clouds 24 1014 60 10000 6.7 180 13:21 11.12.2019
6437 Clouds 24 1015 57 10000 4.6 190 12:57 11.12.2019
6438 Clouds 24 1015 57 10000 4.6 190 12:38 11.12.2019
6439 Clouds 24 1015 57 10000 4.6 190 12:38 11.12.2019
6440 Clouds 24 1015 57 10000 4.6 190 12:20 11.12.2019
6441 Clouds 24 1015 64 10000 4.6 180 11:58 11.12.2019
6442 Clouds 24 1015 64 10000 4.6 180 11:38 11.12.2019
6443 Clouds 24 1015 64 10000 4.6 180 11:18 11.12.2019
6444 Clouds 23 1014 64 10000 2.6 0 10:57 11.12.2019
6445 Clouds 23 1014 64 10000 2.6 0 10:38 11.12.2019
6446 Clouds 22 1014 64 10000 2.6 0 10:19 11.12.2019
6447 Clouds 21 1014 68 10000 3.1 290 09:43 11.12.2019
6448 Clouds 21 1014 68 10000 3.1 290 09:21 11.12.2019
6449 Clouds 21 1014 72 10000 3.6 300 08:58 11.12.2019
6450 Clouds 21 1014 72 10000 3.6 300 08:58 11.12.2019
6451 Clouds 20 1014 72 10000 3.6 300 08:39 11.12.2019
6452 Clouds 20 1014 72 10000 3.6 300 08:20 11.12.2019
6453 Clouds 20 1014 72 10000 3.6 300 08:20 11.12.2019
6454 Clouds 19 1014 88 10000 2.6 340 07:58 11.12.2019
6455 Clouds 19 1014 88 10000 2.6 340 07:39 11.12.2019
6456 Clouds 19 1014 88 10000 2.6 340 07:21 11.12.2019
6457 Clouds 17 1013 93 8000 2.1 270 06:44 11.12.2019
6458 Clouds 17 1013 93 8000 2.1 270 06:23 11.12.2019
6459 Mist 16 1012 93 3000 2.6 340 05:46 11.12.2019
6460 Mist 16 1012 93 3000 2.6 340 05:27 11.12.2019
6461 Mist 15 1013 93 2000 4.6 330 04:41 11.12.2019
6462 Clouds 17 1012 82 10000 4.1 300 02:49 11.12.2019
6463 Clear 18 1012 77 10000 1.5 0 01:26 11.12.2019
6464 Clear 18 1012 72 10000 4.1 200 00:56 11.12.2019
6465 Clear 19 1012 72 10000 5.7 180 00:25 11.12.2019
6466 Clear 19 1012 72 10000 5.7 180 00:25 11.12.2019
6467 Clear 19 1012 72 10000 5.7 180 23:59 10.12.2019
6468 Clear 20 1012 72 10000 5.7 180 23:40 10.12.2019
6469 Clear 20 1012 72 10000 5.7 180 23:21 10.12.2019
6470 Clear 20 1011 72 10000 3.6 250 22:41 10.12.2019
6471 Clear 20 1011 72 10000 3.6 250 22:22 10.12.2019
6472 Clear 21 1011 68 10000 3.6 250 21:58 10.12.2019
6473 Clear 21 1011 68 10000 3.6 250 21:39 10.12.2019
6474 Clear 21 1011 68 10000 3.6 250 21:21 10.12.2019
6475 Clear 21 1011 64 10000 5.7 230 20:58 10.12.2019
6476 Clear 21 1011 64 10000 5.7 230 20:38 10.12.2019
6477 Clear 21 1011 64 10000 5.7 230 20:19 10.12.2019
6478 Clear 21 1011 64 10000 5.7 230 20:19 10.12.2019
6479 Clear 21 1011 64 10000 5.7 230 20:19 10.12.2019
6480 Clear 21 1011 64 10000 5.7 230 20:19 10.12.2019
6481 Clear 22 1010 60 10000 5.7 210 19:56 10.12.2019
6482 Clear 22 1010 60 10000 5.7 210 19:38 10.12.2019
6483 Clear 22 1010 60 10000 5.7 210 19:20 10.12.2019
6484 Clear 22 1009 64 10000 7.2 230 18:55 10.12.2019
6485 Clear 21 1009 64 10000 7.2 230 18:36 10.12.2019
6486 Clear 23 1009 64 10000 7.2 230 18:18 10.12.2019
6487 Clear 24 1009 53 10000 6.2 230 17:41 10.12.2019
6488 Clear 24 1009 53 10000 6.2 230 17:22 10.12.2019
6489 Clouds 25 1009 50 10000 7.7 230 16:58 10.12.2019
6490 Clouds 25 1009 50 10000 7.7 230 16:39 10.12.2019
6491 Clouds 25 1009 50 10000 7.7 230 16:19 10.12.2019
6492 Clouds 29 1009 42 10000 4.6 210 15:39 10.12.2019
6493 Clouds 30 1009 42 10000 4.6 210 15:18 10.12.2019
6494 Clouds 27 1010 47 10000 6.7 210 14:56 10.12.2019
6495 Clouds 27 1010 47 10000 6.7 210 14:38 10.12.2019
6496 Clouds 27 1010 47 10000 6.7 210 14:38 10.12.2019
6497 Clouds 25 1010 47 10000 6.7 210 14:20 10.12.2019
6498 Clouds 25 1011 44 10000 5.7 210 13:58 10.12.2019
6499 Clouds 25 1011 44 10000 5.7 210 13:40 10.12.2019
6500 Clouds 25 1011 44 10000 5.7 210 13:20 10.12.2019
6501 Clouds 25 1011 44 10000 5.7 210 13:20 10.12.2019
6502 Clouds 24 1012 50 10000 3.6 210 12:49 10.12.2019
6503 Clouds 24 1012 50 10000 3.6 210 12:28 10.12.2019
6504 Clouds 24 1012 47 10000 4.1 200 11:58 10.12.2019
6505 Clouds 25 1012 47 10000 4.1 200 11:40 10.12.2019
6506 Clouds 24 1012 47 10000 4.1 200 11:21 10.12.2019
6507 Clouds 24 1012 53 10000 1.5 0 10:43 10.12.2019
6508 Clouds 25 1012 53 10000 1.5 0 10:24 10.12.2019
6509 Clouds 23 1012 60 10000 2.6 270 09:57 10.12.2019
6510 Clouds 23 1012 60 10000 2.6 270 09:57 10.12.2019
6511 Clouds 23 1012 60 10000 2.6 270 09:39 10.12.2019
6512 Clouds 23 1012 60 10000 2.6 270 09:20 10.12.2019
6513 Clouds 23 1012 56 10000 3.6 310 08:58 10.12.2019
6514 Clouds 24 1012 56 10000 3.6 310 08:39 10.12.2019
6515 Clouds 22 1012 56 10000 3.6 310 08:20 10.12.2019
6516 Clouds 22 1012 60 10000 3.6 300 07:45 10.12.2019
6517 Clouds 21 1012 60 10000 3.6 300 07:27 10.12.2019
6518 Clouds 21 1011 64 10000 5.1 160 06:56 10.12.2019
6519 Clouds 21 1011 64 10000 5.1 160 06:38 10.12.2019
6520 Clouds 20 1011 64 10000 5.1 160 06:19 10.12.2019
6521 Clouds 19 1011 72 10000 4.1 130 05:51 10.12.2019
6522 Clouds 18 1009 72 10000 4.6 170 04:23 10.12.2019
6523 Clouds 18 1009 72 10000 4.6 170 03:25 10.12.2019
6524 Clouds 19 1010 63 10000 1.5 0 01:57 10.12.2019
6525 Clouds 19 1010 63 10000 1.5 0 01:38 10.12.2019
6526 Clouds 19 1010 63 10000 1.5 190 01:18 10.12.2019
6527 Clouds 19 1011 63 10000 4.1 160 00:29 10.12.2019
6528 Clouds 20 1011 63 10000 4.1 160 23:59 09.12.2019
6529 Clouds 20 1011 63 10000 4.1 160 23:59 09.12.2019
6530 Clouds 20 1011 63 10000 4.1 160 23:39 09.12.2019
6531 Clear 20 1011 63 10000 4.1 160 23:21 09.12.2019
6532 Clear 21 1017 69 0 2.24 224 22:57 09.12.2019
6533 Clear 21 1011 53 10000 2.1 260 22:38 09.12.2019
6534 Clear 22 1011 53 10000 2.1 260 22:18 09.12.2019
6535 Clear 22 1011 53 10000 2.1 260 22:18 09.12.2019
6536 Clear 22 1011 53 10000 2.1 260 21:56 09.12.2019
6537 Clear 22 1011 53 10000 2.1 260 21:38 09.12.2019
6538 Clear 22 1011 53 10000 2.1 260 21:18 09.12.2019
6539 Clear 22 1010 53 10000 5.7 140 20:55 09.12.2019
6540 Clear 22 1010 53 10000 5.7 140 20:37 09.12.2019
6541 Clear 23 1010 53 10000 5.7 140 20:19 09.12.2019
6542 Clear 23 1010 49 10000 7.7 140 19:55 09.12.2019
6543 Clear 23 1010 49 10000 7.7 140 19:55 09.12.2019
6544 Clear 23 1010 49 10000 7.7 140 19:37 09.12.2019
6545 Clear 23 1010 49 10000 7.7 140 19:18 09.12.2019
6546 Clear 24 1008 41 10000 8.2 140 18:55 09.12.2019
6547 Clear 25 1008 41 10000 8.2 140 18:36 09.12.2019
6548 Clear 25 1008 41 10000 8.2 140 18:18 09.12.2019
6549 Clear 25 1008 41 10000 8.2 140 18:18 09.12.2019
6550 Clear 28 1008 35 10000 6.7 180 17:56 09.12.2019
6551 Clear 29 1008 35 10000 6.7 180 17:37 09.12.2019
6552 Clear 28 1008 35 10000 6.7 180 17:19 09.12.2019
6553 Clouds 27 1009 44 10000 8.2 220 16:54 09.12.2019
6554 Clouds 27 1009 44 10000 8.2 220 16:36 09.12.2019
6555 Clouds 28 1009 44 10000 8.2 220 16:18 09.12.2019
6556 Clouds 28 1009 37 10000 6.7 220 15:55 09.12.2019
6557 Clouds 30 1009 37 10000 6.7 220 15:36 09.12.2019
6558 Clouds 30 1009 37 10000 6.7 220 15:36 09.12.2019
6559 Clouds 30 1009 37 10000 6.7 220 15:18 09.12.2019
6560 Clouds 30 1010 37 10000 6.7 220 14:42 09.12.2019
6561 Clouds 28 1010 37 10000 6.7 220 14:19 09.12.2019
6562 Clouds 28 1011 37 10000 6.2 190 13:57 09.12.2019
6563 Clouds 28 1011 37 10000 6.2 190 13:38 09.12.2019
6564 Clouds 28 1011 37 10000 6.2 190 13:19 09.12.2019
6565 Clouds 28 1011 39 10000 6.7 190 12:56 09.12.2019
6566 Clouds 28 1011 39 10000 6.7 190 12:56 09.12.2019
6567 Clouds 28 1011 39 10000 6.7 190 12:37 09.12.2019
6568 Clouds 28 1011 39 10000 6.7 190 12:19 09.12.2019
6569 Clouds 27 1020 42 10000 8.7 190 11:56 09.12.2019
6570 Clouds 28 1020 42 10000 8.7 190 11:37 09.12.2019
6571 Clouds 28 1020 42 10000 8.7 190 11:18 09.12.2019
6572 Clear 27 1011 41 10000 2.6 0 10:41 09.12.2019
6573 Clear 27 1011 41 10000 2.6 0 10:41 09.12.2019
6574 Clear 27 1011 41 10000 2.6 0 10:20 09.12.2019
6575 Clear 26 1011 44 10000 1.5 0 09:59 09.12.2019
6576 Clear 26 1011 44 10000 1.5 0 09:41 09.12.2019
6577 Clear 26 1011 44 10000 1.5 0 09:41 09.12.2019
6578 Clear 26 1011 44 10000 1.5 0 09:21 09.12.2019
6579 Clear 25 1012 47 10000 1.5 0 08:54 09.12.2019
6580 Clear 24 1012 47 10000 1.5 0 08:36 09.12.2019
6581 Clear 24 1012 47 10000 1.5 0 08:18 09.12.2019
6582 Clouds 21 1011 60 10000 2.6 130 07:42 09.12.2019
6583 Clouds 20 1011 60 10000 2.6 130 07:23 09.12.2019
6584 Clouds 21 1011 68 10000 4.1 130 06:47 09.12.2019
6585 Clouds 20 1011 68 10000 4.1 130 06:25 09.12.2019
6586 Clouds 18 1011 77 10000 4.1 190 05:29 09.12.2019
6587 Clear 18 1011 72 10000 2.6 220 04:46 09.12.2019
6588 Clear 18 1010 68 10000 3.1 200 03:21 09.12.2019
6589 Clear 18 1010 68 10000 4.1 230 02:24 09.12.2019
6590 Clouds 18 1010 68 10000 3.1 200 01:42 09.12.2019
6591 Clouds 18 1011 72 10000 3.1 150 00:51 09.12.2019
6592 Clouds 18 1011 72 10000 3.1 150 00:31 09.12.2019
6593 Clouds 19 1011 68 10000 4.1 140 23:43 08.12.2019
6594 Clouds 19 1011 68 10000 4.1 140 23:24 08.12.2019
6595 Clouds 19 1011 68 10000 4.1 140 23:24 08.12.2019
6596 Clouds 19 1011 63 10000 4.1 140 22:58 08.12.2019
6597 Clouds 19 1011 63 10000 4.1 140 22:39 08.12.2019
6598 Clouds 19 1011 63 10000 4.1 140 22:20 08.12.2019
6599 Clouds 20 1010 63 10000 6.7 140 21:58 08.12.2019
6600 Clouds 20 1010 63 10000 6.7 140 21:40 08.12.2019
6601 Clouds 20 1010 63 10000 6.7 140 21:40 08.12.2019
6602 Clouds 20 1010 63 10000 6.7 140 21:22 08.12.2019
6603 Clouds 20 1010 60 10000 8.2 150 20:57 08.12.2019
6604 Clouds 20 1010 60 10000 8.2 150 20:39 08.12.2019
6605 Clouds 20 1010 60 10000 8.2 150 20:21 08.12.2019
6606 Clouds 21 1010 56 10000 7.7 150 19:59 08.12.2019
6607 Clouds 21 1010 56 10000 7.7 150 19:41 08.12.2019
6608 Clouds 21 1010 56 10000 7.7 150 19:23 08.12.2019
6609 Clouds 21 1010 56 10000 7.7 150 19:23 08.12.2019
6610 Clouds 22 1010 53 10000 8.7 140 18:56 08.12.2019
6611 Clouds 22 1010 53 10000 8.7 140 18:37 08.12.2019
6612 Clouds 22 1010 53 10000 8.7 140 18:19 08.12.2019
6613 Clouds 23 1009 50 10000 10.3 150 17:57 08.12.2019
6614 Clouds 23 1009 50 10000 10.3 150 17:39 08.12.2019
6615 Clouds 23 1009 50 10000 10.3 150 17:20 08.12.2019
6616 Clouds 24 1009 47 10000 10.8 150 16:57 08.12.2019
6617 Clouds 24 1009 47 10000 10.8 150 16:39 08.12.2019
6618 Clouds 24 1009 47 10000 10.8 150 16:21 08.12.2019
6619 Clouds 25 1009 42 10000 9.3 150 15:57 08.12.2019
6620 Clouds 25 1009 42 10000 9.3 150 15:37 08.12.2019
6621 Clouds 27 1009 42 10000 9.3 150 15:18 08.12.2019
6622 Clouds 28 1009 37 10000 9.8 150 14:44 08.12.2019
6623 Clouds 26 1009 37 10000 9.8 150 14:25 08.12.2019
6624 Clouds 27 1009 37 10000 9.3 150 13:59 08.12.2019
6625 Clouds 27 1009 37 10000 9.3 150 13:40 08.12.2019
6626 Clouds 27 1009 39 10000 10.3 150 13:22 08.12.2019
6627 Clouds 27 1009 37 10000 7.7 150 12:58 08.12.2019
6628 Clouds 27 1009 37 10000 7.7 150 12:39 08.12.2019
6629 Clouds 28 1009 37 10000 7.7 150 12:19 08.12.2019
6630 Clouds 27 1010 39 10000 6.7 190 11:57 08.12.2019
6631 Clouds 27 1010 39 10000 6.7 190 11:37 08.12.2019
6632 Clouds 27 1010 39 10000 6.7 190 11:19 08.12.2019
6633 Clouds 27 1010 39 10000 6.7 190 11:19 08.12.2019
6634 Clouds 27 1010 39 10000 6.7 170 10:55 08.12.2019
6635 Clouds 26 1010 39 10000 6.7 170 10:36 08.12.2019
6636 Clouds 26 1010 39 10000 6.7 170 10:36 08.12.2019
6637 Clouds 26 1010 39 10000 6.7 170 10:18 08.12.2019
6638 Clouds 26 1010 41 10000 4.6 140 09:54 08.12.2019
6639 Clouds 24 1010 41 10000 4.6 140 09:36 08.12.2019
6640 Clouds 24 1010 41 10000 4.6 140 09:18 08.12.2019
6641 Clouds 23 1011 50 10000 7.7 130 08:41 08.12.2019
6642 Clouds 23 1011 50 10000 7.7 130 08:23 08.12.2019
6643 Clouds 23 1010 56 10000 7.2 150 07:49 08.12.2019
6644 Clouds 22 1010 56 10000 7.2 150 07:21 08.12.2019
6645 Clear 22 1010 64 10000 2.1 130 06:59 08.12.2019
6646 Clear 21 1010 64 10000 2.1 130 06:39 08.12.2019
6647 Clear 21 1010 64 10000 2.1 130 06:19 08.12.2019
6648 Clouds 18 1010 72 10000 3.6 130 05:23 08.12.2019
6649 Clear 19 1010 68 10000 5.7 150 04:23 08.12.2019
6650 Clear 19 1010 68 10000 5.1 150 03:38 08.12.2019
6651 Clear 19 1010 72 10000 7.2 150 02:41 08.12.2019
6652 Clouds 19 1010 72 10000 7.2 150 02:20